<?xml version='1.0' encoding='UTF-8'?><gpx version="1.1" creator="JPX - https://github.com/jenetics/jpx" xmlns="http://www.topografix.com/GPX/1/1"><trk><trkseg><trkpt lat="44.57614144069841" lon="11.81648222381034"><ele>3.9999999999999996</ele><time>2026-04-12T13:25:33Z</time></trkpt><trkpt lat="44.57611264420478" lon="11.816376755880087"><ele>4.0</ele><time>2026-04-12T13:25:37Z</time></trkpt><trkpt lat="44.57610549200085" lon="11.816265156355307"><ele>4.0</ele><time>2026-04-12T13:25:40Z</time></trkpt><trkpt lat="44.576093702498135" lon="11.816155543469556"><ele>4.0</ele><time>2026-04-12T13:25:43Z</time></trkpt><trkpt lat="44.5760832387429" lon="11.816030159932392"><ele>3.9999999999999996</ele><time>2026-04-12T13:25:46Z</time></trkpt><trkpt lat="44.57606444180442" lon="11.815901242277612"><ele>4.0</ele><time>2026-04-12T13:25:48Z</time></trkpt><trkpt lat="44.576058996149214" lon="11.81580362856716"><ele>4.0</ele><time>2026-04-12T13:25:49Z</time></trkpt><trkpt lat="44.5760481630581" lon="11.81568576688592"><ele>4.0</ele><time>2026-04-12T13:25:50Z</time></trkpt><trkpt lat="44.57602767607746" lon="11.81551892077221"><ele>4.0</ele><time>2026-04-12T13:25:51Z</time></trkpt><trkpt lat="44.57600685425412" lon="11.815370913704918"><ele>4.0</ele><time>2026-04-12T13:25:52Z</time></trkpt><trkpt lat="44.575994216302306" lon="11.815191444961773"><ele>4.0</ele><time>2026-04-12T13:25:53Z</time></trkpt><trkpt lat="44.57598305380002" lon="11.815031421082066"><ele>4.0</ele><time>2026-04-12T13:25:54Z</time></trkpt><trkpt lat="44.5759672219304" lon="11.814897654714583"><ele>4.0</ele><time>2026-04-12T13:25:55Z</time></trkpt><trkpt lat="44.57595375236262" lon="11.814776520201555"><ele>4.0</ele><time>2026-04-12T13:25:56Z</time></trkpt><trkpt lat="44.57594553705468" lon="11.814654478117411"><ele>4.0</ele><time>2026-04-12T13:25:57Z</time></trkpt><trkpt lat="44.57593644138257" lon="11.814534534327631"><ele>4.0</ele><time>2026-04-12T13:25:58Z</time></trkpt><trkpt lat="44.57592781763934" lon="11.814401697111409"><ele>3.8000000000000003</ele><time>2026-04-12T13:25:59Z</time></trkpt><trkpt lat="44.57591595442228" lon="11.814256769876403"><ele>3.6000000000000005</ele><time>2026-04-12T13:26:00Z</time></trkpt><trkpt lat="44.57590321136462" lon="11.814112903176516"><ele>3.4</ele><time>2026-04-12T13:26:01Z</time></trkpt><trkpt lat="44.57588959817254" lon="11.813972146018319"><ele>3.2</ele><time>2026-04-12T13:26:02Z</time></trkpt><trkpt lat="44.57587335883377" lon="11.813824960817433"><ele>3.0</ele><time>2026-04-12T13:26:03Z</time></trkpt><trkpt lat="44.57585741323145" lon="11.813679898831513"><ele>3.0</ele><time>2026-04-12T13:26:04Z</time></trkpt><trkpt lat="44.575858719834564" lon="11.813521207065966"><ele>3.0</ele><time>2026-04-12T13:26:05Z</time></trkpt><trkpt lat="44.575843262778655" lon="11.813358399115934"><ele>3.0</ele><time>2026-04-12T13:26:06Z</time></trkpt><trkpt lat="44.575827713312066" lon="11.813195393694274"><ele>3.0</ele><time>2026-04-12T13:26:07Z</time></trkpt><trkpt lat="44.57581137431081" lon="11.813024419015909"><ele>3.0</ele><time>2026-04-12T13:26:08Z</time></trkpt><trkpt lat="44.575794338932084" lon="11.812846157758816"><ele>3.0</ele><time>2026-04-12T13:26:09Z</time></trkpt><trkpt lat="44.57577645572282" lon="11.812659024086615"><ele>3.0</ele><time>2026-04-12T13:26:10Z</time></trkpt><trkpt lat="44.57575259210946" lon="11.812471183194734"><ele>3.0</ele><time>2026-04-12T13:26:11Z</time></trkpt><trkpt lat="44.57572622374851" lon="11.812275952791321"><ele>3.0</ele><time>2026-04-12T13:26:12Z</time></trkpt><trkpt lat="44.57571028952479" lon="11.812059347960426"><ele>3.0</ele><time>2026-04-12T13:26:13Z</time></trkpt><trkpt lat="44.57568561983717" lon="11.81183243150812"><ele>3.0</ele><time>2026-04-12T13:26:14Z</time></trkpt><trkpt lat="44.575666753373994" lon="11.8116207096717"><ele>3.0</ele><time>2026-04-12T13:26:15Z</time></trkpt><trkpt lat="44.57564563458271" lon="11.811416846248353"><ele>3.0</ele><time>2026-04-12T13:26:16Z</time></trkpt><trkpt lat="44.57562780387743" lon="11.811212731912041"><ele>3.0</ele><time>2026-04-12T13:26:17Z</time></trkpt><trkpt lat="44.575609800718354" lon="11.811002558400268"><ele>3.0</ele><time>2026-04-12T13:26:18Z</time></trkpt><trkpt lat="44.57559145040693" lon="11.810799833543856"><ele>3.333333333333333</ele><time>2026-04-12T13:26:18.995Z</time></trkpt><trkpt lat="44.57557105717736" lon="11.810591672635763"><ele>3.6666666666666665</ele><time>2026-04-12T13:26:19.995Z</time></trkpt><trkpt lat="44.57554934899743" lon="11.81038297903117"><ele>4.0</ele><time>2026-04-12T13:26:20.995Z</time></trkpt><trkpt lat="44.575524752786706" lon="11.810171521693759"><ele>4.333333333333333</ele><time>2026-04-12T13:26:21.995Z</time></trkpt><trkpt lat="44.57551965443624" lon="11.809957649630883"><ele>4.666666666666667</ele><time>2026-04-12T13:26:22.995Z</time></trkpt><trkpt lat="44.575483913088426" lon="11.809748422237574"><ele>5.0</ele><time>2026-04-12T13:26:23.995Z</time></trkpt><trkpt lat="44.57546619760031" lon="11.809532597626967"><ele>5.0</ele><time>2026-04-12T13:26:24.995Z</time></trkpt><trkpt lat="44.57545764873019" lon="11.809309535874474"><ele>5.0</ele><time>2026-04-12T13:26:25.995Z</time></trkpt><trkpt lat="44.575421573148894" lon="11.809087529935114"><ele>5.0</ele><time>2026-04-12T13:26:26.995Z</time></trkpt><trkpt lat="44.57540415011691" lon="11.808863104453511"><ele>5.0</ele><time>2026-04-12T13:26:27.996Z</time></trkpt><trkpt lat="44.57538368503729" lon="11.80863542708689"><ele>5.0</ele><time>2026-04-12T13:26:28.996Z</time></trkpt><trkpt lat="44.575362115546" lon="11.808406433509644"><ele>5.0</ele><time>2026-04-12T13:26:29.996Z</time></trkpt><trkpt lat="44.575339627015424" lon="11.808177442475733"><ele>5.0</ele><time>2026-04-12T13:26:30.996Z</time></trkpt><trkpt lat="44.57531465595007" lon="11.80795229610074"><ele>5.0</ele><time>2026-04-12T13:26:31.996Z</time></trkpt><trkpt lat="44.57529610781075" lon="11.807718662906442"><ele>5.0</ele><time>2026-04-12T13:26:32.996Z</time></trkpt><trkpt lat="44.5752723576788" lon="11.80749323240144"><ele>5.0</ele><time>2026-04-12T13:26:33.996Z</time></trkpt><trkpt lat="44.5752508910774" lon="11.807262590027857"><ele>5.0</ele><time>2026-04-12T13:26:34.996Z</time></trkpt><trkpt lat="44.57522979674103" lon="11.807031814569397"><ele>5.0</ele><time>2026-04-12T13:26:35.997Z</time></trkpt><trkpt lat="44.57520764335925" lon="11.806796168577137"><ele>5.0</ele><time>2026-04-12T13:26:36.997Z</time></trkpt><trkpt lat="44.57519983454487" lon="11.806557386903437"><ele>5.0</ele><time>2026-04-12T13:26:37.997Z</time></trkpt><trkpt lat="44.575177453729715" lon="11.806323270287795"><ele>5.0</ele><time>2026-04-12T13:26:38.997Z</time></trkpt><trkpt lat="44.5751392424916" lon="11.806096975868861"><ele>5.0</ele><time>2026-04-12T13:26:39.997Z</time></trkpt><trkpt lat="44.57512126611329" lon="11.805863463146618"><ele>5.0</ele><time>2026-04-12T13:26:40.997Z</time></trkpt><trkpt lat="44.575097145004776" lon="11.805628313841801"><ele>5.0</ele><time>2026-04-12T13:26:41.997Z</time></trkpt><trkpt lat="44.57507290216952" lon="11.80539650238632"><ele>5.0</ele><time>2026-04-12T13:26:42.997Z</time></trkpt><trkpt lat="44.57505010934797" lon="11.80516060596922"><ele>5.0</ele><time>2026-04-12T13:26:43.997Z</time></trkpt><trkpt lat="44.57502999677829" lon="11.80493767137445"><ele>5.0</ele><time>2026-04-12T13:26:44.997Z</time></trkpt><trkpt lat="44.575008836826335" lon="11.804710990294407"><ele>5.0</ele><time>2026-04-12T13:26:45.998Z</time></trkpt><trkpt lat="44.57498453262387" lon="11.804485521624967"><ele>5.0</ele><time>2026-04-12T13:26:46.998Z</time></trkpt><trkpt lat="44.574962577560036" lon="11.804260887220712"><ele>5.0</ele><time>2026-04-12T13:26:47.998Z</time></trkpt><trkpt lat="44.574957532103035" lon="11.804031854752663"><ele>5.0</ele><time>2026-04-12T13:26:48.998Z</time></trkpt><trkpt lat="44.57493615945982" lon="11.80380624625056"><ele>5.0</ele><time>2026-04-12T13:26:49.998Z</time></trkpt><trkpt lat="44.57491514899071" lon="11.803584460221506"><ele>5.0</ele><time>2026-04-12T13:26:50.998Z</time></trkpt><trkpt lat="44.57489436920455" lon="11.80336510985206"><ele>5.0</ele><time>2026-04-12T13:26:51.998Z</time></trkpt><trkpt lat="44.574873107363366" lon="11.803140670850969"><ele>5.0</ele><time>2026-04-12T13:26:52.998Z</time></trkpt><trkpt lat="44.57485182296617" lon="11.80291599384218"><ele>5.0</ele><time>2026-04-12T13:26:53.998Z</time></trkpt><trkpt lat="44.57481549862765" lon="11.802692431415917"><ele>5.0</ele><time>2026-04-12T13:26:54.998Z</time></trkpt><trkpt lat="44.574794494761804" lon="11.802473515946218"><ele>5.0</ele><time>2026-04-12T13:26:55.998Z</time></trkpt><trkpt lat="44.57477439174895" lon="11.802252113849024"><ele>5.0</ele><time>2026-04-12T13:26:56.998Z</time></trkpt><trkpt lat="44.57475422897521" lon="11.802034785622139"><ele>5.0</ele><time>2026-04-12T13:26:57.998Z</time></trkpt><trkpt lat="44.57473383322821" lon="11.801812321597371"><ele>5.0</ele><time>2026-04-12T13:26:58.998Z</time></trkpt><trkpt lat="44.57471488171844" lon="11.801593555616869"><ele>5.0</ele><time>2026-04-12T13:26:59.998Z</time></trkpt><trkpt lat="44.57469635107077" lon="11.801368942351665"><ele>5.0</ele><time>2026-04-12T13:27:00.998Z</time></trkpt><trkpt lat="44.5746707388139" lon="11.80114754304685"><ele>5.0</ele><time>2026-04-12T13:27:01.998Z</time></trkpt><trkpt lat="44.57464891010515" lon="11.80093195314401"><ele>5.0</ele><time>2026-04-12T13:27:02.999Z</time></trkpt><trkpt lat="44.57463036458948" lon="11.800711472382432"><ele>4.666666666666667</ele><time>2026-04-12T13:27:03.999Z</time></trkpt><trkpt lat="44.57460879371331" lon="11.80048779919157"><ele>4.333333333333333</ele><time>2026-04-12T13:27:04.999Z</time></trkpt><trkpt lat="44.57458663052963" lon="11.800267489479515"><ele>4.0</ele><time>2026-04-12T13:27:05.999Z</time></trkpt><trkpt lat="44.57456526512134" lon="11.800044786597615"><ele>4.0</ele><time>2026-04-12T13:27:06.999Z</time></trkpt><trkpt lat="44.57454565446198" lon="11.799822680703867"><ele>4.0</ele><time>2026-04-12T13:27:07.999Z</time></trkpt><trkpt lat="44.574522270375056" lon="11.799600378886586"><ele>4.0</ele><time>2026-04-12T13:27:08.999Z</time></trkpt><trkpt lat="44.57450015664849" lon="11.799376967058564"><ele>4.333333333333333</ele><time>2026-04-12T13:27:09.999Z</time></trkpt><trkpt lat="44.574479305456535" lon="11.799147531444818"><ele>4.666666666666667</ele><time>2026-04-12T13:27:10.999Z</time></trkpt><trkpt lat="44.57445611619964" lon="11.798922829023603"><ele>5.0</ele><time>2026-04-12T13:27:11.999Z</time></trkpt><trkpt lat="44.57444997116206" lon="11.798691758944694"><ele>5.0</ele><time>2026-04-12T13:27:12.999Z</time></trkpt><trkpt lat="44.57442835666371" lon="11.798467961526162"><ele>5.0</ele><time>2026-04-12T13:27:13.999Z</time></trkpt><trkpt lat="44.57439311720544" lon="11.798253476052437"><ele>5.0</ele><time>2026-04-12T13:27:14.999Z</time></trkpt><trkpt lat="44.57437697419099" lon="11.79806062004117"><ele>5.0</ele><time>2026-04-12T13:27:15.999Z</time></trkpt><trkpt lat="44.574363029199255" lon="11.797879133132295"><ele>5.0</ele><time>2026-04-12T13:27:16.999Z</time></trkpt><trkpt lat="44.57435102594162" lon="11.797710798462187"><ele>5.0</ele><time>2026-04-12T13:27:17.999Z</time></trkpt><trkpt lat="44.5743353577888" lon="11.797553780446291"><ele>5.0</ele><time>2026-04-12T13:27:18.999Z</time></trkpt><trkpt lat="44.57431990411148" lon="11.79741118770847"><ele>5.0</ele><time>2026-04-12T13:27:19.999Z</time></trkpt><trkpt lat="44.57430675356445" lon="11.797272637131716"><ele>5.0</ele><time>2026-04-12T13:27:20.999Z</time></trkpt><trkpt lat="44.57429438823911" lon="11.797128116215456"><ele>5.0</ele><time>2026-04-12T13:27:21.999Z</time></trkpt><trkpt lat="44.57427654935501" lon="11.796986060339504"><ele>5.0</ele><time>2026-04-12T13:27:22.999Z</time></trkpt><trkpt lat="44.574264457111504" lon="11.79684862564403"><ele>5.0</ele><time>2026-04-12T13:27:23.999Z</time></trkpt><trkpt lat="44.57425157894501" lon="11.79670714417803"><ele>5.0</ele><time>2026-04-12T13:27:24.999Z</time></trkpt><trkpt lat="44.57423780324761" lon="11.796568993888728"><ele>5.0</ele><time>2026-04-12T13:27:25.999Z</time></trkpt><trkpt lat="44.57422329281211" lon="11.796428672148258"><ele>5.0</ele><time>2026-04-12T13:27:26.999Z</time></trkpt><trkpt lat="44.57420896249214" lon="11.796281907264861"><ele>5.0</ele><time>2026-04-12T13:27:27.999Z</time></trkpt><trkpt lat="44.57420361223585" lon="11.7961306943216"><ele>5.0</ele><time>2026-04-12T13:27:28.999Z</time></trkpt><trkpt lat="44.57418401062266" lon="11.795981552172968"><ele>5.4</ele><time>2026-04-12T13:27:29.999Z</time></trkpt><trkpt lat="44.57416763976603" lon="11.795831922397841"><ele>5.8</ele><time>2026-04-12T13:27:30.999Z</time></trkpt><trkpt lat="44.57415270241976" lon="11.795687278091924"><ele>6.199999999999999</ele><time>2026-04-12T13:27:31.999Z</time></trkpt><trkpt lat="44.57413768789891" lon="11.795555813422196"><ele>6.6</ele><time>2026-04-12T13:27:32.999Z</time></trkpt><trkpt lat="44.57412942513917" lon="11.795432166494152"><ele>7.0</ele><time>2026-04-12T13:27:33.999Z</time></trkpt><trkpt lat="44.5741176595824" lon="11.795322481667782"><ele>7.000000000000001</ele><time>2026-04-12T13:27:34.999Z</time></trkpt><trkpt lat="44.57411092728011" lon="11.795219714145727"><ele>7.0</ele><time>2026-04-12T13:27:35.999Z</time></trkpt><trkpt lat="44.57410087413257" lon="11.795124367730038"><ele>7.0</ele><time>2026-04-12T13:27:37Z</time></trkpt><trkpt lat="44.57409193403599" lon="11.795031875600683"><ele>7.0</ele><time>2026-04-12T13:27:38Z</time></trkpt><trkpt lat="44.57407692238278" lon="11.794883618437195"><ele>7.000000000000001</ele><time>2026-04-12T13:27:40Z</time></trkpt><trkpt lat="44.574064138310014" lon="11.794750535680437"><ele>7.0</ele><time>2026-04-12T13:27:42Z</time></trkpt><trkpt lat="44.57406266230316" lon="11.794649633903076"><ele>6.8</ele><time>2026-04-12T13:27:45Z</time></trkpt><trkpt lat="44.57405312635017" lon="11.79454488549934"><ele>6.6</ele><time>2026-04-12T13:27:53Z</time></trkpt><trkpt lat="44.57388193399389" lon="11.794578406831654"><ele>6.3999999999999995</ele><time>2026-04-12T13:27:55Z</time></trkpt><trkpt lat="44.57381422960333" lon="11.794595382980226"><ele>6.199999999999999</ele><time>2026-04-12T13:27:56Z</time></trkpt><trkpt lat="44.57373688884163" lon="11.794604746483525"><ele>6.0</ele><time>2026-04-12T13:27:57Z</time></trkpt><trkpt lat="44.57366262745801" lon="11.794615194173044"><ele>6.0</ele><time>2026-04-12T13:27:58Z</time></trkpt><trkpt lat="44.573584558624155" lon="11.79462343693908"><ele>6.0</ele><time>2026-04-12T13:27:59Z</time></trkpt><trkpt lat="44.573502377048065" lon="11.794632086140377"><ele>6.0</ele><time>2026-04-12T13:28:00Z</time></trkpt><trkpt lat="44.57341057154763" lon="11.794643705839661"><ele>6.0</ele><time>2026-04-12T13:28:01Z</time></trkpt><trkpt lat="44.57330850748733" lon="11.794658017152635"><ele>6.0</ele><time>2026-04-12T13:28:02Z</time></trkpt><trkpt lat="44.57321191501054" lon="11.794674195921244"><ele>6.0</ele><time>2026-04-12T13:28:03Z</time></trkpt><trkpt lat="44.57311472401302" lon="11.794691435901926"><ele>6.0</ele><time>2026-04-12T13:28:04Z</time></trkpt><trkpt lat="44.57301810628646" lon="11.79470557534338"><ele>6.0</ele><time>2026-04-12T13:28:05Z</time></trkpt><trkpt lat="44.5729199192289" lon="11.794716313677183"><ele>6.0</ele><time>2026-04-12T13:28:06Z</time></trkpt><trkpt lat="44.57281736555614" lon="11.794723818520886"><ele>6.0</ele><time>2026-04-12T13:28:07Z</time></trkpt><trkpt lat="44.57271773668635" lon="11.794735765218757"><ele>5.8</ele><time>2026-04-12T13:28:08Z</time></trkpt><trkpt lat="44.57261507924706" lon="11.79475258317538"><ele>5.6</ele><time>2026-04-12T13:28:09Z</time></trkpt><trkpt lat="44.57250792225645" lon="11.794750857116467"><ele>5.4</ele><time>2026-04-12T13:28:10Z</time></trkpt><trkpt lat="44.572406509103445" lon="11.794686553395865"><ele>5.2</ele><time>2026-04-12T13:28:11Z</time></trkpt><trkpt lat="44.57230444717837" lon="11.794619961506122"><ele>5.0</ele><time>2026-04-12T13:28:12Z</time></trkpt><trkpt lat="44.57219225344414" lon="11.794578609725448"><ele>5.0</ele><time>2026-04-12T13:28:13Z</time></trkpt><trkpt lat="44.5720893662173" lon="11.794524268970514"><ele>5.0</ele><time>2026-04-12T13:28:14Z</time></trkpt><trkpt lat="44.571981197360216" lon="11.794482987778649"><ele>5.0</ele><time>2026-04-12T13:28:15Z</time></trkpt><trkpt lat="44.571872180860716" lon="11.794451763871534"><ele>5.0</ele><time>2026-04-12T13:28:16Z</time></trkpt><trkpt lat="44.5717668678333" lon="11.794419609220155"><ele>5.0</ele><time>2026-04-12T13:28:17Z</time></trkpt><trkpt lat="44.57165976405185" lon="11.794386358484914"><ele>5.25</ele><time>2026-04-12T13:28:18Z</time></trkpt><trkpt lat="44.57155347521588" lon="11.79435344436026"><ele>5.5</ele><time>2026-04-12T13:28:19Z</time></trkpt><trkpt lat="44.571444335049414" lon="11.794319453978126"><ele>5.75</ele><time>2026-04-12T13:28:20Z</time></trkpt><trkpt lat="44.57132724732939" lon="11.794282215522033"><ele>6.0</ele><time>2026-04-12T13:28:21.001Z</time></trkpt><trkpt lat="44.57119977360975" lon="11.794242457270023"><ele>6.0</ele><time>2026-04-12T13:28:22.001Z</time></trkpt><trkpt lat="44.571060819536896" lon="11.79419579152139"><ele>6.0</ele><time>2026-04-12T13:28:23.001Z</time></trkpt><trkpt lat="44.570916139528485" lon="11.794150412984214"><ele>6.0</ele><time>2026-04-12T13:28:24.001Z</time></trkpt><trkpt lat="44.57077000580332" lon="11.794105029662665"><ele>6.0</ele><time>2026-04-12T13:28:24.999Z</time></trkpt><trkpt lat="44.57061890812841" lon="11.794058675955258"><ele>6.0</ele><time>2026-04-12T13:28:25.999Z</time></trkpt><trkpt lat="44.57045909198828" lon="11.794012727871529"><ele>6.0</ele><time>2026-04-12T13:28:26.999Z</time></trkpt><trkpt lat="44.57029140321106" lon="11.79393878751034"><ele>6.0</ele><time>2026-04-12T13:28:27.999Z</time></trkpt><trkpt lat="44.57011225127022" lon="11.793881191194572"><ele>6.0</ele><time>2026-04-12T13:28:28.999Z</time></trkpt><trkpt lat="44.56993622221287" lon="11.793845787528216"><ele>6.0</ele><time>2026-04-12T13:28:29.999Z</time></trkpt><trkpt lat="44.56977203169185" lon="11.793795274578091"><ele>6.0</ele><time>2026-04-12T13:28:30.999Z</time></trkpt><trkpt lat="44.56960979561452" lon="11.793719654492024"><ele>6.0</ele><time>2026-04-12T13:28:31.999Z</time></trkpt><trkpt lat="44.56944320769491" lon="11.793688878660939"><ele>6.0</ele><time>2026-04-12T13:28:32.999Z</time></trkpt><trkpt lat="44.5692804806415" lon="11.793637182408817"><ele>6.0</ele><time>2026-04-12T13:28:33.999Z</time></trkpt><trkpt lat="44.569122558047916" lon="11.79358470053306"><ele>6.0</ele><time>2026-04-12T13:28:34.999Z</time></trkpt><trkpt lat="44.56896546971931" lon="11.793535980538548"><ele>6.0</ele><time>2026-04-12T13:28:35.999Z</time></trkpt><trkpt lat="44.56882308678315" lon="11.7934667319925"><ele>6.0</ele><time>2026-04-12T13:28:36.999Z</time></trkpt><trkpt lat="44.56867823337155" lon="11.793441028898005"><ele>6.0</ele><time>2026-04-12T13:28:37.999Z</time></trkpt><trkpt lat="44.568544768301905" lon="11.793397061054636"><ele>6.0</ele><time>2026-04-12T13:28:38.999Z</time></trkpt><trkpt lat="44.56840874942312" lon="11.793349362631927"><ele>6.0</ele><time>2026-04-12T13:28:39.999Z</time></trkpt><trkpt lat="44.56826634057169" lon="11.793302647713586"><ele>6.0</ele><time>2026-04-12T13:28:40.999Z</time></trkpt><trkpt lat="44.56812628602834" lon="11.793257745595582"><ele>6.0</ele><time>2026-04-12T13:28:41.999Z</time></trkpt><trkpt lat="44.567982995127544" lon="11.793213629191515"><ele>6.0</ele><time>2026-04-12T13:28:42.999Z</time></trkpt><trkpt lat="44.567839436178204" lon="11.793168723430028"><ele>6.0</ele><time>2026-04-12T13:28:43.999Z</time></trkpt><trkpt lat="44.567698378125634" lon="11.793121690947595"><ele>6.0</ele><time>2026-04-12T13:28:45Z</time></trkpt><trkpt lat="44.56755102830184" lon="11.793073269430304"><ele>6.0</ele><time>2026-04-12T13:28:46Z</time></trkpt><trkpt lat="44.56740470488353" lon="11.793025830075997"><ele>6.0</ele><time>2026-04-12T13:28:47Z</time></trkpt><trkpt lat="44.567257525744076" lon="11.792979824958264"><ele>6.0</ele><time>2026-04-12T13:28:48Z</time></trkpt><trkpt lat="44.567110912422876" lon="11.792932519837946"><ele>6.333333333333334</ele><time>2026-04-12T13:28:49Z</time></trkpt><trkpt lat="44.56696170136746" lon="11.792887379786091"><ele>6.666666666666667</ele><time>2026-04-12T13:28:50Z</time></trkpt><trkpt lat="44.56681245212038" lon="11.79283445212707"><ele>7.0</ele><time>2026-04-12T13:28:51Z</time></trkpt><trkpt lat="44.56666302277394" lon="11.792785967851495"><ele>7.0</ele><time>2026-04-12T13:28:52Z</time></trkpt><trkpt lat="44.56651302283656" lon="11.792736651183246"><ele>7.0</ele><time>2026-04-12T13:28:53Z</time></trkpt><trkpt lat="44.566361780972066" lon="11.792689930242135"><ele>7.0</ele><time>2026-04-12T13:28:54Z</time></trkpt><trkpt lat="44.56620913732829" lon="11.79264230994012"><ele>7.0</ele><time>2026-04-12T13:28:55Z</time></trkpt><trkpt lat="44.56605563306712" lon="11.792592219456589"><ele>7.0</ele><time>2026-04-12T13:28:56Z</time></trkpt><trkpt lat="44.565905992328034" lon="11.792543059329939"><ele>7.0</ele><time>2026-04-12T13:28:57Z</time></trkpt><trkpt lat="44.56575522912994" lon="11.792492836528277"><ele>7.0</ele><time>2026-04-12T13:28:58Z</time></trkpt><trkpt lat="44.56560441837037" lon="11.792445893787683"><ele>7.0</ele><time>2026-04-12T13:28:59Z</time></trkpt><trkpt lat="44.56545029666131" lon="11.792401951685587"><ele>7.0</ele><time>2026-04-12T13:29:00Z</time></trkpt><trkpt lat="44.56530030417201" lon="11.792352407988197"><ele>7.0</ele><time>2026-04-12T13:29:01Z</time></trkpt><trkpt lat="44.56515953555262" lon="11.792304174788399"><ele>7.0</ele><time>2026-04-12T13:29:02Z</time></trkpt><trkpt lat="44.56501919843393" lon="11.7922604213008"><ele>7.0</ele><time>2026-04-12T13:29:03Z</time></trkpt><trkpt lat="44.56487323582318" lon="11.792214630425656"><ele>7.0</ele><time>2026-04-12T13:29:04Z</time></trkpt><trkpt lat="44.56471960685087" lon="11.79216928309904"><ele>7.0</ele><time>2026-04-12T13:29:05Z</time></trkpt><trkpt lat="44.564562942845406" lon="11.792117977607793"><ele>7.0</ele><time>2026-04-12T13:29:06Z</time></trkpt><trkpt lat="44.564407389545686" lon="11.792063998003629"><ele>7.0</ele><time>2026-04-12T13:29:07Z</time></trkpt><trkpt lat="44.56425069489417" lon="11.792009542749353"><ele>7.0</ele><time>2026-04-12T13:29:08Z</time></trkpt><trkpt lat="44.56408704086233" lon="11.791946918693714"><ele>7.0</ele><time>2026-04-12T13:29:09Z</time></trkpt><trkpt lat="44.563929259287335" lon="11.791874513090251"><ele>7.0</ele><time>2026-04-12T13:29:10Z</time></trkpt><trkpt lat="44.563764987748876" lon="11.791790645554013"><ele>6.333333333333334</ele><time>2026-04-12T13:29:11Z</time></trkpt><trkpt lat="44.563598613388564" lon="11.791716472817173"><ele>5.666666666666667</ele><time>2026-04-12T13:29:12Z</time></trkpt><trkpt lat="44.563420074707636" lon="11.791656509335743"><ele>5.0</ele><time>2026-04-12T13:29:13Z</time></trkpt><trkpt lat="44.56323229953767" lon="11.791600917139757"><ele>5.0</ele><time>2026-04-12T13:29:14Z</time></trkpt><trkpt lat="44.56304674727378" lon="11.791544164707393"><ele>5.0</ele><time>2026-04-12T13:29:15.001Z</time></trkpt><trkpt lat="44.56286034522588" lon="11.791484380637826"><ele>5.0</ele><time>2026-04-12T13:29:16.001Z</time></trkpt><trkpt lat="44.56267339755603" lon="11.791426971144505"><ele>4.666666666666667</ele><time>2026-04-12T13:29:17.001Z</time></trkpt><trkpt lat="44.562490992084655" lon="11.79137421600682"><ele>4.333333333333333</ele><time>2026-04-12T13:29:18.001Z</time></trkpt><trkpt lat="44.56230643116566" lon="11.79132392164394"><ele>4.0</ele><time>2026-04-12T13:29:19.001Z</time></trkpt><trkpt lat="44.562119407776116" lon="11.79127002944277"><ele>3.6666666666666665</ele><time>2026-04-12T13:29:20.001Z</time></trkpt><trkpt lat="44.56193075241366" lon="11.79121796288323"><ele>3.333333333333333</ele><time>2026-04-12T13:29:21.001Z</time></trkpt><trkpt lat="44.5617483023805" lon="11.791169190824457"><ele>3.0</ele><time>2026-04-12T13:29:22.001Z</time></trkpt><trkpt lat="44.561561134129775" lon="11.791116468921624"><ele>3.0</ele><time>2026-04-12T13:29:23.001Z</time></trkpt><trkpt lat="44.56137448334177" lon="11.791066384533597"><ele>3.0</ele><time>2026-04-12T13:29:24.001Z</time></trkpt><trkpt lat="44.56118398792985" lon="11.791016735405407"><ele>3.0</ele><time>2026-04-12T13:29:25.001Z</time></trkpt><trkpt lat="44.560995579235794" lon="11.79096614332616"><ele>4.0</ele><time>2026-04-12T13:29:26.001Z</time></trkpt><trkpt lat="44.56080184661996" lon="11.790913699336809"><ele>5.0</ele><time>2026-04-12T13:29:27.001Z</time></trkpt><trkpt lat="44.56061685343824" lon="11.790857988543586"><ele>6.0</ele><time>2026-04-12T13:29:28.001Z</time></trkpt><trkpt lat="44.56041940342511" lon="11.790805233388353"><ele>5.666666666666667</ele><time>2026-04-12T13:29:29.001Z</time></trkpt><trkpt lat="44.56022150315532" lon="11.790753804019632"><ele>5.333333333333334</ele><time>2026-04-12T13:29:30.001Z</time></trkpt><trkpt lat="44.56002042463982" lon="11.79070076334689"><ele>5.0</ele><time>2026-04-12T13:29:31.001Z</time></trkpt><trkpt lat="44.55982315117922" lon="11.790647494030976"><ele>5.0</ele><time>2026-04-12T13:29:32.001Z</time></trkpt><trkpt lat="44.55962620854347" lon="11.790592743757344"><ele>5.0</ele><time>2026-04-12T13:29:33.001Z</time></trkpt><trkpt lat="44.559426420565636" lon="11.790538720781743"><ele>5.0</ele><time>2026-04-12T13:29:34.001Z</time></trkpt><trkpt lat="44.55922875800637" lon="11.790484099781287"><ele>4.666666666666667</ele><time>2026-04-12T13:29:35.001Z</time></trkpt><trkpt lat="44.55903094544832" lon="11.790429054219423"><ele>4.333333333333333</ele><time>2026-04-12T13:29:36.001Z</time></trkpt><trkpt lat="44.558829444059896" lon="11.79037657305732"><ele>4.0</ele><time>2026-04-12T13:29:37.001Z</time></trkpt><trkpt lat="44.558628666527405" lon="11.79032432126665"><ele>4.666666666666666</ele><time>2026-04-12T13:29:38.001Z</time></trkpt><trkpt lat="44.55842720072456" lon="11.790271643029637"><ele>5.333333333333333</ele><time>2026-04-12T13:29:39.001Z</time></trkpt><trkpt lat="44.558226245639204" lon="11.790215792876882"><ele>6.0</ele><time>2026-04-12T13:29:40.001Z</time></trkpt><trkpt lat="44.55802777553679" lon="11.790160578544885"><ele>5.666666666666667</ele><time>2026-04-12T13:29:41.001Z</time></trkpt><trkpt lat="44.55782689917907" lon="11.790106393611795"><ele>5.333333333333334</ele><time>2026-04-12T13:29:42.001Z</time></trkpt><trkpt lat="44.557627016661485" lon="11.79004920724191"><ele>5.0</ele><time>2026-04-12T13:29:43.001Z</time></trkpt><trkpt lat="44.557424689251775" lon="11.789993935761876"><ele>5.0</ele><time>2026-04-12T13:29:44.001Z</time></trkpt><trkpt lat="44.5572209412958" lon="11.78993942412407"><ele>5.0</ele><time>2026-04-12T13:29:45.001Z</time></trkpt><trkpt lat="44.55700931429493" lon="11.789884874829754"><ele>5.0</ele><time>2026-04-12T13:29:46.001Z</time></trkpt><trkpt lat="44.55680415168233" lon="11.789830816032351"><ele>5.333333333333334</ele><time>2026-04-12T13:29:47.001Z</time></trkpt><trkpt lat="44.55662023830533" lon="11.7897817409319"><ele>5.666666666666667</ele><time>2026-04-12T13:29:48.001Z</time></trkpt><trkpt lat="44.5564488788035" lon="11.789734391897781"><ele>6.0</ele><time>2026-04-12T13:29:49.001Z</time></trkpt><trkpt lat="44.5562863613591" lon="11.789692096309922"><ele>5.666666666666667</ele><time>2026-04-12T13:29:50.001Z</time></trkpt><trkpt lat="44.55612179303413" lon="11.78964607206108"><ele>5.333333333333334</ele><time>2026-04-12T13:29:51.001Z</time></trkpt><trkpt lat="44.55596225011418" lon="11.789602439612157"><ele>5.0</ele><time>2026-04-12T13:29:52.001Z</time></trkpt><trkpt lat="44.55581695872526" lon="11.789561774658777"><ele>5.0</ele><time>2026-04-12T13:29:53.001Z</time></trkpt><trkpt lat="44.55568402726078" lon="11.78952460388337"><ele>5.0</ele><time>2026-04-12T13:29:54.002Z</time></trkpt><trkpt lat="44.555554443968305" lon="11.789490774642621"><ele>5.0</ele><time>2026-04-12T13:29:55.002Z</time></trkpt><trkpt lat="44.55542649392868" lon="11.789458920511054"><ele>5.0</ele><time>2026-04-12T13:29:56.002Z</time></trkpt><trkpt lat="44.555298457113" lon="11.78943406941283"><ele>5.75</ele><time>2026-04-12T13:29:57.002Z</time></trkpt><trkpt lat="44.555169275491046" lon="11.789436348037926"><ele>6.5</ele><time>2026-04-12T13:29:58.002Z</time></trkpt><trkpt lat="44.55503691799063" lon="11.789473646725563"><ele>7.25</ele><time>2026-04-12T13:29:59.002Z</time></trkpt><trkpt lat="44.554903460482194" lon="11.789526462700078"><ele>8.0</ele><time>2026-04-12T13:30:00.002Z</time></trkpt><trkpt lat="44.554772579502256" lon="11.789583462545373"><ele>8.0</ele><time>2026-04-12T13:30:01.002Z</time></trkpt><trkpt lat="44.55464468539317" lon="11.789637801395491"><ele>8.0</ele><time>2026-04-12T13:30:02.002Z</time></trkpt><trkpt lat="44.554517660718545" lon="11.789692104799311"><ele>8.0</ele><time>2026-04-12T13:30:03.002Z</time></trkpt><trkpt lat="44.55438614574059" lon="11.789748564186144"><ele>8.0</ele><time>2026-04-12T13:30:04.002Z</time></trkpt><trkpt lat="44.554250413068864" lon="11.789798785987928"><ele>8.25</ele><time>2026-04-12T13:30:05.002Z</time></trkpt><trkpt lat="44.55410978684906" lon="11.789833577351478"><ele>8.5</ele><time>2026-04-12T13:30:06.002Z</time></trkpt><trkpt lat="44.55396470683807" lon="11.789857101706216"><ele>8.75</ele><time>2026-04-12T13:30:07.002Z</time></trkpt><trkpt lat="44.55381255973896" lon="11.789871584263388"><ele>9.0</ele><time>2026-04-12T13:30:08.002Z</time></trkpt><trkpt lat="44.55365530178306" lon="11.789863298236847"><ele>9.333333333333334</ele><time>2026-04-12T13:30:09.002Z</time></trkpt><trkpt lat="44.553499528220726" lon="11.789833317725869"><ele>9.666666666666668</ele><time>2026-04-12T13:30:10.002Z</time></trkpt><trkpt lat="44.5533518892519" lon="11.78978251754499"><ele>10.0</ele><time>2026-04-12T13:30:11.002Z</time></trkpt><trkpt lat="44.55320618505456" lon="11.7897118256075"><ele>10.0</ele><time>2026-04-12T13:30:12.002Z</time></trkpt><trkpt lat="44.553072937604846" lon="11.789614814097972"><ele>10.0</ele><time>2026-04-12T13:30:13.002Z</time></trkpt><trkpt lat="44.55294650224528" lon="11.789497862814347"><ele>10.0</ele><time>2026-04-12T13:30:14.002Z</time></trkpt><trkpt lat="44.55282671984064" lon="11.789348396060497"><ele>10.333333333333334</ele><time>2026-04-12T13:30:15.002Z</time></trkpt><trkpt lat="44.552711750291536" lon="11.789195752510132"><ele>10.666666666666666</ele><time>2026-04-12T13:30:16.002Z</time></trkpt><trkpt lat="44.55260916354609" lon="11.789054671885193"><ele>11.0</ele><time>2026-04-12T13:30:17.002Z</time></trkpt><trkpt lat="44.552500189477215" lon="11.788908269000725"><ele>11.0</ele><time>2026-04-12T13:30:18.002Z</time></trkpt><trkpt lat="44.55238901752114" lon="11.788774671057158"><ele>11.0</ele><time>2026-04-12T13:30:19.002Z</time></trkpt><trkpt lat="44.552263535727484" lon="11.788658491989482"><ele>11.0</ele><time>2026-04-12T13:30:20.002Z</time></trkpt><trkpt lat="44.552127162495346" lon="11.788569960099075"><ele>11.0</ele><time>2026-04-12T13:30:21.002Z</time></trkpt><trkpt lat="44.55197645746255" lon="11.788510329316658"><ele>10.666666666666666</ele><time>2026-04-12T13:30:22.002Z</time></trkpt><trkpt lat="44.55181917405458" lon="11.788474023132537"><ele>10.333333333333334</ele><time>2026-04-12T13:30:23.002Z</time></trkpt><trkpt lat="44.551655116687165" lon="11.78844349566957"><ele>10.0</ele><time>2026-04-12T13:30:24.002Z</time></trkpt><trkpt lat="44.55148843196038" lon="11.788405129385858"><ele>10.0</ele><time>2026-04-12T13:30:25.002Z</time></trkpt><trkpt lat="44.551320390692965" lon="11.788360764888111"><ele>10.0</ele><time>2026-04-12T13:30:26.002Z</time></trkpt><trkpt lat="44.55114138606359" lon="11.78831161419804"><ele>10.0</ele><time>2026-04-12T13:30:27.002Z</time></trkpt><trkpt lat="44.55094337656813" lon="11.78825479042847"><ele>8.0</ele><time>2026-04-12T13:30:28.002Z</time></trkpt><trkpt lat="44.55070868959032" lon="11.78818794970456"><ele>6.0</ele><time>2026-04-12T13:30:29.002Z</time></trkpt><trkpt lat="44.550473478453995" lon="11.788123121711765"><ele>5.666666666666667</ele><time>2026-04-12T13:30:30.002Z</time></trkpt><trkpt lat="44.55025760689475" lon="11.788064976490464"><ele>5.333333333333334</ele><time>2026-04-12T13:30:31.002Z</time></trkpt><trkpt lat="44.550050239795745" lon="11.788006383455535"><ele>5.0</ele><time>2026-04-12T13:30:32.002Z</time></trkpt><trkpt lat="44.54984446618117" lon="11.787950087996766"><ele>5.0</ele><time>2026-04-12T13:30:33.002Z</time></trkpt><trkpt lat="44.549646776277456" lon="11.787896310870506"><ele>5.0</ele><time>2026-04-12T13:30:34.002Z</time></trkpt><trkpt lat="44.54945136816433" lon="11.787841201062092"><ele>5.0</ele><time>2026-04-12T13:30:35.002Z</time></trkpt><trkpt lat="44.54925918141845" lon="11.78778786251096"><ele>4.666666666666667</ele><time>2026-04-12T13:30:36.002Z</time></trkpt><trkpt lat="44.549065859880294" lon="11.787734891334466"><ele>4.333333333333333</ele><time>2026-04-12T13:30:37.002Z</time></trkpt><trkpt lat="44.54887460316088" lon="11.787683189861564"><ele>4.0</ele><time>2026-04-12T13:30:38.002Z</time></trkpt><trkpt lat="44.54868473363448" lon="11.78762883625465"><ele>4.0</ele><time>2026-04-12T13:30:39.001Z</time></trkpt><trkpt lat="44.548495134862534" lon="11.78757770205393"><ele>4.0</ele><time>2026-04-12T13:30:40.001Z</time></trkpt><trkpt lat="44.54830626005895" lon="11.787524619005922"><ele>4.0</ele><time>2026-04-12T13:30:41.001Z</time></trkpt><trkpt lat="44.548120788778114" lon="11.787471352261331"><ele>4.0</ele><time>2026-04-12T13:30:42.001Z</time></trkpt><trkpt lat="44.547932780129706" lon="11.78741905498376"><ele>4.0</ele><time>2026-04-12T13:30:43.001Z</time></trkpt><trkpt lat="44.54772890855305" lon="11.78737096426868"><ele>4.0</ele><time>2026-04-12T13:30:44.001Z</time></trkpt><trkpt lat="44.54753002257255" lon="11.787318171017267"><ele>4.0</ele><time>2026-04-12T13:30:45.001Z</time></trkpt><trkpt lat="44.54732171083954" lon="11.78726401279956"><ele>4.0</ele><time>2026-04-12T13:30:46.001Z</time></trkpt><trkpt lat="44.54715972896111" lon="11.787214555807667"><ele>4.0</ele><time>2026-04-12T13:30:47.001Z</time></trkpt><trkpt lat="44.54697520604826" lon="11.787161470216637"><ele>3.6666666666666665</ele><time>2026-04-12T13:30:48.001Z</time></trkpt><trkpt lat="44.54679438652531" lon="11.787110611495242"><ele>3.333333333333333</ele><time>2026-04-12T13:30:49.001Z</time></trkpt><trkpt lat="44.54658657841174" lon="11.787055158007743"><ele>3.0</ele><time>2026-04-12T13:30:50.001Z</time></trkpt><trkpt lat="44.54639046335427" lon="11.78700429043607"><ele>3.0</ele><time>2026-04-12T13:30:51.001Z</time></trkpt><trkpt lat="44.54619609373604" lon="11.786955010843592"><ele>3.0</ele><time>2026-04-12T13:30:52.001Z</time></trkpt><trkpt lat="44.54600467278016" lon="11.786903216785142"><ele>3.0</ele><time>2026-04-12T13:30:53.001Z</time></trkpt><trkpt lat="44.54581376532668" lon="11.78684965291346"><ele>3.333333333333333</ele><time>2026-04-12T13:30:54.001Z</time></trkpt><trkpt lat="44.545622776625976" lon="11.78679496945797"><ele>3.6666666666666665</ele><time>2026-04-12T13:30:55.001Z</time></trkpt><trkpt lat="44.54542776313211" lon="11.786742481473617"><ele>4.0</ele><time>2026-04-12T13:30:56.001Z</time></trkpt><trkpt lat="44.54523368473448" lon="11.786691111042016"><ele>4.0</ele><time>2026-04-12T13:30:57.001Z</time></trkpt><trkpt lat="44.54504721858309" lon="11.786636984016901"><ele>4.0</ele><time>2026-04-12T13:30:58.001Z</time></trkpt><trkpt lat="44.544850923636545" lon="11.78658774945871"><ele>4.0</ele><time>2026-04-12T13:30:59.001Z</time></trkpt><trkpt lat="44.5446581322161" lon="11.786533687673028"><ele>3.6666666666666665</ele><time>2026-04-12T13:31:00.001Z</time></trkpt><trkpt lat="44.54446368176138" lon="11.786481743063039"><ele>3.333333333333333</ele><time>2026-04-12T13:31:01.001Z</time></trkpt><trkpt lat="44.54427559482735" lon="11.786432157221652"><ele>3.0</ele><time>2026-04-12T13:31:02.001Z</time></trkpt><trkpt lat="44.544093595900875" lon="11.78637902381009"><ele>3.0</ele><time>2026-04-12T13:31:03.001Z</time></trkpt><trkpt lat="44.54390650186329" lon="11.786328225241155"><ele>3.0</ele><time>2026-04-12T13:31:04.001Z</time></trkpt><trkpt lat="44.54371735577687" lon="11.786279205277495"><ele>3.0</ele><time>2026-04-12T13:31:05.001Z</time></trkpt><trkpt lat="44.54352924987841" lon="11.786231721849722"><ele>3.333333333333333</ele><time>2026-04-12T13:31:06.001Z</time></trkpt><trkpt lat="44.54333889554449" lon="11.786186911265245"><ele>3.6666666666666665</ele><time>2026-04-12T13:31:07.001Z</time></trkpt><trkpt lat="44.54315375122382" lon="11.786137437870531"><ele>4.0</ele><time>2026-04-12T13:31:08.001Z</time></trkpt><trkpt lat="44.542967736182405" lon="11.786082179671634"><ele>4.0</ele><time>2026-04-12T13:31:09.001Z</time></trkpt><trkpt lat="44.54278337531354" lon="11.786023100887986"><ele>4.0</ele><time>2026-04-12T13:31:10.001Z</time></trkpt><trkpt lat="44.54260102237741" lon="11.785968882921539"><ele>4.0</ele><time>2026-04-12T13:31:11.001Z</time></trkpt><trkpt lat="44.54241272269375" lon="11.785922339031808"><ele>4.0</ele><time>2026-04-12T13:31:12.001Z</time></trkpt><trkpt lat="44.5422309816278" lon="11.785874375730069"><ele>4.0</ele><time>2026-04-12T13:31:13.001Z</time></trkpt><trkpt lat="44.54204354446532" lon="11.785822953158373"><ele>4.0</ele><time>2026-04-12T13:31:14.001Z</time></trkpt><trkpt lat="44.54185483643204" lon="11.78577327591455"><ele>4.333333333333333</ele><time>2026-04-12T13:31:15.001Z</time></trkpt><trkpt lat="44.54166707981627" lon="11.785721445172907"><ele>4.666666666666667</ele><time>2026-04-12T13:31:16.001Z</time></trkpt><trkpt lat="44.54148154906331" lon="11.785670024919934"><ele>5.0</ele><time>2026-04-12T13:31:17.002Z</time></trkpt><trkpt lat="44.54129627277556" lon="11.78561816332956"><ele>5.0</ele><time>2026-04-12T13:31:18.002Z</time></trkpt><trkpt lat="44.54111460302574" lon="11.785567100051804"><ele>5.0</ele><time>2026-04-12T13:31:19.002Z</time></trkpt><trkpt lat="44.54093729066613" lon="11.78551905420306"><ele>5.0</ele><time>2026-04-12T13:31:20.002Z</time></trkpt><trkpt lat="44.54075429452818" lon="11.785472447345597"><ele>5.0</ele><time>2026-04-12T13:31:21.002Z</time></trkpt><trkpt lat="44.540574627334614" lon="11.785429661724155"><ele>5.0</ele><time>2026-04-12T13:31:22.002Z</time></trkpt><trkpt lat="44.540393763884566" lon="11.78538518833681"><ele>5.0</ele><time>2026-04-12T13:31:23.002Z</time></trkpt><trkpt lat="44.540210609015475" lon="11.785335653374238"><ele>4.666666666666667</ele><time>2026-04-12T13:31:24.002Z</time></trkpt><trkpt lat="44.54002838571599" lon="11.785283908312717"><ele>4.333333333333333</ele><time>2026-04-12T13:31:25.002Z</time></trkpt><trkpt lat="44.53984654395587" lon="11.785232980842396"><ele>4.0</ele><time>2026-04-12T13:31:26.002Z</time></trkpt><trkpt lat="44.539660683917425" lon="11.785183044455763"><ele>4.0</ele><time>2026-04-12T13:31:27.002Z</time></trkpt><trkpt lat="44.53947805483433" lon="11.785133878998526"><ele>4.0</ele><time>2026-04-12T13:31:28.002Z</time></trkpt><trkpt lat="44.539290144438304" lon="11.785084923583545"><ele>4.0</ele><time>2026-04-12T13:31:29.002Z</time></trkpt><trkpt lat="44.53909113285685" lon="11.785020121370657"><ele>4.0</ele><time>2026-04-12T13:31:30.002Z</time></trkpt><trkpt lat="44.53891709094764" lon="11.784984855175264"><ele>4.0</ele><time>2026-04-12T13:31:31.002Z</time></trkpt><trkpt lat="44.538730564728" lon="11.784934658906062"><ele>4.0</ele><time>2026-04-12T13:31:32.002Z</time></trkpt><trkpt lat="44.53854132437043" lon="11.784884152581368"><ele>4.333333333333333</ele><time>2026-04-12T13:31:33.002Z</time></trkpt><trkpt lat="44.53835280043382" lon="11.784830210197596"><ele>4.666666666666667</ele><time>2026-04-12T13:31:34.002Z</time></trkpt><trkpt lat="44.5381649643839" lon="11.784776558074306"><ele>5.0</ele><time>2026-04-12T13:31:35.002Z</time></trkpt><trkpt lat="44.53798296727288" lon="11.784723952353929"><ele>4.666666666666667</ele><time>2026-04-12T13:31:36.002Z</time></trkpt><trkpt lat="44.53780443148842" lon="11.784671403492004"><ele>4.333333333333333</ele><time>2026-04-12T13:31:37.002Z</time></trkpt><trkpt lat="44.537631396425326" lon="11.784626337222576"><ele>4.0</ele><time>2026-04-12T13:31:38.002Z</time></trkpt><trkpt lat="44.537468401867194" lon="11.784587996988147"><ele>4.0</ele><time>2026-04-12T13:31:39.002Z</time></trkpt><trkpt lat="44.53732063416425" lon="11.784549723395985"><ele>4.0</ele><time>2026-04-12T13:31:40.002Z</time></trkpt><trkpt lat="44.53717561030368" lon="11.784509024836447"><ele>4.0</ele><time>2026-04-12T13:31:41.002Z</time></trkpt><trkpt lat="44.53704198056092" lon="11.784470116672788"><ele>4.0</ele><time>2026-04-12T13:31:42.002Z</time></trkpt><trkpt lat="44.53692108299694" lon="11.784435262468252"><ele>4.2</ele><time>2026-04-12T13:31:43.002Z</time></trkpt><trkpt lat="44.53680223217143" lon="11.78440282460818"><ele>4.4</ele><time>2026-04-12T13:31:44.002Z</time></trkpt><trkpt lat="44.53669202485985" lon="11.78437198641191"><ele>4.6</ele><time>2026-04-12T13:31:45.002Z</time></trkpt><trkpt lat="44.53659074903408" lon="11.784343815318858"><ele>4.8</ele><time>2026-04-12T13:31:46.002Z</time></trkpt><trkpt lat="44.53649974960559" lon="11.784320282038571"><ele>5.0</ele><time>2026-04-12T13:31:47.002Z</time></trkpt><trkpt lat="44.536412100920266" lon="11.784302637126837"><ele>5.0</ele><time>2026-04-12T13:31:48.002Z</time></trkpt><trkpt lat="44.536336286869904" lon="11.784257188189207"><ele>5.0</ele><time>2026-04-12T13:31:49.002Z</time></trkpt><trkpt lat="44.53626466338579" lon="11.784158902609649"><ele>5.0</ele><time>2026-04-12T13:31:50.002Z</time></trkpt><trkpt lat="44.536224274276904" lon="11.784000879998395"><ele>5.0</ele><time>2026-04-12T13:31:51.002Z</time></trkpt><trkpt lat="44.536225403287936" lon="11.783816755465562"><ele>5.0</ele><time>2026-04-12T13:31:52.002Z</time></trkpt><trkpt lat="44.536261416493225" lon="11.783648123851975"><ele>5.0</ele><time>2026-04-12T13:31:53.002Z</time></trkpt><trkpt lat="44.53629873127925" lon="11.783512142328574"><ele>5.0</ele><time>2026-04-12T13:31:54.002Z</time></trkpt><trkpt lat="44.53632281769645" lon="11.783385487117766"><ele>5.0</ele><time>2026-04-12T13:31:55.002Z</time></trkpt><trkpt lat="44.53632829091705" lon="11.783270254704693"><ele>5.0</ele><time>2026-04-12T13:31:56.002Z</time></trkpt><trkpt lat="44.5363047757725" lon="11.783147642397168"><ele>5.0</ele><time>2026-04-12T13:31:57.002Z</time></trkpt><trkpt lat="44.536239538776094" lon="11.783034840396168"><ele>4.666666666666667</ele><time>2026-04-12T13:31:58.002Z</time></trkpt><trkpt lat="44.53613105419873" lon="11.782960446142583"><ele>4.333333333333333</ele><time>2026-04-12T13:31:59.002Z</time></trkpt><trkpt lat="44.53598414059748" lon="11.782916409328868"><ele>4.0</ele><time>2026-04-12T13:32:00.002Z</time></trkpt><trkpt lat="44.53579188212912" lon="11.782871015877916"><ele>4.0</ele><time>2026-04-12T13:32:01.002Z</time></trkpt><trkpt lat="44.53560119070286" lon="11.782815241461986"><ele>4.0</ele><time>2026-04-12T13:32:02.002Z</time></trkpt><trkpt lat="44.53542810982914" lon="11.782760552347417"><ele>4.0</ele><time>2026-04-12T13:32:03.002Z</time></trkpt><trkpt lat="44.53526584579463" lon="11.782709478074903"><ele>4.333333333333333</ele><time>2026-04-12T13:32:04.002Z</time></trkpt><trkpt lat="44.53510771042366" lon="11.782659722694634"><ele>4.666666666666667</ele><time>2026-04-12T13:32:05.002Z</time></trkpt><trkpt lat="44.53495391793889" lon="11.782609026056019"><ele>5.0</ele><time>2026-04-12T13:32:06.002Z</time></trkpt><trkpt lat="44.534805257797956" lon="11.782561729291881"><ele>5.0</ele><time>2026-04-12T13:32:07.002Z</time></trkpt><trkpt lat="44.534659259823" lon="11.782518029172714"><ele>5.0</ele><time>2026-04-12T13:32:08.003Z</time></trkpt><trkpt lat="44.53451392295518" lon="11.782473307223407"><ele>5.0</ele><time>2026-04-12T13:32:09.003Z</time></trkpt><trkpt lat="44.534368495312286" lon="11.782430978809714"><ele>5.0</ele><time>2026-04-12T13:32:10.003Z</time></trkpt><trkpt lat="44.53422414566894" lon="11.782387067190639"><ele>5.25</ele><time>2026-04-12T13:32:11.003Z</time></trkpt><trkpt lat="44.53408280673943" lon="11.782342011730046"><ele>5.5</ele><time>2026-04-12T13:32:12.003Z</time></trkpt><trkpt lat="44.533940418452836" lon="11.782298729613101"><ele>5.75</ele><time>2026-04-12T13:32:13.003Z</time></trkpt><trkpt lat="44.533798074229075" lon="11.782252972656135"><ele>6.0</ele><time>2026-04-12T13:32:14.003Z</time></trkpt><trkpt lat="44.53365418911293" lon="11.782212856881591"><ele>6.333333333333334</ele><time>2026-04-12T13:32:15.003Z</time></trkpt><trkpt lat="44.533511188417094" lon="11.78216918828501"><ele>6.666666666666667</ele><time>2026-04-12T13:32:16.003Z</time></trkpt><trkpt lat="44.5333610549885" lon="11.782123462073088"><ele>7.0</ele><time>2026-04-12T13:32:17.003Z</time></trkpt><trkpt lat="44.5332087295206" lon="11.782085093223003"><ele>7.0</ele><time>2026-04-12T13:32:18.003Z</time></trkpt><trkpt lat="44.53304995678775" lon="11.78204236148333"><ele>7.0</ele><time>2026-04-12T13:32:19.003Z</time></trkpt><trkpt lat="44.532878224431165" lon="11.781991407984417"><ele>7.0</ele><time>2026-04-12T13:32:20.003Z</time></trkpt><trkpt lat="44.53269982105568" lon="11.781922209095823"><ele>6.666666666666667</ele><time>2026-04-12T13:32:21.003Z</time></trkpt><trkpt lat="44.53253187993993" lon="11.781863087218673"><ele>6.333333333333334</ele><time>2026-04-12T13:32:22.003Z</time></trkpt><trkpt lat="44.53236410505323" lon="11.78181140272655"><ele>6.0</ele><time>2026-04-12T13:32:23.003Z</time></trkpt><trkpt lat="44.53219705730463" lon="11.781760030500648"><ele>6.0</ele><time>2026-04-12T13:32:24.003Z</time></trkpt><trkpt lat="44.532031982022296" lon="11.781708575836433"><ele>6.0</ele><time>2026-04-12T13:32:25.003Z</time></trkpt><trkpt lat="44.53187750329895" lon="11.781660497643042"><ele>6.0</ele><time>2026-04-12T13:32:26.003Z</time></trkpt><trkpt lat="44.53172987002276" lon="11.781615864115155"><ele>6.0</ele><time>2026-04-12T13:32:27.003Z</time></trkpt><trkpt lat="44.53159481092409" lon="11.781581987348913"><ele>6.0</ele><time>2026-04-12T13:32:28.003Z</time></trkpt><trkpt lat="44.53147422480726" lon="11.781553889259474"><ele>6.0</ele><time>2026-04-12T13:32:29.003Z</time></trkpt><trkpt lat="44.53135599045653" lon="11.781527413850474"><ele>6.0</ele><time>2026-04-12T13:32:30.003Z</time></trkpt><trkpt lat="44.53122188999296" lon="11.781506472384072"><ele>5.333333333333333</ele><time>2026-04-12T13:32:31.003Z</time></trkpt><trkpt lat="44.53106961208657" lon="11.781491140924292"><ele>4.666666666666666</ele><time>2026-04-12T13:32:32.003Z</time></trkpt><trkpt lat="44.53089938204952" lon="11.781476280224803"><ele>4.0</ele><time>2026-04-12T13:32:33.003Z</time></trkpt><trkpt lat="44.53073233643715" lon="11.781458704680384"><ele>4.0</ele><time>2026-04-12T13:32:34.003Z</time></trkpt><trkpt lat="44.530572133301106" lon="11.78143788597335"><ele>4.0</ele><time>2026-04-12T13:32:35.003Z</time></trkpt><trkpt lat="44.53041075943558" lon="11.781413834861146"><ele>4.0</ele><time>2026-04-12T13:32:36.003Z</time></trkpt><trkpt lat="44.53024926733382" lon="11.78139240142907"><ele>4.666666666666666</ele><time>2026-04-12T13:32:37.003Z</time></trkpt><trkpt lat="44.53008567947965" lon="11.78137224846551"><ele>5.333333333333333</ele><time>2026-04-12T13:32:38.003Z</time></trkpt><trkpt lat="44.52992088782856" lon="11.781359097751828"><ele>6.0</ele><time>2026-04-12T13:32:39.003Z</time></trkpt><trkpt lat="44.52975907410132" lon="11.78134428694576"><ele>6.0</ele><time>2026-04-12T13:32:40.003Z</time></trkpt><trkpt lat="44.529604741372424" lon="11.781329141003207"><ele>6.0</ele><time>2026-04-12T13:32:41.002Z</time></trkpt><trkpt lat="44.52945944845059" lon="11.78131422987491"><ele>6.0</ele><time>2026-04-12T13:32:42.002Z</time></trkpt><trkpt lat="44.529322251447034" lon="11.781301301401205"><ele>6.0</ele><time>2026-04-12T13:32:43.002Z</time></trkpt><trkpt lat="44.52919030307801" lon="11.781285610029464"><ele>6.0</ele><time>2026-04-12T13:32:44.002Z</time></trkpt><trkpt lat="44.529055078034425" lon="11.781268918168463"><ele>6.0</ele><time>2026-04-12T13:32:45.002Z</time></trkpt><trkpt lat="44.528920610525866" lon="11.781254286789775"><ele>6.0</ele><time>2026-04-12T13:32:46.002Z</time></trkpt><trkpt lat="44.52879754706175" lon="11.78123916096372"><ele>6.0</ele><time>2026-04-12T13:32:47.002Z</time></trkpt><trkpt lat="44.528671956762246" lon="11.781228209645391"><ele>5.75</ele><time>2026-04-12T13:32:48.002Z</time></trkpt><trkpt lat="44.528549558512076" lon="11.781213123249522"><ele>5.5</ele><time>2026-04-12T13:32:49.002Z</time></trkpt><trkpt lat="44.52842623845556" lon="11.781200981851969"><ele>5.25</ele><time>2026-04-12T13:32:50.002Z</time></trkpt><trkpt lat="44.528308440344986" lon="11.781192103595806"><ele>5.0</ele><time>2026-04-12T13:32:51.002Z</time></trkpt><trkpt lat="44.52818725882631" lon="11.781180820152436"><ele>5.0</ele><time>2026-04-12T13:32:52.002Z</time></trkpt><trkpt lat="44.52806848856889" lon="11.78116624504821"><ele>5.0</ele><time>2026-04-12T13:32:53.002Z</time></trkpt><trkpt lat="44.527947670063746" lon="11.781152006003397"><ele>5.0</ele><time>2026-04-12T13:32:54.002Z</time></trkpt><trkpt lat="44.527827924239546" lon="11.78114270279296"><ele>5.0</ele><time>2026-04-12T13:32:55.002Z</time></trkpt><trkpt lat="44.52770933727246" lon="11.781140627207552"><ele>5.25</ele><time>2026-04-12T13:32:56.002Z</time></trkpt><trkpt lat="44.5275929127313" lon="11.781126512892188"><ele>5.5</ele><time>2026-04-12T13:32:57.002Z</time></trkpt><trkpt lat="44.52748200860661" lon="11.781117247892794"><ele>5.75</ele><time>2026-04-12T13:32:58.002Z</time></trkpt><trkpt lat="44.52736620708397" lon="11.781111047385906"><ele>6.0</ele><time>2026-04-12T13:32:59.002Z</time></trkpt><trkpt lat="44.52725364876704" lon="11.78109589597244"><ele>6.0</ele><time>2026-04-12T13:33:00.002Z</time></trkpt><trkpt lat="44.527141983319005" lon="11.78108350146685"><ele>6.0</ele><time>2026-04-12T13:33:01.002Z</time></trkpt><trkpt lat="44.52703161574371" lon="11.781070843787449"><ele>6.0</ele><time>2026-04-12T13:33:02.002Z</time></trkpt><trkpt lat="44.52692148397969" lon="11.781061365515361"><ele>6.0</ele><time>2026-04-12T13:33:03.002Z</time></trkpt><trkpt lat="44.52681210511972" lon="11.781051882060906"><ele>6.0</ele><time>2026-04-12T13:33:04.002Z</time></trkpt><trkpt lat="44.526700792262695" lon="11.781040740847493"><ele>6.199999999999999</ele><time>2026-04-12T13:33:05.002Z</time></trkpt><trkpt lat="44.52659426065712" lon="11.781028775163069"><ele>6.3999999999999995</ele><time>2026-04-12T13:33:06.002Z</time></trkpt><trkpt lat="44.526485316122944" lon="11.781018551427216"><ele>6.6</ele><time>2026-04-12T13:33:07.002Z</time></trkpt><trkpt lat="44.526378800470845" lon="11.781005857469719"><ele>6.8</ele><time>2026-04-12T13:33:08.002Z</time></trkpt><trkpt lat="44.52626621769327" lon="11.780988319825001"><ele>7.0</ele><time>2026-04-12T13:33:09.002Z</time></trkpt><trkpt lat="44.526143972242174" lon="11.780971767936801"><ele>7.25</ele><time>2026-04-12T13:33:10.002Z</time></trkpt><trkpt lat="44.52601973652094" lon="11.780963942276275"><ele>7.5</ele><time>2026-04-12T13:33:11.002Z</time></trkpt><trkpt lat="44.52589133341421" lon="11.780952070997046"><ele>7.75</ele><time>2026-04-12T13:33:12.002Z</time></trkpt><trkpt lat="44.525762625136835" lon="11.780942473347912"><ele>8.0</ele><time>2026-04-12T13:33:13.002Z</time></trkpt><trkpt lat="44.52563711025634" lon="11.780936997731148"><ele>8.0</ele><time>2026-04-12T13:33:14.002Z</time></trkpt><trkpt lat="44.525513776082455" lon="11.780924080813357"><ele>8.0</ele><time>2026-04-12T13:33:15.002Z</time></trkpt><trkpt lat="44.525393895864845" lon="11.78090106058203"><ele>8.0</ele><time>2026-04-12T13:33:16.002Z</time></trkpt><trkpt lat="44.52528336818972" lon="11.780887511620133"><ele>8.0</ele><time>2026-04-12T13:33:17.002Z</time></trkpt><trkpt lat="44.52517675780282" lon="11.780880574289798"><ele>8.0</ele><time>2026-04-12T13:33:18.002Z</time></trkpt><trkpt lat="44.525068316122315" lon="11.780866381782882"><ele>8.0</ele><time>2026-04-12T13:33:19.002Z</time></trkpt><trkpt lat="44.524961699966404" lon="11.78085564137828"><ele>8.0</ele><time>2026-04-12T13:33:20.002Z</time></trkpt><trkpt lat="44.52486028341935" lon="11.780847461017412"><ele>8.0</ele><time>2026-04-12T13:33:21.002Z</time></trkpt><trkpt lat="44.52475328219919" lon="11.780843568965178"><ele>8.0</ele><time>2026-04-12T13:33:22.002Z</time></trkpt><trkpt lat="44.52463716663153" lon="11.780839103212172"><ele>7.75</ele><time>2026-04-12T13:33:23.002Z</time></trkpt><trkpt lat="44.5245120122143" lon="11.780825426638291"><ele>7.5</ele><time>2026-04-12T13:33:24.002Z</time></trkpt><trkpt lat="44.52437722040409" lon="11.780813272672464"><ele>7.25</ele><time>2026-04-12T13:33:25.002Z</time></trkpt><trkpt lat="44.5242320597991" lon="11.780795968686173"><ele>7.0</ele><time>2026-04-12T13:33:26.002Z</time></trkpt><trkpt lat="44.524087428340806" lon="11.780781363649053"><ele>7.0</ele><time>2026-04-12T13:33:27.002Z</time></trkpt><trkpt lat="44.52393253931392" lon="11.78077040282425"><ele>7.0</ele><time>2026-04-12T13:33:28.002Z</time></trkpt><trkpt lat="44.523762319675036" lon="11.780753498125812"><ele>7.0</ele><time>2026-04-12T13:33:29.002Z</time></trkpt><trkpt lat="44.52359860157844" lon="11.780737646270632"><ele>6.666666666666667</ele><time>2026-04-12T13:33:30.002Z</time></trkpt><trkpt lat="44.523431129447594" lon="11.78071587720508"><ele>6.333333333333334</ele><time>2026-04-12T13:33:31.002Z</time></trkpt><trkpt lat="44.52325479537709" lon="11.780697855083508"><ele>6.0</ele><time>2026-04-12T13:33:32.002Z</time></trkpt><trkpt lat="44.523074322744606" lon="11.780681018552512"><ele>6.0</ele><time>2026-04-12T13:33:33.002Z</time></trkpt><trkpt lat="44.52288878883148" lon="11.780665181191921"><ele>6.0</ele><time>2026-04-12T13:33:34.002Z</time></trkpt><trkpt lat="44.522701654356865" lon="11.780647434841379"><ele>6.0</ele><time>2026-04-12T13:33:35.002Z</time></trkpt><trkpt lat="44.52251279995393" lon="11.780632267577092"><ele>6.0</ele><time>2026-04-12T13:33:36.002Z</time></trkpt><trkpt lat="44.5223246734688" lon="11.780614482372865"><ele>6.0</ele><time>2026-04-12T13:33:37.002Z</time></trkpt><trkpt lat="44.52213337181283" lon="11.780593591927323"><ele>6.0</ele><time>2026-04-12T13:33:38.002Z</time></trkpt><trkpt lat="44.52193689195178" lon="11.780571158493004"><ele>6.0</ele><time>2026-04-12T13:33:39.002Z</time></trkpt><trkpt lat="44.52173659181348" lon="11.780550914766755"><ele>6.0</ele><time>2026-04-12T13:33:40.002Z</time></trkpt><trkpt lat="44.521536544842334" lon="11.780534502590871"><ele>6.0</ele><time>2026-04-12T13:33:41.002Z</time></trkpt><trkpt lat="44.521337287479696" lon="11.780517879656102"><ele>6.333333333333334</ele><time>2026-04-12T13:33:42.002Z</time></trkpt><trkpt lat="44.5211345236088" lon="11.780499103238323"><ele>6.666666666666667</ele><time>2026-04-12T13:33:43.002Z</time></trkpt><trkpt lat="44.52093002175336" lon="11.780480273077327"><ele>7.0</ele><time>2026-04-12T13:33:44.002Z</time></trkpt><trkpt lat="44.52072381651216" lon="11.780460710599682"><ele>7.0</ele><time>2026-04-12T13:33:45.002Z</time></trkpt><trkpt lat="44.52051800184798" lon="11.780441610251232"><ele>7.0</ele><time>2026-04-12T13:33:46.002Z</time></trkpt><trkpt lat="44.520312876648674" lon="11.78042179379172"><ele>7.0</ele><time>2026-04-12T13:33:47.002Z</time></trkpt><trkpt lat="44.52010735487126" lon="11.78040272369438"><ele>6.666666666666667</ele><time>2026-04-12T13:33:48.002Z</time></trkpt><trkpt lat="44.519903398968786" lon="11.780382954296178"><ele>6.333333333333334</ele><time>2026-04-12T13:33:49.002Z</time></trkpt><trkpt lat="44.519702246086645" lon="11.780361031745297"><ele>6.0</ele><time>2026-04-12T13:33:50.002Z</time></trkpt><trkpt lat="44.51950307988794" lon="11.780339264123217"><ele>6.0</ele><time>2026-04-12T13:33:51.002Z</time></trkpt><trkpt lat="44.519302159841054" lon="11.780319691337766"><ele>6.0</ele><time>2026-04-12T13:33:52.002Z</time></trkpt><trkpt lat="44.519100964208725" lon="11.780300725747713"><ele>6.0</ele><time>2026-04-12T13:33:53.002Z</time></trkpt><trkpt lat="44.51890241126411" lon="11.780280136392491"><ele>6.333333333333334</ele><time>2026-04-12T13:33:54.002Z</time></trkpt><trkpt lat="44.51870431442919" lon="11.780261412939238"><ele>6.666666666666667</ele><time>2026-04-12T13:33:55.002Z</time></trkpt><trkpt lat="44.51850509816617" lon="11.780244329960572"><ele>7.0</ele><time>2026-04-12T13:33:56.002Z</time></trkpt><trkpt lat="44.51830643249183" lon="11.780224224906398"><ele>7.0</ele><time>2026-04-12T13:33:57.002Z</time></trkpt><trkpt lat="44.518107509234774" lon="11.780201973634634"><ele>7.0</ele><time>2026-04-12T13:33:58.002Z</time></trkpt><trkpt lat="44.51790852611835" lon="11.780180272758775"><ele>7.0</ele><time>2026-04-12T13:33:59.002Z</time></trkpt><trkpt lat="44.51771181604527" lon="11.78015840611125"><ele>6.333333333333334</ele><time>2026-04-12T13:34:00.002Z</time></trkpt><trkpt lat="44.51751608272236" lon="11.780138644129229"><ele>5.666666666666667</ele><time>2026-04-12T13:34:01.002Z</time></trkpt><trkpt lat="44.51731859236673" lon="11.780122146475716"><ele>5.0</ele><time>2026-04-12T13:34:02.002Z</time></trkpt><trkpt lat="44.517121616626824" lon="11.780106125675507"><ele>4.666666666666667</ele><time>2026-04-12T13:34:03.002Z</time></trkpt><trkpt lat="44.51692632424396" lon="11.7800891508848"><ele>4.333333333333333</ele><time>2026-04-12T13:34:04.002Z</time></trkpt><trkpt lat="44.51673042267178" lon="11.78006992541803"><ele>4.0</ele><time>2026-04-12T13:34:05.002Z</time></trkpt><trkpt lat="44.51653097146982" lon="11.780050449186362"><ele>4.0</ele><time>2026-04-12T13:34:06.002Z</time></trkpt><trkpt lat="44.516330957165124" lon="11.78003044806511"><ele>4.0</ele><time>2026-04-12T13:34:07.002Z</time></trkpt><trkpt lat="44.516129958142486" lon="11.780010127788927"><ele>4.0</ele><time>2026-04-12T13:34:08.002Z</time></trkpt><trkpt lat="44.51593042071979" lon="11.779989964828532"><ele>4.333333333333333</ele><time>2026-04-12T13:34:09.002Z</time></trkpt><trkpt lat="44.515728661992725" lon="11.779970297014984"><ele>4.666666666666667</ele><time>2026-04-12T13:34:10.002Z</time></trkpt><trkpt lat="44.515524726626964" lon="11.779951000664022"><ele>5.0</ele><time>2026-04-12T13:34:11.002Z</time></trkpt><trkpt lat="44.51532231194099" lon="11.779928105509468"><ele>6.333333333333334</ele><time>2026-04-12T13:34:12.002Z</time></trkpt><trkpt lat="44.51511915030688" lon="11.779905082485245"><ele>7.666666666666667</ele><time>2026-04-12T13:34:13.002Z</time></trkpt><trkpt lat="44.51491869639699" lon="11.779884529247344"><ele>9.0</ele><time>2026-04-12T13:34:14.002Z</time></trkpt><trkpt lat="44.51471356184797" lon="11.779865038379542"><ele>8.666666666666666</ele><time>2026-04-12T13:34:15.002Z</time></trkpt><trkpt lat="44.51451081378099" lon="11.77984504230444"><ele>8.333333333333332</ele><time>2026-04-12T13:34:16.002Z</time></trkpt><trkpt lat="44.5143061643917" lon="11.779822336850929"><ele>8.0</ele><time>2026-04-12T13:34:17.002Z</time></trkpt><trkpt lat="44.5141063886082" lon="11.779803274366266"><ele>8.0</ele><time>2026-04-12T13:34:18.002Z</time></trkpt><trkpt lat="44.51390626299353" lon="11.77978607457144"><ele>8.0</ele><time>2026-04-12T13:34:19.002Z</time></trkpt><trkpt lat="44.51370674241532" lon="11.779769767555516"><ele>8.0</ele><time>2026-04-12T13:34:20.002Z</time></trkpt><trkpt lat="44.51350485414138" lon="11.779750479381304"><ele>8.0</ele><time>2026-04-12T13:34:21.002Z</time></trkpt><trkpt lat="44.513301854732426" lon="11.77972865086474"><ele>8.0</ele><time>2026-04-12T13:34:22.002Z</time></trkpt><trkpt lat="44.513098290898704" lon="11.779710570647637"><ele>8.0</ele><time>2026-04-12T13:34:23.002Z</time></trkpt><trkpt lat="44.512896461689984" lon="11.779691545424141"><ele>8.0</ele><time>2026-04-12T13:34:24.002Z</time></trkpt><trkpt lat="44.512691545696036" lon="11.779671275397064"><ele>8.0</ele><time>2026-04-12T13:34:25.002Z</time></trkpt><trkpt lat="44.51248540916841" lon="11.779651346808755"><ele>8.0</ele><time>2026-04-12T13:34:26.002Z</time></trkpt><trkpt lat="44.512281271273544" lon="11.779629308621479"><ele>8.0</ele><time>2026-04-12T13:34:27.002Z</time></trkpt><trkpt lat="44.51207827009134" lon="11.77960747656395"><ele>8.0</ele><time>2026-04-12T13:34:28.002Z</time></trkpt><trkpt lat="44.51187099883598" lon="11.779586906526204"><ele>8.0</ele><time>2026-04-12T13:34:29.002Z</time></trkpt><trkpt lat="44.51166623619073" lon="11.77956843722499"><ele>8.333333333333332</ele><time>2026-04-12T13:34:30.002Z</time></trkpt><trkpt lat="44.51146403787814" lon="11.779544123092032"><ele>8.666666666666666</ele><time>2026-04-12T13:34:31.002Z</time></trkpt><trkpt lat="44.51126256671364" lon="11.779521383900583"><ele>9.0</ele><time>2026-04-12T13:34:32.003Z</time></trkpt><trkpt lat="44.51105963534216" lon="11.779503959737852"><ele>8.333333333333334</ele><time>2026-04-12T13:34:33.003Z</time></trkpt><trkpt lat="44.510853657001995" lon="11.77948081375356"><ele>7.666666666666667</ele><time>2026-04-12T13:34:34.003Z</time></trkpt><trkpt lat="44.510649668907575" lon="11.779459377015446"><ele>7.0</ele><time>2026-04-12T13:34:35.003Z</time></trkpt><trkpt lat="44.51044344636882" lon="11.779441214942812"><ele>7.333333333333334</ele><time>2026-04-12T13:34:36.003Z</time></trkpt><trkpt lat="44.51023895171474" lon="11.779423310801766"><ele>7.666666666666666</ele><time>2026-04-12T13:34:37.003Z</time></trkpt><trkpt lat="44.510038125546885" lon="11.779406320768055"><ele>8.0</ele><time>2026-04-12T13:34:38.003Z</time></trkpt><trkpt lat="44.509833678609034" lon="11.779387182520615"><ele>8.0</ele><time>2026-04-12T13:34:39.003Z</time></trkpt><trkpt lat="44.50963412563062" lon="11.779367379730967"><ele>8.0</ele><time>2026-04-12T13:34:40.003Z</time></trkpt><trkpt lat="44.50943105781266" lon="11.779347233031766"><ele>8.0</ele><time>2026-04-12T13:34:41.003Z</time></trkpt><trkpt lat="44.50923520728557" lon="11.779328223514769"><ele>8.0</ele><time>2026-04-12T13:34:42.002Z</time></trkpt><trkpt lat="44.50904247387021" lon="11.779308091067996"><ele>8.0</ele><time>2026-04-12T13:34:43.002Z</time></trkpt><trkpt lat="44.50885571256226" lon="11.779288607846434"><ele>8.0</ele><time>2026-04-12T13:34:44.002Z</time></trkpt><trkpt lat="44.50867003990899" lon="11.779268843699036"><ele>8.333333333333332</ele><time>2026-04-12T13:34:45.002Z</time></trkpt><trkpt lat="44.508478259039926" lon="11.779252090274582"><ele>8.666666666666666</ele><time>2026-04-12T13:34:46.002Z</time></trkpt><trkpt lat="44.50828028010302" lon="11.779239175438747"><ele>9.0</ele><time>2026-04-12T13:34:47.002Z</time></trkpt><trkpt lat="44.508076969322346" lon="11.779217906638051"><ele>9.0</ele><time>2026-04-12T13:34:48.002Z</time></trkpt><trkpt lat="44.507876525935856" lon="11.779197308233805"><ele>9.0</ele><time>2026-04-12T13:34:49.002Z</time></trkpt><trkpt lat="44.50767394551474" lon="11.779180628091824"><ele>9.0</ele><time>2026-04-12T13:34:50.002Z</time></trkpt><trkpt lat="44.50746952830216" lon="11.779162535892455"><ele>9.0</ele><time>2026-04-12T13:34:51.002Z</time></trkpt><trkpt lat="44.507263527110794" lon="11.779141981495549"><ele>9.0</ele><time>2026-04-12T13:34:52.002Z</time></trkpt><trkpt lat="44.50705778385844" lon="11.779121737136014"><ele>9.0</ele><time>2026-04-12T13:34:53.002Z</time></trkpt><trkpt lat="44.50685316865398" lon="11.779100580493276"><ele>8.5</ele><time>2026-04-12T13:34:54.002Z</time></trkpt><trkpt lat="44.506649719156904" lon="11.77908064267961"><ele>8.0</ele><time>2026-04-12T13:34:55.002Z</time></trkpt><trkpt lat="44.50623637117684" lon="11.779043599794413"><ele>8.0</ele><time>2026-04-12T13:34:57.002Z</time></trkpt><trkpt lat="44.50603195674648" lon="11.77902288099741"><ele>8.0</ele><time>2026-04-12T13:34:58.002Z</time></trkpt><trkpt lat="44.505829359750585" lon="11.779000968503578"><ele>8.0</ele><time>2026-04-12T13:34:59.002Z</time></trkpt><trkpt lat="44.50562724699086" lon="11.778979868781057"><ele>8.0</ele><time>2026-04-12T13:35:00.002Z</time></trkpt><trkpt lat="44.5054215166009" lon="11.77895970163755"><ele>8.0</ele><time>2026-04-12T13:35:01.002Z</time></trkpt><trkpt lat="44.50522678581691" lon="11.77893993060338"><ele>8.0</ele><time>2026-04-12T13:35:02.002Z</time></trkpt><trkpt lat="44.50504873678579" lon="11.778923895500691"><ele>8.0</ele><time>2026-04-12T13:35:03.002Z</time></trkpt><trkpt lat="44.504883346928466" lon="11.778905568450249"><ele>8.0</ele><time>2026-04-12T13:35:04.002Z</time></trkpt><trkpt lat="44.50473453608175" lon="11.778896723705124"><ele>8.0</ele><time>2026-04-12T13:35:05.002Z</time></trkpt><trkpt lat="44.50459029614775" lon="11.778878961132014"><ele>7.75</ele><time>2026-04-12T13:35:06.002Z</time></trkpt><trkpt lat="44.504458479980286" lon="11.778864623199045"><ele>7.5</ele><time>2026-04-12T13:35:07.001Z</time></trkpt><trkpt lat="44.50433574484875" lon="11.778850825873104"><ele>7.25</ele><time>2026-04-12T13:35:08.001Z</time></trkpt><trkpt lat="44.50422151757506" lon="11.778840909275695"><ele>7.0</ele><time>2026-04-12T13:35:09.001Z</time></trkpt><trkpt lat="44.50411433332264" lon="11.778831129643606"><ele>7.000000000000001</ele><time>2026-04-12T13:35:10.001Z</time></trkpt><trkpt lat="44.50401883778604" lon="11.778821660778037"><ele>7.0</ele><time>2026-04-12T13:35:11.001Z</time></trkpt><trkpt lat="44.503928485176566" lon="11.778812151020503"><ele>7.0</ele><time>2026-04-12T13:35:12.001Z</time></trkpt><trkpt lat="44.50383727379248" lon="11.778801634978356"><ele>7.0</ele><time>2026-04-12T13:35:13.001Z</time></trkpt><trkpt lat="44.50375483205686" lon="11.77879340685868"><ele>7.000000000000001</ele><time>2026-04-12T13:35:14.001Z</time></trkpt><trkpt lat="44.50368619718201" lon="11.778785237150133"><ele>7.0</ele><time>2026-04-12T13:35:15.001Z</time></trkpt><trkpt lat="44.50357264717571" lon="11.778770229692798"><ele>7.3999999999999995</ele><time>2026-04-12T13:35:17.001Z</time></trkpt><trkpt lat="44.50348497452939" lon="11.778786123178563"><ele>7.799999999999999</ele><time>2026-04-12T13:35:19.001Z</time></trkpt><trkpt lat="44.50339888733521" lon="11.778916938331253"><ele>8.2</ele><time>2026-04-12T13:35:21.001Z</time></trkpt><trkpt lat="44.50335039372705" lon="11.779027081014831"><ele>8.6</ele><time>2026-04-12T13:35:22.001Z</time></trkpt><trkpt lat="44.50330388893126" lon="11.779132508624402"><ele>9.0</ele><time>2026-04-12T13:35:23.001Z</time></trkpt><trkpt lat="44.50324884297471" lon="11.779251940809692"><ele>9.0</ele><time>2026-04-12T13:35:24.001Z</time></trkpt><trkpt lat="44.50318190074097" lon="11.779402516108139"><ele>9.0</ele><time>2026-04-12T13:35:25.001Z</time></trkpt><trkpt lat="44.50311243041206" lon="11.779557915071036"><ele>9.0</ele><time>2026-04-12T13:35:26.001Z</time></trkpt><trkpt lat="44.50304250245201" lon="11.77971467507077"><ele>9.0</ele><time>2026-04-12T13:35:27.001Z</time></trkpt><trkpt lat="44.50296922804866" lon="11.779892147542142"><ele>9.666666666666666</ele><time>2026-04-12T13:35:28.001Z</time></trkpt><trkpt lat="44.50288806515299" lon="11.780082369544624"><ele>10.333333333333332</ele><time>2026-04-12T13:35:29.001Z</time></trkpt><trkpt lat="44.502798829305355" lon="11.780276806273019"><ele>11.0</ele><time>2026-04-12T13:35:30.001Z</time></trkpt><trkpt lat="44.502704669910344" lon="11.780477074379565"><ele>11.0</ele><time>2026-04-12T13:35:31.001Z</time></trkpt><trkpt lat="44.50262195647989" lon="11.780677876337135"><ele>11.0</ele><time>2026-04-12T13:35:32.001Z</time></trkpt><trkpt lat="44.50254617412407" lon="11.78084590358271"><ele>11.0</ele><time>2026-04-12T13:35:33.001Z</time></trkpt><trkpt lat="44.50247276644551" lon="11.781010549420769"><ele>11.0</ele><time>2026-04-12T13:35:34.001Z</time></trkpt><trkpt lat="44.50239805540043" lon="11.781176015359803"><ele>10.5</ele><time>2026-04-12T13:35:35.001Z</time></trkpt><trkpt lat="44.50232606090091" lon="11.781339181485178"><ele>10.0</ele><time>2026-04-12T13:35:36.001Z</time></trkpt><trkpt lat="44.50225906213509" lon="11.781494195728742"><ele>9.5</ele><time>2026-04-12T13:35:37.001Z</time></trkpt><trkpt lat="44.502192261701936" lon="11.781638537204238"><ele>9.0</ele><time>2026-04-12T13:35:38.001Z</time></trkpt><trkpt lat="44.50213329553991" lon="11.781766604171617"><ele>9.0</ele><time>2026-04-12T13:35:39.001Z</time></trkpt><trkpt lat="44.50208287143519" lon="11.781880747150343"><ele>9.0</ele><time>2026-04-12T13:35:40.001Z</time></trkpt><trkpt lat="44.502034984055996" lon="11.781990084143683"><ele>9.0</ele><time>2026-04-12T13:35:41.001Z</time></trkpt><trkpt lat="44.5019921750749" lon="11.782090339417019"><ele>9.0</ele><time>2026-04-12T13:35:42.001Z</time></trkpt><trkpt lat="44.501961507303804" lon="11.782169713047033"><ele>9.0</ele><time>2026-04-12T13:35:43.001Z</time></trkpt><trkpt lat="44.50188914047022" lon="11.782263716963424"><ele>9.0</ele><time>2026-04-12T13:35:45.001Z</time></trkpt><trkpt lat="44.50176563391183" lon="11.78225021087354"><ele>9.0</ele><time>2026-04-12T13:35:47.001Z</time></trkpt><trkpt lat="44.501692300923025" lon="11.782175110843335"><ele>9.0</ele><time>2026-04-12T13:35:48.001Z</time></trkpt><trkpt lat="44.50160836435591" lon="11.782070906353097"><ele>9.0</ele><time>2026-04-12T13:35:49.001Z</time></trkpt><trkpt lat="44.5015147789607" lon="11.781963720158512"><ele>9.0</ele><time>2026-04-12T13:35:50.001Z</time></trkpt><trkpt lat="44.50142271768454" lon="11.781862350129304"><ele>9.0</ele><time>2026-04-12T13:35:51.001Z</time></trkpt><trkpt lat="44.501315165448645" lon="11.781745045603456"><ele>9.25</ele><time>2026-04-12T13:35:52.001Z</time></trkpt><trkpt lat="44.501202519626176" lon="11.781621927679614"><ele>9.5</ele><time>2026-04-12T13:35:53.001Z</time></trkpt><trkpt lat="44.50108381989937" lon="11.781501571135612"><ele>9.75</ele><time>2026-04-12T13:35:54.001Z</time></trkpt><trkpt lat="44.50095971531238" lon="11.781375379036533"><ele>10.0</ele><time>2026-04-12T13:35:55.001Z</time></trkpt><trkpt lat="44.50083493099936" lon="11.781246133681508"><ele>10.0</ele><time>2026-04-12T13:35:56.001Z</time></trkpt><trkpt lat="44.500711644116734" lon="11.781120844110408"><ele>10.0</ele><time>2026-04-12T13:35:57.001Z</time></trkpt><trkpt lat="44.50059105059773" lon="11.780995808871408"><ele>10.0</ele><time>2026-04-12T13:35:58.001Z</time></trkpt><trkpt lat="44.50046337720116" lon="11.78086408193907"><ele>9.666666666666668</ele><time>2026-04-12T13:35:59.001Z</time></trkpt><trkpt lat="44.50033309631563" lon="11.78072768674707"><ele>9.333333333333334</ele><time>2026-04-12T13:36:00.001Z</time></trkpt><trkpt lat="44.500199370395706" lon="11.780585065021207"><ele>9.0</ele><time>2026-04-12T13:36:01.001Z</time></trkpt><trkpt lat="44.50006806611079" lon="11.780447605352546"><ele>9.0</ele><time>2026-04-12T13:36:02.001Z</time></trkpt><trkpt lat="44.499933870668116" lon="11.780310696946547"><ele>9.0</ele><time>2026-04-12T13:36:03.001Z</time></trkpt><trkpt lat="44.49979943596249" lon="11.780171623200475"><ele>9.0</ele><time>2026-04-12T13:36:04.001Z</time></trkpt><trkpt lat="44.499664943379955" lon="11.78003047099429"><ele>8.666666666666666</ele><time>2026-04-12T13:36:05.001Z</time></trkpt><trkpt lat="44.499525250692855" lon="11.779886888023077"><ele>8.333333333333332</ele><time>2026-04-12T13:36:06.002Z</time></trkpt><trkpt lat="44.499380591912974" lon="11.779739645820754"><ele>8.0</ele><time>2026-04-12T13:36:07.002Z</time></trkpt><trkpt lat="44.499234100273085" lon="11.779587644319855"><ele>8.0</ele><time>2026-04-12T13:36:08.002Z</time></trkpt><trkpt lat="44.499089415151495" lon="11.779437871954922"><ele>8.0</ele><time>2026-04-12T13:36:09.002Z</time></trkpt><trkpt lat="44.4989584405027" lon="11.779301145225158"><ele>8.0</ele><time>2026-04-12T13:36:10.002Z</time></trkpt><trkpt lat="44.49883255645524" lon="11.779169629171053"><ele>8.0</ele><time>2026-04-12T13:36:11.002Z</time></trkpt><trkpt lat="44.4987031501046" lon="11.779036410807578"><ele>8.0</ele><time>2026-04-12T13:36:12.002Z</time></trkpt><trkpt lat="44.49857314305158" lon="11.778901537124192"><ele>8.0</ele><time>2026-04-12T13:36:13.002Z</time></trkpt><trkpt lat="44.498441877720126" lon="11.778763130730738"><ele>8.0</ele><time>2026-04-12T13:36:14.002Z</time></trkpt><trkpt lat="44.49831194399595" lon="11.778630662475276"><ele>8.0</ele><time>2026-04-12T13:36:15.002Z</time></trkpt><trkpt lat="44.49818753738671" lon="11.778499754195046"><ele>8.0</ele><time>2026-04-12T13:36:16.002Z</time></trkpt><trkpt lat="44.498067945008756" lon="11.778373775393531"><ele>8.25</ele><time>2026-04-12T13:36:17.002Z</time></trkpt><trkpt lat="44.49795854462084" lon="11.778254312806526"><ele>8.5</ele><time>2026-04-12T13:36:18.002Z</time></trkpt><trkpt lat="44.49785440441728" lon="11.778145388620688"><ele>8.75</ele><time>2026-04-12T13:36:19.002Z</time></trkpt><trkpt lat="44.49775514685431" lon="11.778040592821368"><ele>9.0</ele><time>2026-04-12T13:36:20.002Z</time></trkpt><trkpt lat="44.49766176601516" lon="11.777940873073018"><ele>9.0</ele><time>2026-04-12T13:36:21.002Z</time></trkpt><trkpt lat="44.49758041180462" lon="11.777852719403432"><ele>9.0</ele><time>2026-04-12T13:36:22.002Z</time></trkpt><trkpt lat="44.497502423598526" lon="11.77777101560298"><ele>9.0</ele><time>2026-04-12T13:36:23.002Z</time></trkpt><trkpt lat="44.49743232168093" lon="11.777697541657044"><ele>9.0</ele><time>2026-04-12T13:36:24.002Z</time></trkpt><trkpt lat="44.49737005864625" lon="11.777635140822307"><ele>9.0</ele><time>2026-04-12T13:36:25.002Z</time></trkpt><trkpt lat="44.497314871244676" lon="11.777578970433684"><ele>9.0</ele><time>2026-04-12T13:36:26.002Z</time></trkpt><trkpt lat="44.49725884363718" lon="11.777534288519378"><ele>9.0</ele><time>2026-04-12T13:36:27.002Z</time></trkpt><trkpt lat="44.49718896148375" lon="11.777521397902005"><ele>9.0</ele><time>2026-04-12T13:36:28.002Z</time></trkpt><trkpt lat="44.49710734664431" lon="11.777562906325375"><ele>9.0</ele><time>2026-04-12T13:36:29.002Z</time></trkpt><trkpt lat="44.49702943804512" lon="11.777661137214894"><ele>9.0</ele><time>2026-04-12T13:36:30.002Z</time></trkpt><trkpt lat="44.49696625843185" lon="11.777794541349415"><ele>9.0</ele><time>2026-04-12T13:36:31.002Z</time></trkpt><trkpt lat="44.49690342848571" lon="11.777928348360717"><ele>9.5</ele><time>2026-04-12T13:36:32.002Z</time></trkpt><trkpt lat="44.496826892317834" lon="11.778069780475404"><ele>10.0</ele><time>2026-04-12T13:36:33.002Z</time></trkpt><trkpt lat="44.4967396234714" lon="11.778238460924324"><ele>10.5</ele><time>2026-04-12T13:36:34.002Z</time></trkpt><trkpt lat="44.49666013067275" lon="11.778383005475185"><ele>11.0</ele><time>2026-04-12T13:36:35.002Z</time></trkpt><trkpt lat="44.49658783048132" lon="11.778507694171308"><ele>11.0</ele><time>2026-04-12T13:36:36.002Z</time></trkpt><trkpt lat="44.49653451234524" lon="11.778618747975965"><ele>11.0</ele><time>2026-04-12T13:36:37.002Z</time></trkpt><trkpt lat="44.49648210314936" lon="11.778720525606053"><ele>11.0</ele><time>2026-04-12T13:36:38.002Z</time></trkpt><trkpt lat="44.49643242839714" lon="11.778807253112548"><ele>11.0</ele><time>2026-04-12T13:36:39.002Z</time></trkpt><trkpt lat="44.49638965520641" lon="11.778898598083178"><ele>11.0</ele><time>2026-04-12T13:36:40.002Z</time></trkpt><trkpt lat="44.49634393635111" lon="11.778976314399769"><ele>11.0</ele><time>2026-04-12T13:36:41.002Z</time></trkpt><trkpt lat="44.49625293166862" lon="11.779060297884973"><ele>11.0</ele><time>2026-04-12T13:36:43.002Z</time></trkpt><trkpt lat="44.49619033418721" lon="11.77902907001034"><ele>11.0</ele><time>2026-04-12T13:36:44.002Z</time></trkpt><trkpt lat="44.49614341699852" lon="11.778947199514933"><ele>11.0</ele><time>2026-04-12T13:36:45.002Z</time></trkpt><trkpt lat="44.49610754023254" lon="11.778833165808733"><ele>11.0</ele><time>2026-04-12T13:36:46.002Z</time></trkpt><trkpt lat="44.496062777631955" lon="11.778715619797874"><ele>11.0</ele><time>2026-04-12T13:36:47.002Z</time></trkpt><trkpt lat="44.4960116598477" lon="11.778587544755975"><ele>11.0</ele><time>2026-04-12T13:36:48.001Z</time></trkpt><trkpt lat="44.49594975257976" lon="11.778459148605783"><ele>11.25</ele><time>2026-04-12T13:36:49.001Z</time></trkpt><trkpt lat="44.495870635105206" lon="11.778318840789561"><ele>11.5</ele><time>2026-04-12T13:36:50.001Z</time></trkpt><trkpt lat="44.495785834934466" lon="11.778169177551256"><ele>11.75</ele><time>2026-04-12T13:36:51.001Z</time></trkpt><trkpt lat="44.49570336971383" lon="11.7780169428512"><ele>12.0</ele><time>2026-04-12T13:36:52.001Z</time></trkpt><trkpt lat="44.4956206677078" lon="11.77783522685029"><ele>12.0</ele><time>2026-04-12T13:36:53.001Z</time></trkpt><trkpt lat="44.49554472357684" lon="11.777637224802728"><ele>12.0</ele><time>2026-04-12T13:36:54.001Z</time></trkpt><trkpt lat="44.49547887125761" lon="11.777420977862036"><ele>12.0</ele><time>2026-04-12T13:36:55.001Z</time></trkpt><trkpt lat="44.495413371027404" lon="11.777180020392418"><ele>10.666666666666666</ele><time>2026-04-12T13:36:56.001Z</time></trkpt><trkpt lat="44.495341352639294" lon="11.776905927412685"><ele>9.333333333333332</ele><time>2026-04-12T13:36:57.001Z</time></trkpt><trkpt lat="44.495282037630254" lon="11.776663083069348"><ele>8.0</ele><time>2026-04-12T13:36:58.001Z</time></trkpt><trkpt lat="44.49523707153557" lon="11.776455756626525"><ele>8.0</ele><time>2026-04-12T13:36:59.001Z</time></trkpt><trkpt lat="44.49519197158384" lon="11.776254148886933"><ele>8.0</ele><time>2026-04-12T13:37:00.001Z</time></trkpt><trkpt lat="44.49515038247753" lon="11.776065904620173"><ele>8.0</ele><time>2026-04-12T13:37:01.001Z</time></trkpt><trkpt lat="44.49511517172827" lon="11.775894562839618"><ele>8.0</ele><time>2026-04-12T13:37:02.001Z</time></trkpt><trkpt lat="44.49508034389619" lon="11.77573235417918"><ele>8.25</ele><time>2026-04-12T13:37:03.001Z</time></trkpt><trkpt lat="44.49503310203024" lon="11.77556855361569"><ele>8.5</ele><time>2026-04-12T13:37:04.001Z</time></trkpt><trkpt lat="44.49496643836553" lon="11.775414698674398"><ele>8.75</ele><time>2026-04-12T13:37:05.001Z</time></trkpt><trkpt lat="44.49487931101187" lon="11.775270681960846"><ele>9.0</ele><time>2026-04-12T13:37:06.001Z</time></trkpt><trkpt lat="44.494767134591484" lon="11.77514198542352"><ele>9.0</ele><time>2026-04-12T13:37:07.001Z</time></trkpt><trkpt lat="44.49464906932688" lon="11.775027048696593"><ele>9.0</ele><time>2026-04-12T13:37:08.001Z</time></trkpt><trkpt lat="44.494523437788104" lon="11.77491925963498"><ele>9.0</ele><time>2026-04-12T13:37:09.001Z</time></trkpt><trkpt lat="44.49440360541022" lon="11.774828402129506"><ele>9.0</ele><time>2026-04-12T13:37:10.001Z</time></trkpt><trkpt lat="44.4942833196609" lon="11.77475618795023"><ele>9.0</ele><time>2026-04-12T13:37:11.001Z</time></trkpt><trkpt lat="44.49416990213229" lon="11.774700206961938"><ele>9.0</ele><time>2026-04-12T13:37:12.001Z</time></trkpt><trkpt lat="44.49405689397533" lon="11.774663996431478"><ele>9.0</ele><time>2026-04-12T13:37:13.001Z</time></trkpt><trkpt lat="44.49394010904471" lon="11.774653241457912"><ele>9.0</ele><time>2026-04-12T13:37:14.001Z</time></trkpt><trkpt lat="44.493822716215725" lon="11.77467603538916"><ele>9.25</ele><time>2026-04-12T13:37:15.001Z</time></trkpt><trkpt lat="44.49370464559622" lon="11.774741448409236"><ele>9.5</ele><time>2026-04-12T13:37:16.001Z</time></trkpt><trkpt lat="44.49359494759843" lon="11.774845115057712"><ele>9.75</ele><time>2026-04-12T13:37:17.001Z</time></trkpt><trkpt lat="44.49349649715049" lon="11.774958876460325"><ele>10.0</ele><time>2026-04-12T13:37:18.001Z</time></trkpt><trkpt lat="44.49340550517629" lon="11.775050506731619"><ele>10.0</ele><time>2026-04-12T13:37:19.001Z</time></trkpt><trkpt lat="44.493302013412766" lon="11.775109023646458"><ele>10.0</ele><time>2026-04-12T13:37:20.001Z</time></trkpt><trkpt lat="44.49318932443165" lon="11.775133493626482"><ele>10.0</ele><time>2026-04-12T13:37:21.001Z</time></trkpt><trkpt lat="44.493076583895196" lon="11.775118387463166"><ele>10.0</ele><time>2026-04-12T13:37:22.001Z</time></trkpt><trkpt lat="44.49297034399372" lon="11.775083713215071"><ele>10.0</ele><time>2026-04-12T13:37:23.001Z</time></trkpt><trkpt lat="44.49287776005012" lon="11.77502553468437"><ele>10.333333333333334</ele><time>2026-04-12T13:37:24.001Z</time></trkpt><trkpt lat="44.492801961381424" lon="11.774957757019626"><ele>10.666666666666668</ele><time>2026-04-12T13:37:25.001Z</time></trkpt><trkpt lat="44.4927368321768" lon="11.774893782619115"><ele>11.0</ele><time>2026-04-12T13:37:26.001Z</time></trkpt><trkpt lat="44.492678528584996" lon="11.774837594552292"><ele>11.333333333333334</ele><time>2026-04-12T13:37:27.001Z</time></trkpt><trkpt lat="44.49262531248505" lon="11.774788229564756"><ele>11.666666666666666</ele><time>2026-04-12T13:37:28.001Z</time></trkpt><trkpt lat="44.49255426872134" lon="11.774705334837728"><ele>12.0</ele><time>2026-04-12T13:37:30.001Z</time></trkpt><trkpt lat="44.49248108909363" lon="11.774698756879314"><ele>12.0</ele><time>2026-04-12T13:37:34.001Z</time></trkpt><trkpt lat="44.49242688363179" lon="11.774802736976103"><ele>12.0</ele><time>2026-04-12T13:37:36.001Z</time></trkpt><trkpt lat="44.4923977420082" lon="11.774905678989315"><ele>12.0</ele><time>2026-04-12T13:37:37.001Z</time></trkpt><trkpt lat="44.49235827163477" lon="11.775004310787295"><ele>12.0</ele><time>2026-04-12T13:37:38.001Z</time></trkpt><trkpt lat="44.492314408114225" lon="11.775104132117965"><ele>12.0</ele><time>2026-04-12T13:37:39.001Z</time></trkpt><trkpt lat="44.492283586494565" lon="11.775214448569898"><ele>12.0</ele><time>2026-04-12T13:37:40.001Z</time></trkpt><trkpt lat="44.492252575537705" lon="11.775330950125056"><ele>11.666666666666666</ele><time>2026-04-12T13:37:41.001Z</time></trkpt><trkpt lat="44.49220833365938" lon="11.775455806820228"><ele>11.333333333333334</ele><time>2026-04-12T13:37:42.001Z</time></trkpt><trkpt lat="44.492172432330406" lon="11.775564238697998"><ele>11.0</ele><time>2026-04-12T13:37:43.001Z</time></trkpt><trkpt lat="44.492148586430275" lon="11.775658330668444"><ele>10.666666666666668</ele><time>2026-04-12T13:37:44.001Z</time></trkpt><trkpt lat="44.49212396916961" lon="11.775745846999037"><ele>10.333333333333334</ele><time>2026-04-12T13:37:45.001Z</time></trkpt><trkpt lat="44.49203641827434" lon="11.775863624318722"><ele>10.0</ele><time>2026-04-12T13:37:47.001Z</time></trkpt><trkpt lat="44.49197252536145" lon="11.77586224066517"><ele>9.6</ele><time>2026-04-12T13:37:48.001Z</time></trkpt><trkpt lat="44.491907890800256" lon="11.775812845807627"><ele>9.2</ele><time>2026-04-12T13:37:49.001Z</time></trkpt><trkpt lat="44.4918507274167" lon="11.77571085900113"><ele>8.8</ele><time>2026-04-12T13:37:50.001Z</time></trkpt><trkpt lat="44.491804719211956" lon="11.775573202812769"><ele>8.4</ele><time>2026-04-12T13:37:51.001Z</time></trkpt><trkpt lat="44.49175782938967" lon="11.775444560328943"><ele>8.0</ele><time>2026-04-12T13:37:52.001Z</time></trkpt><trkpt lat="44.491695074346595" lon="11.775302067542734"><ele>8.0</ele><time>2026-04-12T13:37:53.001Z</time></trkpt><trkpt lat="44.491619546783696" lon="11.775143162016873"><ele>8.0</ele><time>2026-04-12T13:37:54.001Z</time></trkpt><trkpt lat="44.491546725895134" lon="11.774987913113677"><ele>8.0</ele><time>2026-04-12T13:37:55.001Z</time></trkpt><trkpt lat="44.49145943190569" lon="11.774829175148259"><ele>8.0</ele><time>2026-04-12T13:37:56.001Z</time></trkpt><trkpt lat="44.49134655438771" lon="11.774681095512179"><ele>8.0</ele><time>2026-04-12T13:37:57.001Z</time></trkpt><trkpt lat="44.49121428141476" lon="11.774556411737692"><ele>8.0</ele><time>2026-04-12T13:37:58.001Z</time></trkpt><trkpt lat="44.49106873910212" lon="11.774451572912138"><ele>8.0</ele><time>2026-04-12T13:37:59.001Z</time></trkpt><trkpt lat="44.49091805909623" lon="11.7743439198369"><ele>8.333333333333332</ele><time>2026-04-12T13:38:00.001Z</time></trkpt><trkpt lat="44.490768307246675" lon="11.774234282813078"><ele>8.666666666666666</ele><time>2026-04-12T13:38:01.001Z</time></trkpt><trkpt lat="44.490619416451196" lon="11.774130586569097"><ele>9.0</ele><time>2026-04-12T13:38:02.001Z</time></trkpt><trkpt lat="44.490464668818426" lon="11.774024815908072"><ele>8.666666666666666</ele><time>2026-04-12T13:38:03.001Z</time></trkpt><trkpt lat="44.49030839565636" lon="11.773913490335838"><ele>8.333333333333332</ele><time>2026-04-12T13:38:04.001Z</time></trkpt><trkpt lat="44.490145604399316" lon="11.773796163277016"><ele>8.0</ele><time>2026-04-12T13:38:05.001Z</time></trkpt><trkpt lat="44.48997869189269" lon="11.773674030632014"><ele>8.0</ele><time>2026-04-12T13:38:06.001Z</time></trkpt><trkpt lat="44.48980481956649" lon="11.773548413417133"><ele>8.0</ele><time>2026-04-12T13:38:07.001Z</time></trkpt><trkpt lat="44.489629432351954" lon="11.773426191161258"><ele>8.0</ele><time>2026-04-12T13:38:08.001Z</time></trkpt><trkpt lat="44.48944917364348" lon="11.773299417521862"><ele>8.666666666666666</ele><time>2026-04-12T13:38:09.001Z</time></trkpt><trkpt lat="44.4892855908217" lon="11.773179591082533"><ele>9.333333333333334</ele><time>2026-04-12T13:38:10.001Z</time></trkpt><trkpt lat="44.489129890730744" lon="11.773066907880668"><ele>10.0</ele><time>2026-04-12T13:38:11.001Z</time></trkpt><trkpt lat="44.488983543815834" lon="11.772964300320963"><ele>10.0</ele><time>2026-04-12T13:38:12.001Z</time></trkpt><trkpt lat="44.48883851286701" lon="11.772866223458479"><ele>10.0</ele><time>2026-04-12T13:38:13.001Z</time></trkpt><trkpt lat="44.488689169511225" lon="11.772770081743724"><ele>10.0</ele><time>2026-04-12T13:38:14.001Z</time></trkpt><trkpt lat="44.48853048557141" lon="11.772685494352967"><ele>10.0</ele><time>2026-04-12T13:38:15.001Z</time></trkpt><trkpt lat="44.488366553968014" lon="11.772597213168305"><ele>10.0</ele><time>2026-04-12T13:38:16.001Z</time></trkpt><trkpt lat="44.48820194471431" lon="11.772490686203113"><ele>10.0</ele><time>2026-04-12T13:38:17.001Z</time></trkpt><trkpt lat="44.4880378415816" lon="11.772346314470974"><ele>10.333333333333334</ele><time>2026-04-12T13:38:18.001Z</time></trkpt><trkpt lat="44.48787947074829" lon="11.772184052213769"><ele>10.666666666666666</ele><time>2026-04-12T13:38:19.001Z</time></trkpt><trkpt lat="44.48772895734658" lon="11.772020271553986"><ele>11.0</ele><time>2026-04-12T13:38:20.001Z</time></trkpt><trkpt lat="44.4875810462447" lon="11.771839408446365"><ele>11.0</ele><time>2026-04-12T13:38:21.001Z</time></trkpt><trkpt lat="44.48744835220332" lon="11.7716493953649"><ele>11.0</ele><time>2026-04-12T13:38:22.001Z</time></trkpt><trkpt lat="44.487323109822725" lon="11.771448927283028"><ele>11.0</ele><time>2026-04-12T13:38:23.001Z</time></trkpt><trkpt lat="44.487184982291325" lon="11.771238147153197"><ele>10.666666666666666</ele><time>2026-04-12T13:38:24.001Z</time></trkpt><trkpt lat="44.487059852074005" lon="11.771031679868129"><ele>10.333333333333334</ele><time>2026-04-12T13:38:25.001Z</time></trkpt><trkpt lat="44.48693505372622" lon="11.770827499218692"><ele>10.0</ele><time>2026-04-12T13:38:26.001Z</time></trkpt><trkpt lat="44.48680029744705" lon="11.770623199989188"><ele>10.0</ele><time>2026-04-12T13:38:27.001Z</time></trkpt><trkpt lat="44.48667017999818" lon="11.770413903540291"><ele>10.0</ele><time>2026-04-12T13:38:28.001Z</time></trkpt><trkpt lat="44.48653638228732" lon="11.770209718867722"><ele>10.0</ele><time>2026-04-12T13:38:29.001Z</time></trkpt><trkpt lat="44.48640582626808" lon="11.770009822169028"><ele>10.0</ele><time>2026-04-12T13:38:30.001Z</time></trkpt><trkpt lat="44.486281622063345" lon="11.769810203681809"><ele>10.0</ele><time>2026-04-12T13:38:31.001Z</time></trkpt><trkpt lat="44.48615744340896" lon="11.769610392538151"><ele>10.0</ele><time>2026-04-12T13:38:32.001Z</time></trkpt><trkpt lat="44.4860367904926" lon="11.769413500756617"><ele>10.666666666666668</ele><time>2026-04-12T13:38:33.001Z</time></trkpt><trkpt lat="44.485911946666434" lon="11.769215863750699"><ele>11.333333333333334</ele><time>2026-04-12T13:38:34.001Z</time></trkpt><trkpt lat="44.48579205388195" lon="11.769021894464313"><ele>12.0</ele><time>2026-04-12T13:38:35.001Z</time></trkpt><trkpt lat="44.485675043115606" lon="11.768826011810186"><ele>12.0</ele><time>2026-04-12T13:38:36.001Z</time></trkpt><trkpt lat="44.485559332382635" lon="11.768627078994474"><ele>12.0</ele><time>2026-04-12T13:38:37.001Z</time></trkpt><trkpt lat="44.485442512142605" lon="11.768435612749427"><ele>12.0</ele><time>2026-04-12T13:38:38.001Z</time></trkpt><trkpt lat="44.48531674830696" lon="11.768245771500695"><ele>11.666666666666666</ele><time>2026-04-12T13:38:39.001Z</time></trkpt><trkpt lat="44.48519038969707" lon="11.768071317709255"><ele>11.333333333333332</ele><time>2026-04-12T13:38:40.001Z</time></trkpt><trkpt lat="44.48506329658233" lon="11.767896092463086"><ele>11.0</ele><time>2026-04-12T13:38:41.001Z</time></trkpt><trkpt lat="44.484931400369945" lon="11.767724851414355"><ele>11.0</ele><time>2026-04-12T13:38:42.001Z</time></trkpt><trkpt lat="44.48480064680885" lon="11.767549290583359"><ele>11.0</ele><time>2026-04-12T13:38:43.001Z</time></trkpt><trkpt lat="44.484675161758496" lon="11.76736790825666"><ele>11.0</ele><time>2026-04-12T13:38:44.001Z</time></trkpt><trkpt lat="44.48455757929383" lon="11.767192867899837"><ele>11.0</ele><time>2026-04-12T13:38:45.001Z</time></trkpt><trkpt lat="44.48444019472011" lon="11.7670166768011"><ele>11.0</ele><time>2026-04-12T13:38:46.001Z</time></trkpt><trkpt lat="44.48432400560031" lon="11.766834362483692"><ele>11.0</ele><time>2026-04-12T13:38:47.001Z</time></trkpt><trkpt lat="44.48420668983256" lon="11.76665972911944"><ele>11.0</ele><time>2026-04-12T13:38:48.001Z</time></trkpt><trkpt lat="44.484075505556085" lon="11.76649392582953"><ele>11.0</ele><time>2026-04-12T13:38:49.001Z</time></trkpt><trkpt lat="44.48393313415873" lon="11.76636003619995"><ele>11.0</ele><time>2026-04-12T13:38:50.001Z</time></trkpt><trkpt lat="44.4837764895495" lon="11.766236415117122"><ele>11.0</ele><time>2026-04-12T13:38:51.001Z</time></trkpt><trkpt lat="44.483620010077836" lon="11.766104846043524"><ele>11.0</ele><time>2026-04-12T13:38:52.001Z</time></trkpt><trkpt lat="44.48349018575248" lon="11.765960056720937"><ele>11.0</ele><time>2026-04-12T13:38:53.001Z</time></trkpt><trkpt lat="44.48336881009758" lon="11.76580069903385"><ele>11.0</ele><time>2026-04-12T13:38:54Z</time></trkpt><trkpt lat="44.48325047851099" lon="11.765629579116451"><ele>11.0</ele><time>2026-04-12T13:38:55Z</time></trkpt><trkpt lat="44.483130579234995" lon="11.765454062174276"><ele>11.0</ele><time>2026-04-12T13:38:56Z</time></trkpt><trkpt lat="44.483000407810344" lon="11.765273169524152"><ele>10.333333333333332</ele><time>2026-04-12T13:38:57Z</time></trkpt><trkpt lat="44.48288027809023" lon="11.765082212506016"><ele>9.666666666666666</ele><time>2026-04-12T13:38:58Z</time></trkpt><trkpt lat="44.4827742369468" lon="11.764883279492416"><ele>9.0</ele><time>2026-04-12T13:38:59Z</time></trkpt><trkpt lat="44.48265528876554" lon="11.764694779375457"><ele>9.0</ele><time>2026-04-12T13:39:00Z</time></trkpt><trkpt lat="44.48251148621806" lon="11.764535183462147"><ele>9.0</ele><time>2026-04-12T13:39:01Z</time></trkpt><trkpt lat="44.48235329080856" lon="11.764388245331302"><ele>9.0</ele><time>2026-04-12T13:39:02Z</time></trkpt><trkpt lat="44.482189934624685" lon="11.764247946152308"><ele>10.0</ele><time>2026-04-12T13:39:03Z</time></trkpt><trkpt lat="44.482021356981186" lon="11.764109453523263"><ele>11.0</ele><time>2026-04-12T13:39:04Z</time></trkpt><trkpt lat="44.481860497023554" lon="11.763965980146136"><ele>12.0</ele><time>2026-04-12T13:39:05Z</time></trkpt><trkpt lat="44.48170913069489" lon="11.763801403680077"><ele>12.0</ele><time>2026-04-12T13:39:06Z</time></trkpt><trkpt lat="44.481570288697355" lon="11.763616996745276"><ele>12.0</ele><time>2026-04-12T13:39:07Z</time></trkpt><trkpt lat="44.48143848647718" lon="11.763427539676366"><ele>12.0</ele><time>2026-04-12T13:39:08Z</time></trkpt><trkpt lat="44.48130688929203" lon="11.76323731992766"><ele>12.0</ele><time>2026-04-12T13:39:09Z</time></trkpt><trkpt lat="44.48116953919668" lon="11.763048211316669"><ele>12.0</ele><time>2026-04-12T13:39:10Z</time></trkpt><trkpt lat="44.48103131303427" lon="11.762855883218183"><ele>12.0</ele><time>2026-04-12T13:39:11Z</time></trkpt><trkpt lat="44.4808996230747" lon="11.762663694722715"><ele>12.0</ele><time>2026-04-12T13:39:12Z</time></trkpt><trkpt lat="44.48076251420485" lon="11.762465467738537"><ele>12.0</ele><time>2026-04-12T13:39:13Z</time></trkpt><trkpt lat="44.48062063064201" lon="11.762266067015055"><ele>12.0</ele><time>2026-04-12T13:39:14Z</time></trkpt><trkpt lat="44.4804875652682" lon="11.762073759428242"><ele>12.0</ele><time>2026-04-12T13:39:15Z</time></trkpt><trkpt lat="44.48035670188322" lon="11.761891215519316"><ele>12.0</ele><time>2026-04-12T13:39:16Z</time></trkpt><trkpt lat="44.480240375348686" lon="11.761725772287111"><ele>12.0</ele><time>2026-04-12T13:39:17Z</time></trkpt><trkpt lat="44.48012673201826" lon="11.761564149710706"><ele>12.0</ele><time>2026-04-12T13:39:18Z</time></trkpt><trkpt lat="44.48001038745176" lon="11.76139718130189"><ele>12.0</ele><time>2026-04-12T13:39:19Z</time></trkpt><trkpt lat="44.47989567216979" lon="11.761230856645424"><ele>12.0</ele><time>2026-04-12T13:39:20Z</time></trkpt><trkpt lat="44.47977981164958" lon="11.76107159863413"><ele>12.333333333333332</ele><time>2026-04-12T13:39:21Z</time></trkpt><trkpt lat="44.47965189813023" lon="11.760909632663397"><ele>12.666666666666666</ele><time>2026-04-12T13:39:22Z</time></trkpt><trkpt lat="44.47951273366466" lon="11.760754177264374"><ele>13.0</ele><time>2026-04-12T13:39:23Z</time></trkpt><trkpt lat="44.47935957422888" lon="11.76060463164262"><ele>13.0</ele><time>2026-04-12T13:39:24Z</time></trkpt><trkpt lat="44.4792034878267" lon="11.760457899750252"><ele>13.0</ele><time>2026-04-12T13:39:25Z</time></trkpt><trkpt lat="44.479051239197084" lon="11.760305593529223"><ele>13.0</ele><time>2026-04-12T13:39:26Z</time></trkpt><trkpt lat="44.4788971056993" lon="11.760143704837898"><ele>12.666666666666666</ele><time>2026-04-12T13:39:27Z</time></trkpt><trkpt lat="44.47873945117884" lon="11.75998551976707"><ele>12.333333333333332</ele><time>2026-04-12T13:39:28Z</time></trkpt><trkpt lat="44.47857466015827" lon="11.759817871831377"><ele>12.0</ele><time>2026-04-12T13:39:29Z</time></trkpt><trkpt lat="44.47841396718344" lon="11.759648454042138"><ele>12.0</ele><time>2026-04-12T13:39:30Z</time></trkpt><trkpt lat="44.47825889738412" lon="11.759486393346593"><ele>12.0</ele><time>2026-04-12T13:39:31Z</time></trkpt><trkpt lat="44.47810797786131" lon="11.759329065810672"><ele>12.0</ele><time>2026-04-12T13:39:32Z</time></trkpt><trkpt lat="44.4779627953072" lon="11.759169996902578"><ele>12.333333333333332</ele><time>2026-04-12T13:39:33Z</time></trkpt><trkpt lat="44.4778283715392" lon="11.759017310124326"><ele>12.666666666666666</ele><time>2026-04-12T13:39:34Z</time></trkpt><trkpt lat="44.47768479388808" lon="11.758855513519913"><ele>13.0</ele><time>2026-04-12T13:39:35Z</time></trkpt><trkpt lat="44.47754304227556" lon="11.758695619564255"><ele>13.0</ele><time>2026-04-12T13:39:36Z</time></trkpt><trkpt lat="44.47740300038978" lon="11.75853693996031"><ele>13.0</ele><time>2026-04-12T13:39:37Z</time></trkpt><trkpt lat="44.47726534513772" lon="11.758382135045633"><ele>13.0</ele><time>2026-04-12T13:39:38Z</time></trkpt><trkpt lat="44.47712463709496" lon="11.758225271283102"><ele>13.333333333333332</ele><time>2026-04-12T13:39:39Z</time></trkpt><trkpt lat="44.476985377503844" lon="11.758073665367464"><ele>13.666666666666668</ele><time>2026-04-12T13:39:40Z</time></trkpt><trkpt lat="44.476848052896074" lon="11.75792581363772"><ele>14.0</ele><time>2026-04-12T13:39:41Z</time></trkpt><trkpt lat="44.47672355328274" lon="11.757790645489282"><ele>14.25</ele><time>2026-04-12T13:39:42Z</time></trkpt><trkpt lat="44.47660660337178" lon="11.757665924720849"><ele>14.5</ele><time>2026-04-12T13:39:43Z</time></trkpt><trkpt lat="44.47650289659433" lon="11.757547583675501"><ele>14.75</ele><time>2026-04-12T13:39:44Z</time></trkpt><trkpt lat="44.47640188251742" lon="11.757436580712005"><ele>15.0</ele><time>2026-04-12T13:39:45Z</time></trkpt><trkpt lat="44.47628818404255" lon="11.757327339397888"><ele>14.333333333333332</ele><time>2026-04-12T13:39:46Z</time></trkpt><trkpt lat="44.47616951535514" lon="11.7572078056879"><ele>13.666666666666666</ele><time>2026-04-12T13:39:47Z</time></trkpt><trkpt lat="44.47603476379381" lon="11.757076633083376"><ele>13.0</ele><time>2026-04-12T13:39:48Z</time></trkpt><trkpt lat="44.47588659631526" lon="11.756935398059069"><ele>13.0</ele><time>2026-04-12T13:39:49Z</time></trkpt><trkpt lat="44.47574006546321" lon="11.756797803347446"><ele>13.0</ele><time>2026-04-12T13:39:50Z</time></trkpt><trkpt lat="44.47557965657738" lon="11.756646339929393"><ele>13.0</ele><time>2026-04-12T13:39:51Z</time></trkpt><trkpt lat="44.47541609582146" lon="11.756490833554517"><ele>13.0</ele><time>2026-04-12T13:39:52Z</time></trkpt><trkpt lat="44.47524987567351" lon="11.756332278957903"><ele>13.0</ele><time>2026-04-12T13:39:53Z</time></trkpt><trkpt lat="44.47507413708785" lon="11.756166525209835"><ele>13.0</ele><time>2026-04-12T13:39:54Z</time></trkpt><trkpt lat="44.47490076771856" lon="11.756007188758442"><ele>13.0</ele><time>2026-04-12T13:39:55Z</time></trkpt><trkpt lat="44.47473980634301" lon="11.755859754987865"><ele>13.0</ele><time>2026-04-12T13:39:56Z</time></trkpt><trkpt lat="44.47458493826892" lon="11.755717027925531"><ele>13.0</ele><time>2026-04-12T13:39:57Z</time></trkpt><trkpt lat="44.47444128543119" lon="11.755582332967233"><ele>12.333333333333332</ele><time>2026-04-12T13:39:58Z</time></trkpt><trkpt lat="44.474294432095405" lon="11.755443852235384"><ele>11.666666666666666</ele><time>2026-04-12T13:39:59Z</time></trkpt><trkpt lat="44.47415199177473" lon="11.755309900969808"><ele>11.0</ele><time>2026-04-12T13:40:00Z</time></trkpt><trkpt lat="44.47401886930274" lon="11.755185353810012"><ele>11.0</ele><time>2026-04-12T13:40:01Z</time></trkpt><trkpt lat="44.473894566979126" lon="11.755070097342264"><ele>11.0</ele><time>2026-04-12T13:40:02Z</time></trkpt><trkpt lat="44.47377083372894" lon="11.754957648944046"><ele>11.0</ele><time>2026-04-12T13:40:03Z</time></trkpt><trkpt lat="44.473642524093556" lon="11.754838733411669"><ele>11.0</ele><time>2026-04-12T13:40:04Z</time></trkpt><trkpt lat="44.47351691610738" lon="11.75472146533596"><ele>11.0</ele><time>2026-04-12T13:40:05Z</time></trkpt><trkpt lat="44.47338481526946" lon="11.754601868284249"><ele>11.0</ele><time>2026-04-12T13:40:06Z</time></trkpt><trkpt lat="44.4732532042308" lon="11.754481070181003"><ele>11.333333333333332</ele><time>2026-04-12T13:40:07Z</time></trkpt><trkpt lat="44.47311677684087" lon="11.754358778347504"><ele>11.666666666666666</ele><time>2026-04-12T13:40:08Z</time></trkpt><trkpt lat="44.4729759955393" lon="11.75423345731284"><ele>12.0</ele><time>2026-04-12T13:40:09Z</time></trkpt><trkpt lat="44.47283105489004" lon="11.754105811163484"><ele>12.333333333333332</ele><time>2026-04-12T13:40:10Z</time></trkpt><trkpt lat="44.47268088313823" lon="11.753972736596598"><ele>12.666666666666666</ele><time>2026-04-12T13:40:11Z</time></trkpt><trkpt lat="44.47253171278873" lon="11.753840875600098"><ele>13.0</ele><time>2026-04-12T13:40:12Z</time></trkpt><trkpt lat="44.47238747735623" lon="11.753709680870251"><ele>13.0</ele><time>2026-04-12T13:40:13Z</time></trkpt><trkpt lat="44.472240417696604" lon="11.753576965724083"><ele>13.0</ele><time>2026-04-12T13:40:14Z</time></trkpt><trkpt lat="44.47209221817246" lon="11.753441200506911"><ele>13.0</ele><time>2026-04-12T13:40:15Z</time></trkpt><trkpt lat="44.47194469490617" lon="11.753309117885161"><ele>12.333333333333332</ele><time>2026-04-12T13:40:16Z</time></trkpt><trkpt lat="44.471800002350825" lon="11.753177339231838"><ele>11.666666666666666</ele><time>2026-04-12T13:40:17Z</time></trkpt><trkpt lat="44.4716573176452" lon="11.753051073479309"><ele>11.0</ele><time>2026-04-12T13:40:18Z</time></trkpt><trkpt lat="44.47152496807308" lon="11.752934608302423"><ele>11.0</ele><time>2026-04-12T13:40:19Z</time></trkpt><trkpt lat="44.471395360652984" lon="11.752819534744553"><ele>11.0</ele><time>2026-04-12T13:40:20Z</time></trkpt><trkpt lat="44.47126699964352" lon="11.75270419296501"><ele>11.0</ele><time>2026-04-12T13:40:21Z</time></trkpt><trkpt lat="44.47113709572497" lon="11.752587155436267"><ele>11.5</ele><time>2026-04-12T13:40:22Z</time></trkpt><trkpt lat="44.47101115688201" lon="11.752474105414969"><ele>12.0</ele><time>2026-04-12T13:40:23Z</time></trkpt><trkpt lat="44.470888935506736" lon="11.75236304032963"><ele>12.5</ele><time>2026-04-12T13:40:24Z</time></trkpt><trkpt lat="44.47076869072753" lon="11.752250763517926"><ele>13.0</ele><time>2026-04-12T13:40:25Z</time></trkpt><trkpt lat="44.47065516548668" lon="11.752143020232483"><ele>13.0</ele><time>2026-04-12T13:40:26Z</time></trkpt><trkpt lat="44.47053034225986" lon="11.75203387842432"><ele>13.0</ele><time>2026-04-12T13:40:27Z</time></trkpt><trkpt lat="44.4704054793496" lon="11.751926710088501"><ele>13.0</ele><time>2026-04-12T13:40:28Z</time></trkpt><trkpt lat="44.470281108619176" lon="11.751818330569755"><ele>13.0</ele><time>2026-04-12T13:40:29Z</time></trkpt><trkpt lat="44.47015420658387" lon="11.751707079475887"><ele>12.666666666666666</ele><time>2026-04-12T13:40:30Z</time></trkpt><trkpt lat="44.47002817109578" lon="11.751596140597886"><ele>12.333333333333332</ele><time>2026-04-12T13:40:31Z</time></trkpt><trkpt lat="44.469899435705045" lon="11.751482530771492"><ele>12.0</ele><time>2026-04-12T13:40:32Z</time></trkpt><trkpt lat="44.46976599674159" lon="11.751365046512737"><ele>12.0</ele><time>2026-04-12T13:40:33Z</time></trkpt><trkpt lat="44.46963103824916" lon="11.751249425143538"><ele>12.0</ele><time>2026-04-12T13:40:34Z</time></trkpt><trkpt lat="44.46949759168524" lon="11.751137900158186"><ele>12.0</ele><time>2026-04-12T13:40:35Z</time></trkpt><trkpt lat="44.469364629479415" lon="11.751026499455085"><ele>12.5</ele><time>2026-04-12T13:40:36Z</time></trkpt><trkpt lat="44.46923054810577" lon="11.75091629009449"><ele>13.0</ele><time>2026-04-12T13:40:37Z</time></trkpt><trkpt lat="44.46895487945156" lon="11.75069344126798"><ele>13.0</ele><time>2026-04-12T13:40:39Z</time></trkpt><trkpt lat="44.468816409991305" lon="11.750579045480352"><ele>13.0</ele><time>2026-04-12T13:40:40Z</time></trkpt><trkpt lat="44.46867465512427" lon="11.750461987589427"><ele>13.0</ele><time>2026-04-12T13:40:41Z</time></trkpt><trkpt lat="44.46852096441398" lon="11.75034063387119"><ele>13.0</ele><time>2026-04-12T13:40:42Z</time></trkpt><trkpt lat="44.46836289624922" lon="11.750215217528376"><ele>13.0</ele><time>2026-04-12T13:40:43Z</time></trkpt><trkpt lat="44.4682066541868" lon="11.750090382810523"><ele>13.0</ele><time>2026-04-12T13:40:44Z</time></trkpt><trkpt lat="44.468050379136145" lon="11.749970370895035"><ele>13.0</ele><time>2026-04-12T13:40:45Z</time></trkpt><trkpt lat="44.46790924344482" lon="11.749872617927407"><ele>13.0</ele><time>2026-04-12T13:40:46Z</time></trkpt><trkpt lat="44.467776400925935" lon="11.749774441439028"><ele>13.0</ele><time>2026-04-12T13:40:47Z</time></trkpt><trkpt lat="44.46764454380888" lon="11.749674031774731"><ele>13.0</ele><time>2026-04-12T13:40:48Z</time></trkpt><trkpt lat="44.467503947154206" lon="11.749566811846849"><ele>13.0</ele><time>2026-04-12T13:40:49Z</time></trkpt><trkpt lat="44.46735520816913" lon="11.749454110530257"><ele>13.0</ele><time>2026-04-12T13:40:50Z</time></trkpt><trkpt lat="44.467204219383554" lon="11.749333642449114"><ele>13.666666666666666</ele><time>2026-04-12T13:40:51Z</time></trkpt><trkpt lat="44.4670456690208" lon="11.749209331336294"><ele>14.333333333333332</ele><time>2026-04-12T13:40:52Z</time></trkpt><trkpt lat="44.466887182799546" lon="11.74908917989091"><ele>15.0</ele><time>2026-04-12T13:40:53Z</time></trkpt><trkpt lat="44.46672642655435" lon="11.748967527542526"><ele>15.0</ele><time>2026-04-12T13:40:54Z</time></trkpt><trkpt lat="44.46656765179189" lon="11.74884769941467"><ele>15.0</ele><time>2026-04-12T13:40:55Z</time></trkpt><trkpt lat="44.46640583405172" lon="11.748726424253643"><ele>15.0</ele><time>2026-04-12T13:40:56Z</time></trkpt><trkpt lat="44.466242988808474" lon="11.748604594722545"><ele>14.333333333333332</ele><time>2026-04-12T13:40:57Z</time></trkpt><trkpt lat="44.46608111344868" lon="11.74848125459102"><ele>13.666666666666666</ele><time>2026-04-12T13:40:58Z</time></trkpt><trkpt lat="44.46592311645432" lon="11.748361036505218"><ele>13.0</ele><time>2026-04-12T13:40:59Z</time></trkpt><trkpt lat="44.465763519406615" lon="11.748239409082414"><ele>13.0</ele><time>2026-04-12T13:41:00Z</time></trkpt><trkpt lat="44.465601010118576" lon="11.748119231955995"><ele>13.0</ele><time>2026-04-12T13:41:01Z</time></trkpt><trkpt lat="44.46544293045421" lon="11.748001215695803"><ele>13.0</ele><time>2026-04-12T13:41:02Z</time></trkpt><trkpt lat="44.46528433605609" lon="11.747881836456855"><ele>13.333333333333332</ele><time>2026-04-12T13:41:03Z</time></trkpt><trkpt lat="44.465121526146056" lon="11.747758043324371"><ele>13.666666666666668</ele><time>2026-04-12T13:41:04Z</time></trkpt><trkpt lat="44.46495508799913" lon="11.747636966368383"><ele>14.0</ele><time>2026-04-12T13:41:05Z</time></trkpt><trkpt lat="44.4647931273216" lon="11.747520335778045"><ele>14.0</ele><time>2026-04-12T13:41:06Z</time></trkpt><trkpt lat="44.46462735991505" lon="11.747395379601354"><ele>14.0</ele><time>2026-04-12T13:41:07Z</time></trkpt><trkpt lat="44.46446232102601" lon="11.747270892713498"><ele>14.0</ele><time>2026-04-12T13:41:08Z</time></trkpt><trkpt lat="44.46430344805478" lon="11.747148736231644"><ele>14.333333333333334</ele><time>2026-04-12T13:41:09Z</time></trkpt><trkpt lat="44.46414515095365" lon="11.747027412946336"><ele>14.666666666666668</ele><time>2026-04-12T13:41:10Z</time></trkpt><trkpt lat="44.463993020744205" lon="11.74691107837693"><ele>15.0</ele><time>2026-04-12T13:41:11Z</time></trkpt><trkpt lat="44.46384002786884" lon="11.746796033417"><ele>15.0</ele><time>2026-04-12T13:41:12Z</time></trkpt><trkpt lat="44.4636924989616" lon="11.746682139672329"><ele>15.0</ele><time>2026-04-12T13:41:13Z</time></trkpt><trkpt lat="44.46355124671282" lon="11.746573930661661"><ele>15.0</ele><time>2026-04-12T13:41:14Z</time></trkpt><trkpt lat="44.46340902545413" lon="11.746464748797122"><ele>15.0</ele><time>2026-04-12T13:41:15Z</time></trkpt><trkpt lat="44.46326785719677" lon="11.7463566184395"><ele>15.0</ele><time>2026-04-12T13:41:16Z</time></trkpt><trkpt lat="44.46312696883299" lon="11.746246318830604"><ele>15.0</ele><time>2026-04-12T13:41:17Z</time></trkpt><trkpt lat="44.46298219955775" lon="11.746133875264201"><ele>15.0</ele><time>2026-04-12T13:41:18Z</time></trkpt><trkpt lat="44.46283546930945" lon="11.746014728826044"><ele>15.0</ele><time>2026-04-12T13:41:19Z</time></trkpt><trkpt lat="44.46268240627504" lon="11.745898662091438"><ele>15.0</ele><time>2026-04-12T13:41:20Z</time></trkpt><trkpt lat="44.46252518395196" lon="11.745775481534531"><ele>15.0</ele><time>2026-04-12T13:41:21Z</time></trkpt><trkpt lat="44.46234367396301" lon="11.745637549339728"><ele>15.0</ele><time>2026-04-12T13:41:22Z</time></trkpt><trkpt lat="44.46215796742682" lon="11.745496122378324"><ele>15.0</ele><time>2026-04-12T13:41:23Z</time></trkpt><trkpt lat="44.461992032027986" lon="11.745365712731779"><ele>15.0</ele><time>2026-04-12T13:41:24Z</time></trkpt><trkpt lat="44.461833608002294" lon="11.74523779440285"><ele>15.0</ele><time>2026-04-12T13:41:25Z</time></trkpt><trkpt lat="44.46167554966387" lon="11.745112657602823"><ele>15.0</ele><time>2026-04-12T13:41:26Z</time></trkpt><trkpt lat="44.46151844778676" lon="11.74499304363464"><ele>15.0</ele><time>2026-04-12T13:41:27Z</time></trkpt><trkpt lat="44.46136028998905" lon="11.744871108748335"><ele>15.0</ele><time>2026-04-12T13:41:28Z</time></trkpt><trkpt lat="44.46120362309852" lon="11.744745987110432"><ele>15.0</ele><time>2026-04-12T13:41:29Z</time></trkpt><trkpt lat="44.461043789285846" lon="11.744619615107673"><ele>15.0</ele><time>2026-04-12T13:41:30Z</time></trkpt><trkpt lat="44.460885203162" lon="11.744496096657825"><ele>15.0</ele><time>2026-04-12T13:41:31Z</time></trkpt><trkpt lat="44.46072214191025" lon="11.744365870335823"><ele>15.0</ele><time>2026-04-12T13:41:32Z</time></trkpt><trkpt lat="44.4605596268877" lon="11.74423283827083"><ele>15.333333333333332</ele><time>2026-04-12T13:41:33Z</time></trkpt><trkpt lat="44.46039663221173" lon="11.744104321493694"><ele>15.666666666666666</ele><time>2026-04-12T13:41:34Z</time></trkpt><trkpt lat="44.4602353029113" lon="11.743978003714899"><ele>16.0</ele><time>2026-04-12T13:41:35Z</time></trkpt><trkpt lat="44.46007342708413" lon="11.74385308702552"><ele>16.0</ele><time>2026-04-12T13:41:36Z</time></trkpt><trkpt lat="44.459913445099815" lon="11.743728077728974"><ele>16.0</ele><time>2026-04-12T13:41:37Z</time></trkpt><trkpt lat="44.459753230263075" lon="11.743601503091456"><ele>16.0</ele><time>2026-04-12T13:41:38Z</time></trkpt><trkpt lat="44.459598267044015" lon="11.743478673720388"><ele>15.666666666666666</ele><time>2026-04-12T13:41:39Z</time></trkpt><trkpt lat="44.459444686347005" lon="11.743360196196022"><ele>15.333333333333332</ele><time>2026-04-12T13:41:40Z</time></trkpt><trkpt lat="44.45929508895258" lon="11.743244775181829"><ele>15.0</ele><time>2026-04-12T13:41:41Z</time></trkpt><trkpt lat="44.459147765732894" lon="11.743130089932391"><ele>15.0</ele><time>2026-04-12T13:41:42Z</time></trkpt><trkpt lat="44.45899765052428" lon="11.743012976914486"><ele>15.0</ele><time>2026-04-12T13:41:43Z</time></trkpt><trkpt lat="44.458848356071336" lon="11.742894322432042"><ele>15.0</ele><time>2026-04-12T13:41:44Z</time></trkpt><trkpt lat="44.45870511786036" lon="11.742785903191098"><ele>15.0</ele><time>2026-04-12T13:41:45Z</time></trkpt><trkpt lat="44.458574232259515" lon="11.742684457054855"><ele>15.0</ele><time>2026-04-12T13:41:46Z</time></trkpt><trkpt lat="44.458452957043605" lon="11.742591364051165"><ele>15.0</ele><time>2026-04-12T13:41:47Z</time></trkpt><trkpt lat="44.4583342246836" lon="11.742500827789154"><ele>15.0</ele><time>2026-04-12T13:41:48Z</time></trkpt><trkpt lat="44.45822614853062" lon="11.742419138089632"><ele>15.0</ele><time>2026-04-12T13:41:49Z</time></trkpt><trkpt lat="44.458125323733825" lon="11.74234012898541"><ele>15.0</ele><time>2026-04-12T13:41:50Z</time></trkpt><trkpt lat="44.458032761008404" lon="11.742266127093366"><ele>15.0</ele><time>2026-04-12T13:41:51Z</time></trkpt><trkpt lat="44.45794488227764" lon="11.742199221305249"><ele>15.0</ele><time>2026-04-12T13:41:52Z</time></trkpt><trkpt lat="44.457861833383035" lon="11.74213794119425"><ele>15.0</ele><time>2026-04-12T13:41:53Z</time></trkpt><trkpt lat="44.45778477718892" lon="11.742077371501738"><ele>15.0</ele><time>2026-04-12T13:41:54Z</time></trkpt><trkpt lat="44.45771328706931" lon="11.742018939031299"><ele>15.0</ele><time>2026-04-12T13:41:55Z</time></trkpt><trkpt lat="44.457644155762615" lon="11.741962863194372"><ele>15.0</ele><time>2026-04-12T13:41:56Z</time></trkpt><trkpt lat="44.457575440979" lon="11.741907735832484"><ele>15.0</ele><time>2026-04-12T13:41:57Z</time></trkpt><trkpt lat="44.457510275615036" lon="11.741855681959928"><ele>15.0</ele><time>2026-04-12T13:41:58Z</time></trkpt><trkpt lat="44.45745156536919" lon="11.741806594207642"><ele>15.0</ele><time>2026-04-12T13:41:59Z</time></trkpt><trkpt lat="44.45735785943356" lon="11.741722645361168"><ele>15.0</ele><time>2026-04-12T13:42:01Z</time></trkpt><trkpt lat="44.457296232851924" lon="11.741652623061471"><ele>15.0</ele><time>2026-04-12T13:42:03Z</time></trkpt><trkpt lat="44.4572254716102" lon="11.741624953177098"><ele>15.0</ele><time>2026-04-12T13:42:26Z</time></trkpt><trkpt lat="44.45715400270291" lon="11.741659791941753"><ele>15.0</ele><time>2026-04-12T13:42:28Z</time></trkpt><trkpt lat="44.4571146872479" lon="11.741733502101761"><ele>15.0</ele><time>2026-04-12T13:42:29Z</time></trkpt><trkpt lat="44.45708782558353" lon="11.741845100966126"><ele>15.0</ele><time>2026-04-12T13:42:30Z</time></trkpt><trkpt lat="44.457055138556534" lon="11.741950185391943"><ele>15.0</ele><time>2026-04-12T13:42:31Z</time></trkpt><trkpt lat="44.457014873019645" lon="11.742080227679713"><ele>15.0</ele><time>2026-04-12T13:42:32Z</time></trkpt><trkpt lat="44.45697546955835" lon="11.74220266087653"><ele>15.0</ele><time>2026-04-12T13:42:33Z</time></trkpt><trkpt lat="44.45693490263643" lon="11.742348774875978"><ele>15.0</ele><time>2026-04-12T13:42:34Z</time></trkpt><trkpt lat="44.456886467547434" lon="11.742521103332185"><ele>15.0</ele><time>2026-04-12T13:42:35Z</time></trkpt><trkpt lat="44.45682834462495" lon="11.742710704307205"><ele>14.75</ele><time>2026-04-12T13:42:36Z</time></trkpt><trkpt lat="44.45677285511966" lon="11.742885377720816"><ele>14.5</ele><time>2026-04-12T13:42:37Z</time></trkpt><trkpt lat="44.45671782212408" lon="11.743070538557586"><ele>14.25</ele><time>2026-04-12T13:42:38Z</time></trkpt><trkpt lat="44.456661950125316" lon="11.743259052796118"><ele>14.0</ele><time>2026-04-12T13:42:39Z</time></trkpt><trkpt lat="44.45660260016202" lon="11.743456048992334"><ele>14.333333333333334</ele><time>2026-04-12T13:42:40Z</time></trkpt><trkpt lat="44.456539868867964" lon="11.743655348097878"><ele>14.666666666666668</ele><time>2026-04-12T13:42:41Z</time></trkpt><trkpt lat="44.45647204196771" lon="11.743867185453222"><ele>15.0</ele><time>2026-04-12T13:42:42Z</time></trkpt><trkpt lat="44.45640371340578" lon="11.744084268862794"><ele>15.0</ele><time>2026-04-12T13:42:43Z</time></trkpt><trkpt lat="44.456340116919996" lon="11.744287885549689"><ele>15.0</ele><time>2026-04-12T13:42:44Z</time></trkpt><trkpt lat="44.456278445254924" lon="11.744492447816226"><ele>15.0</ele><time>2026-04-12T13:42:45Z</time></trkpt><trkpt lat="44.45621853851771" lon="11.744687952943114"><ele>15.0</ele><time>2026-04-12T13:42:46Z</time></trkpt><trkpt lat="44.45615608392361" lon="11.744886030094682"><ele>15.0</ele><time>2026-04-12T13:42:47Z</time></trkpt><trkpt lat="44.456094848237385" lon="11.745079363632918"><ele>15.0</ele><time>2026-04-12T13:42:48Z</time></trkpt><trkpt lat="44.456031801616106" lon="11.745281579643082"><ele>14.666666666666668</ele><time>2026-04-12T13:42:49Z</time></trkpt><trkpt lat="44.455970048814464" lon="11.745478525328686"><ele>14.333333333333334</ele><time>2026-04-12T13:42:50Z</time></trkpt><trkpt lat="44.45590801229773" lon="11.74568516859769"><ele>14.0</ele><time>2026-04-12T13:42:51Z</time></trkpt><trkpt lat="44.455848120962294" lon="11.745878637187593"><ele>14.0</ele><time>2026-04-12T13:42:52Z</time></trkpt><trkpt lat="44.45578668918273" lon="11.746074991116137"><ele>14.0</ele><time>2026-04-12T13:42:53Z</time></trkpt><trkpt lat="44.45572709437949" lon="11.746274499001892"><ele>14.0</ele><time>2026-04-12T13:42:54.001Z</time></trkpt><trkpt lat="44.45566570330376" lon="11.746474518369867"><ele>14.0</ele><time>2026-04-12T13:42:55.001Z</time></trkpt><trkpt lat="44.45560261882688" lon="11.74668124255774"><ele>14.0</ele><time>2026-04-12T13:42:56.001Z</time></trkpt><trkpt lat="44.45554298747816" lon="11.746883543564415"><ele>14.0</ele><time>2026-04-12T13:42:57.001Z</time></trkpt><trkpt lat="44.4554859811251" lon="11.747088453629019"><ele>14.0</ele><time>2026-04-12T13:42:58.001Z</time></trkpt><trkpt lat="44.455428702901145" lon="11.747288896707435"><ele>14.0</ele><time>2026-04-12T13:42:59.001Z</time></trkpt><trkpt lat="44.45537307688569" lon="11.747489949781938"><ele>14.0</ele><time>2026-04-12T13:43:00.001Z</time></trkpt><trkpt lat="44.455320789974465" lon="11.747698173277437"><ele>14.333333333333334</ele><time>2026-04-12T13:43:01.001Z</time></trkpt><trkpt lat="44.45526657857419" lon="11.747899768671562"><ele>14.666666666666668</ele><time>2026-04-12T13:43:02.001Z</time></trkpt><trkpt lat="44.45521811041332" lon="11.748102627400733"><ele>15.0</ele><time>2026-04-12T13:43:03.001Z</time></trkpt><trkpt lat="44.455167648168995" lon="11.748299815950519"><ele>15.0</ele><time>2026-04-12T13:43:04.001Z</time></trkpt><trkpt lat="44.455121863507784" lon="11.748491859134743"><ele>15.0</ele><time>2026-04-12T13:43:05.001Z</time></trkpt><trkpt lat="44.45507176062704" lon="11.748686696334788"><ele>15.0</ele><time>2026-04-12T13:43:06Z</time></trkpt><trkpt lat="44.45502335305568" lon="11.748878422139713"><ele>15.0</ele><time>2026-04-12T13:43:07Z</time></trkpt><trkpt lat="44.45497006577357" lon="11.749066737470763"><ele>15.0</ele><time>2026-04-12T13:43:08Z</time></trkpt><trkpt lat="44.45491497688438" lon="11.74924653966548"><ele>15.0</ele><time>2026-04-12T13:43:09Z</time></trkpt><trkpt lat="44.454855700474944" lon="11.749430260473872"><ele>15.0</ele><time>2026-04-12T13:43:10Z</time></trkpt><trkpt lat="44.45479685599728" lon="11.749609423612895"><ele>15.0</ele><time>2026-04-12T13:43:11Z</time></trkpt><trkpt lat="44.45473328576832" lon="11.7497900912531"><ele>15.0</ele><time>2026-04-12T13:43:12Z</time></trkpt><trkpt lat="44.454672387599246" lon="11.749960523482951"><ele>15.0</ele><time>2026-04-12T13:43:13Z</time></trkpt><trkpt lat="44.45462211202649" lon="11.750124601321298"><ele>15.0</ele><time>2026-04-12T13:43:14Z</time></trkpt><trkpt lat="44.45457492375924" lon="11.750271345826938"><ele>15.0</ele><time>2026-04-12T13:43:15Z</time></trkpt><trkpt lat="44.45453226883904" lon="11.75040350235621"><ele>15.0</ele><time>2026-04-12T13:43:16Z</time></trkpt><trkpt lat="44.45449126025965" lon="11.750526561761168"><ele>15.0</ele><time>2026-04-12T13:43:17Z</time></trkpt><trkpt lat="44.454451574816616" lon="11.750636324104049"><ele>15.0</ele><time>2026-04-12T13:43:18Z</time></trkpt><trkpt lat="44.45441702178096" lon="11.750743903486187"><ele>15.0</ele><time>2026-04-12T13:43:19Z</time></trkpt><trkpt lat="44.454378171702764" lon="11.750869823081747"><ele>15.0</ele><time>2026-04-12T13:43:20Z</time></trkpt><trkpt lat="44.45434295855069" lon="11.750992529832512"><ele>15.166666666666666</ele><time>2026-04-12T13:43:21Z</time></trkpt><trkpt lat="44.45431490887292" lon="11.751100771969918"><ele>15.333333333333332</ele><time>2026-04-12T13:43:22Z</time></trkpt><trkpt lat="44.45429627250609" lon="11.751198053008437"><ele>15.5</ele><time>2026-04-12T13:43:23Z</time></trkpt><trkpt lat="44.45428290341036" lon="11.751298926501997"><ele>15.666666666666666</ele><time>2026-04-12T13:43:24Z</time></trkpt><trkpt lat="44.45427282121274" lon="11.751388075403867"><ele>15.833333333333332</ele><time>2026-04-12T13:43:25Z</time></trkpt><trkpt lat="44.454212922202665" lon="11.751513868239211"><ele>16.0</ele><time>2026-04-12T13:43:27Z</time></trkpt><trkpt lat="44.454098257961085" lon="11.751569818925"><ele>16.0</ele><time>2026-04-12T13:43:29Z</time></trkpt><trkpt lat="44.454024268648986" lon="11.751541755933516"><ele>16.0</ele><time>2026-04-12T13:43:30Z</time></trkpt><trkpt lat="44.45395351644367" lon="11.75147487939343"><ele>16.0</ele><time>2026-04-12T13:43:31Z</time></trkpt><trkpt lat="44.45387204850273" lon="11.75138395643078"><ele>16.0</ele><time>2026-04-12T13:43:32Z</time></trkpt><trkpt lat="44.45377961876692" lon="11.751294757792207"><ele>16.0</ele><time>2026-04-12T13:43:33Z</time></trkpt><trkpt lat="44.45368393907521" lon="11.751198387759107"><ele>15.75</ele><time>2026-04-12T13:43:34Z</time></trkpt><trkpt lat="44.453569392253875" lon="11.751089756456622"><ele>15.5</ele><time>2026-04-12T13:43:35Z</time></trkpt><trkpt lat="44.453446987750816" lon="11.750975669229746"><ele>15.25</ele><time>2026-04-12T13:43:36Z</time></trkpt><trkpt lat="44.453338126340576" lon="11.750874146965671"><ele>15.0</ele><time>2026-04-12T13:43:37Z</time></trkpt><trkpt lat="44.45321906910855" lon="11.750772230090018"><ele>14.666666666666668</ele><time>2026-04-12T13:43:38Z</time></trkpt><trkpt lat="44.45308609134749" lon="11.75064510209802"><ele>14.333333333333334</ele><time>2026-04-12T13:43:39Z</time></trkpt><trkpt lat="44.45294861413256" lon="11.75051904658836"><ele>14.0</ele><time>2026-04-12T13:43:40Z</time></trkpt><trkpt lat="44.452822491029146" lon="11.750393751007309"><ele>14.0</ele><time>2026-04-12T13:43:41Z</time></trkpt><trkpt lat="44.452679620168944" lon="11.750265159817118"><ele>14.0</ele><time>2026-04-12T13:43:42Z</time></trkpt><trkpt lat="44.452546461548174" lon="11.750146772989316"><ele>14.0</ele><time>2026-04-12T13:43:43Z</time></trkpt><trkpt lat="44.452407453796994" lon="11.750020109729345"><ele>14.0</ele><time>2026-04-12T13:43:44Z</time></trkpt><trkpt lat="44.45226575841005" lon="11.74988941755179"><ele>14.0</ele><time>2026-04-12T13:43:45Z</time></trkpt><trkpt lat="44.45212052963666" lon="11.749755153519358"><ele>14.0</ele><time>2026-04-12T13:43:46Z</time></trkpt><trkpt lat="44.45197348739383" lon="11.749621575114274"><ele>14.0</ele><time>2026-04-12T13:43:47Z</time></trkpt><trkpt lat="44.451822530339946" lon="11.74948272449252"><ele>14.0</ele><time>2026-04-12T13:43:48Z</time></trkpt><trkpt lat="44.451675195669836" lon="11.749349517533116"><ele>14.0</ele><time>2026-04-12T13:43:49Z</time></trkpt><trkpt lat="44.451534279518334" lon="11.749219809793951"><ele>14.0</ele><time>2026-04-12T13:43:50Z</time></trkpt><trkpt lat="44.45138463273077" lon="11.74908368111425"><ele>14.0</ele><time>2026-04-12T13:43:51Z</time></trkpt><trkpt lat="44.451235538140814" lon="11.748948806899724"><ele>14.0</ele><time>2026-04-12T13:43:52Z</time></trkpt><trkpt lat="44.45108331134966" lon="11.748813480745355"><ele>14.0</ele><time>2026-04-12T13:43:53Z</time></trkpt><trkpt lat="44.45092475962219" lon="11.748669509803964"><ele>14.0</ele><time>2026-04-12T13:43:54Z</time></trkpt><trkpt lat="44.450762521917156" lon="11.748521511713976"><ele>14.0</ele><time>2026-04-12T13:43:55Z</time></trkpt><trkpt lat="44.45060186797701" lon="11.748375645993967"><ele>14.0</ele><time>2026-04-12T13:43:56Z</time></trkpt><trkpt lat="44.4504424670113" lon="11.74822851294825"><ele>14.0</ele><time>2026-04-12T13:43:57Z</time></trkpt><trkpt lat="44.4502806680956" lon="11.748080106156216"><ele>14.0</ele><time>2026-04-12T13:43:58Z</time></trkpt><trkpt lat="44.45012263455544" lon="11.74793601301716"><ele>14.0</ele><time>2026-04-12T13:43:59Z</time></trkpt><trkpt lat="44.44996326558983" lon="11.74779501702404"><ele>14.0</ele><time>2026-04-12T13:44:00Z</time></trkpt><trkpt lat="44.44980367808513" lon="11.747652594567688"><ele>14.0</ele><time>2026-04-12T13:44:01Z</time></trkpt><trkpt lat="44.44964224025321" lon="11.747507520828034"><ele>14.0</ele><time>2026-04-12T13:44:02Z</time></trkpt><trkpt lat="44.44948310413725" lon="11.74736080584653"><ele>14.0</ele><time>2026-04-12T13:44:03Z</time></trkpt><trkpt lat="44.44932906731786" lon="11.747217933098083"><ele>14.0</ele><time>2026-04-12T13:44:04Z</time></trkpt><trkpt lat="44.44917387262684" lon="11.747073685853703"><ele>14.0</ele><time>2026-04-12T13:44:05Z</time></trkpt><trkpt lat="44.44901985464585" lon="11.74693010384028"><ele>14.0</ele><time>2026-04-12T13:44:06Z</time></trkpt><trkpt lat="44.44886159828676" lon="11.746784041022263"><ele>14.0</ele><time>2026-04-12T13:44:07Z</time></trkpt><trkpt lat="44.4487069764969" lon="11.746639055232455"><ele>14.333333333333334</ele><time>2026-04-12T13:44:08Z</time></trkpt><trkpt lat="44.44855061013469" lon="11.746495254173775"><ele>14.666666666666668</ele><time>2026-04-12T13:44:09Z</time></trkpt><trkpt lat="44.448394540201136" lon="11.746351466739306"><ele>15.0</ele><time>2026-04-12T13:44:10Z</time></trkpt><trkpt lat="44.44823927358077" lon="11.746206139441952"><ele>15.0</ele><time>2026-04-12T13:44:11Z</time></trkpt><trkpt lat="44.44807996303015" lon="11.746059269656707"><ele>15.0</ele><time>2026-04-12T13:44:12Z</time></trkpt><trkpt lat="44.447924295573614" lon="11.745913785758823"><ele>15.0</ele><time>2026-04-12T13:44:13Z</time></trkpt><trkpt lat="44.44776824686583" lon="11.745765889670276"><ele>15.333333333333332</ele><time>2026-04-12T13:44:14Z</time></trkpt><trkpt lat="44.44760991527153" lon="11.745618554931474"><ele>15.666666666666666</ele><time>2026-04-12T13:44:15Z</time></trkpt><trkpt lat="44.447451510912586" lon="11.745478035787958"><ele>16.0</ele><time>2026-04-12T13:44:16Z</time></trkpt><trkpt lat="44.44729351289623" lon="11.745337011765137"><ele>16.0</ele><time>2026-04-12T13:44:17Z</time></trkpt><trkpt lat="44.44713145320654" lon="11.745198218376263"><ele>16.0</ele><time>2026-04-12T13:44:18Z</time></trkpt><trkpt lat="44.44696771337617" lon="11.745064492841227"><ele>16.0</ele><time>2026-04-12T13:44:19Z</time></trkpt><trkpt lat="44.44680544312453" lon="11.744932088067046"><ele>15.333333333333332</ele><time>2026-04-12T13:44:20Z</time></trkpt><trkpt lat="44.44663991183905" lon="11.744794732491014"><ele>14.666666666666668</ele><time>2026-04-12T13:44:21Z</time></trkpt><trkpt lat="44.44648006221102" lon="11.744658731137637"><ele>14.0</ele><time>2026-04-12T13:44:22Z</time></trkpt><trkpt lat="44.44631261693426" lon="11.744514800344136"><ele>14.666666666666668</ele><time>2026-04-12T13:44:23Z</time></trkpt><trkpt lat="44.44615046773671" lon="11.744379070211986"><ele>15.333333333333332</ele><time>2026-04-12T13:44:24Z</time></trkpt><trkpt lat="44.44598719690329" lon="11.744243345988448"><ele>16.0</ele><time>2026-04-12T13:44:25Z</time></trkpt><trkpt lat="44.44582259410397" lon="11.744109448829745"><ele>16.0</ele><time>2026-04-12T13:44:26Z</time></trkpt><trkpt lat="44.44566656507693" lon="11.743981693875625"><ele>16.0</ele><time>2026-04-12T13:44:27Z</time></trkpt><trkpt lat="44.445520454810136" lon="11.743862770658334"><ele>16.0</ele><time>2026-04-12T13:44:28Z</time></trkpt><trkpt lat="44.44537492393267" lon="11.743739104527872"><ele>16.0</ele><time>2026-04-12T13:44:29Z</time></trkpt><trkpt lat="44.44522860317997" lon="11.743605238189398"><ele>16.0</ele><time>2026-04-12T13:44:30Z</time></trkpt><trkpt lat="44.44508844789188" lon="11.743471066043856"><ele>16.0</ele><time>2026-04-12T13:44:31Z</time></trkpt><trkpt lat="44.44494454843451" lon="11.74333336914515"><ele>16.0</ele><time>2026-04-12T13:44:32Z</time></trkpt><trkpt lat="44.44479857948631" lon="11.743204609632047"><ele>16.0</ele><time>2026-04-12T13:44:33Z</time></trkpt><trkpt lat="44.44464615065346" lon="11.743084903543846"><ele>16.0</ele><time>2026-04-12T13:44:34Z</time></trkpt><trkpt lat="44.44448229509109" lon="11.742994433135268"><ele>16.0</ele><time>2026-04-12T13:44:35Z</time></trkpt><trkpt lat="44.44430816906493" lon="11.742926253528019"><ele>16.0</ele><time>2026-04-12T13:44:36Z</time></trkpt><trkpt lat="44.44412552556411" lon="11.742865806092084"><ele>16.0</ele><time>2026-04-12T13:44:37Z</time></trkpt><trkpt lat="44.443947868672744" lon="11.742805911758225"><ele>16.0</ele><time>2026-04-12T13:44:38Z</time></trkpt><trkpt lat="44.443773470007685" lon="11.742739069619601"><ele>16.0</ele><time>2026-04-12T13:44:39Z</time></trkpt><trkpt lat="44.443598582185246" lon="11.742679075930058"><ele>16.0</ele><time>2026-04-12T13:44:40Z</time></trkpt><trkpt lat="44.443415515517714" lon="11.742623941789242"><ele>16.0</ele><time>2026-04-12T13:44:41Z</time></trkpt><trkpt lat="44.44323093837971" lon="11.742577005317557"><ele>16.0</ele><time>2026-04-12T13:44:42Z</time></trkpt><trkpt lat="44.44305286042645" lon="11.742520981435439"><ele>16.0</ele><time>2026-04-12T13:44:43Z</time></trkpt><trkpt lat="44.442870903462925" lon="11.742466860734186"><ele>16.0</ele><time>2026-04-12T13:44:44Z</time></trkpt><trkpt lat="44.442689860585716" lon="11.742422376063566"><ele>16.0</ele><time>2026-04-12T13:44:45Z</time></trkpt><trkpt lat="44.442510339560144" lon="11.742376255153024"><ele>16.0</ele><time>2026-04-12T13:44:46Z</time></trkpt><trkpt lat="44.44232951942311" lon="11.742324193358234"><ele>16.0</ele><time>2026-04-12T13:44:47Z</time></trkpt><trkpt lat="44.4421494384649" lon="11.742265437399507"><ele>16.0</ele><time>2026-04-12T13:44:48Z</time></trkpt><trkpt lat="44.4419704167613" lon="11.742204609007754"><ele>16.0</ele><time>2026-04-12T13:44:49Z</time></trkpt><trkpt lat="44.44179459692323" lon="11.742142782580988"><ele>16.0</ele><time>2026-04-12T13:44:50Z</time></trkpt><trkpt lat="44.441616592747266" lon="11.742079686174623"><ele>16.0</ele><time>2026-04-12T13:44:51Z</time></trkpt><trkpt lat="44.44144170304435" lon="11.742022032570913"><ele>16.0</ele><time>2026-04-12T13:44:52Z</time></trkpt><trkpt lat="44.441265801314344" lon="11.741967805716202"><ele>16.333333333333332</ele><time>2026-04-12T13:44:53Z</time></trkpt><trkpt lat="44.44108842260085" lon="11.74191652194915"><ele>16.666666666666668</ele><time>2026-04-12T13:44:54Z</time></trkpt><trkpt lat="44.44090724704005" lon="11.741861756809458"><ele>17.0</ele><time>2026-04-12T13:44:55Z</time></trkpt><trkpt lat="44.44072756496346" lon="11.74180665833678"><ele>17.0</ele><time>2026-04-12T13:44:56Z</time></trkpt><trkpt lat="44.44054390840861" lon="11.741750493794733"><ele>17.0</ele><time>2026-04-12T13:44:57Z</time></trkpt><trkpt lat="44.44036439720657" lon="11.741690350348422"><ele>17.0</ele><time>2026-04-12T13:44:58.001Z</time></trkpt><trkpt lat="44.440182970037405" lon="11.741631260203645"><ele>17.0</ele><time>2026-04-12T13:44:59.001Z</time></trkpt><trkpt lat="44.44000197162321" lon="11.741573076776948"><ele>17.0</ele><time>2026-04-12T13:45:00.001Z</time></trkpt><trkpt lat="44.43981697388418" lon="11.741515682366174"><ele>17.0</ele><time>2026-04-12T13:45:01.001Z</time></trkpt><trkpt lat="44.439633637001236" lon="11.74145520601807"><ele>16.666666666666668</ele><time>2026-04-12T13:45:02.001Z</time></trkpt><trkpt lat="44.43944676767117" lon="11.741394860740362"><ele>16.333333333333332</ele><time>2026-04-12T13:45:03.001Z</time></trkpt><trkpt lat="44.43926094434645" lon="11.741334035438992"><ele>16.0</ele><time>2026-04-12T13:45:04.001Z</time></trkpt><trkpt lat="44.43907338943845" lon="11.741269117731434"><ele>16.0</ele><time>2026-04-12T13:45:05.001Z</time></trkpt><trkpt lat="44.43889312478913" lon="11.741205784179137"><ele>16.0</ele><time>2026-04-12T13:45:06.001Z</time></trkpt><trkpt lat="44.43870800126821" lon="11.741146254130175"><ele>16.0</ele><time>2026-04-12T13:45:07.001Z</time></trkpt><trkpt lat="44.43852389635643" lon="11.741086582619552"><ele>16.666666666666664</ele><time>2026-04-12T13:45:08.001Z</time></trkpt><trkpt lat="44.43833824978246" lon="11.741025476689323"><ele>17.333333333333332</ele><time>2026-04-12T13:45:09.001Z</time></trkpt><trkpt lat="44.43815352162216" lon="11.740965345084364"><ele>18.0</ele><time>2026-04-12T13:45:10.001Z</time></trkpt><trkpt lat="44.43796693147736" lon="11.740908164667731"><ele>18.0</ele><time>2026-04-12T13:45:11.001Z</time></trkpt><trkpt lat="44.43778058441637" lon="11.740849553965887"><ele>18.0</ele><time>2026-04-12T13:45:12Z</time></trkpt><trkpt lat="44.43759816469778" lon="11.740787715001444"><ele>18.0</ele><time>2026-04-12T13:45:13Z</time></trkpt><trkpt lat="44.43741731498966" lon="11.740726098373685"><ele>18.0</ele><time>2026-04-12T13:45:14Z</time></trkpt><trkpt lat="44.43723493887549" lon="11.740663452729853"><ele>18.0</ele><time>2026-04-12T13:45:15Z</time></trkpt><trkpt lat="44.43705659012098" lon="11.74059831075938"><ele>18.0</ele><time>2026-04-12T13:45:16Z</time></trkpt><trkpt lat="44.436874877470764" lon="11.740528226846"><ele>18.0</ele><time>2026-04-12T13:45:17Z</time></trkpt><trkpt lat="44.43669227096324" lon="11.740460378036328"><ele>18.0</ele><time>2026-04-12T13:45:18Z</time></trkpt><trkpt lat="44.43651409507464" lon="11.740392653946076"><ele>18.0</ele><time>2026-04-12T13:45:19Z</time></trkpt><trkpt lat="44.43633645158467" lon="11.740328081997287"><ele>18.0</ele><time>2026-04-12T13:45:20Z</time></trkpt><trkpt lat="44.436158161711035" lon="11.740262961162323"><ele>18.0</ele><time>2026-04-12T13:45:21Z</time></trkpt><trkpt lat="44.435979445786074" lon="11.740193232674347"><ele>18.0</ele><time>2026-04-12T13:45:22Z</time></trkpt><trkpt lat="44.435798093055354" lon="11.74012129887711"><ele>18.333333333333332</ele><time>2026-04-12T13:45:23Z</time></trkpt><trkpt lat="44.43561633913481" lon="11.74005491991047"><ele>18.666666666666664</ele><time>2026-04-12T13:45:24Z</time></trkpt><trkpt lat="44.43542951242235" lon="11.740004795559617"><ele>19.0</ele><time>2026-04-12T13:45:25Z</time></trkpt><trkpt lat="44.43524397753198" lon="11.739967902288875"><ele>19.333333333333332</ele><time>2026-04-12T13:45:26Z</time></trkpt><trkpt lat="44.43505061968178" lon="11.739946150960666"><ele>19.666666666666668</ele><time>2026-04-12T13:45:27Z</time></trkpt><trkpt lat="44.434856572360985" lon="11.7399295567156"><ele>20.0</ele><time>2026-04-12T13:45:28Z</time></trkpt><trkpt lat="44.434662316318274" lon="11.739910182042959"><ele>19.333333333333336</ele><time>2026-04-12T13:45:29Z</time></trkpt><trkpt lat="44.434473488116524" lon="11.739885040068858"><ele>18.666666666666668</ele><time>2026-04-12T13:45:30Z</time></trkpt><trkpt lat="44.434281506721916" lon="11.739857044752675"><ele>18.0</ele><time>2026-04-12T13:45:31Z</time></trkpt><trkpt lat="44.434086039693035" lon="11.73982695297915"><ele>18.0</ele><time>2026-04-12T13:45:32Z</time></trkpt><trkpt lat="44.43389990988047" lon="11.739794384872932"><ele>18.0</ele><time>2026-04-12T13:45:33Z</time></trkpt><trkpt lat="44.43370828200408" lon="11.73975984564222"><ele>18.0</ele><time>2026-04-12T13:45:34Z</time></trkpt><trkpt lat="44.433515500650365" lon="11.739722475795242"><ele>18.333333333333332</ele><time>2026-04-12T13:45:35Z</time></trkpt><trkpt lat="44.433323889001215" lon="11.73968022951164"><ele>18.666666666666664</ele><time>2026-04-12T13:45:36Z</time></trkpt><trkpt lat="44.43313383258972" lon="11.739637466937493"><ele>19.0</ele><time>2026-04-12T13:45:37Z</time></trkpt><trkpt lat="44.432944479966025" lon="11.739599539378597"><ele>19.333333333333332</ele><time>2026-04-12T13:45:38Z</time></trkpt><trkpt lat="44.432756320911025" lon="11.739560547384833"><ele>19.666666666666668</ele><time>2026-04-12T13:45:39Z</time></trkpt><trkpt lat="44.432566615307536" lon="11.739522149659564"><ele>20.0</ele><time>2026-04-12T13:45:40Z</time></trkpt><trkpt lat="44.43239410389982" lon="11.73948367289407"><ele>20.0</ele><time>2026-04-12T13:45:41Z</time></trkpt><trkpt lat="44.43223220482213" lon="11.739447513168145"><ele>20.0</ele><time>2026-04-12T13:45:42Z</time></trkpt><trkpt lat="44.4320817427448" lon="11.739417387146355"><ele>20.0</ele><time>2026-04-12T13:45:43Z</time></trkpt><trkpt lat="44.4319424358713" lon="11.739387340291106"><ele>19.75</ele><time>2026-04-12T13:45:44Z</time></trkpt><trkpt lat="44.4318099681504" lon="11.739357775461544"><ele>19.5</ele><time>2026-04-12T13:45:45Z</time></trkpt><trkpt lat="44.431687536709276" lon="11.739332365514551"><ele>19.25</ele><time>2026-04-12T13:45:46Z</time></trkpt><trkpt lat="44.43155608940177" lon="11.739306875798336"><ele>19.0</ele><time>2026-04-12T13:45:47Z</time></trkpt><trkpt lat="44.43141654218116" lon="11.739281264583678"><ele>19.333333333333332</ele><time>2026-04-12T13:45:48Z</time></trkpt><trkpt lat="44.43126545459383" lon="11.739253695990445"><ele>19.666666666666668</ele><time>2026-04-12T13:45:49Z</time></trkpt><trkpt lat="44.431107413988734" lon="11.739227408856989"><ele>20.0</ele><time>2026-04-12T13:45:50Z</time></trkpt><trkpt lat="44.43094450156121" lon="11.739202588899758"><ele>20.0</ele><time>2026-04-12T13:45:51Z</time></trkpt><trkpt lat="44.43077987963178" lon="11.739180120964694"><ele>20.0</ele><time>2026-04-12T13:45:52Z</time></trkpt><trkpt lat="44.430624503453565" lon="11.73915837907757"><ele>20.0</ele><time>2026-04-12T13:45:53Z</time></trkpt><trkpt lat="44.43047391276794" lon="11.739139809749824"><ele>20.0</ele><time>2026-04-12T13:45:54Z</time></trkpt><trkpt lat="44.43033044980809" lon="11.739119086038563"><ele>20.0</ele><time>2026-04-12T13:45:55Z</time></trkpt><trkpt lat="44.43019468635346" lon="11.739103121864826"><ele>20.0</ele><time>2026-04-12T13:45:56Z</time></trkpt><trkpt lat="44.4300692516529" lon="11.739086244527549"><ele>20.0</ele><time>2026-04-12T13:45:57Z</time></trkpt><trkpt lat="44.42994658102104" lon="11.739072231837055"><ele>20.0</ele><time>2026-04-12T13:45:58Z</time></trkpt><trkpt lat="44.42981869662987" lon="11.739058682154"><ele>20.0</ele><time>2026-04-12T13:45:59Z</time></trkpt><trkpt lat="44.429685278806" lon="11.739047000652034"><ele>20.0</ele><time>2026-04-12T13:46:00Z</time></trkpt><trkpt lat="44.42954516864605" lon="11.739037073642216"><ele>20.0</ele><time>2026-04-12T13:46:01Z</time></trkpt><trkpt lat="44.42939168866496" lon="11.739025664496182"><ele>20.333333333333336</ele><time>2026-04-12T13:46:02Z</time></trkpt><trkpt lat="44.42922108366818" lon="11.739014954682322"><ele>20.666666666666668</ele><time>2026-04-12T13:46:03Z</time></trkpt><trkpt lat="44.4290481054897" lon="11.739004403890505"><ele>21.0</ele><time>2026-04-12T13:46:04Z</time></trkpt><trkpt lat="44.42886634911062" lon="11.738990973504299"><ele>21.0</ele><time>2026-04-12T13:46:05Z</time></trkpt><trkpt lat="44.428678449650285" lon="11.738981999702888"><ele>21.0</ele><time>2026-04-12T13:46:06Z</time></trkpt><trkpt lat="44.42848152735735" lon="11.738977528345076"><ele>21.0</ele><time>2026-04-12T13:46:07Z</time></trkpt><trkpt lat="44.42827689891252" lon="11.738974492231296"><ele>21.0</ele><time>2026-04-12T13:46:08Z</time></trkpt><trkpt lat="44.428077004520006" lon="11.738970079422236"><ele>21.0</ele><time>2026-04-12T13:46:09Z</time></trkpt><trkpt lat="44.42788076970954" lon="11.738969274865354"><ele>21.0</ele><time>2026-04-12T13:46:10Z</time></trkpt><trkpt lat="44.42768117782562" lon="11.738967077665617"><ele>21.333333333333332</ele><time>2026-04-12T13:46:11Z</time></trkpt><trkpt lat="44.42747741570929" lon="11.73896380247444"><ele>21.666666666666664</ele><time>2026-04-12T13:46:12Z</time></trkpt><trkpt lat="44.42727391863068" lon="11.738962183862911"><ele>22.0</ele><time>2026-04-12T13:46:13Z</time></trkpt><trkpt lat="44.42707170187219" lon="11.738958350467234"><ele>22.0</ele><time>2026-04-12T13:46:14Z</time></trkpt><trkpt lat="44.42686997600489" lon="11.73895368891104"><ele>22.0</ele><time>2026-04-12T13:46:15Z</time></trkpt><trkpt lat="44.42666662250362" lon="11.738948922085566"><ele>22.0</ele><time>2026-04-12T13:46:16Z</time></trkpt><trkpt lat="44.42646182525985" lon="11.7389426631741"><ele>21.666666666666664</ele><time>2026-04-12T13:46:17Z</time></trkpt><trkpt lat="44.426259818507845" lon="11.738936771930664"><ele>21.333333333333332</ele><time>2026-04-12T13:46:18Z</time></trkpt><trkpt lat="44.42605634853169" lon="11.738927261903846"><ele>21.0</ele><time>2026-04-12T13:46:19Z</time></trkpt><trkpt lat="44.425854656476865" lon="11.738915754170968"><ele>21.0</ele><time>2026-04-12T13:46:20Z</time></trkpt><trkpt lat="44.42565361555909" lon="11.738901649380967"><ele>21.0</ele><time>2026-04-12T13:46:21Z</time></trkpt><trkpt lat="44.42545339763776" lon="11.738883015398788"><ele>21.0</ele><time>2026-04-12T13:46:22Z</time></trkpt><trkpt lat="44.4252552821572" lon="11.738858554098686"><ele>21.0</ele><time>2026-04-12T13:46:23Z</time></trkpt><trkpt lat="44.42505870197769" lon="11.7388345325836"><ele>21.0</ele><time>2026-04-12T13:46:24Z</time></trkpt><trkpt lat="44.42486512304557" lon="11.738814318289329"><ele>21.0</ele><time>2026-04-12T13:46:25Z</time></trkpt><trkpt lat="44.42467345191942" lon="11.73879505158314"><ele>21.0</ele><time>2026-04-12T13:46:26Z</time></trkpt><trkpt lat="44.42448952859041" lon="11.73877291546154"><ele>21.0</ele><time>2026-04-12T13:46:27Z</time></trkpt><trkpt lat="44.42430272892599" lon="11.738754879928125"><ele>21.0</ele><time>2026-04-12T13:46:28Z</time></trkpt><trkpt lat="44.424119835664904" lon="11.738735215197966"><ele>21.0</ele><time>2026-04-12T13:46:29Z</time></trkpt><trkpt lat="44.42393447718218" lon="11.738705047164558"><ele>21.0</ele><time>2026-04-12T13:46:30Z</time></trkpt><trkpt lat="44.42376132840892" lon="11.738663233650477"><ele>21.0</ele><time>2026-04-12T13:46:31Z</time></trkpt><trkpt lat="44.42358343000541" lon="11.73861360058957"><ele>20.666666666666668</ele><time>2026-04-12T13:46:32Z</time></trkpt><trkpt lat="44.423410788183986" lon="11.738558008152781"><ele>20.333333333333336</ele><time>2026-04-12T13:46:33Z</time></trkpt><trkpt lat="44.42323870637102" lon="11.738503292092503"><ele>20.0</ele><time>2026-04-12T13:46:34Z</time></trkpt><trkpt lat="44.42306744839157" lon="11.73844781386735"><ele>20.666666666666668</ele><time>2026-04-12T13:46:35Z</time></trkpt><trkpt lat="44.42288904990309" lon="11.738390443914192"><ele>21.333333333333332</ele><time>2026-04-12T13:46:36Z</time></trkpt><trkpt lat="44.42271848672794" lon="11.73833621999897"><ele>22.0</ele><time>2026-04-12T13:46:37Z</time></trkpt><trkpt lat="44.42254793065763" lon="11.738277324557172"><ele>22.0</ele><time>2026-04-12T13:46:38Z</time></trkpt><trkpt lat="44.422376028579905" lon="11.738217819189456"><ele>22.0</ele><time>2026-04-12T13:46:39Z</time></trkpt><trkpt lat="44.422206625525995" lon="11.738162431466476"><ele>22.0</ele><time>2026-04-12T13:46:40Z</time></trkpt><trkpt lat="44.422036297690376" lon="11.738108916442966"><ele>21.666666666666664</ele><time>2026-04-12T13:46:41Z</time></trkpt><trkpt lat="44.42186979470143" lon="11.738055218136932"><ele>21.333333333333332</ele><time>2026-04-12T13:46:42Z</time></trkpt><trkpt lat="44.42170944311987" lon="11.738002622751152"><ele>21.0</ele><time>2026-04-12T13:46:43.001Z</time></trkpt><trkpt lat="44.42155724858017" lon="11.737953869781759"><ele>21.0</ele><time>2026-04-12T13:46:44.001Z</time></trkpt><trkpt lat="44.421402022748424" lon="11.737903039058734"><ele>21.0</ele><time>2026-04-12T13:46:45.001Z</time></trkpt><trkpt lat="44.42125044990366" lon="11.737851010018845"><ele>21.0</ele><time>2026-04-12T13:46:46.001Z</time></trkpt><trkpt lat="44.421104136862624" lon="11.737791539417309"><ele>21.666666666666668</ele><time>2026-04-12T13:46:47.001Z</time></trkpt><trkpt lat="44.42095745463389" lon="11.737730568106072"><ele>22.333333333333336</ele><time>2026-04-12T13:46:48.001Z</time></trkpt><trkpt lat="44.42081141034675" lon="11.73766812856171"><ele>23.0</ele><time>2026-04-12T13:46:49.001Z</time></trkpt><trkpt lat="44.42065728169688" lon="11.737599331005512"><ele>23.25</ele><time>2026-04-12T13:46:50.001Z</time></trkpt><trkpt lat="44.42050530979437" lon="11.73753608409859"><ele>23.5</ele><time>2026-04-12T13:46:51.001Z</time></trkpt><trkpt lat="44.420363245329476" lon="11.737482277398692"><ele>23.75</ele><time>2026-04-12T13:46:52.001Z</time></trkpt><trkpt lat="44.4202356824614" lon="11.737430676372933"><ele>24.0</ele><time>2026-04-12T13:46:53.001Z</time></trkpt><trkpt lat="44.4201153524265" lon="11.737385514800321"><ele>24.25</ele><time>2026-04-12T13:46:54.001Z</time></trkpt><trkpt lat="44.42000461390894" lon="11.737344377161897"><ele>24.5</ele><time>2026-04-12T13:46:55.001Z</time></trkpt><trkpt lat="44.41989702804198" lon="11.73730779842153"><ele>24.75</ele><time>2026-04-12T13:46:56.001Z</time></trkpt><trkpt lat="44.4197795516618" lon="11.737268650609712"><ele>25.0</ele><time>2026-04-12T13:46:57.001Z</time></trkpt><trkpt lat="44.41965705453475" lon="11.737232415870572"><ele>25.0</ele><time>2026-04-12T13:46:58.001Z</time></trkpt><trkpt lat="44.419531925772894" lon="11.737196600219068"><ele>25.0</ele><time>2026-04-12T13:46:59.001Z</time></trkpt><trkpt lat="44.41940446082995" lon="11.737160269190662"><ele>25.0</ele><time>2026-04-12T13:47:00.001Z</time></trkpt><trkpt lat="44.41926997931088" lon="11.737127810803793"><ele>25.0</ele><time>2026-04-12T13:47:01.001Z</time></trkpt><trkpt lat="44.41913222448827" lon="11.737089834803347"><ele>25.0</ele><time>2026-04-12T13:47:02.001Z</time></trkpt><trkpt lat="44.41899594635591" lon="11.737052867539923"><ele>25.0</ele><time>2026-04-12T13:47:03.001Z</time></trkpt><trkpt lat="44.418860103628965" lon="11.73701671058649"><ele>25.0</ele><time>2026-04-12T13:47:04.001Z</time></trkpt><trkpt lat="44.41872622789162" lon="11.736985854206939"><ele>25.0</ele><time>2026-04-12T13:47:05.001Z</time></trkpt><trkpt lat="44.41858942257314" lon="11.736954845417314"><ele>25.0</ele><time>2026-04-12T13:47:06.001Z</time></trkpt><trkpt lat="44.41845070336528" lon="11.73691828924377"><ele>25.0</ele><time>2026-04-12T13:47:07.001Z</time></trkpt><trkpt lat="44.41831257818763" lon="11.736876001198398"><ele>25.0</ele><time>2026-04-12T13:47:08.001Z</time></trkpt><trkpt lat="44.418176567354614" lon="11.736831799224081"><ele>25.0</ele><time>2026-04-12T13:47:09.001Z</time></trkpt><trkpt lat="44.418041511645974" lon="11.736788831210255"><ele>25.5</ele><time>2026-04-12T13:47:10.001Z</time></trkpt><trkpt lat="44.41790526140009" lon="11.736744019816026"><ele>26.0</ele><time>2026-04-12T13:47:11.001Z</time></trkpt><trkpt lat="44.41777312508245" lon="11.736695117844683"><ele>26.5</ele><time>2026-04-12T13:47:12.001Z</time></trkpt><trkpt lat="44.417640359552415" lon="11.736653766010859"><ele>27.0</ele><time>2026-04-12T13:47:13.001Z</time></trkpt><trkpt lat="44.41751037416234" lon="11.736604349066324"><ele>27.0</ele><time>2026-04-12T13:47:14.001Z</time></trkpt><trkpt lat="44.41738123197598" lon="11.736549504366288"><ele>27.0</ele><time>2026-04-12T13:47:15.001Z</time></trkpt><trkpt lat="44.41724836683626" lon="11.736486673228535"><ele>27.0</ele><time>2026-04-12T13:47:16.001Z</time></trkpt><trkpt lat="44.41710905033061" lon="11.736427269969134"><ele>27.0</ele><time>2026-04-12T13:47:17.001Z</time></trkpt><trkpt lat="44.416974515064666" lon="11.736362200670472"><ele>27.25</ele><time>2026-04-12T13:47:18.001Z</time></trkpt><trkpt lat="44.41684278395832" lon="11.736302121113802"><ele>27.5</ele><time>2026-04-12T13:47:19.001Z</time></trkpt><trkpt lat="44.416719161435275" lon="11.73624256138882"><ele>27.75</ele><time>2026-04-12T13:47:20.001Z</time></trkpt><trkpt lat="44.41660679655741" lon="11.736187333494357"><ele>28.0</ele><time>2026-04-12T13:47:21.001Z</time></trkpt><trkpt lat="44.4164955455525" lon="11.736140725719931"><ele>28.0</ele><time>2026-04-12T13:47:22.001Z</time></trkpt><trkpt lat="44.416383547713394" lon="11.736083983808385"><ele>28.0</ele><time>2026-04-12T13:47:23.001Z</time></trkpt><trkpt lat="44.41626420206355" lon="11.736030969185881"><ele>28.0</ele><time>2026-04-12T13:47:24.001Z</time></trkpt><trkpt lat="44.416136302951394" lon="11.735968272801996"><ele>28.0</ele><time>2026-04-12T13:47:25.001Z</time></trkpt><trkpt lat="44.4160076655987" lon="11.735917934940101"><ele>27.0</ele><time>2026-04-12T13:47:26.001Z</time></trkpt><trkpt lat="44.41587220661619" lon="11.735858855131191"><ele>26.0</ele><time>2026-04-12T13:47:27.001Z</time></trkpt><trkpt lat="44.41573414614162" lon="11.735796058674321"><ele>25.0</ele><time>2026-04-12T13:47:28.001Z</time></trkpt><trkpt lat="44.41558331715933" lon="11.735732355945599"><ele>24.0</ele><time>2026-04-12T13:47:29.001Z</time></trkpt><trkpt lat="44.415403562850095" lon="11.735672440577932"><ele>24.0</ele><time>2026-04-12T13:47:30.001Z</time></trkpt><trkpt lat="44.41521471512016" lon="11.735611404638787"><ele>24.0</ele><time>2026-04-12T13:47:31.001Z</time></trkpt><trkpt lat="44.4150440500233" lon="11.735553354813765"><ele>24.0</ele><time>2026-04-12T13:47:32.001Z</time></trkpt><trkpt lat="44.41489409068306" lon="11.735503305122352"><ele>24.0</ele><time>2026-04-12T13:47:33.001Z</time></trkpt><trkpt lat="44.41475428771192" lon="11.735458257013295"><ele>24.0</ele><time>2026-04-12T13:47:34.001Z</time></trkpt><trkpt lat="44.41462380865141" lon="11.735409149722763"><ele>24.0</ele><time>2026-04-12T13:47:35.001Z</time></trkpt><trkpt lat="44.414509733624215" lon="11.735339202802674"><ele>24.0</ele><time>2026-04-12T13:47:36.001Z</time></trkpt><trkpt lat="44.41440552544986" lon="11.735257686303552"><ele>24.5</ele><time>2026-04-12T13:47:37Z</time></trkpt><trkpt lat="44.41431538000109" lon="11.73517783253699"><ele>25.0</ele><time>2026-04-12T13:47:38Z</time></trkpt><trkpt lat="44.41422008964675" lon="11.735100257628917"><ele>25.5</ele><time>2026-04-12T13:47:39Z</time></trkpt><trkpt lat="44.41411155281771" lon="11.73500457065859"><ele>26.0</ele><time>2026-04-12T13:47:40Z</time></trkpt><trkpt lat="44.41399537771928" lon="11.734909743422657"><ele>26.0</ele><time>2026-04-12T13:47:41Z</time></trkpt><trkpt lat="44.413870700240274" lon="11.734802662645603"><ele>26.0</ele><time>2026-04-12T13:47:42Z</time></trkpt><trkpt lat="44.413736856661956" lon="11.734683917463991"><ele>26.0</ele><time>2026-04-12T13:47:43Z</time></trkpt><trkpt lat="44.413603682399604" lon="11.73457385247271"><ele>25.333333333333332</ele><time>2026-04-12T13:47:44Z</time></trkpt><trkpt lat="44.413471018609634" lon="11.734468185548545"><ele>24.666666666666664</ele><time>2026-04-12T13:47:45Z</time></trkpt><trkpt lat="44.41333745872461" lon="11.73436096222745"><ele>24.0</ele><time>2026-04-12T13:47:46Z</time></trkpt><trkpt lat="44.413193513712635" lon="11.734245348222265"><ele>24.0</ele><time>2026-04-12T13:47:47Z</time></trkpt><trkpt lat="44.413050098151096" lon="11.734118751200398"><ele>24.0</ele><time>2026-04-12T13:47:48Z</time></trkpt><trkpt lat="44.41289605734776" lon="11.733988186123542"><ele>24.0</ele><time>2026-04-12T13:47:49Z</time></trkpt><trkpt lat="44.41274058986895" lon="11.733860616428167"><ele>24.0</ele><time>2026-04-12T13:47:50Z</time></trkpt><trkpt lat="44.41257333971239" lon="11.733719914880327"><ele>24.0</ele><time>2026-04-12T13:47:51Z</time></trkpt><trkpt lat="44.41239797762946" lon="11.733569506676986"><ele>24.0</ele><time>2026-04-12T13:47:52Z</time></trkpt><trkpt lat="44.41221281571503" lon="11.733400601628139"><ele>24.0</ele><time>2026-04-12T13:47:53Z</time></trkpt><trkpt lat="44.41202904119823" lon="11.733232478093221"><ele>24.0</ele><time>2026-04-12T13:47:54Z</time></trkpt><trkpt lat="44.41184919854869" lon="11.733056163054506"><ele>24.0</ele><time>2026-04-12T13:47:55Z</time></trkpt><trkpt lat="44.4116774528966" lon="11.732884004021107"><ele>23.666666666666668</ele><time>2026-04-12T13:47:56Z</time></trkpt><trkpt lat="44.41151247366373" lon="11.732711226644188"><ele>23.333333333333336</ele><time>2026-04-12T13:47:57Z</time></trkpt><trkpt lat="44.411348188255836" lon="11.732532562387634"><ele>23.0</ele><time>2026-04-12T13:47:58Z</time></trkpt><trkpt lat="44.41117861209509" lon="11.732366394810127"><ele>23.0</ele><time>2026-04-12T13:47:59Z</time></trkpt><trkpt lat="44.411010031432845" lon="11.73222149450081"><ele>23.0</ele><time>2026-04-12T13:48:00Z</time></trkpt><trkpt lat="44.41084373810258" lon="11.732085123682156"><ele>23.0</ele><time>2026-04-12T13:48:01.001Z</time></trkpt><trkpt lat="44.410685325205215" lon="11.731947616088672"><ele>23.0</ele><time>2026-04-12T13:48:02.001Z</time></trkpt><trkpt lat="44.41052786501035" lon="11.731817683004568"><ele>23.0</ele><time>2026-04-12T13:48:03.001Z</time></trkpt><trkpt lat="44.4103648900228" lon="11.731683645908861"><ele>23.0</ele><time>2026-04-12T13:48:04.001Z</time></trkpt><trkpt lat="44.410206674904195" lon="11.731552788289767"><ele>23.0</ele><time>2026-04-12T13:48:05.001Z</time></trkpt><trkpt lat="44.4100490139743" lon="11.731418420256"><ele>23.0</ele><time>2026-04-12T13:48:06.001Z</time></trkpt><trkpt lat="44.40989263417044" lon="11.731284804869338"><ele>23.0</ele><time>2026-04-12T13:48:07.001Z</time></trkpt><trkpt lat="44.409733571685784" lon="11.731151210619995"><ele>23.666666666666668</ele><time>2026-04-12T13:48:08.001Z</time></trkpt><trkpt lat="44.40957352356813" lon="11.731016702080039"><ele>24.333333333333336</ele><time>2026-04-12T13:48:09.001Z</time></trkpt><trkpt lat="44.40941746906321" lon="11.73088146907825"><ele>25.0</ele><time>2026-04-12T13:48:10.001Z</time></trkpt><trkpt lat="44.40925884917031" lon="11.730747818811107"><ele>25.0</ele><time>2026-04-12T13:48:11.001Z</time></trkpt><trkpt lat="44.409096499661096" lon="11.730611330458636"><ele>25.0</ele><time>2026-04-12T13:48:12.001Z</time></trkpt><trkpt lat="44.40893607400932" lon="11.730474758706237"><ele>25.0</ele><time>2026-04-12T13:48:13.001Z</time></trkpt><trkpt lat="44.408777638346116" lon="11.7303320780166"><ele>25.333333333333336</ele><time>2026-04-12T13:48:14.001Z</time></trkpt><trkpt lat="44.40861626203506" lon="11.730191434216568"><ele>25.666666666666664</ele><time>2026-04-12T13:48:15.001Z</time></trkpt><trkpt lat="44.40845235383841" lon="11.730052262803865"><ele>26.0</ele><time>2026-04-12T13:48:16.001Z</time></trkpt><trkpt lat="44.40829113631187" lon="11.72991423158372"><ele>26.0</ele><time>2026-04-12T13:48:17.001Z</time></trkpt><trkpt lat="44.40812906167627" lon="11.729783051190834"><ele>26.0</ele><time>2026-04-12T13:48:18.001Z</time></trkpt><trkpt lat="44.40796663922663" lon="11.729651347838923"><ele>26.0</ele><time>2026-04-12T13:48:19.001Z</time></trkpt><trkpt lat="44.4078023089075" lon="11.72952089202039"><ele>26.0</ele><time>2026-04-12T13:48:20.001Z</time></trkpt><trkpt lat="44.407636493228175" lon="11.729393667219085"><ele>26.0</ele><time>2026-04-12T13:48:21.001Z</time></trkpt><trkpt lat="44.4074707259332" lon="11.729269386721418"><ele>26.0</ele><time>2026-04-12T13:48:22.001Z</time></trkpt><trkpt lat="44.40730452998165" lon="11.729142048269402"><ele>25.333333333333332</ele><time>2026-04-12T13:48:23.001Z</time></trkpt><trkpt lat="44.407141524122544" lon="11.729015760165602"><ele>24.666666666666664</ele><time>2026-04-12T13:48:24.001Z</time></trkpt><trkpt lat="44.40697997993428" lon="11.728894034742018"><ele>24.0</ele><time>2026-04-12T13:48:25.001Z</time></trkpt><trkpt lat="44.40681721101266" lon="11.728772463689898"><ele>24.0</ele><time>2026-04-12T13:48:26.001Z</time></trkpt><trkpt lat="44.40665695710235" lon="11.72866269256151"><ele>24.0</ele><time>2026-04-12T13:48:27.001Z</time></trkpt><trkpt lat="44.40648610039778" lon="11.728565800088752"><ele>24.0</ele><time>2026-04-12T13:48:28.001Z</time></trkpt><trkpt lat="44.40631893791578" lon="11.728484427304453"><ele>24.0</ele><time>2026-04-12T13:48:29.001Z</time></trkpt><trkpt lat="44.4061469578029" lon="11.728404154941412"><ele>24.0</ele><time>2026-04-12T13:48:30.001Z</time></trkpt><trkpt lat="44.4059871551699" lon="11.728331750031645"><ele>24.0</ele><time>2026-04-12T13:48:31.001Z</time></trkpt><trkpt lat="44.40583457950043" lon="11.72826431418128"><ele>24.0</ele><time>2026-04-12T13:48:32.001Z</time></trkpt><trkpt lat="44.40567928683339" lon="11.728193122465035"><ele>24.0</ele><time>2026-04-12T13:48:33.001Z</time></trkpt><trkpt lat="44.405515195840955" lon="11.72811025821435"><ele>24.0</ele><time>2026-04-12T13:48:34.001Z</time></trkpt><trkpt lat="44.405351126964966" lon="11.728026370857252"><ele>24.666666666666664</ele><time>2026-04-12T13:48:35.001Z</time></trkpt><trkpt lat="44.40518739048202" lon="11.727951413047608"><ele>25.333333333333332</ele><time>2026-04-12T13:48:36.001Z</time></trkpt><trkpt lat="44.405017147871526" lon="11.727875481458177"><ele>26.0</ele><time>2026-04-12T13:48:37.001Z</time></trkpt><trkpt lat="44.40485207115395" lon="11.727796440798848"><ele>26.0</ele><time>2026-04-12T13:48:38.001Z</time></trkpt><trkpt lat="44.40468355534441" lon="11.727710180020335"><ele>26.0</ele><time>2026-04-12T13:48:39.001Z</time></trkpt><trkpt lat="44.40451441472413" lon="11.727609362652164"><ele>26.0</ele><time>2026-04-12T13:48:40.001Z</time></trkpt><trkpt lat="44.40435178669945" lon="11.727478061827403"><ele>26.0</ele><time>2026-04-12T13:48:41.001Z</time></trkpt><trkpt lat="44.404196616501814" lon="11.727338888267823"><ele>26.0</ele><time>2026-04-12T13:48:42.001Z</time></trkpt><trkpt lat="44.404051153197216" lon="11.727195590858004"><ele>26.0</ele><time>2026-04-12T13:48:43.001Z</time></trkpt><trkpt lat="44.40390675932846" lon="11.72704597164297"><ele>26.0</ele><time>2026-04-12T13:48:44.001Z</time></trkpt><trkpt lat="44.40376109002333" lon="11.726906667428898"><ele>26.0</ele><time>2026-04-12T13:48:45.001Z</time></trkpt><trkpt lat="44.403613282207075" lon="11.726772841618665"><ele>26.0</ele><time>2026-04-12T13:48:46.001Z</time></trkpt><trkpt lat="44.403463137049386" lon="11.726636593431655"><ele>25.666666666666664</ele><time>2026-04-12T13:48:47.001Z</time></trkpt><trkpt lat="44.40331168706968" lon="11.726505115698584"><ele>25.333333333333336</ele><time>2026-04-12T13:48:48.001Z</time></trkpt><trkpt lat="44.40316309750434" lon="11.726377175457367"><ele>25.0</ele><time>2026-04-12T13:48:49.001Z</time></trkpt><trkpt lat="44.40301470464777" lon="11.726249199679273"><ele>25.0</ele><time>2026-04-12T13:48:50.001Z</time></trkpt><trkpt lat="44.402876120061165" lon="11.726109168750218"><ele>25.0</ele><time>2026-04-12T13:48:51.001Z</time></trkpt><trkpt lat="44.402748422579094" lon="11.725949295000053"><ele>25.0</ele><time>2026-04-12T13:48:52.001Z</time></trkpt><trkpt lat="44.40264025745875" lon="11.725763464422123"><ele>24.666666666666668</ele><time>2026-04-12T13:48:53.001Z</time></trkpt><trkpt lat="44.40254233570553" lon="11.725561860070659"><ele>24.333333333333336</ele><time>2026-04-12T13:48:54.001Z</time></trkpt><trkpt lat="44.40246225215398" lon="11.725347059543427"><ele>24.0</ele><time>2026-04-12T13:48:55.001Z</time></trkpt><trkpt lat="44.40237590007678" lon="11.725136075011417"><ele>24.0</ele><time>2026-04-12T13:48:56.001Z</time></trkpt><trkpt lat="44.402270369670795" lon="11.724952718392446"><ele>24.0</ele><time>2026-04-12T13:48:57.001Z</time></trkpt><trkpt lat="44.40213951237745" lon="11.72478888553593"><ele>24.0</ele><time>2026-04-12T13:48:58.001Z</time></trkpt><trkpt lat="44.40199321336149" lon="11.724650969076421"><ele>24.333333333333336</ele><time>2026-04-12T13:48:59.001Z</time></trkpt><trkpt lat="44.40184087205293" lon="11.724519140011708"><ele>24.666666666666668</ele><time>2026-04-12T13:49:00.001Z</time></trkpt><trkpt lat="44.4016864908698" lon="11.724381633261117"><ele>25.0</ele><time>2026-04-12T13:49:01.001Z</time></trkpt><trkpt lat="44.401537717837044" lon="11.724248548231325"><ele>25.0</ele><time>2026-04-12T13:49:02.001Z</time></trkpt><trkpt lat="44.40139229992657" lon="11.724130919500023"><ele>25.0</ele><time>2026-04-12T13:49:03.001Z</time></trkpt><trkpt lat="44.4012457222333" lon="11.724036289951995"><ele>25.0</ele><time>2026-04-12T13:49:04.001Z</time></trkpt><trkpt lat="44.40108288738112" lon="11.723950628902717"><ele>25.0</ele><time>2026-04-12T13:49:05.001Z</time></trkpt><trkpt lat="44.40091476438653" lon="11.723853421069494"><ele>25.0</ele><time>2026-04-12T13:49:06.001Z</time></trkpt><trkpt lat="44.400749670792685" lon="11.7237343725268"><ele>25.0</ele><time>2026-04-12T13:49:07.001Z</time></trkpt><trkpt lat="44.40059485984392" lon="11.723603739771765"><ele>25.666666666666668</ele><time>2026-04-12T13:49:08.001Z</time></trkpt><trkpt lat="44.40044190649755" lon="11.723470131502022"><ele>26.333333333333336</ele><time>2026-04-12T13:49:09.001Z</time></trkpt><trkpt lat="44.40029445614809" lon="11.723352731329108"><ele>27.0</ele><time>2026-04-12T13:49:10.001Z</time></trkpt><trkpt lat="44.40014356576307" lon="11.723255283736524"><ele>27.0</ele><time>2026-04-12T13:49:11.001Z</time></trkpt><trkpt lat="44.399992030711005" lon="11.723158075959992"><ele>27.0</ele><time>2026-04-12T13:49:12.001Z</time></trkpt><trkpt lat="44.39983593225088" lon="11.723054912657597"><ele>27.0</ele><time>2026-04-12T13:49:13.001Z</time></trkpt><trkpt lat="44.3996912052374" lon="11.72291312544019"><ele>26.666666666666664</ele><time>2026-04-12T13:49:14.001Z</time></trkpt><trkpt lat="44.39954624892561" lon="11.722757450137003"><ele>26.333333333333332</ele><time>2026-04-12T13:49:15.001Z</time></trkpt><trkpt lat="44.399397610249736" lon="11.722603969133896"><ele>26.0</ele><time>2026-04-12T13:49:16.001Z</time></trkpt><trkpt lat="44.399240393728874" lon="11.722454733894706"><ele>26.0</ele><time>2026-04-12T13:49:17.001Z</time></trkpt><trkpt lat="44.39907815214287" lon="11.722316804885411"><ele>26.0</ele><time>2026-04-12T13:49:18.001Z</time></trkpt><trkpt lat="44.398906659223044" lon="11.722183031233717"><ele>26.0</ele><time>2026-04-12T13:49:19.001Z</time></trkpt><trkpt lat="44.39872955620192" lon="11.722058613747306"><ele>26.666666666666664</ele><time>2026-04-12T13:49:20.001Z</time></trkpt><trkpt lat="44.39856122361972" lon="11.72193455667374"><ele>27.333333333333336</ele><time>2026-04-12T13:49:21.001Z</time></trkpt><trkpt lat="44.39839499433684" lon="11.721816435701115"><ele>28.0</ele><time>2026-04-12T13:49:22.001Z</time></trkpt><trkpt lat="44.39822563307589" lon="11.7216942292601"><ele>28.0</ele><time>2026-04-12T13:49:23.001Z</time></trkpt><trkpt lat="44.39805441709014" lon="11.721577766654693"><ele>28.0</ele><time>2026-04-12T13:49:24.001Z</time></trkpt><trkpt lat="44.397886003920135" lon="11.721458388590179"><ele>28.0</ele><time>2026-04-12T13:49:25.001Z</time></trkpt><trkpt lat="44.3977235321609" lon="11.721328811923025"><ele>28.0</ele><time>2026-04-12T13:49:26.001Z</time></trkpt><trkpt lat="44.397565632232265" lon="11.721189260346039"><ele>28.0</ele><time>2026-04-12T13:49:27.001Z</time></trkpt><trkpt lat="44.397407804246065" lon="11.72105158016796"><ele>28.0</ele><time>2026-04-12T13:49:28.001Z</time></trkpt><trkpt lat="44.39724836317411" lon="11.720929045147372"><ele>28.0</ele><time>2026-04-12T13:49:29.001Z</time></trkpt><trkpt lat="44.39709070341012" lon="11.720812661561734"><ele>28.0</ele><time>2026-04-12T13:49:30.001Z</time></trkpt><trkpt lat="44.39694113321874" lon="11.720718024307894"><ele>28.0</ele><time>2026-04-12T13:49:31.001Z</time></trkpt><trkpt lat="44.3967938577671" lon="11.720629741683252"><ele>28.0</ele><time>2026-04-12T13:49:32Z</time></trkpt><trkpt lat="44.396648978738455" lon="11.720535938170391"><ele>28.0</ele><time>2026-04-12T13:49:33Z</time></trkpt><trkpt lat="44.39651011053253" lon="11.720439962600834"><ele>28.0</ele><time>2026-04-12T13:49:34Z</time></trkpt><trkpt lat="44.396367867957586" lon="11.720345204369593"><ele>28.0</ele><time>2026-04-12T13:49:35Z</time></trkpt><trkpt lat="44.39622427498792" lon="11.720252775111538"><ele>28.0</ele><time>2026-04-12T13:49:36Z</time></trkpt><trkpt lat="44.396079684606406" lon="11.720149890951442"><ele>28.0</ele><time>2026-04-12T13:49:37Z</time></trkpt><trkpt lat="44.39593241567882" lon="11.720052389022275"><ele>28.333333333333336</ele><time>2026-04-12T13:49:38Z</time></trkpt><trkpt lat="44.395780553364254" lon="11.719951526714492"><ele>28.666666666666664</ele><time>2026-04-12T13:49:39Z</time></trkpt><trkpt lat="44.39562999440565" lon="11.719838560135377"><ele>29.0</ele><time>2026-04-12T13:49:40Z</time></trkpt><trkpt lat="44.39547543867154" lon="11.719730319712491"><ele>29.0</ele><time>2026-04-12T13:49:41Z</time></trkpt><trkpt lat="44.39531905596935" lon="11.719619246454975"><ele>29.0</ele><time>2026-04-12T13:49:42Z</time></trkpt><trkpt lat="44.395166099368204" lon="11.719504130853121"><ele>29.0</ele><time>2026-04-12T13:49:43Z</time></trkpt><trkpt lat="44.395009119765746" lon="11.71939153175084"><ele>29.666666666666664</ele><time>2026-04-12T13:49:44Z</time></trkpt><trkpt lat="44.394854264035075" lon="11.719284598914728"><ele>30.333333333333336</ele><time>2026-04-12T13:49:45Z</time></trkpt><trkpt lat="44.394697744783635" lon="11.719173868159094"><ele>31.0</ele><time>2026-04-12T13:49:46Z</time></trkpt><trkpt lat="44.394538079646644" lon="11.7190607923904"><ele>31.333333333333336</ele><time>2026-04-12T13:49:47Z</time></trkpt><trkpt lat="44.39438500695561" lon="11.718935908617944"><ele>31.666666666666664</ele><time>2026-04-12T13:49:48Z</time></trkpt><trkpt lat="44.39423314399997" lon="11.718799598222722"><ele>32.0</ele><time>2026-04-12T13:49:49Z</time></trkpt><trkpt lat="44.394087810956435" lon="11.718663184114845"><ele>31.666666666666664</ele><time>2026-04-12T13:49:50Z</time></trkpt><trkpt lat="44.393936942129834" lon="11.718523270504624"><ele>31.333333333333336</ele><time>2026-04-12T13:49:51Z</time></trkpt><trkpt lat="44.393785699957085" lon="11.718386112354974"><ele>31.0</ele><time>2026-04-12T13:49:52Z</time></trkpt><trkpt lat="44.39363759960539" lon="11.718252840881863"><ele>30.666666666666668</ele><time>2026-04-12T13:49:53Z</time></trkpt><trkpt lat="44.39348395135842" lon="11.71811832709675"><ele>30.333333333333336</ele><time>2026-04-12T13:49:54Z</time></trkpt><trkpt lat="44.39333355175868" lon="11.717986046440728"><ele>30.0</ele><time>2026-04-12T13:49:55Z</time></trkpt><trkpt lat="44.39318523397545" lon="11.717858561423606"><ele>30.0</ele><time>2026-04-12T13:49:56Z</time></trkpt><trkpt lat="44.39302905727012" lon="11.717733123275947"><ele>30.0</ele><time>2026-04-12T13:49:57Z</time></trkpt><trkpt lat="44.39286953542688" lon="11.71760972996418"><ele>30.0</ele><time>2026-04-12T13:49:58Z</time></trkpt><trkpt lat="44.39271052194548" lon="11.717495416017906"><ele>30.666666666666664</ele><time>2026-04-12T13:49:59Z</time></trkpt><trkpt lat="44.39254912897423" lon="11.717377249878131"><ele>31.333333333333332</ele><time>2026-04-12T13:50:00Z</time></trkpt><trkpt lat="44.39238782173633" lon="11.717255611755826"><ele>32.0</ele><time>2026-04-12T13:50:01Z</time></trkpt><trkpt lat="44.392226730037" lon="11.717136083448935"><ele>32.0</ele><time>2026-04-12T13:50:02Z</time></trkpt><trkpt lat="44.39206411323206" lon="11.717013538969402"><ele>32.0</ele><time>2026-04-12T13:50:03Z</time></trkpt><trkpt lat="44.391896848307546" lon="11.71689255001545"><ele>32.0</ele><time>2026-04-12T13:50:04Z</time></trkpt><trkpt lat="44.39172912758857" lon="11.716771464221624"><ele>32.0</ele><time>2026-04-12T13:50:05Z</time></trkpt><trkpt lat="44.39156276051221" lon="11.716649485666558"><ele>32.0</ele><time>2026-04-12T13:50:06Z</time></trkpt><trkpt lat="44.39139733016292" lon="11.716526696875167"><ele>32.0</ele><time>2026-04-12T13:50:07Z</time></trkpt><trkpt lat="44.39123538532128" lon="11.716401040183717"><ele>32.33333333333333</ele><time>2026-04-12T13:50:08Z</time></trkpt><trkpt lat="44.39107693575569" lon="11.71627588190262"><ele>32.666666666666664</ele><time>2026-04-12T13:50:09Z</time></trkpt><trkpt lat="44.39091765124538" lon="11.716157998257446"><ele>33.0</ele><time>2026-04-12T13:50:10Z</time></trkpt><trkpt lat="44.390757565088975" lon="11.716048638103569"><ele>33.0</ele><time>2026-04-12T13:50:11Z</time></trkpt><trkpt lat="44.390599096500374" lon="11.715941562769201"><ele>33.0</ele><time>2026-04-12T13:50:12Z</time></trkpt><trkpt lat="44.390441068537164" lon="11.715832156074946"><ele>33.0</ele><time>2026-04-12T13:50:13Z</time></trkpt><trkpt lat="44.39029343878595" lon="11.715728031366918"><ele>32.75</ele><time>2026-04-12T13:50:14Z</time></trkpt><trkpt lat="44.390162257880384" lon="11.715630154379573"><ele>32.5</ele><time>2026-04-12T13:50:15Z</time></trkpt><trkpt lat="44.390037436627644" lon="11.715544684708814"><ele>32.25</ele><time>2026-04-12T13:50:16Z</time></trkpt><trkpt lat="44.389920688401055" lon="11.715461619861896"><ele>32.0</ele><time>2026-04-12T13:50:17Z</time></trkpt><trkpt lat="44.389792745067474" lon="11.715370561427257"><ele>32.33333333333333</ele><time>2026-04-12T13:50:18Z</time></trkpt><trkpt lat="44.38965262238134" lon="11.715272412029734"><ele>32.666666666666664</ele><time>2026-04-12T13:50:19Z</time></trkpt><trkpt lat="44.38950582174493" lon="11.71516120331433"><ele>33.0</ele><time>2026-04-12T13:50:20Z</time></trkpt><trkpt lat="44.38935643678343" lon="11.7150377574215"><ele>33.0</ele><time>2026-04-12T13:50:21Z</time></trkpt><trkpt lat="44.38919282389152" lon="11.714905240257998"><ele>33.0</ele><time>2026-04-12T13:50:22Z</time></trkpt><trkpt lat="44.389023700720294" lon="11.714765923506942"><ele>33.0</ele><time>2026-04-12T13:50:23Z</time></trkpt><trkpt lat="44.38885538251656" lon="11.714626258739859"><ele>32.666666666666664</ele><time>2026-04-12T13:50:24Z</time></trkpt><trkpt lat="44.38868165670843" lon="11.714484196451403"><ele>32.33333333333333</ele><time>2026-04-12T13:50:25Z</time></trkpt><trkpt lat="44.388510694606666" lon="11.714340190064977"><ele>32.0</ele><time>2026-04-12T13:50:26Z</time></trkpt><trkpt lat="44.38833669677414" lon="11.714194504977623"><ele>32.666666666666664</ele><time>2026-04-12T13:50:27Z</time></trkpt><trkpt lat="44.38816765679653" lon="11.71405583348061"><ele>33.333333333333336</ele><time>2026-04-12T13:50:28Z</time></trkpt><trkpt lat="44.38799480281233" lon="11.713916144795032"><ele>34.0</ele><time>2026-04-12T13:50:29Z</time></trkpt><trkpt lat="44.387823884747796" lon="11.713774286960637"><ele>34.0</ele><time>2026-04-12T13:50:30Z</time></trkpt><trkpt lat="44.38765137213672" lon="11.713628934059253"><ele>34.0</ele><time>2026-04-12T13:50:31Z</time></trkpt><trkpt lat="44.387480332971066" lon="11.713489404887575"><ele>34.0</ele><time>2026-04-12T13:50:32Z</time></trkpt><trkpt lat="44.38730607767977" lon="11.713359138267139"><ele>35.0</ele><time>2026-04-12T13:50:33Z</time></trkpt><trkpt lat="44.38713312063625" lon="11.71323391386093"><ele>36.0</ele><time>2026-04-12T13:50:34Z</time></trkpt><trkpt lat="44.38695570950728" lon="11.713109202896847"><ele>37.0</ele><time>2026-04-12T13:50:35Z</time></trkpt><trkpt lat="44.38678256591721" lon="11.712985233270606"><ele>37.0</ele><time>2026-04-12T13:50:36Z</time></trkpt><trkpt lat="44.386618117451924" lon="11.712861536530783"><ele>37.0</ele><time>2026-04-12T13:50:37Z</time></trkpt><trkpt lat="44.38643882397407" lon="11.712734984240049"><ele>37.0</ele><time>2026-04-12T13:50:38Z</time></trkpt><trkpt lat="44.38626059786091" lon="11.712604919707024"><ele>37.333333333333336</ele><time>2026-04-12T13:50:39Z</time></trkpt><trkpt lat="44.38608978742497" lon="11.712478301050046"><ele>37.666666666666664</ele><time>2026-04-12T13:50:40Z</time></trkpt><trkpt lat="44.38591610001132" lon="11.71235089918831"><ele>38.0</ele><time>2026-04-12T13:50:41.001Z</time></trkpt><trkpt lat="44.385746357422384" lon="11.712231747944939"><ele>38.0</ele><time>2026-04-12T13:50:42.001Z</time></trkpt><trkpt lat="44.3855914175002" lon="11.712124422273652"><ele>38.0</ele><time>2026-04-12T13:50:43.001Z</time></trkpt><trkpt lat="44.38545012946106" lon="11.71201940231797"><ele>38.0</ele><time>2026-04-12T13:50:44.001Z</time></trkpt><trkpt lat="44.38530672393835" lon="11.711914523485722"><ele>37.5</ele><time>2026-04-12T13:50:45.001Z</time></trkpt><trkpt lat="44.38517168783587" lon="11.711814321740297"><ele>37.0</ele><time>2026-04-12T13:50:46.001Z</time></trkpt><trkpt lat="44.38504449561626" lon="11.711724245910466"><ele>36.5</ele><time>2026-04-12T13:50:47.001Z</time></trkpt><trkpt lat="44.384931742751846" lon="11.711639053755349"><ele>36.0</ele><time>2026-04-12T13:50:48.001Z</time></trkpt><trkpt lat="44.384825528057334" lon="11.711563633588328"><ele>36.0</ele><time>2026-04-12T13:50:49.001Z</time></trkpt><trkpt lat="44.38471692103235" lon="11.71148685157141"><ele>36.0</ele><time>2026-04-12T13:50:50.001Z</time></trkpt><trkpt lat="44.38460784085206" lon="11.71140946426635"><ele>36.0</ele><time>2026-04-12T13:50:51.001Z</time></trkpt><trkpt lat="44.38450067724496" lon="11.711328497793222"><ele>36.0</ele><time>2026-04-12T13:50:52.001Z</time></trkpt><trkpt lat="44.38440572279188" lon="11.711254506745982"><ele>36.166666666666664</ele><time>2026-04-12T13:50:53.001Z</time></trkpt><trkpt lat="44.38431559802022" lon="11.71118465440129"><ele>36.333333333333336</ele><time>2026-04-12T13:50:54.001Z</time></trkpt><trkpt lat="44.38424104794065" lon="11.711118447111556"><ele>36.5</ele><time>2026-04-12T13:50:55.001Z</time></trkpt><trkpt lat="44.384171732127925" lon="11.711057454568259"><ele>36.66666666666667</ele><time>2026-04-12T13:50:56.001Z</time></trkpt><trkpt lat="44.38410131121162" lon="11.710996274548515"><ele>36.833333333333336</ele><time>2026-04-12T13:50:57.001Z</time></trkpt><trkpt lat="44.38403926251534" lon="11.710937386178784"><ele>37.0</ele><time>2026-04-12T13:50:58.001Z</time></trkpt><trkpt lat="44.38398804202171" lon="11.710885348100266"><ele>37.16666666666667</ele><time>2026-04-12T13:50:59.001Z</time></trkpt><trkpt lat="44.383922454344166" lon="11.710802638444806"><ele>37.333333333333336</ele><time>2026-04-12T13:51:01.001Z</time></trkpt><trkpt lat="44.38384772822034" lon="11.710668320641192"><ele>37.5</ele><time>2026-04-12T13:51:03.001Z</time></trkpt><trkpt lat="44.38379029085677" lon="11.710605885948105"><ele>37.666666666666664</ele><time>2026-04-12T13:51:04.001Z</time></trkpt><trkpt lat="44.383712971636896" lon="11.710593313445328"><ele>37.83333333333333</ele><time>2026-04-12T13:51:05.001Z</time></trkpt><trkpt lat="44.38362680514593" lon="11.710603031949354"><ele>38.0</ele><time>2026-04-12T13:51:06.001Z</time></trkpt><trkpt lat="44.38353313740862" lon="11.710583211309428"><ele>38.0</ele><time>2026-04-12T13:51:07.001Z</time></trkpt><trkpt lat="44.383441629232316" lon="11.710516499547852"><ele>38.0</ele><time>2026-04-12T13:51:08.001Z</time></trkpt><trkpt lat="44.38333985924206" lon="11.710426750454419"><ele>38.0</ele><time>2026-04-12T13:51:09.001Z</time></trkpt><trkpt lat="44.38322558103573" lon="11.710331923801954"><ele>38.0</ele><time>2026-04-12T13:51:10.001Z</time></trkpt><trkpt lat="44.38311077716112" lon="11.710242880444401"><ele>37.75</ele><time>2026-04-12T13:51:11.001Z</time></trkpt><trkpt lat="44.38298799291135" lon="11.710153295231347"><ele>37.5</ele><time>2026-04-12T13:51:12.001Z</time></trkpt><trkpt lat="44.382858302773855" lon="11.710053374309584"><ele>37.25</ele><time>2026-04-12T13:51:13.001Z</time></trkpt><trkpt lat="44.38273492912498" lon="11.70994500029345"><ele>37.0</ele><time>2026-04-12T13:51:14.001Z</time></trkpt><trkpt lat="44.382608642494745" lon="11.709836162286528"><ele>37.0</ele><time>2026-04-12T13:51:15.001Z</time></trkpt><trkpt lat="44.38247286543301" lon="11.709721433956032"><ele>37.0</ele><time>2026-04-12T13:51:16.001Z</time></trkpt><trkpt lat="44.382336569975905" lon="11.709604603855817"><ele>37.0</ele><time>2026-04-12T13:51:17.001Z</time></trkpt><trkpt lat="44.382193894846345" lon="11.709481644976375"><ele>37.333333333333336</ele><time>2026-04-12T13:51:18.001Z</time></trkpt><trkpt lat="44.38204264459088" lon="11.709370583763254"><ele>37.666666666666664</ele><time>2026-04-12T13:51:19.001Z</time></trkpt><trkpt lat="44.381889494589565" lon="11.709282032634292"><ele>38.0</ele><time>2026-04-12T13:51:20.001Z</time></trkpt><trkpt lat="44.38173640606619" lon="11.709200037476826"><ele>38.0</ele><time>2026-04-12T13:51:21.001Z</time></trkpt><trkpt lat="44.381580086478834" lon="11.709122723301284"><ele>38.0</ele><time>2026-04-12T13:51:22.001Z</time></trkpt><trkpt lat="44.38143915630842" lon="11.709052561182576"><ele>38.0</ele><time>2026-04-12T13:51:23.001Z</time></trkpt><trkpt lat="44.38129973436439" lon="11.708982071869833"><ele>38.0</ele><time>2026-04-12T13:51:24.001Z</time></trkpt><trkpt lat="44.38116522595709" lon="11.708862953250378"><ele>38.0</ele><time>2026-04-12T13:51:25.001Z</time></trkpt><trkpt lat="44.381041958027815" lon="11.70872284507184"><ele>38.0</ele><time>2026-04-12T13:51:26.001Z</time></trkpt><trkpt lat="44.3809188326499" lon="11.708564276493417"><ele>38.0</ele><time>2026-04-12T13:51:27.001Z</time></trkpt><trkpt lat="44.380802663022266" lon="11.708406909545612"><ele>38.0</ele><time>2026-04-12T13:51:28.001Z</time></trkpt><trkpt lat="44.3806735205999" lon="11.708251264346716"><ele>38.0</ele><time>2026-04-12T13:51:29.001Z</time></trkpt><trkpt lat="44.38053254744722" lon="11.708116877528102"><ele>38.666666666666664</ele><time>2026-04-12T13:51:30Z</time></trkpt><trkpt lat="44.380374406816124" lon="11.707994489544276"><ele>39.333333333333336</ele><time>2026-04-12T13:51:31Z</time></trkpt><trkpt lat="44.380208567077474" lon="11.707882010486845"><ele>40.0</ele><time>2026-04-12T13:51:32Z</time></trkpt><trkpt lat="44.38003782508225" lon="11.70777237169599"><ele>39.66666666666667</ele><time>2026-04-12T13:51:33Z</time></trkpt><trkpt lat="44.379860030883" lon="11.70766433457673"><ele>39.333333333333336</ele><time>2026-04-12T13:51:34Z</time></trkpt><trkpt lat="44.379680013174784" lon="11.70755780806411"><ele>39.0</ele><time>2026-04-12T13:51:35Z</time></trkpt><trkpt lat="44.37950040322674" lon="11.707439940018382"><ele>38.666666666666664</ele><time>2026-04-12T13:51:36Z</time></trkpt><trkpt lat="44.37934151093106" lon="11.707306846836532"><ele>38.33333333333333</ele><time>2026-04-12T13:51:37Z</time></trkpt><trkpt lat="44.37916661846844" lon="11.707155076222616"><ele>38.0</ele><time>2026-04-12T13:51:38Z</time></trkpt><trkpt lat="44.37901607616575" lon="11.706992947707919"><ele>38.666666666666664</ele><time>2026-04-12T13:51:39Z</time></trkpt><trkpt lat="44.37886152810849" lon="11.706842521723141"><ele>39.333333333333336</ele><time>2026-04-12T13:51:40Z</time></trkpt><trkpt lat="44.37870044871931" lon="11.70670409164174"><ele>40.0</ele><time>2026-04-12T13:51:41Z</time></trkpt><trkpt lat="44.37854677931464" lon="11.706570641315603"><ele>40.66666666666667</ele><time>2026-04-12T13:51:42Z</time></trkpt><trkpt lat="44.378392251039394" lon="11.706439512492743"><ele>41.333333333333336</ele><time>2026-04-12T13:51:43Z</time></trkpt><trkpt lat="44.37823592796409" lon="11.706307075414559"><ele>42.0</ele><time>2026-04-12T13:51:44Z</time></trkpt><trkpt lat="44.378076288370586" lon="11.706171677391282"><ele>42.333333333333336</ele><time>2026-04-12T13:51:45Z</time></trkpt><trkpt lat="44.37791562445632" lon="11.706042530392502"><ele>42.66666666666667</ele><time>2026-04-12T13:51:46Z</time></trkpt><trkpt lat="44.37775054083549" lon="11.705919703967732"><ele>43.0</ele><time>2026-04-12T13:51:47Z</time></trkpt><trkpt lat="44.37757834858844" lon="11.705805793042405"><ele>43.0</ele><time>2026-04-12T13:51:48Z</time></trkpt><trkpt lat="44.37740501464451" lon="11.705694181263345"><ele>43.0</ele><time>2026-04-12T13:51:49Z</time></trkpt><trkpt lat="44.37722991469615" lon="11.705585460699574"><ele>43.0</ele><time>2026-04-12T13:51:50Z</time></trkpt><trkpt lat="44.37705625719749" lon="11.70547648835614"><ele>43.0</ele><time>2026-04-12T13:51:51Z</time></trkpt><trkpt lat="44.376885689100796" lon="11.705368334724946"><ele>43.0</ele><time>2026-04-12T13:51:52Z</time></trkpt><trkpt lat="44.376709977697516" lon="11.705264255161115"><ele>43.0</ele><time>2026-04-12T13:51:53Z</time></trkpt><trkpt lat="44.37653518500695" lon="11.705173924986193"><ele>43.0</ele><time>2026-04-12T13:51:54Z</time></trkpt><trkpt lat="44.376357217937155" lon="11.705090843160221"><ele>43.0</ele><time>2026-04-12T13:51:55Z</time></trkpt><trkpt lat="44.37618289274176" lon="11.705007913897209"><ele>43.0</ele><time>2026-04-12T13:51:56Z</time></trkpt><trkpt lat="44.37600582728471" lon="11.704904323100015"><ele>43.0</ele><time>2026-04-12T13:51:57Z</time></trkpt><trkpt lat="44.37583091903536" lon="11.704786398941335"><ele>43.0</ele><time>2026-04-12T13:51:58Z</time></trkpt><trkpt lat="44.37566721090497" lon="11.704656507205717"><ele>43.0</ele><time>2026-04-12T13:51:59Z</time></trkpt><trkpt lat="44.37550687835039" lon="11.70452792777319"><ele>43.333333333333336</ele><time>2026-04-12T13:52:00Z</time></trkpt><trkpt lat="44.37533995005308" lon="11.70439986890916"><ele>43.666666666666664</ele><time>2026-04-12T13:52:01Z</time></trkpt><trkpt lat="44.375177639230536" lon="11.704272205320946"><ele>44.0</ele><time>2026-04-12T13:52:02Z</time></trkpt><trkpt lat="44.37502506070421" lon="11.704155854825132"><ele>44.0</ele><time>2026-04-12T13:52:03Z</time></trkpt><trkpt lat="44.374883626332526" lon="11.704047199777156"><ele>44.0</ele><time>2026-04-12T13:52:04Z</time></trkpt><trkpt lat="44.37475192149174" lon="11.703947060339425"><ele>44.0</ele><time>2026-04-12T13:52:05.001Z</time></trkpt><trkpt lat="44.374628531545774" lon="11.703849684821114"><ele>43.75</ele><time>2026-04-12T13:52:06Z</time></trkpt><trkpt lat="44.374510656120016" lon="11.703757811471982"><ele>43.5</ele><time>2026-04-12T13:52:07Z</time></trkpt><trkpt lat="44.37439951909572" lon="11.70367194614692"><ele>43.25</ele><time>2026-04-12T13:52:08Z</time></trkpt><trkpt lat="44.374292015240975" lon="11.70359557377519"><ele>43.0</ele><time>2026-04-12T13:52:09Z</time></trkpt><trkpt lat="44.37417768006543" lon="11.703516292799415"><ele>43.5</ele><time>2026-04-12T13:52:10Z</time></trkpt><trkpt lat="44.374055058076046" lon="11.70344125246871"><ele>44.0</ele><time>2026-04-12T13:52:11Z</time></trkpt><trkpt lat="44.37392670888968" lon="11.703366994487794"><ele>44.5</ele><time>2026-04-12T13:52:12Z</time></trkpt><trkpt lat="44.373788116394" lon="11.703298252046507"><ele>45.0</ele><time>2026-04-12T13:52:13Z</time></trkpt><trkpt lat="44.37364853977864" lon="11.703237553067522"><ele>45.0</ele><time>2026-04-12T13:52:14Z</time></trkpt><trkpt lat="44.37350632783777" lon="11.703183273090753"><ele>45.0</ele><time>2026-04-12T13:52:15Z</time></trkpt><trkpt lat="44.37337460005553" lon="11.703136736634605"><ele>45.0</ele><time>2026-04-12T13:52:16Z</time></trkpt><trkpt lat="44.37324557560214" lon="11.703097719298304"><ele>45.0</ele><time>2026-04-12T13:52:17Z</time></trkpt><trkpt lat="44.37311986721003" lon="11.70304644415614"><ele>45.2</ele><time>2026-04-12T13:52:18Z</time></trkpt><trkpt lat="44.373004672516196" lon="11.703001392452254"><ele>45.4</ele><time>2026-04-12T13:52:19Z</time></trkpt><trkpt lat="44.372897346432836" lon="11.702953295164829"><ele>45.599999999999994</ele><time>2026-04-12T13:52:20Z</time></trkpt><trkpt lat="44.37280068624197" lon="11.702912259156674"><ele>45.8</ele><time>2026-04-12T13:52:21Z</time></trkpt><trkpt lat="44.37271703645855" lon="11.702861519132366"><ele>46.0</ele><time>2026-04-12T13:52:22Z</time></trkpt><trkpt lat="44.37264620900521" lon="11.702804027264245"><ele>46.0</ele><time>2026-04-12T13:52:23Z</time></trkpt><trkpt lat="44.37257543293644" lon="11.702745268340673"><ele>46.0</ele><time>2026-04-12T13:52:24Z</time></trkpt><trkpt lat="44.372508406304796" lon="11.702688329667415"><ele>46.0</ele><time>2026-04-12T13:52:25Z</time></trkpt><trkpt lat="44.37245052526846" lon="11.702639219773861"><ele>46.0</ele><time>2026-04-12T13:52:26Z</time></trkpt><trkpt lat="44.37233191959446" lon="11.702617828548448"><ele>46.0</ele><time>2026-04-12T13:52:28Z</time></trkpt><trkpt lat="44.372267841373926" lon="11.702678897678696"><ele>46.0</ele><time>2026-04-12T13:52:29Z</time></trkpt><trkpt lat="44.37221681681368" lon="11.702770195262271"><ele>45.8</ele><time>2026-04-12T13:52:30Z</time></trkpt><trkpt lat="44.37218965876072" lon="11.702900342557562"><ele>45.599999999999994</ele><time>2026-04-12T13:52:31Z</time></trkpt><trkpt lat="44.37216240621693" lon="11.703045535029585"><ele>45.4</ele><time>2026-04-12T13:52:32Z</time></trkpt><trkpt lat="44.37212569153271" lon="11.703193771707424"><ele>45.2</ele><time>2026-04-12T13:52:33Z</time></trkpt><trkpt lat="44.37207192901911" lon="11.70334074293343"><ele>45.0</ele><time>2026-04-12T13:52:34Z</time></trkpt><trkpt lat="44.37200507018254" lon="11.703502833276099"><ele>45.0</ele><time>2026-04-12T13:52:35Z</time></trkpt><trkpt lat="44.3719315183052" lon="11.703681488087906"><ele>45.0</ele><time>2026-04-12T13:52:36Z</time></trkpt><trkpt lat="44.37185804990867" lon="11.703881836039205"><ele>45.0</ele><time>2026-04-12T13:52:37Z</time></trkpt><trkpt lat="44.37177716287438" lon="11.704101183133483"><ele>45.0</ele><time>2026-04-12T13:52:38Z</time></trkpt><trkpt lat="44.37169588685564" lon="11.704323578287886"><ele>45.0</ele><time>2026-04-12T13:52:39Z</time></trkpt><trkpt lat="44.371619408324335" lon="11.704502239318241"><ele>45.0</ele><time>2026-04-12T13:52:40Z</time></trkpt><trkpt lat="44.37155008775519" lon="11.704672762634235"><ele>44.8</ele><time>2026-04-12T13:52:41Z</time></trkpt><trkpt lat="44.37148918349967" lon="11.704829854673534"><ele>44.6</ele><time>2026-04-12T13:52:42Z</time></trkpt><trkpt lat="44.37143815761347" lon="11.704965592506303"><ele>44.400000000000006</ele><time>2026-04-12T13:52:43Z</time></trkpt><trkpt lat="44.37137467426404" lon="11.705069809828949"><ele>44.2</ele><time>2026-04-12T13:52:44Z</time></trkpt><trkpt lat="44.371296337716636" lon="11.705152471041668"><ele>44.0</ele><time>2026-04-12T13:52:45Z</time></trkpt><trkpt lat="44.371195807942456" lon="11.70522356044451"><ele>44.2</ele><time>2026-04-12T13:52:46Z</time></trkpt><trkpt lat="44.371093283445056" lon="11.705264200772529"><ele>44.400000000000006</ele><time>2026-04-12T13:52:47Z</time></trkpt><trkpt lat="44.37100228576238" lon="11.705281995719048"><ele>44.6</ele><time>2026-04-12T13:52:48Z</time></trkpt><trkpt lat="44.37092373234393" lon="11.705289589920765"><ele>44.8</ele><time>2026-04-12T13:52:49Z</time></trkpt><trkpt lat="44.37085874352665" lon="11.70529320845415"><ele>45.0</ele><time>2026-04-12T13:52:50Z</time></trkpt><trkpt lat="44.370727163559636" lon="11.705310982981976"><ele>45.0</ele><time>2026-04-12T13:52:52Z</time></trkpt><trkpt lat="44.370653831123725" lon="11.705325248354699"><ele>45.0</ele><time>2026-04-12T13:52:53Z</time></trkpt><trkpt lat="44.370583671853815" lon="11.705342666124992"><ele>45.0</ele><time>2026-04-12T13:52:54Z</time></trkpt><trkpt lat="44.37046765632427" lon="11.705373633651563"><ele>45.0</ele><time>2026-04-12T13:52:56Z</time></trkpt><trkpt lat="44.37037573089836" lon="11.705426238746574"><ele>45.0</ele><time>2026-04-12T13:52:58Z</time></trkpt><trkpt lat="44.370328506071786" lon="11.705563854158545"><ele>44.833333333333336</ele><time>2026-04-12T13:53:00Z</time></trkpt><trkpt lat="44.370328424961" lon="11.70567644106793"><ele>44.666666666666664</ele><time>2026-04-12T13:53:01Z</time></trkpt><trkpt lat="44.37035357926773" lon="11.70579546008211"><ele>44.5</ele><time>2026-04-12T13:53:02Z</time></trkpt><trkpt lat="44.37038766488829" lon="11.705918094271142"><ele>44.33333333333333</ele><time>2026-04-12T13:53:03Z</time></trkpt><trkpt lat="44.37041513614144" lon="11.706032659348196"><ele>44.166666666666664</ele><time>2026-04-12T13:53:04Z</time></trkpt><trkpt lat="44.37043956800287" lon="11.706138975598742"><ele>44.0</ele><time>2026-04-12T13:53:05Z</time></trkpt><trkpt lat="44.37045850533396" lon="11.706251368339696"><ele>44.0</ele><time>2026-04-12T13:53:06Z</time></trkpt><trkpt lat="44.37047236123268" lon="11.706370975563235"><ele>44.0</ele><time>2026-04-12T13:53:07Z</time></trkpt><trkpt lat="44.37047990034852" lon="11.706487372445478"><ele>44.0</ele><time>2026-04-12T13:53:08Z</time></trkpt><trkpt lat="44.370482587017015" lon="11.706606245471514"><ele>44.0</ele><time>2026-04-12T13:53:09Z</time></trkpt><trkpt lat="44.37048070007858" lon="11.706724185862656"><ele>44.0</ele><time>2026-04-12T13:53:10Z</time></trkpt><trkpt lat="44.37047348218879" lon="11.706837643768035"><ele>44.0</ele><time>2026-04-12T13:53:11Z</time></trkpt><trkpt lat="44.37046183995204" lon="11.70696251737701"><ele>43.800000000000004</ele><time>2026-04-12T13:53:12Z</time></trkpt><trkpt lat="44.370443065613294" lon="11.70708433085978"><ele>43.6</ele><time>2026-04-12T13:53:13Z</time></trkpt><trkpt lat="44.37041835444025" lon="11.707203910074442"><ele>43.4</ele><time>2026-04-12T13:53:14Z</time></trkpt><trkpt lat="44.37039055386239" lon="11.707320960456192"><ele>43.2</ele><time>2026-04-12T13:53:15Z</time></trkpt><trkpt lat="44.37035537114462" lon="11.707447188608281"><ele>43.0</ele><time>2026-04-12T13:53:16Z</time></trkpt><trkpt lat="44.37031759447331" lon="11.707578283842093"><ele>43.0</ele><time>2026-04-12T13:53:17Z</time></trkpt><trkpt lat="44.370280094422284" lon="11.70771065159546"><ele>43.0</ele><time>2026-04-12T13:53:18Z</time></trkpt><trkpt lat="44.37024157837213" lon="11.707839773485878"><ele>43.0</ele><time>2026-04-12T13:53:19Z</time></trkpt><trkpt lat="44.370201965486025" lon="11.707978578280638"><ele>43.0</ele><time>2026-04-12T13:53:20Z</time></trkpt><trkpt lat="44.37016059941476" lon="11.708124285752413"><ele>43.0</ele><time>2026-04-12T13:53:21Z</time></trkpt><trkpt lat="44.37011718260459" lon="11.70827788531276"><ele>42.75</ele><time>2026-04-12T13:53:22Z</time></trkpt><trkpt lat="44.37007150552601" lon="11.708434582531241"><ele>42.5</ele><time>2026-04-12T13:53:23Z</time></trkpt><trkpt lat="44.37002720257746" lon="11.708598625469225"><ele>42.25</ele><time>2026-04-12T13:53:24Z</time></trkpt><trkpt lat="44.3699803809905" lon="11.708763728795814"><ele>42.0</ele><time>2026-04-12T13:53:25Z</time></trkpt><trkpt lat="44.369937128698474" lon="11.708920666110181"><ele>42.0</ele><time>2026-04-12T13:53:26Z</time></trkpt><trkpt lat="44.369893089785414" lon="11.709075177221882"><ele>42.0</ele><time>2026-04-12T13:53:27Z</time></trkpt><trkpt lat="44.369850004089315" lon="11.709224573671158"><ele>42.0</ele><time>2026-04-12T13:53:28Z</time></trkpt><trkpt lat="44.36980658521277" lon="11.709373475188624"><ele>42.0</ele><time>2026-04-12T13:53:29Z</time></trkpt><trkpt lat="44.369763153238594" lon="11.709520869594202"><ele>42.0</ele><time>2026-04-12T13:53:30Z</time></trkpt><trkpt lat="44.36972078662523" lon="11.709668338657242"><ele>42.0</ele><time>2026-04-12T13:53:31Z</time></trkpt><trkpt lat="44.36967908091926" lon="11.709812419633172"><ele>42.0</ele><time>2026-04-12T13:53:32Z</time></trkpt><trkpt lat="44.369636577799355" lon="11.709964365550018"><ele>42.0</ele><time>2026-04-12T13:53:33Z</time></trkpt><trkpt lat="44.36959815857813" lon="11.710120474568697"><ele>42.75</ele><time>2026-04-12T13:53:34Z</time></trkpt><trkpt lat="44.36955837324697" lon="11.710282820095166"><ele>43.5</ele><time>2026-04-12T13:53:35Z</time></trkpt><trkpt lat="44.369515473651774" lon="11.71044178485241"><ele>44.25</ele><time>2026-04-12T13:53:36Z</time></trkpt><trkpt lat="44.36947087430098" lon="11.710606031979191"><ele>45.0</ele><time>2026-04-12T13:53:37Z</time></trkpt><trkpt lat="44.36942769461628" lon="11.71076752431043"><ele>45.0</ele><time>2026-04-12T13:53:38Z</time></trkpt><trkpt lat="44.369382269031235" lon="11.710928489615089"><ele>45.0</ele><time>2026-04-12T13:53:39Z</time></trkpt><trkpt lat="44.36933661363423" lon="11.711082846399233"><ele>45.0</ele><time>2026-04-12T13:53:40Z</time></trkpt><trkpt lat="44.369288253820905" lon="11.711236617758544"><ele>45.0</ele><time>2026-04-12T13:53:41Z</time></trkpt><trkpt lat="44.369239984295625" lon="11.711390490416308"><ele>45.0</ele><time>2026-04-12T13:53:42Z</time></trkpt><trkpt lat="44.3691885834529" lon="11.71154067817366"><ele>45.0</ele><time>2026-04-12T13:53:43Z</time></trkpt><trkpt lat="44.36913387481822" lon="11.711688003189101"><ele>45.0</ele><time>2026-04-12T13:53:44Z</time></trkpt><trkpt lat="44.36907295183824" lon="11.711839803709164"><ele>45.0</ele><time>2026-04-12T13:53:45Z</time></trkpt><trkpt lat="44.36900919368273" lon="11.711988545171668"><ele>44.75</ele><time>2026-04-12T13:53:46Z</time></trkpt><trkpt lat="44.368940437620154" lon="11.712127819923904"><ele>44.5</ele><time>2026-04-12T13:53:47Z</time></trkpt><trkpt lat="44.36886800575365" lon="11.712262100480624"><ele>44.25</ele><time>2026-04-12T13:53:48Z</time></trkpt><trkpt lat="44.3687983822501" lon="11.712393241528058"><ele>44.0</ele><time>2026-04-12T13:53:49Z</time></trkpt><trkpt lat="44.36872829465715" lon="11.712526867737907"><ele>44.0</ele><time>2026-04-12T13:53:50Z</time></trkpt><trkpt lat="44.368658092963315" lon="11.712662127170095"><ele>44.0</ele><time>2026-04-12T13:53:51Z</time></trkpt><trkpt lat="44.36858716085055" lon="11.712796864989814"><ele>44.0</ele><time>2026-04-12T13:53:52Z</time></trkpt><trkpt lat="44.36851549236117" lon="11.712928073512943"><ele>44.0</ele><time>2026-04-12T13:53:53Z</time></trkpt><trkpt lat="44.36844256022578" lon="11.713064543934644"><ele>44.0</ele><time>2026-04-12T13:53:54Z</time></trkpt><trkpt lat="44.36836870957014" lon="11.713205991048271"><ele>44.0</ele><time>2026-04-12T13:53:55Z</time></trkpt><trkpt lat="44.36829283066377" lon="11.713341681101063"><ele>44.0</ele><time>2026-04-12T13:53:56Z</time></trkpt><trkpt lat="44.36821594227702" lon="11.713475622595611"><ele>44.0</ele><time>2026-04-12T13:53:57Z</time></trkpt><trkpt lat="44.36814308243027" lon="11.71360839204207"><ele>44.0</ele><time>2026-04-12T13:53:58Z</time></trkpt><trkpt lat="44.36806844446233" lon="11.713741335972966"><ele>44.0</ele><time>2026-04-12T13:53:59Z</time></trkpt><trkpt lat="44.36799449299304" lon="11.713871027400586"><ele>44.0</ele><time>2026-04-12T13:54:00Z</time></trkpt><trkpt lat="44.36791645343746" lon="11.714002596590108"><ele>44.0</ele><time>2026-04-12T13:54:01Z</time></trkpt><trkpt lat="44.36783839924303" lon="11.714133612310665"><ele>43.75</ele><time>2026-04-12T13:54:02Z</time></trkpt><trkpt lat="44.36776092144533" lon="11.714268766984638"><ele>43.5</ele><time>2026-04-12T13:54:03Z</time></trkpt><trkpt lat="44.36768753773772" lon="11.714408041646767"><ele>43.25</ele><time>2026-04-12T13:54:04Z</time></trkpt><trkpt lat="44.367618040617714" lon="11.714551537216956"><ele>43.0</ele><time>2026-04-12T13:54:05Z</time></trkpt><trkpt lat="44.36755087861614" lon="11.714694327667306"><ele>42.75</ele><time>2026-04-12T13:54:06Z</time></trkpt><trkpt lat="44.367484659503845" lon="11.714841852605609"><ele>42.5</ele><time>2026-04-12T13:54:07Z</time></trkpt><trkpt lat="44.367423814875416" lon="11.714986106296633"><ele>42.25</ele><time>2026-04-12T13:54:08Z</time></trkpt><trkpt lat="44.367363511418795" lon="11.715138850493835"><ele>42.0</ele><time>2026-04-12T13:54:09Z</time></trkpt><trkpt lat="44.36730526897246" lon="11.715283891272588"><ele>41.8</ele><time>2026-04-12T13:54:10Z</time></trkpt><trkpt lat="44.36724420398433" lon="11.715431648767025"><ele>41.6</ele><time>2026-04-12T13:54:11Z</time></trkpt><trkpt lat="44.36718741589237" lon="11.715572150137607"><ele>41.4</ele><time>2026-04-12T13:54:12Z</time></trkpt><trkpt lat="44.36713636769297" lon="11.715707842264381"><ele>41.199999999999996</ele><time>2026-04-12T13:54:13Z</time></trkpt><trkpt lat="44.36708754254427" lon="11.715831018104893"><ele>41.0</ele><time>2026-04-12T13:54:14Z</time></trkpt><trkpt lat="44.36703290935551" lon="11.715965137345654"><ele>41.199999999999996</ele><time>2026-04-12T13:54:15Z</time></trkpt><trkpt lat="44.366976627939636" lon="11.716102467777223"><ele>41.4</ele><time>2026-04-12T13:54:16Z</time></trkpt><trkpt lat="44.36692743668228" lon="11.71622459842395"><ele>41.6</ele><time>2026-04-12T13:54:17Z</time></trkpt><trkpt lat="44.366881290985305" lon="11.716334052550884"><ele>41.8</ele><time>2026-04-12T13:54:18Z</time></trkpt><trkpt lat="44.366841118774644" lon="11.716431845942157"><ele>42.0</ele><time>2026-04-12T13:54:19Z</time></trkpt><trkpt lat="44.36679975653921" lon="11.716527805850829"><ele>42.0</ele><time>2026-04-12T13:54:20Z</time></trkpt><trkpt lat="44.366755696996364" lon="11.716633029592602"><ele>42.0</ele><time>2026-04-12T13:54:21Z</time></trkpt><trkpt lat="44.366718684715856" lon="11.71672637102629"><ele>42.0</ele><time>2026-04-12T13:54:22Z</time></trkpt><trkpt lat="44.36668463348592" lon="11.716803005254134"><ele>42.0</ele><time>2026-04-12T13:54:23Z</time></trkpt><trkpt lat="44.366642406594856" lon="11.716903599675696"><ele>42.0</ele><time>2026-04-12T13:54:25Z</time></trkpt><trkpt lat="44.366600672900255" lon="11.716983122779656"><ele>42.0</ele><time>2026-04-12T13:54:27Z</time></trkpt><trkpt lat="44.36649405447167" lon="11.717070975112593"><ele>41.6</ele><time>2026-04-12T13:54:29Z</time></trkpt><trkpt lat="44.36641724866337" lon="11.71708462684859"><ele>41.2</ele><time>2026-04-12T13:54:30Z</time></trkpt><trkpt lat="44.366337988374006" lon="11.717094317018322"><ele>40.8</ele><time>2026-04-12T13:54:31Z</time></trkpt><trkpt lat="44.366212512041464" lon="11.717055023642704"><ele>40.4</ele><time>2026-04-12T13:54:33Z</time></trkpt><trkpt lat="44.3661383547675" lon="11.717015170895197"><ele>40.0</ele><time>2026-04-12T13:54:34Z</time></trkpt><trkpt lat="44.36605974295388" lon="11.716963964658316"><ele>39.833333333333336</ele><time>2026-04-12T13:54:35Z</time></trkpt><trkpt lat="44.365984163498574" lon="11.71690977544594"><ele>39.66666666666667</ele><time>2026-04-12T13:54:36Z</time></trkpt><trkpt lat="44.36590479682534" lon="11.716852119923535"><ele>39.5</ele><time>2026-04-12T13:54:37Z</time></trkpt><trkpt lat="44.36582591410875" lon="11.716795410623266"><ele>39.333333333333336</ele><time>2026-04-12T13:54:38Z</time></trkpt><trkpt lat="44.36575270688672" lon="11.71675177799443"><ele>39.166666666666664</ele><time>2026-04-12T13:54:39Z</time></trkpt><trkpt lat="44.365680029407024" lon="11.716703889776655"><ele>39.0</ele><time>2026-04-12T13:54:40Z</time></trkpt><trkpt lat="44.365606111751326" lon="11.716651743154054"><ele>39.2</ele><time>2026-04-12T13:54:41Z</time></trkpt><trkpt lat="44.36552680652711" lon="11.716595033085627"><ele>39.4</ele><time>2026-04-12T13:54:42Z</time></trkpt><trkpt lat="44.36544903465001" lon="11.71653681559817"><ele>39.6</ele><time>2026-04-12T13:54:43Z</time></trkpt><trkpt lat="44.36536991660006" lon="11.716471734369202"><ele>39.8</ele><time>2026-04-12T13:54:44Z</time></trkpt><trkpt lat="44.365286985145765" lon="11.716402668748097"><ele>40.0</ele><time>2026-04-12T13:54:45Z</time></trkpt><trkpt lat="44.36521042591758" lon="11.716333873809628"><ele>40.0</ele><time>2026-04-12T13:54:46Z</time></trkpt><trkpt lat="44.365141788449286" lon="11.716274402467262"><ele>40.0</ele><time>2026-04-12T13:54:47Z</time></trkpt><trkpt lat="44.365080472603985" lon="11.716222281934458"><ele>40.0</ele><time>2026-04-12T13:54:48Z</time></trkpt><trkpt lat="44.365017774033824" lon="11.716171836184058"><ele>40.0</ele><time>2026-04-12T13:54:49Z</time></trkpt><trkpt lat="44.364949204552616" lon="11.716115442493212"><ele>40.0</ele><time>2026-04-12T13:54:50Z</time></trkpt><trkpt lat="44.364891375047165" lon="11.71606729576774"><ele>40.0</ele><time>2026-04-12T13:54:51Z</time></trkpt><trkpt lat="44.364784684141455" lon="11.715982079177452"><ele>40.333333333333336</ele><time>2026-04-12T13:54:53Z</time></trkpt><trkpt lat="44.364692586012595" lon="11.715905310887406"><ele>40.66666666666667</ele><time>2026-04-12T13:54:55Z</time></trkpt><trkpt lat="44.36461604079361" lon="11.715842371981376"><ele>41.0</ele><time>2026-04-12T13:54:57Z</time></trkpt><trkpt lat="44.364550305228384" lon="11.715785160664801"><ele>41.333333333333336</ele><time>2026-04-12T13:54:59Z</time></trkpt><trkpt lat="44.364473859740606" lon="11.71572865770588"><ele>41.666666666666664</ele><time>2026-04-12T13:55:02Z</time></trkpt><trkpt lat="44.364405696821386" lon="11.715678460578417"><ele>42.0</ele><time>2026-04-12T13:55:05Z</time></trkpt><trkpt lat="44.364342555399894" lon="11.715632455104402"><ele>42.0</ele><time>2026-04-12T13:55:42.999Z</time></trkpt><trkpt lat="44.36427284625705" lon="11.715578764610825"><ele>42.0</ele><time>2026-04-12T13:55:43.999Z</time></trkpt><trkpt lat="44.36419269020348" lon="11.715514069087945"><ele>42.0</ele><time>2026-04-12T13:55:44.999Z</time></trkpt><trkpt lat="44.364088948356894" lon="11.715431333478875"><ele>42.0</ele><time>2026-04-12T13:55:45.999Z</time></trkpt><trkpt lat="44.36394931985368" lon="11.715318340928475"><ele>41.666666666666664</ele><time>2026-04-12T13:55:46.999Z</time></trkpt><trkpt lat="44.36379235083607" lon="11.715185638506926"><ele>41.33333333333333</ele><time>2026-04-12T13:55:47.999Z</time></trkpt><trkpt lat="44.36365926197663" lon="11.715076225432071"><ele>41.0</ele><time>2026-04-12T13:55:48.999Z</time></trkpt><trkpt lat="44.36354508601287" lon="11.71498864011464"><ele>41.0</ele><time>2026-04-12T13:55:49.999Z</time></trkpt><trkpt lat="44.36343236332603" lon="11.714904313829575"><ele>41.0</ele><time>2026-04-12T13:55:50.999Z</time></trkpt><trkpt lat="44.36333643169837" lon="11.71481930315622"><ele>41.0</ele><time>2026-04-12T13:55:51.999Z</time></trkpt><trkpt lat="44.363236671659465" lon="11.714739856799063"><ele>41.0</ele><time>2026-04-12T13:55:52.999Z</time></trkpt><trkpt lat="44.363132614486794" lon="11.714651567457716"><ele>41.0</ele><time>2026-04-12T13:55:53.999Z</time></trkpt><trkpt lat="44.363030080444396" lon="11.71457318431511"><ele>41.0</ele><time>2026-04-12T13:55:54.999Z</time></trkpt><trkpt lat="44.362931117906186" lon="11.71449341708922"><ele>41.0</ele><time>2026-04-12T13:55:56Z</time></trkpt><trkpt lat="44.362828253753946" lon="11.714409622502705"><ele>41.0</ele><time>2026-04-12T13:55:57Z</time></trkpt><trkpt lat="44.362717189761696" lon="11.714323695403417"><ele>41.0</ele><time>2026-04-12T13:55:58Z</time></trkpt><trkpt lat="44.36260411959417" lon="11.714239907084504"><ele>41.0</ele><time>2026-04-12T13:55:59Z</time></trkpt><trkpt lat="44.36249479779094" lon="11.714158607496213"><ele>41.0</ele><time>2026-04-12T13:56:00Z</time></trkpt><trkpt lat="44.36238897459832" lon="11.714075995621101"><ele>41.0</ele><time>2026-04-12T13:56:01Z</time></trkpt><trkpt lat="44.3622939531469" lon="11.714004127976509"><ele>41.0</ele><time>2026-04-12T13:56:02Z</time></trkpt><trkpt lat="44.36219836527512" lon="11.713920315425879"><ele>41.0</ele><time>2026-04-12T13:56:03Z</time></trkpt><trkpt lat="44.36210398019544" lon="11.713827940294864"><ele>41.0</ele><time>2026-04-12T13:56:04Z</time></trkpt><trkpt lat="44.36200130923959" lon="11.713734942095513"><ele>41.0</ele><time>2026-04-12T13:56:05Z</time></trkpt><trkpt lat="44.36188482955564" lon="11.71363681467917"><ele>41.33333333333333</ele><time>2026-04-12T13:56:06Z</time></trkpt><trkpt lat="44.36176474378091" lon="11.71352517286639"><ele>41.666666666666664</ele><time>2026-04-12T13:56:07Z</time></trkpt><trkpt lat="44.36163882383285" lon="11.713409378371287"><ele>42.0</ele><time>2026-04-12T13:56:08Z</time></trkpt><trkpt lat="44.361501980127024" lon="11.713302235552652"><ele>42.333333333333336</ele><time>2026-04-12T13:56:09Z</time></trkpt><trkpt lat="44.361364316306954" lon="11.713198742335598"><ele>42.66666666666667</ele><time>2026-04-12T13:56:10Z</time></trkpt><trkpt lat="44.3612334471521" lon="11.713099203099265"><ele>43.0</ele><time>2026-04-12T13:56:11Z</time></trkpt><trkpt lat="44.361092707199454" lon="11.713028756853937"><ele>43.0</ele><time>2026-04-12T13:56:12Z</time></trkpt><trkpt lat="44.360944908677446" lon="11.712945310690715"><ele>43.0</ele><time>2026-04-12T13:56:13Z</time></trkpt><trkpt lat="44.36081464748692" lon="11.712880940152148"><ele>43.0</ele><time>2026-04-12T13:56:14Z</time></trkpt><trkpt lat="44.360696665103674" lon="11.712844531918972"><ele>43.0</ele><time>2026-04-12T13:56:15Z</time></trkpt><trkpt lat="44.36058032456574" lon="11.712813855710309"><ele>43.75</ele><time>2026-04-12T13:56:16Z</time></trkpt><trkpt lat="44.360459341817624" lon="11.712776955047584"><ele>44.5</ele><time>2026-04-12T13:56:17Z</time></trkpt><trkpt lat="44.36033460185912" lon="11.712733682468773"><ele>45.25</ele><time>2026-04-12T13:56:18Z</time></trkpt><trkpt lat="44.36022014661447" lon="11.712684929281046"><ele>46.0</ele><time>2026-04-12T13:56:19Z</time></trkpt><trkpt lat="44.3601177266527" lon="11.712631276957056"><ele>46.0</ele><time>2026-04-12T13:56:20Z</time></trkpt><trkpt lat="44.36002160250321" lon="11.71259299831109"><ele>46.0</ele><time>2026-04-12T13:56:21Z</time></trkpt><trkpt lat="44.35993624091899" lon="11.712489674744361"><ele>46.0</ele><time>2026-04-12T13:56:22Z</time></trkpt><trkpt lat="44.35983387655225" lon="11.712399947473925"><ele>46.0</ele><time>2026-04-12T13:56:23Z</time></trkpt><trkpt lat="44.3597206521691" lon="11.712329086226802"><ele>46.0</ele><time>2026-04-12T13:56:24Z</time></trkpt><trkpt lat="44.35962976981139" lon="11.712250386664717"><ele>46.0</ele><time>2026-04-12T13:56:25Z</time></trkpt><trkpt lat="44.35954774875406" lon="11.712174176934386"><ele>46.0</ele><time>2026-04-12T13:56:26Z</time></trkpt><trkpt lat="44.35947312544369" lon="11.712107827647033"><ele>46.0</ele><time>2026-04-12T13:56:27Z</time></trkpt><trkpt lat="44.35940061546368" lon="11.712052227628956"><ele>46.0</ele><time>2026-04-12T13:56:28Z</time></trkpt><trkpt lat="44.35931758920124" lon="11.711985819527566"><ele>46.0</ele><time>2026-04-12T13:56:29Z</time></trkpt><trkpt lat="44.35923030938435" lon="11.711909069266806"><ele>46.0</ele><time>2026-04-12T13:56:30Z</time></trkpt><trkpt lat="44.35914502331758" lon="11.711835327434873"><ele>46.0</ele><time>2026-04-12T13:56:31Z</time></trkpt><trkpt lat="44.35905948517504" lon="11.711753676342797"><ele>46.0</ele><time>2026-04-12T13:56:32Z</time></trkpt><trkpt lat="44.358968961278215" lon="11.71168718752505"><ele>46.0</ele><time>2026-04-12T13:56:33Z</time></trkpt><trkpt lat="44.35888654671927" lon="11.71158886102647"><ele>46.199999999999996</ele><time>2026-04-12T13:56:34Z</time></trkpt><trkpt lat="44.35879721152575" lon="11.711512819027648"><ele>46.4</ele><time>2026-04-12T13:56:35Z</time></trkpt><trkpt lat="44.35871639212464" lon="11.71144377006515"><ele>46.6</ele><time>2026-04-12T13:56:36Z</time></trkpt><trkpt lat="44.358628755152004" lon="11.71139242862428"><ele>46.8</ele><time>2026-04-12T13:56:37Z</time></trkpt><trkpt lat="44.35855704790879" lon="11.711316797104573"><ele>47.0</ele><time>2026-04-12T13:56:38Z</time></trkpt><trkpt lat="44.358481480140355" lon="11.711256222267863"><ele>47.0</ele><time>2026-04-12T13:56:39Z</time></trkpt><trkpt lat="44.35842036352677" lon="11.711200228440344"><ele>47.0</ele><time>2026-04-12T13:56:40Z</time></trkpt><trkpt lat="44.35832014933825" lon="11.711112254492159"><ele>47.0</ele><time>2026-04-12T13:56:42Z</time></trkpt><trkpt lat="44.358265175980605" lon="11.71106639525527"><ele>47.0</ele><time>2026-04-12T13:56:43Z</time></trkpt><trkpt lat="44.358188998912325" lon="11.711003449177273"><ele>47.0</ele><time>2026-04-12T13:56:45Z</time></trkpt><trkpt lat="44.35812552402017" lon="11.710948226366764"><ele>47.0</ele><time>2026-04-12T13:56:47Z</time></trkpt><trkpt lat="44.358058678308325" lon="11.710896515946505"><ele>47.2</ele><time>2026-04-12T13:57:19Z</time></trkpt><trkpt lat="44.357999904615234" lon="11.710816579799811"><ele>47.400000000000006</ele><time>2026-04-12T13:57:21Z</time></trkpt><trkpt lat="44.35790733772593" lon="11.710907151428959"><ele>47.599999999999994</ele><time>2026-04-12T13:57:23Z</time></trkpt><trkpt lat="44.35787056867552" lon="11.710986605472833"><ele>47.8</ele><time>2026-04-12T13:57:24Z</time></trkpt><trkpt lat="44.35781537363519" lon="11.711151665770199"><ele>48.0</ele><time>2026-04-12T13:57:26Z</time></trkpt><trkpt lat="44.35778345392368" lon="11.711257717661637"><ele>48.0</ele><time>2026-04-12T13:57:27Z</time></trkpt><trkpt lat="44.35773438527381" lon="11.711378312454185"><ele>48.0</ele><time>2026-04-12T13:57:28Z</time></trkpt><trkpt lat="44.35767771796324" lon="11.711502621899704"><ele>48.0</ele><time>2026-04-12T13:57:29Z</time></trkpt><trkpt lat="44.35761757313623" lon="11.711658465861179"><ele>48.0</ele><time>2026-04-12T13:57:30Z</time></trkpt><trkpt lat="44.35755970044074" lon="11.711810028390014"><ele>47.75</ele><time>2026-04-12T13:57:31Z</time></trkpt><trkpt lat="44.35749765617408" lon="11.711954323105306"><ele>47.5</ele><time>2026-04-12T13:57:32Z</time></trkpt><trkpt lat="44.35743962119512" lon="11.712105471933963"><ele>47.25</ele><time>2026-04-12T13:57:33Z</time></trkpt><trkpt lat="44.35737843534824" lon="11.71225235325173"><ele>47.0</ele><time>2026-04-12T13:57:34Z</time></trkpt><trkpt lat="44.35732095374667" lon="11.712391271577095"><ele>47.0</ele><time>2026-04-12T13:57:35Z</time></trkpt><trkpt lat="44.357270569012975" lon="11.712530895701873"><ele>47.0</ele><time>2026-04-12T13:57:36Z</time></trkpt><trkpt lat="44.35720856949497" lon="11.712669905466793"><ele>47.0</ele><time>2026-04-12T13:57:37Z</time></trkpt><trkpt lat="44.35714663964676" lon="11.712809417343719"><ele>47.0</ele><time>2026-04-12T13:57:38Z</time></trkpt><trkpt lat="44.357078010996936" lon="11.712959963232064"><ele>47.0</ele><time>2026-04-12T13:57:39Z</time></trkpt><trkpt lat="44.357006112066884" lon="11.713110652605412"><ele>47.0</ele><time>2026-04-12T13:57:40Z</time></trkpt><trkpt lat="44.35693690446389" lon="11.713249455870725"><ele>47.0</ele><time>2026-04-12T13:57:41Z</time></trkpt><trkpt lat="44.356866099903385" lon="11.713402797748811"><ele>47.0</ele><time>2026-04-12T13:57:42Z</time></trkpt><trkpt lat="44.356799844119585" lon="11.713548914659052"><ele>47.5</ele><time>2026-04-12T13:57:43Z</time></trkpt><trkpt lat="44.356735917968685" lon="11.713698191767621"><ele>48.0</ele><time>2026-04-12T13:57:44Z</time></trkpt><trkpt lat="44.35667305173646" lon="11.713836003750025"><ele>48.5</ele><time>2026-04-12T13:57:45Z</time></trkpt><trkpt lat="44.35660946363536" lon="11.713988563237983"><ele>49.0</ele><time>2026-04-12T13:57:46Z</time></trkpt><trkpt lat="44.35655254461461" lon="11.71412722501162"><ele>49.0</ele><time>2026-04-12T13:57:47Z</time></trkpt><trkpt lat="44.35649682443534" lon="11.714272992932576"><ele>49.0</ele><time>2026-04-12T13:57:47.999Z</time></trkpt><trkpt lat="44.35644177829288" lon="11.71442274265144"><ele>49.0</ele><time>2026-04-12T13:57:48.999Z</time></trkpt><trkpt lat="44.3563889601853" lon="11.714553448395206"><ele>49.0</ele><time>2026-04-12T13:57:49.999Z</time></trkpt><trkpt lat="44.35633924221198" lon="11.714689249177772"><ele>49.2</ele><time>2026-04-12T13:57:50.999Z</time></trkpt><trkpt lat="44.35629165047549" lon="11.71484016280359"><ele>49.400000000000006</ele><time>2026-04-12T13:57:51.999Z</time></trkpt><trkpt lat="44.356236596727044" lon="11.714982507684486"><ele>49.6</ele><time>2026-04-12T13:57:52.999Z</time></trkpt><trkpt lat="44.356195142029" lon="11.715108243393873"><ele>49.8</ele><time>2026-04-12T13:57:53.999Z</time></trkpt><trkpt lat="44.35615980860642" lon="11.715223886538539"><ele>50.0</ele><time>2026-04-12T13:57:54.999Z</time></trkpt><trkpt lat="44.35613234333861" lon="11.715318764016766"><ele>50.00000000000001</ele><time>2026-04-12T13:57:55.999Z</time></trkpt><trkpt lat="44.356106203168345" lon="11.715428531036002"><ele>50.0</ele><time>2026-04-12T13:57:56.999Z</time></trkpt><trkpt lat="44.35607803503599" lon="11.715532656484566"><ele>50.0</ele><time>2026-04-12T13:57:57.999Z</time></trkpt><trkpt lat="44.356051667672666" lon="11.715617643774127"><ele>50.0</ele><time>2026-04-12T13:57:58.999Z</time></trkpt><trkpt lat="44.356023689567465" lon="11.715696567645637"><ele>50.00000000000001</ele><time>2026-04-12T13:57:59.999Z</time></trkpt><trkpt lat="44.35597318211542" lon="11.715848565302155"><ele>50.0</ele><time>2026-04-12T13:58:01.999Z</time></trkpt><trkpt lat="44.355938056638045" lon="11.715973708095788"><ele>49.25</ele><time>2026-04-12T13:58:02.999Z</time></trkpt><trkpt lat="44.355880874560924" lon="11.716151696730527"><ele>48.5</ele><time>2026-04-12T13:58:03.999Z</time></trkpt><trkpt lat="44.35580223424555" lon="11.716335165784024"><ele>47.75</ele><time>2026-04-12T13:58:04.999Z</time></trkpt><trkpt lat="44.35573476360011" lon="11.716499352796157"><ele>47.0</ele><time>2026-04-12T13:58:05.999Z</time></trkpt><trkpt lat="44.35567196347411" lon="11.716650742860617"><ele>47.0</ele><time>2026-04-12T13:58:06.999Z</time></trkpt><trkpt lat="44.35559772964364" lon="11.716792151958684"><ele>47.0</ele><time>2026-04-12T13:58:07.999Z</time></trkpt><trkpt lat="44.355534147033666" lon="11.716941862641399"><ele>47.0</ele><time>2026-04-12T13:58:08.999Z</time></trkpt><trkpt lat="44.35547379227196" lon="11.717094468008083"><ele>47.0</ele><time>2026-04-12T13:58:09.999Z</time></trkpt><trkpt lat="44.35541909637901" lon="11.717246242898026"><ele>47.25</ele><time>2026-04-12T13:58:10.999Z</time></trkpt><trkpt lat="44.355360743500995" lon="11.717402199092662"><ele>47.5</ele><time>2026-04-12T13:58:11.999Z</time></trkpt><trkpt lat="44.35530740268364" lon="11.717564173277832"><ele>47.75</ele><time>2026-04-12T13:58:13Z</time></trkpt><trkpt lat="44.35524851200067" lon="11.71772882720765"><ele>48.0</ele><time>2026-04-12T13:58:14Z</time></trkpt><trkpt lat="44.355191155131806" lon="11.717899665963577"><ele>47.5</ele><time>2026-04-12T13:58:15Z</time></trkpt><trkpt lat="44.3551383486467" lon="11.718060660020578"><ele>47.0</ele><time>2026-04-12T13:58:16Z</time></trkpt><trkpt lat="44.355083520055345" lon="11.718219048972106"><ele>46.5</ele><time>2026-04-12T13:58:17Z</time></trkpt><trkpt lat="44.35503906103805" lon="11.71835903446245"><ele>46.0</ele><time>2026-04-12T13:58:18Z</time></trkpt><trkpt lat="44.3549941017842" lon="11.718502096166535"><ele>46.0</ele><time>2026-04-12T13:58:19Z</time></trkpt><trkpt lat="44.35494733542938" lon="11.718652564899628"><ele>46.0</ele><time>2026-04-12T13:58:20Z</time></trkpt><trkpt lat="44.35489873303293" lon="11.718816311039985"><ele>46.0</ele><time>2026-04-12T13:58:21Z</time></trkpt><trkpt lat="44.35485256323046" lon="11.718983576577688"><ele>46.0</ele><time>2026-04-12T13:58:22Z</time></trkpt><trkpt lat="44.35481647901079" lon="11.719152819339755"><ele>46.0</ele><time>2026-04-12T13:58:23Z</time></trkpt><trkpt lat="44.35477546413409" lon="11.719320329907458"><ele>46.0</ele><time>2026-04-12T13:58:24Z</time></trkpt><trkpt lat="44.35471916572517" lon="11.71948111121395"><ele>46.0</ele><time>2026-04-12T13:58:25Z</time></trkpt><trkpt lat="44.354635394351924" lon="11.719636192756896"><ele>46.0</ele><time>2026-04-12T13:58:26Z</time></trkpt><trkpt lat="44.35454327663292" lon="11.719774783439895"><ele>45.5</ele><time>2026-04-12T13:58:27Z</time></trkpt><trkpt lat="44.35444454566799" lon="11.719896435551867"><ele>45.0</ele><time>2026-04-12T13:58:28Z</time></trkpt><trkpt lat="44.35434884360672" lon="11.7200084189352"><ele>44.5</ele><time>2026-04-12T13:58:29Z</time></trkpt><trkpt lat="44.35424277975994" lon="11.720116932225398"><ele>44.0</ele><time>2026-04-12T13:58:30Z</time></trkpt><trkpt lat="44.354127828513505" lon="11.720224603739803"><ele>44.0</ele><time>2026-04-12T13:58:31Z</time></trkpt><trkpt lat="44.35401501433482" lon="11.720327246034039"><ele>44.0</ele><time>2026-04-12T13:58:32Z</time></trkpt><trkpt lat="44.35389664913073" lon="11.720428288511505"><ele>44.0</ele><time>2026-04-12T13:58:33Z</time></trkpt><trkpt lat="44.35378204770199" lon="11.720530711328331"><ele>44.0</ele><time>2026-04-12T13:58:34Z</time></trkpt><trkpt lat="44.35367335578469" lon="11.720620498615693"><ele>44.5</ele><time>2026-04-12T13:58:35Z</time></trkpt><trkpt lat="44.35357322828949" lon="11.720703878673044"><ele>45.0</ele><time>2026-04-12T13:58:36Z</time></trkpt><trkpt lat="44.35347849116814" lon="11.720790289390484"><ele>45.5</ele><time>2026-04-12T13:58:37Z</time></trkpt><trkpt lat="44.353392089216044" lon="11.720887492154738"><ele>46.0</ele><time>2026-04-12T13:58:38Z</time></trkpt><trkpt lat="44.35329436892049" lon="11.720965330387777"><ele>46.0</ele><time>2026-04-12T13:58:39Z</time></trkpt><trkpt lat="44.35318310271212" lon="11.72100117192069"><ele>46.0</ele><time>2026-04-12T13:58:40Z</time></trkpt><trkpt lat="44.35306491557729" lon="11.720987018800301"><ele>46.0</ele><time>2026-04-12T13:58:41Z</time></trkpt><trkpt lat="44.3529581176312" lon="11.720934358826648"><ele>46.0</ele><time>2026-04-12T13:58:42Z</time></trkpt><trkpt lat="44.35287832646769" lon="11.720879055356729"><ele>46.0</ele><time>2026-04-12T13:58:43Z</time></trkpt><trkpt lat="44.352807375141936" lon="11.720830041780578"><ele>46.0</ele><time>2026-04-12T13:58:44Z</time></trkpt><trkpt lat="44.35274979762198" lon="11.720781718572542"><ele>46.0</ele><time>2026-04-12T13:58:45Z</time></trkpt><trkpt lat="44.352679957942364" lon="11.720752452786655"><ele>46.0</ele><time>2026-04-12T13:58:47Z</time></trkpt><trkpt lat="44.35258582911927" lon="11.720701305323981"><ele>46.0</ele><time>2026-04-12T13:59:16Z</time></trkpt><trkpt lat="44.35246706702731" lon="11.72063792806317"><ele>46.0</ele><time>2026-04-12T13:59:18Z</time></trkpt><trkpt lat="44.35238800500241" lon="11.72059529185719"><ele>46.0</ele><time>2026-04-12T13:59:19Z</time></trkpt><trkpt lat="44.35230373011931" lon="11.720544438676875"><ele>46.0</ele><time>2026-04-12T13:59:20Z</time></trkpt><trkpt lat="44.35221476228938" lon="11.72049130964035"><ele>46.0</ele><time>2026-04-12T13:59:21Z</time></trkpt><trkpt lat="44.35212627484983" lon="11.720446083076995"><ele>46.0</ele><time>2026-04-12T13:59:22Z</time></trkpt><trkpt lat="44.3520349967348" lon="11.720447673787676"><ele>46.0</ele><time>2026-04-12T13:59:23Z</time></trkpt><trkpt lat="44.351954550253666" lon="11.720429291804022"><ele>46.0</ele><time>2026-04-12T13:59:24Z</time></trkpt><trkpt lat="44.35189160049363" lon="11.720394102449301"><ele>46.0</ele><time>2026-04-12T13:59:25Z</time></trkpt><trkpt lat="44.35182062659871" lon="11.720346357231376"><ele>46.0</ele><time>2026-04-12T13:59:27Z</time></trkpt><trkpt lat="44.35177893153138" lon="11.720264767018849"><ele>46.0</ele><time>2026-04-12T13:59:29Z</time></trkpt><trkpt lat="44.35172541236667" lon="11.720151317058397"><ele>46.0</ele><time>2026-04-12T13:59:31Z</time></trkpt><trkpt lat="44.35167161149085" lon="11.720050876257021"><ele>46.0</ele><time>2026-04-12T13:59:33Z</time></trkpt><trkpt lat="44.35156676854796" lon="11.720136310342395"><ele>46.0</ele><time>2026-04-12T13:59:34Z</time></trkpt><trkpt lat="44.351519276457935" lon="11.720194310492367"><ele>46.0</ele><time>2026-04-12T13:59:35Z</time></trkpt><trkpt lat="44.35153687767805" lon="11.72033990347843"><ele>46.0</ele><time>2026-04-12T13:59:36Z</time></trkpt><trkpt lat="44.351530099152555" lon="11.720451774578974"><ele>46.0</ele><time>2026-04-12T13:59:37Z</time></trkpt><trkpt lat="44.35149038874362" lon="11.720543488741543"><ele>46.0</ele><time>2026-04-12T13:59:38Z</time></trkpt><trkpt lat="44.35144836403239" lon="11.720625422742586"><ele>46.0</ele><time>2026-04-12T13:59:39Z</time></trkpt><trkpt lat="44.35139740079076" lon="11.720720289698942"><ele>45.599999999999994</ele><time>2026-04-12T13:59:40Z</time></trkpt><trkpt lat="44.351340344995315" lon="11.720819889428002"><ele>45.2</ele><time>2026-04-12T13:59:41Z</time></trkpt><trkpt lat="44.35127260661095" lon="11.720919365342738"><ele>44.8</ele><time>2026-04-12T13:59:42Z</time></trkpt><trkpt lat="44.35120388280205" lon="11.721035216207671"><ele>44.400000000000006</ele><time>2026-04-12T13:59:43Z</time></trkpt><trkpt lat="44.35111691151765" lon="11.721150376843381"><ele>44.0</ele><time>2026-04-12T13:59:44Z</time></trkpt><trkpt lat="44.35104417803254" lon="11.72126944744591"><ele>44.0</ele><time>2026-04-12T13:59:45Z</time></trkpt><trkpt lat="44.350970450630655" lon="11.721386207521146"><ele>44.0</ele><time>2026-04-12T13:59:46.001Z</time></trkpt><trkpt lat="44.35090553622329" lon="11.721495438915294"><ele>44.0</ele><time>2026-04-12T13:59:47.001Z</time></trkpt><trkpt lat="44.35082756809267" lon="11.721610265138414"><ele>44.0</ele><time>2026-04-12T13:59:48.001Z</time></trkpt><trkpt lat="44.35074648865603" lon="11.721719958270773"><ele>44.0</ele><time>2026-04-12T13:59:49.001Z</time></trkpt><trkpt lat="44.35067180962488" lon="11.721821967009358"><ele>44.0</ele><time>2026-04-12T13:59:50.001Z</time></trkpt><trkpt lat="44.35060072429763" lon="11.721927346303966"><ele>44.0</ele><time>2026-04-12T13:59:51.001Z</time></trkpt><trkpt lat="44.35052334251061" lon="11.722041325074477"><ele>44.0</ele><time>2026-04-12T13:59:52.001Z</time></trkpt><trkpt lat="44.35044324577906" lon="11.722159293483942"><ele>44.0</ele><time>2026-04-12T13:59:53.001Z</time></trkpt><trkpt lat="44.350359204622485" lon="11.722283495918363"><ele>44.0</ele><time>2026-04-12T13:59:53.999Z</time></trkpt><trkpt lat="44.35027119280304" lon="11.722406969531681"><ele>44.0</ele><time>2026-04-12T13:59:54.999Z</time></trkpt><trkpt lat="44.35018776317366" lon="11.722534868351998"><ele>44.0</ele><time>2026-04-12T13:59:55.999Z</time></trkpt><trkpt lat="44.35011010033994" lon="11.722656708162457"><ele>44.0</ele><time>2026-04-12T13:59:56.999Z</time></trkpt><trkpt lat="44.35002766968299" lon="11.722776362687354"><ele>43.75</ele><time>2026-04-12T13:59:57.999Z</time></trkpt><trkpt lat="44.34994399728519" lon="11.722891553214902"><ele>43.5</ele><time>2026-04-12T13:59:58.999Z</time></trkpt><trkpt lat="44.34986264986984" lon="11.7230104780594"><ele>43.25</ele><time>2026-04-12T13:59:59.999Z</time></trkpt><trkpt lat="44.349782821883686" lon="11.72313225749909"><ele>43.0</ele><time>2026-04-12T14:00:00.999Z</time></trkpt><trkpt lat="44.34970245619811" lon="11.723251705221289"><ele>42.75</ele><time>2026-04-12T14:00:01.999Z</time></trkpt><trkpt lat="44.34961533424365" lon="11.723376258569203"><ele>42.5</ele><time>2026-04-12T14:00:02.999Z</time></trkpt><trkpt lat="44.34952758510542" lon="11.723495317507457"><ele>42.25</ele><time>2026-04-12T14:00:03.999Z</time></trkpt><trkpt lat="44.34944166629266" lon="11.72362373015744"><ele>42.0</ele><time>2026-04-12T14:00:04.999Z</time></trkpt><trkpt lat="44.34936357358934" lon="11.723754205260882"><ele>42.0</ele><time>2026-04-12T14:00:06Z</time></trkpt><trkpt lat="44.349290422823046" lon="11.723861795355473"><ele>42.0</ele><time>2026-04-12T14:00:07Z</time></trkpt><trkpt lat="44.34922525266092" lon="11.723952628592844"><ele>42.0</ele><time>2026-04-12T14:00:08Z</time></trkpt><trkpt lat="44.34917178205284" lon="11.724030619959867"><ele>42.0</ele><time>2026-04-12T14:00:09Z</time></trkpt><trkpt lat="44.34910395077062" lon="11.724150528887744"><ele>42.0</ele><time>2026-04-12T14:00:11Z</time></trkpt><trkpt lat="44.34908303456369" lon="11.72424995082339"><ele>42.0</ele><time>2026-04-12T14:00:13Z</time></trkpt><trkpt lat="44.34901186898146" lon="11.724300959416347"><ele>42.0</ele><time>2026-04-12T14:00:14Z</time></trkpt><trkpt lat="44.34896343661764" lon="11.724371130826125"><ele>42.0</ele><time>2026-04-12T14:00:15Z</time></trkpt><trkpt lat="44.34892365615494" lon="11.72445351091845"><ele>42.0</ele><time>2026-04-12T14:00:16Z</time></trkpt><trkpt lat="44.34888045744865" lon="11.724547769226708"><ele>42.0</ele><time>2026-04-12T14:00:17Z</time></trkpt><trkpt lat="44.34884680406885" lon="11.72463041150091"><ele>42.0</ele><time>2026-04-12T14:00:18Z</time></trkpt><trkpt lat="44.34874560261746" lon="11.724695340269191"><ele>42.0</ele><time>2026-04-12T14:00:19Z</time></trkpt><trkpt lat="44.34866659586637" lon="11.724785129448705"><ele>42.0</ele><time>2026-04-12T14:00:20Z</time></trkpt><trkpt lat="44.34859352425914" lon="11.72487904196369"><ele>42.0</ele><time>2026-04-12T14:00:21Z</time></trkpt><trkpt lat="44.34852534403654" lon="11.724981888963132"><ele>42.0</ele><time>2026-04-12T14:00:22Z</time></trkpt><trkpt lat="44.34845603832782" lon="11.725080150632325"><ele>42.0</ele><time>2026-04-12T14:00:23Z</time></trkpt><trkpt lat="44.34838289294478" lon="11.725185278421975"><ele>41.8</ele><time>2026-04-12T14:00:24Z</time></trkpt><trkpt lat="44.34830804487955" lon="11.725277418477756"><ele>41.6</ele><time>2026-04-12T14:00:25Z</time></trkpt><trkpt lat="44.348215866363134" lon="11.725355842616459"><ele>41.4</ele><time>2026-04-12T14:00:26Z</time></trkpt><trkpt lat="44.348122801766465" lon="11.725433264974807"><ele>41.199999999999996</ele><time>2026-04-12T14:00:27Z</time></trkpt><trkpt lat="44.34803057691901" lon="11.725511205174746"><ele>41.0</ele><time>2026-04-12T14:00:28Z</time></trkpt><trkpt lat="44.347941832713495" lon="11.7255881744912"><ele>40.599999999999994</ele><time>2026-04-12T14:00:29Z</time></trkpt><trkpt lat="44.347853816529515" lon="11.725668043979383"><ele>40.199999999999996</ele><time>2026-04-12T14:00:30Z</time></trkpt><trkpt lat="44.34776736866667" lon="11.725742772191923"><ele>39.8</ele><time>2026-04-12T14:00:31Z</time></trkpt><trkpt lat="44.34767607504222" lon="11.725820570779838"><ele>39.4</ele><time>2026-04-12T14:00:32Z</time></trkpt><trkpt lat="44.34758739622063" lon="11.725894225360818"><ele>39.0</ele><time>2026-04-12T14:00:33Z</time></trkpt><trkpt lat="44.3475032739591" lon="11.725961676464118"><ele>39.0</ele><time>2026-04-12T14:00:34Z</time></trkpt><trkpt lat="44.34741625546356" lon="11.726034077050276"><ele>39.0</ele><time>2026-04-12T14:00:35Z</time></trkpt><trkpt lat="44.34733483416849" lon="11.726103419265069"><ele>39.0</ele><time>2026-04-12T14:00:36Z</time></trkpt><trkpt lat="44.347262754520536" lon="11.726164546176063"><ele>39.0</ele><time>2026-04-12T14:00:37Z</time></trkpt><trkpt lat="44.3471854685072" lon="11.726237693242563"><ele>39.0</ele><time>2026-04-12T14:00:38Z</time></trkpt><trkpt lat="44.34711013074277" lon="11.726308434898787"><ele>39.4</ele><time>2026-04-12T14:00:39Z</time></trkpt><trkpt lat="44.34702156431492" lon="11.726381402397502"><ele>39.8</ele><time>2026-04-12T14:00:40Z</time></trkpt><trkpt lat="44.34692998646032" lon="11.726461039330985"><ele>40.199999999999996</ele><time>2026-04-12T14:00:41Z</time></trkpt><trkpt lat="44.34683717806505" lon="11.726544061442294"><ele>40.599999999999994</ele><time>2026-04-12T14:00:42Z</time></trkpt><trkpt lat="44.34673916293978" lon="11.726635115073632"><ele>41.0</ele><time>2026-04-12T14:00:43Z</time></trkpt><trkpt lat="44.346641115128456" lon="11.726716324239938"><ele>41.0</ele><time>2026-04-12T14:00:44Z</time></trkpt><trkpt lat="44.34655221668769" lon="11.726794461353323"><ele>41.0</ele><time>2026-04-12T14:00:45Z</time></trkpt><trkpt lat="44.3464718248029" lon="11.726861591857377"><ele>41.0</ele><time>2026-04-12T14:00:46Z</time></trkpt><trkpt lat="44.34639646207146" lon="11.726928310805718"><ele>41.0</ele><time>2026-04-12T14:00:47Z</time></trkpt><trkpt lat="44.34632957124762" lon="11.726992738265679"><ele>41.0</ele><time>2026-04-12T14:00:48Z</time></trkpt><trkpt lat="44.34622994590476" lon="11.727076929578102"><ele>40.8</ele><time>2026-04-12T14:00:50Z</time></trkpt><trkpt lat="44.346124750753035" lon="11.727032116993671"><ele>40.599999999999994</ele><time>2026-04-12T14:00:52Z</time></trkpt><trkpt lat="44.34606953908781" lon="11.726945705257807"><ele>40.4</ele><time>2026-04-12T14:00:53Z</time></trkpt><trkpt lat="44.34601944134898" lon="11.726834155518228"><ele>40.2</ele><time>2026-04-12T14:00:54Z</time></trkpt><trkpt lat="44.34597111129497" lon="11.726720307895143"><ele>40.0</ele><time>2026-04-12T14:00:55Z</time></trkpt><trkpt lat="44.34592085449153" lon="11.72660231834757"><ele>40.0</ele><time>2026-04-12T14:00:56Z</time></trkpt><trkpt lat="44.34586034781335" lon="11.726467234667252"><ele>40.0</ele><time>2026-04-12T14:00:57Z</time></trkpt><trkpt lat="44.345796666929566" lon="11.726322867710586"><ele>40.0</ele><time>2026-04-12T14:00:58Z</time></trkpt><trkpt lat="44.34573478500234" lon="11.726185998537112"><ele>40.0</ele><time>2026-04-12T14:00:59Z</time></trkpt><trkpt lat="44.34566839514429" lon="11.726041338538442"><ele>40.0</ele><time>2026-04-12T14:01:00Z</time></trkpt><trkpt lat="44.345592901521414" lon="11.725874395013767"><ele>40.0</ele><time>2026-04-12T14:01:01Z</time></trkpt><trkpt lat="44.3455203320148" lon="11.725714131924494"><ele>40.0</ele><time>2026-04-12T14:01:02Z</time></trkpt><trkpt lat="44.345466994179624" lon="11.72557427934103"><ele>40.0</ele><time>2026-04-12T14:01:03Z</time></trkpt><trkpt lat="44.345424403267785" lon="11.725456226429056"><ele>40.0</ele><time>2026-04-12T14:01:04Z</time></trkpt><trkpt lat="44.3453786843582" lon="11.72534308850893"><ele>40.0</ele><time>2026-04-12T14:01:05Z</time></trkpt><trkpt lat="44.34532900309477" lon="11.72526541577244"><ele>40.0</ele><time>2026-04-12T14:01:06Z</time></trkpt><trkpt lat="44.345279929742496" lon="11.72520354909265"><ele>40.0</ele><time>2026-04-12T14:01:07Z</time></trkpt><trkpt lat="44.345210629289866" lon="11.725176589858807"><ele>40.0</ele><time>2026-04-12T14:01:08Z</time></trkpt><trkpt lat="44.345121641696686" lon="11.725186771354974"><ele>40.0</ele><time>2026-04-12T14:01:09Z</time></trkpt><trkpt lat="44.34503527459498" lon="11.725239200179207"><ele>40.0</ele><time>2026-04-12T14:01:10Z</time></trkpt><trkpt lat="44.34495091426684" lon="11.725333969288355"><ele>40.0</ele><time>2026-04-12T14:01:11Z</time></trkpt><trkpt lat="44.34486077285075" lon="11.725450978636388"><ele>40.0</ele><time>2026-04-12T14:01:12Z</time></trkpt><trkpt lat="44.34473985472552" lon="11.725615072659142"><ele>40.0</ele><time>2026-04-12T14:01:13Z</time></trkpt><trkpt lat="44.34462512518292" lon="11.72576618254861"><ele>40.2</ele><time>2026-04-12T14:01:14Z</time></trkpt><trkpt lat="44.34452700253252" lon="11.725886270950973"><ele>40.4</ele><time>2026-04-12T14:01:15Z</time></trkpt><trkpt lat="44.34444340658148" lon="11.725984538098393"><ele>40.599999999999994</ele><time>2026-04-12T14:01:16.001Z</time></trkpt><trkpt lat="44.34437704400435" lon="11.726072323025038"><ele>40.8</ele><time>2026-04-12T14:01:17.001Z</time></trkpt><trkpt lat="44.34432555253165" lon="11.726131820186493"><ele>41.0</ele><time>2026-04-12T14:01:18.001Z</time></trkpt><trkpt lat="44.34422862698094" lon="11.72619827672605"><ele>41.0</ele><time>2026-04-12T14:01:20.001Z</time></trkpt><trkpt lat="44.34413120317585" lon="11.726197600255901"><ele>41.0</ele><time>2026-04-12T14:01:22.001Z</time></trkpt><trkpt lat="44.344044942782034" lon="11.726154269078286"><ele>41.0</ele><time>2026-04-12T14:01:24.001Z</time></trkpt><trkpt lat="44.343993018125516" lon="11.726077098971725"><ele>41.0</ele><time>2026-04-12T14:01:25.001Z</time></trkpt><trkpt lat="44.34394802952709" lon="11.725973791511526"><ele>41.0</ele><time>2026-04-12T14:01:26.001Z</time></trkpt><trkpt lat="44.34390625312361" lon="11.725867395731324"><ele>41.0</ele><time>2026-04-12T14:01:27.001Z</time></trkpt><trkpt lat="44.343865562958605" lon="11.725752850813373"><ele>42.33333333333333</ele><time>2026-04-12T14:01:28.001Z</time></trkpt><trkpt lat="44.343823046074945" lon="11.725599460750233"><ele>43.666666666666664</ele><time>2026-04-12T14:01:29.001Z</time></trkpt><trkpt lat="44.343760493738294" lon="11.725365919309693"><ele>45.0</ele><time>2026-04-12T14:01:30.001Z</time></trkpt><trkpt lat="44.343688726148834" lon="11.725118275809045"><ele>45.0</ele><time>2026-04-12T14:01:31.001Z</time></trkpt><trkpt lat="44.343622786820546" lon="11.724905016816377"><ele>45.0</ele><time>2026-04-12T14:01:32.001Z</time></trkpt><trkpt lat="44.34357327128695" lon="11.724724344697519"><ele>45.0</ele><time>2026-04-12T14:01:33.001Z</time></trkpt><trkpt lat="44.343521494962076" lon="11.724570258077106"><ele>45.0</ele><time>2026-04-12T14:01:34.001Z</time></trkpt><trkpt lat="44.34347766404856" lon="11.72443224857552"><ele>46.0</ele><time>2026-04-12T14:01:35.001Z</time></trkpt><trkpt lat="44.343423770647426" lon="11.724313942350268"><ele>47.0</ele><time>2026-04-12T14:01:36.001Z</time></trkpt><trkpt lat="44.343330169880865" lon="11.724223210632916"><ele>48.0</ele><time>2026-04-12T14:01:37.001Z</time></trkpt><trkpt lat="44.34320956596234" lon="11.724175852732722"><ele>49.0</ele><time>2026-04-12T14:01:38.001Z</time></trkpt><trkpt lat="44.3430724258706" lon="11.724157199157435"><ele>51.0</ele><time>2026-04-12T14:01:39.001Z</time></trkpt><trkpt lat="44.34291228375268" lon="11.724141163198178"><ele>53.0</ele><time>2026-04-12T14:01:40.001Z</time></trkpt><trkpt lat="44.34277405820636" lon="11.724129512047195"><ele>55.0</ele><time>2026-04-12T14:01:41.001Z</time></trkpt><trkpt lat="44.34265718586133" lon="11.724117998231847"><ele>57.0</ele><time>2026-04-12T14:01:42.001Z</time></trkpt><trkpt lat="44.342549428737954" lon="11.72411737515288"><ele>57.0</ele><time>2026-04-12T14:01:43.001Z</time></trkpt><trkpt lat="44.342437303693835" lon="11.724131796475968"><ele>57.0</ele><time>2026-04-12T14:01:44.001Z</time></trkpt><trkpt lat="44.342333787886076" lon="11.724100014252166"><ele>57.0</ele><time>2026-04-12T14:01:45.001Z</time></trkpt><trkpt lat="44.342237362864" lon="11.724074119961404"><ele>57.0</ele><time>2026-04-12T14:01:46.001Z</time></trkpt><trkpt lat="44.34215264501112" lon="11.724006162778855"><ele>57.0</ele><time>2026-04-12T14:01:47.001Z</time></trkpt><trkpt lat="44.34208284599256" lon="11.72390280462123"><ele>57.5</ele><time>2026-04-12T14:01:48.001Z</time></trkpt><trkpt lat="44.34201805197934" lon="11.723787310309428"><ele>58.0</ele><time>2026-04-12T14:01:49.001Z</time></trkpt><trkpt lat="44.34200193036683" lon="11.72362890494285"><ele>58.5</ele><time>2026-04-12T14:01:50.001Z</time></trkpt><trkpt lat="44.341959021226614" lon="11.72348559939212"><ele>59.0</ele><time>2026-04-12T14:01:51.001Z</time></trkpt><trkpt lat="44.34193496903368" lon="11.723321936421629"><ele>59.75</ele><time>2026-04-12T14:01:52.001Z</time></trkpt><trkpt lat="44.341898376502705" lon="11.723131426775348"><ele>60.5</ele><time>2026-04-12T14:01:53.001Z</time></trkpt><trkpt lat="44.34187178307996" lon="11.72296196044257"><ele>61.25</ele><time>2026-04-12T14:01:54.001Z</time></trkpt><trkpt lat="44.341848176785746" lon="11.72278994483354"><ele>62.0</ele><time>2026-04-12T14:01:55.001Z</time></trkpt><trkpt lat="44.3418110941282" lon="11.722603853422934"><ele>62.333333333333336</ele><time>2026-04-12T14:01:56.001Z</time></trkpt><trkpt lat="44.341778307029536" lon="11.722391031982305"><ele>62.66666666666667</ele><time>2026-04-12T14:01:57.001Z</time></trkpt><trkpt lat="44.341727071428785" lon="11.72213708179965"><ele>63.0</ele><time>2026-04-12T14:01:58.001Z</time></trkpt><trkpt lat="44.34168168327268" lon="11.721900241174692"><ele>63.5</ele><time>2026-04-12T14:01:59.001Z</time></trkpt><trkpt lat="44.34165525029296" lon="11.7216998048034"><ele>64.0</ele><time>2026-04-12T14:01:59.999Z</time></trkpt><trkpt lat="44.34161853998638" lon="11.721526197267874"><ele>64.5</ele><time>2026-04-12T14:02:00.999Z</time></trkpt><trkpt lat="44.3415738399542" lon="11.721347261786965"><ele>65.0</ele><time>2026-04-12T14:02:01.999Z</time></trkpt><trkpt lat="44.34152822996096" lon="11.721182164744413"><ele>64.75</ele><time>2026-04-12T14:02:02.999Z</time></trkpt><trkpt lat="44.341484449818225" lon="11.721024094940512"><ele>64.5</ele><time>2026-04-12T14:02:03.999Z</time></trkpt><trkpt lat="44.34143548352559" lon="11.720867232891333"><ele>64.25</ele><time>2026-04-12T14:02:05Z</time></trkpt><trkpt lat="44.3413809032293" lon="11.720713365225098"><ele>64.0</ele><time>2026-04-12T14:02:06Z</time></trkpt><trkpt lat="44.34131404073389" lon="11.720565514791645"><ele>64.75</ele><time>2026-04-12T14:02:07Z</time></trkpt><trkpt lat="44.341232944596534" lon="11.720421185293402"><ele>65.5</ele><time>2026-04-12T14:02:08Z</time></trkpt><trkpt lat="44.341138123262915" lon="11.7202749146367"><ele>66.25</ele><time>2026-04-12T14:02:09Z</time></trkpt><trkpt lat="44.34104940267014" lon="11.72012281546646"><ele>67.0</ele><time>2026-04-12T14:02:10Z</time></trkpt><trkpt lat="44.340966582928615" lon="11.719964693960598"><ele>67.33333333333333</ele><time>2026-04-12T14:02:11Z</time></trkpt><trkpt lat="44.34089015558499" lon="11.719785944234133"><ele>67.66666666666667</ele><time>2026-04-12T14:02:12Z</time></trkpt><trkpt lat="44.340812060288975" lon="11.719576745942422"><ele>68.0</ele><time>2026-04-12T14:02:13Z</time></trkpt><trkpt lat="44.34071529327551" lon="11.71932240713611"><ele>68.0</ele><time>2026-04-12T14:02:14Z</time></trkpt><trkpt lat="44.34062089052493" lon="11.719072931067835"><ele>68.0</ele><time>2026-04-12T14:02:15Z</time></trkpt><trkpt lat="44.34054248218808" lon="11.718852786626034"><ele>68.0</ele><time>2026-04-12T14:02:16Z</time></trkpt><trkpt lat="44.34046981363498" lon="11.718661453203643"><ele>68.0</ele><time>2026-04-12T14:02:17Z</time></trkpt><trkpt lat="44.34040656069678" lon="11.71848952962156"><ele>68.0</ele><time>2026-04-12T14:02:18Z</time></trkpt><trkpt lat="44.34034791961849" lon="11.718323656301164"><ele>68.0</ele><time>2026-04-12T14:02:19Z</time></trkpt><trkpt lat="44.34028652692598" lon="11.718155131249144"><ele>68.0</ele><time>2026-04-12T14:02:20Z</time></trkpt><trkpt lat="44.34022129730282" lon="11.717982288157096"><ele>68.0</ele><time>2026-04-12T14:02:21Z</time></trkpt><trkpt lat="44.34015629630462" lon="11.717818146366506"><ele>68.0</ele><time>2026-04-12T14:02:22Z</time></trkpt><trkpt lat="44.340092408596995" lon="11.717656862267999"><ele>68.0</ele><time>2026-04-12T14:02:23Z</time></trkpt><trkpt lat="44.34003047636497" lon="11.717495041915729"><ele>68.0</ele><time>2026-04-12T14:02:24Z</time></trkpt><trkpt lat="44.33997328007403" lon="11.7173479306343"><ele>68.4</ele><time>2026-04-12T14:02:25Z</time></trkpt><trkpt lat="44.33992680982033" lon="11.717222762952622"><ele>68.8</ele><time>2026-04-12T14:02:26Z</time></trkpt><trkpt lat="44.33988460681243" lon="11.717100479724559"><ele>69.2</ele><time>2026-04-12T14:02:27Z</time></trkpt><trkpt lat="44.33985992296651" lon="11.716967085924427"><ele>69.6</ele><time>2026-04-12T14:02:28Z</time></trkpt><trkpt lat="44.33985723497037" lon="11.716805687451732"><ele>70.0</ele><time>2026-04-12T14:02:29Z</time></trkpt><trkpt lat="44.3398779181019" lon="11.716608231816675"><ele>70.33333333333333</ele><time>2026-04-12T14:02:30Z</time></trkpt><trkpt lat="44.33991317167932" lon="11.716378382862366"><ele>70.66666666666667</ele><time>2026-04-12T14:02:31Z</time></trkpt><trkpt lat="44.33993970584924" lon="11.716137052096986"><ele>71.0</ele><time>2026-04-12T14:02:32Z</time></trkpt><trkpt lat="44.33996813713373" lon="11.715937242309446"><ele>71.2</ele><time>2026-04-12T14:02:33Z</time></trkpt><trkpt lat="44.33998846547219" lon="11.715780595795144"><ele>71.39999999999999</ele><time>2026-04-12T14:02:34Z</time></trkpt><trkpt lat="44.34000111535683" lon="11.715648409020899"><ele>71.6</ele><time>2026-04-12T14:02:35Z</time></trkpt><trkpt lat="44.33998530025098" lon="11.71551535542079"><ele>71.8</ele><time>2026-04-12T14:02:36Z</time></trkpt><trkpt lat="44.339943363768626" lon="11.715373099658564"><ele>72.0</ele><time>2026-04-12T14:02:37Z</time></trkpt><trkpt lat="44.3398771175806" lon="11.71523353366275"><ele>71.2</ele><time>2026-04-12T14:02:38Z</time></trkpt><trkpt lat="44.339808093851836" lon="11.715112278692214"><ele>70.4</ele><time>2026-04-12T14:02:39Z</time></trkpt><trkpt lat="44.33974510323865" lon="11.715003146744294"><ele>69.6</ele><time>2026-04-12T14:02:40Z</time></trkpt><trkpt lat="44.33969027317197" lon="11.714904219570288"><ele>68.8</ele><time>2026-04-12T14:02:41Z</time></trkpt><trkpt lat="44.33964766539169" lon="11.714824579604658"><ele>68.0</ele><time>2026-04-12T14:02:42Z</time></trkpt><trkpt lat="44.33961601980797" lon="11.714671806777654"><ele>67.8</ele><time>2026-04-12T14:02:44Z</time></trkpt><trkpt lat="44.33963247815047" lon="11.714571603584949"><ele>67.6</ele><time>2026-04-12T14:02:45Z</time></trkpt><trkpt lat="44.339679511103164" lon="11.714464170229983"><ele>67.4</ele><time>2026-04-12T14:02:46Z</time></trkpt><trkpt lat="44.33975685853525" lon="11.714369631160839"><ele>67.2</ele><time>2026-04-12T14:02:47Z</time></trkpt><trkpt lat="44.33986293429446" lon="11.714265747328016"><ele>67.0</ele><time>2026-04-12T14:02:48Z</time></trkpt><trkpt lat="44.339971296348764" lon="11.714166911500547"><ele>66.0</ele><time>2026-04-12T14:02:49Z</time></trkpt><trkpt lat="44.340061195103104" lon="11.714081832261728"><ele>65.0</ele><time>2026-04-12T14:02:50Z</time></trkpt><trkpt lat="44.340184508461654" lon="11.71401362632412"><ele>64.0</ele><time>2026-04-12T14:02:51Z</time></trkpt><trkpt lat="44.340333686382856" lon="11.713954539802762"><ele>63.0</ele><time>2026-04-12T14:02:52Z</time></trkpt><trkpt lat="44.34048245052694" lon="11.713926569044327"><ele>63.0</ele><time>2026-04-12T14:02:53Z</time></trkpt><trkpt lat="44.34063275923145" lon="11.713935168169947"><ele>63.0</ele><time>2026-04-12T14:02:54Z</time></trkpt><trkpt lat="44.340765918571755" lon="11.7139386525141"><ele>63.0</ele><time>2026-04-12T14:02:55Z</time></trkpt><trkpt lat="44.340899534072975" lon="11.713933848556149"><ele>63.0</ele><time>2026-04-12T14:02:56.02Z</time></trkpt><trkpt lat="44.341031379508784" lon="11.713927050008937"><ele>63.0</ele><time>2026-04-12T14:02:57.021Z</time></trkpt><trkpt lat="44.3411488958345" lon="11.713867446306162"><ele>63.0</ele><time>2026-04-12T14:02:58Z</time></trkpt><trkpt lat="44.341065798781734" lon="11.713894261684697"><ele>63.0</ele><time>2026-04-12T14:02:59Z</time></trkpt><trkpt lat="44.3411350939759" lon="11.713823287182818"><ele>63.0</ele><time>2026-04-12T14:03:00Z</time></trkpt><trkpt lat="44.341205812198865" lon="11.713688983684833"><ele>63.0</ele><time>2026-04-12T14:03:01Z</time></trkpt><trkpt lat="44.34128652753074" lon="11.7135081382655"><ele>58.33333333333333</ele><time>2026-04-12T14:03:02Z</time></trkpt><trkpt lat="44.341384697898064" lon="11.71332482013095"><ele>53.666666666666664</ele><time>2026-04-12T14:03:03Z</time></trkpt><trkpt lat="44.341494598428426" lon="11.71315124542637"><ele>49.0</ele><time>2026-04-12T14:03:04Z</time></trkpt><trkpt lat="44.34161649515253" lon="11.713005084756006"><ele>49.0</ele><time>2026-04-12T14:03:05Z</time></trkpt><trkpt lat="44.34174253970871" lon="11.71288167766425"><ele>49.0</ele><time>2026-04-12T14:03:06Z</time></trkpt><trkpt lat="44.34187620102559" lon="11.712787498904445"><ele>49.0</ele><time>2026-04-12T14:03:07Z</time></trkpt><trkpt lat="44.342006823032776" lon="11.71271858218792"><ele>49.0</ele><time>2026-04-12T14:03:08Z</time></trkpt><trkpt lat="44.34212880377758" lon="11.712666488114554"><ele>47.6</ele><time>2026-04-12T14:03:09Z</time></trkpt><trkpt lat="44.34223536049701" lon="11.712625406344499"><ele>46.2</ele><time>2026-04-12T14:03:10Z</time></trkpt><trkpt lat="44.34232743514077" lon="11.71256718806284"><ele>44.800000000000004</ele><time>2026-04-12T14:03:11Z</time></trkpt><trkpt lat="44.342404565331385" lon="11.71246369617921"><ele>43.400000000000006</ele><time>2026-04-12T14:03:12Z</time></trkpt><trkpt lat="44.34246585891019" lon="11.712303591902133"><ele>42.0</ele><time>2026-04-12T14:03:13Z</time></trkpt><trkpt lat="44.34251494386871" lon="11.712108122489337"><ele>42.0</ele><time>2026-04-12T14:03:14Z</time></trkpt><trkpt lat="44.34254617820975" lon="11.711931660071158"><ele>42.0</ele><time>2026-04-12T14:03:15.001Z</time></trkpt><trkpt lat="44.342587677516796" lon="11.71176926831976"><ele>42.0</ele><time>2026-04-12T14:03:16.001Z</time></trkpt><trkpt lat="44.342627623205274" lon="11.711645894293301"><ele>42.0</ele><time>2026-04-12T14:03:17.001Z</time></trkpt><trkpt lat="44.342657996419454" lon="11.711531947465401"><ele>42.0</ele><time>2026-04-12T14:03:18.001Z</time></trkpt><trkpt lat="44.34268448529967" lon="11.71143620445297"><ele>42.333333333333336</ele><time>2026-04-12T14:03:19.001Z</time></trkpt><trkpt lat="44.34270513853202" lon="11.71131577981614"><ele>42.666666666666664</ele><time>2026-04-12T14:03:21.001Z</time></trkpt><trkpt lat="44.34274149788403" lon="11.711242450899741"><ele>43.0</ele><time>2026-04-12T14:03:23.001Z</time></trkpt><trkpt lat="44.34284325200665" lon="11.711227564941886"><ele>43.33333333333333</ele><time>2026-04-12T14:03:26.001Z</time></trkpt><trkpt lat="44.34290615255415" lon="11.711282545418152"><ele>43.666666666666664</ele><time>2026-04-12T14:03:27.001Z</time></trkpt><trkpt lat="44.34299425502118" lon="11.711348229479448"><ele>44.0</ele><time>2026-04-12T14:03:28.001Z</time></trkpt><trkpt lat="44.34310256527753" lon="11.71141924577952"><ele>44.25</ele><time>2026-04-12T14:03:29.001Z</time></trkpt><trkpt lat="44.34320607550958" lon="11.711488542972454"><ele>44.5</ele><time>2026-04-12T14:03:30.001Z</time></trkpt><trkpt lat="44.34331357302384" lon="11.711568064665459"><ele>44.75</ele><time>2026-04-12T14:03:31.001Z</time></trkpt><trkpt lat="44.343422933489435" lon="11.711653895284343"><ele>45.0</ele><time>2026-04-12T14:03:32.001Z</time></trkpt><trkpt lat="44.34352243272487" lon="11.711713946064856"><ele>45.0</ele><time>2026-04-12T14:03:33.001Z</time></trkpt><trkpt lat="44.343625998051294" lon="11.71178264481072"><ele>45.0</ele><time>2026-04-12T14:03:34.001Z</time></trkpt><trkpt lat="44.3437278438034" lon="11.711855941034479"><ele>45.0</ele><time>2026-04-12T14:03:35.001Z</time></trkpt><trkpt lat="44.34381814801311" lon="11.71191902421273"><ele>45.0</ele><time>2026-04-12T14:03:36.001Z</time></trkpt><trkpt lat="44.34389635436599" lon="11.711973460702113"><ele>45.0</ele><time>2026-04-12T14:03:37.001Z</time></trkpt><trkpt lat="44.34396439988741" lon="11.71201554845261"><ele>44.5</ele><time>2026-04-12T14:03:38.001Z</time></trkpt><trkpt lat="44.34403789137788" lon="11.712059819287825"><ele>44.0</ele><time>2026-04-12T14:03:39.001Z</time></trkpt><trkpt lat="44.34411433794407" lon="11.712099269042497"><ele>43.5</ele><time>2026-04-12T14:03:40.001Z</time></trkpt><trkpt lat="44.34417184503306" lon="11.71214268027974"><ele>43.0</ele><time>2026-04-12T14:03:41.001Z</time></trkpt><trkpt lat="44.344239812007594" lon="11.71219503603448"><ele>42.5</ele><time>2026-04-12T14:03:43.001Z</time></trkpt><trkpt lat="44.344237197522475" lon="11.712322123638186"><ele>42.0</ele><time>2026-04-12T14:03:45.001Z</time></trkpt><trkpt lat="44.34421420343266" lon="11.712417335053997"><ele>42.0</ele><time>2026-04-12T14:03:46.001Z</time></trkpt><trkpt lat="44.3441893133778" lon="11.712527544429209"><ele>42.0</ele><time>2026-04-12T14:03:47.001Z</time></trkpt><trkpt lat="44.34416513401467" lon="11.712644579129408"><ele>42.0</ele><time>2026-04-12T14:03:48.001Z</time></trkpt><trkpt lat="44.34415492922216" lon="11.712752503110847"><ele>42.0</ele><time>2026-04-12T14:03:49.001Z</time></trkpt><trkpt lat="44.34414131761616" lon="11.712843391844387"><ele>42.0</ele><time>2026-04-12T14:03:50.001Z</time></trkpt><trkpt lat="44.34412455972481" lon="11.712983801003329"><ele>42.0</ele><time>2026-04-12T14:03:52.001Z</time></trkpt><trkpt lat="44.34410759305245" lon="11.71310931256479"><ele>42.0</ele><time>2026-04-12T14:03:54.001Z</time></trkpt><trkpt lat="44.34410489423482" lon="11.713199100015313"><ele>42.0</ele><time>2026-04-12T14:03:56.001Z</time></trkpt><trkpt lat="44.344173682111496" lon="11.713214519565168"><ele>42.0</ele><time>2026-04-12T14:03:59.001Z</time></trkpt></trkseg><trkseg><trkpt lat="44.34420925010954" lon="11.713165116016532"><ele>42.0</ele><time>2026-04-12T14:35:28.999Z</time></trkpt><trkpt lat="44.34421009360751" lon="11.713037864991653"><ele>42.0</ele><time>2026-04-12T14:35:31.999Z</time></trkpt><trkpt lat="44.344178468227994" lon="11.71294297207244"><ele>42.0</ele><time>2026-04-12T14:35:35Z</time></trkpt><trkpt lat="44.3441688924625" lon="11.712801106757777"><ele>42.0</ele><time>2026-04-12T14:35:38Z</time></trkpt><trkpt lat="44.34419158435098" lon="11.712678849265178"><ele>42.0</ele><time>2026-04-12T14:35:40Z</time></trkpt><trkpt lat="44.344217256316284" lon="11.712561833957668"><ele>42.0</ele><time>2026-04-12T14:35:42Z</time></trkpt><trkpt lat="44.34423705192203" lon="11.712475524237304"><ele>42.0</ele><time>2026-04-12T14:35:44Z</time></trkpt><trkpt lat="44.34425384742038" lon="11.712349336799049"><ele>42.0</ele><time>2026-04-12T14:35:47Z</time></trkpt><trkpt lat="44.34427081306671" lon="11.712251668595417"><ele>42.0</ele><time>2026-04-12T14:35:51Z</time></trkpt><trkpt lat="44.344240789876" lon="11.712124606659954"><ele>42.0</ele><time>2026-04-12T14:35:55Z</time></trkpt><trkpt lat="44.34413768747173" lon="11.712065289821247"><ele>42.0</ele><time>2026-04-12T14:35:57Z</time></trkpt><trkpt lat="44.34406426783172" lon="11.712021672101846"><ele>42.0</ele><time>2026-04-12T14:35:58Z</time></trkpt><trkpt lat="44.34396292764377" lon="11.711969298323137"><ele>42.0</ele><time>2026-04-12T14:35:59Z</time></trkpt><trkpt lat="44.343873357178424" lon="11.711894679982613"><ele>42.0</ele><time>2026-04-12T14:36:00Z</time></trkpt><trkpt lat="44.34379904990107" lon="11.711838992712778"><ele>42.0</ele><time>2026-04-12T14:36:01Z</time></trkpt><trkpt lat="44.34372272763236" lon="11.711790045285966"><ele>42.0</ele><time>2026-04-12T14:36:02Z</time></trkpt><trkpt lat="44.34364820946275" lon="11.711748141871745"><ele>42.5</ele><time>2026-04-12T14:36:03Z</time></trkpt><trkpt lat="44.343566999955605" lon="11.711699728073816"><ele>43.0</ele><time>2026-04-12T14:36:04Z</time></trkpt><trkpt lat="44.34349570357826" lon="11.711629698453905"><ele>43.5</ele><time>2026-04-12T14:36:05Z</time></trkpt><trkpt lat="44.343421153743016" lon="11.711580960911979"><ele>44.0</ele><time>2026-04-12T14:36:06Z</time></trkpt><trkpt lat="44.34333648375668" lon="11.711551254451551"><ele>44.5</ele><time>2026-04-12T14:36:07Z</time></trkpt><trkpt lat="44.34325930410192" lon="11.71147908202581"><ele>45.0</ele><time>2026-04-12T14:36:08Z</time></trkpt><trkpt lat="44.3431685633341" lon="11.711437321475392"><ele>45.0</ele><time>2026-04-12T14:36:09Z</time></trkpt><trkpt lat="44.34309028090222" lon="11.711383578183215"><ele>45.0</ele><time>2026-04-12T14:36:10Z</time></trkpt><trkpt lat="44.3430181627983" lon="11.711336280273034"><ele>45.0</ele><time>2026-04-12T14:36:11Z</time></trkpt><trkpt lat="44.34295103436814" lon="11.711289723245983"><ele>45.0</ele><time>2026-04-12T14:36:12Z</time></trkpt><trkpt lat="44.34284644782842" lon="11.711216201339777"><ele>45.0</ele><time>2026-04-12T14:36:14Z</time></trkpt><trkpt lat="44.342764968521365" lon="11.711146152280888"><ele>44.75</ele><time>2026-04-12T14:36:16Z</time></trkpt><trkpt lat="44.34265243489827" lon="11.711400908167892"><ele>44.5</ele><time>2026-04-12T14:36:19Z</time></trkpt><trkpt lat="44.3426246217844" lon="11.711531418055396"><ele>44.25</ele><time>2026-04-12T14:36:20Z</time></trkpt><trkpt lat="44.342576207276615" lon="11.711674540078793"><ele>44.0</ele><time>2026-04-12T14:36:21Z</time></trkpt><trkpt lat="44.3425267442404" lon="11.711845558476075"><ele>43.5</ele><time>2026-04-12T14:36:22Z</time></trkpt><trkpt lat="44.342482069782214" lon="11.712035506053445"><ele>43.0</ele><time>2026-04-12T14:36:23Z</time></trkpt><trkpt lat="44.34244456786722" lon="11.712181488602864"><ele>42.5</ele><time>2026-04-12T14:36:24Z</time></trkpt><trkpt lat="44.34240923523543" lon="11.712318485949302"><ele>42.0</ele><time>2026-04-12T14:36:25Z</time></trkpt><trkpt lat="44.34235937036362" lon="11.712448500293803"><ele>42.0</ele><time>2026-04-12T14:36:26Z</time></trkpt><trkpt lat="44.34227250446797" lon="11.712549143557395"><ele>42.0</ele><time>2026-04-12T14:36:27Z</time></trkpt><trkpt lat="44.3421491451932" lon="11.712609745499117"><ele>42.0</ele><time>2026-04-12T14:36:28Z</time></trkpt><trkpt lat="44.34202093069929" lon="11.712672551514755"><ele>42.0</ele><time>2026-04-12T14:36:29Z</time></trkpt><trkpt lat="44.3419115228787" lon="11.712754431292181"><ele>44.33333333333333</ele><time>2026-04-12T14:36:30Z</time></trkpt><trkpt lat="44.34178029783522" lon="11.71282595284122"><ele>46.666666666666664</ele><time>2026-04-12T14:36:31Z</time></trkpt><trkpt lat="44.341653045675706" lon="11.712933123762074"><ele>49.0</ele><time>2026-04-12T14:36:32Z</time></trkpt><trkpt lat="44.341521447688" lon="11.713062548941467"><ele>49.0</ele><time>2026-04-12T14:36:33Z</time></trkpt><trkpt lat="44.34140732921366" lon="11.713208428587935"><ele>49.0</ele><time>2026-04-12T14:36:34Z</time></trkpt><trkpt lat="44.341321545982304" lon="11.713333219253983"><ele>49.0</ele><time>2026-04-12T14:36:35Z</time></trkpt><trkpt lat="44.341269037228734" lon="11.713451039245337"><ele>49.0</ele><time>2026-04-12T14:36:36Z</time></trkpt><trkpt lat="44.341226332126574" lon="11.713546010615818"><ele>51.33333333333333</ele><time>2026-04-12T14:36:37Z</time></trkpt><trkpt lat="44.34119582816721" lon="11.713632940795144"><ele>53.666666666666664</ele><time>2026-04-12T14:36:38Z</time></trkpt><trkpt lat="44.341134065357686" lon="11.713760598697812"><ele>56.0</ele><time>2026-04-12T14:36:40Z</time></trkpt><trkpt lat="44.34108608730671" lon="11.713832209873061"><ele>58.33333333333333</ele><time>2026-04-12T14:36:41Z</time></trkpt><trkpt lat="44.34102149889783" lon="11.71388451411469"><ele>60.666666666666664</ele><time>2026-04-12T14:36:42Z</time></trkpt><trkpt lat="44.34093960203731" lon="11.713933003431373"><ele>63.0</ele><time>2026-04-12T14:36:43Z</time></trkpt><trkpt lat="44.34084057304508" lon="11.713903542292027"><ele>63.0</ele><time>2026-04-12T14:36:44Z</time></trkpt><trkpt lat="44.34072076000089" lon="11.713920913495473"><ele>63.0</ele><time>2026-04-12T14:36:45Z</time></trkpt><trkpt lat="44.340604570460215" lon="11.713908254617422"><ele>63.0</ele><time>2026-04-12T14:36:46Z</time></trkpt><trkpt lat="44.34048710237156" lon="11.713896094508588"><ele>63.0</ele><time>2026-04-12T14:36:47Z</time></trkpt><trkpt lat="44.34036272156699" lon="11.713884278147129"><ele>63.0</ele><time>2026-04-12T14:36:48Z</time></trkpt><trkpt lat="44.340191296004555" lon="11.713939474584793"><ele>63.0</ele><time>2026-04-12T14:36:49Z</time></trkpt><trkpt lat="44.34005944929184" lon="11.71401424685408"><ele>63.0</ele><time>2026-04-12T14:36:50Z</time></trkpt><trkpt lat="44.33995730879435" lon="11.714109408268756"><ele>63.0</ele><time>2026-04-12T14:36:51Z</time></trkpt><trkpt lat="44.33988148148563" lon="11.71418593041148"><ele>63.0</ele><time>2026-04-12T14:36:52Z</time></trkpt><trkpt lat="44.33982151201436" lon="11.71426588530262"><ele>63.0</ele><time>2026-04-12T14:36:53Z</time></trkpt><trkpt lat="44.339764799785584" lon="11.714344782107407"><ele>63.0</ele><time>2026-04-12T14:36:54Z</time></trkpt><trkpt lat="44.339712032490134" lon="11.714409167029057"><ele>63.0</ele><time>2026-04-12T14:36:55Z</time></trkpt><trkpt lat="44.33965620228521" lon="11.714465244530098"><ele>63.0</ele><time>2026-04-12T14:36:56Z</time></trkpt><trkpt lat="44.33958122524357" lon="11.714528033934586"><ele>63.0</ele><time>2026-04-12T14:36:58Z</time></trkpt><trkpt lat="44.33953260195161" lon="11.714587732577654"><ele>63.666666666666664</ele><time>2026-04-12T14:37:03Z</time></trkpt><trkpt lat="44.339482340499" lon="11.714651476732937"><ele>64.33333333333333</ele><time>2026-04-12T14:37:07Z</time></trkpt><trkpt lat="44.339542672456936" lon="11.714774648110211"><ele>65.0</ele><time>2026-04-12T14:37:08Z</time></trkpt><trkpt lat="44.339595639019606" lon="11.714850756568318"><ele>65.66666666666666</ele><time>2026-04-12T14:37:09Z</time></trkpt><trkpt lat="44.339670735807104" lon="11.7149723309675"><ele>66.33333333333333</ele><time>2026-04-12T14:37:11Z</time></trkpt><trkpt lat="44.33971662494721" lon="11.715035794511637"><ele>67.0</ele><time>2026-04-12T14:37:12Z</time></trkpt><trkpt lat="44.3397923155483" lon="11.715173037043638"><ele>67.83333333333333</ele><time>2026-04-12T14:37:14Z</time></trkpt><trkpt lat="44.339834150040204" lon="11.71524810597334"><ele>68.66666666666666</ele><time>2026-04-12T14:37:15Z</time></trkpt><trkpt lat="44.33988346529442" lon="11.715340823459961"><ele>69.5</ele><time>2026-04-12T14:37:16Z</time></trkpt><trkpt lat="44.33992818524517" lon="11.715451866770863"><ele>70.33333333333333</ele><time>2026-04-12T14:37:17Z</time></trkpt><trkpt lat="44.33995743097915" lon="11.715578979775053"><ele>71.16666666666667</ele><time>2026-04-12T14:37:18Z</time></trkpt><trkpt lat="44.33997422389799" lon="11.715732715784641"><ele>72.0</ele><time>2026-04-12T14:37:19Z</time></trkpt><trkpt lat="44.33994472777066" lon="11.715910365141397"><ele>71.8</ele><time>2026-04-12T14:37:20Z</time></trkpt><trkpt lat="44.33993468819653" lon="11.716085542689234"><ele>71.6</ele><time>2026-04-12T14:37:21Z</time></trkpt><trkpt lat="44.339910366656355" lon="11.716219761301435"><ele>71.39999999999999</ele><time>2026-04-12T14:37:22Z</time></trkpt><trkpt lat="44.339897214250186" lon="11.716337052326317"><ele>71.2</ele><time>2026-04-12T14:37:23Z</time></trkpt><trkpt lat="44.339884968749026" lon="11.716446867863286"><ele>71.0</ele><time>2026-04-12T14:37:24Z</time></trkpt><trkpt lat="44.33987170879764" lon="11.716559506506206"><ele>71.0</ele><time>2026-04-12T14:37:25Z</time></trkpt><trkpt lat="44.33986079613067" lon="11.716671126397387"><ele>71.0</ele><time>2026-04-12T14:37:26Z</time></trkpt><trkpt lat="44.33985310136657" lon="11.71676077373493"><ele>71.0</ele><time>2026-04-12T14:37:27Z</time></trkpt><trkpt lat="44.33980375933856" lon="11.716885943692713"><ele>71.0</ele><time>2026-04-12T14:37:29Z</time></trkpt><trkpt lat="44.33965938050123" lon="11.71687109244712"><ele>71.0</ele><time>2026-04-12T14:37:31Z</time></trkpt><trkpt lat="44.339567981793294" lon="11.71684616166359"><ele>71.0</ele><time>2026-04-12T14:37:32Z</time></trkpt><trkpt lat="44.33946382761372" lon="11.716819179434049"><ele>71.0</ele><time>2026-04-12T14:37:33Z</time></trkpt><trkpt lat="44.3393646791038" lon="11.71678986625524"><ele>71.0</ele><time>2026-04-12T14:37:34Z</time></trkpt><trkpt lat="44.33926728561267" lon="11.716766895228224"><ele>71.0</ele><time>2026-04-12T14:37:35Z</time></trkpt><trkpt lat="44.33916055938939" lon="11.716744055541934"><ele>71.0</ele><time>2026-04-12T14:37:36Z</time></trkpt><trkpt lat="44.33903940305775" lon="11.716717570755813"><ele>71.0</ele><time>2026-04-12T14:37:37Z</time></trkpt><trkpt lat="44.33890800108738" lon="11.716684604958862"><ele>71.0</ele><time>2026-04-12T14:37:38Z</time></trkpt><trkpt lat="44.33877855854418" lon="11.716654507869576"><ele>71.0</ele><time>2026-04-12T14:37:39Z</time></trkpt><trkpt lat="44.33863637138931" lon="11.716623964839783"><ele>71.0</ele><time>2026-04-12T14:37:40Z</time></trkpt><trkpt lat="44.33849557451292" lon="11.71659726433412"><ele>71.33333333333334</ele><time>2026-04-12T14:37:41Z</time></trkpt><trkpt lat="44.33835116126211" lon="11.716564749293067"><ele>71.66666666666667</ele><time>2026-04-12T14:37:42Z</time></trkpt><trkpt lat="44.338200932177365" lon="11.716530750984777"><ele>72.0</ele><time>2026-04-12T14:37:43Z</time></trkpt><trkpt lat="44.33804456952497" lon="11.716497501221705"><ele>73.0</ele><time>2026-04-12T14:37:44Z</time></trkpt><trkpt lat="44.337883659055485" lon="11.716456743417302"><ele>74.0</ele><time>2026-04-12T14:37:45Z</time></trkpt><trkpt lat="44.33772357927831" lon="11.716420285320032"><ele>75.0</ele><time>2026-04-12T14:37:46Z</time></trkpt><trkpt lat="44.33756042177445" lon="11.716389559095106"><ele>75.0</ele><time>2026-04-12T14:37:47Z</time></trkpt><trkpt lat="44.337392767457146" lon="11.716351307230541"><ele>75.0</ele><time>2026-04-12T14:37:48Z</time></trkpt><trkpt lat="44.33722512315851" lon="11.716307812350633"><ele>75.0</ele><time>2026-04-12T14:37:49Z</time></trkpt><trkpt lat="44.337043062803026" lon="11.716269874259815"><ele>75.66666666666667</ele><time>2026-04-12T14:37:50Z</time></trkpt><trkpt lat="44.336857864614686" lon="11.716226094066391"><ele>76.33333333333334</ele><time>2026-04-12T14:37:51Z</time></trkpt><trkpt lat="44.336659404894775" lon="11.716180716682098"><ele>77.0</ele><time>2026-04-12T14:37:52Z</time></trkpt><trkpt lat="44.3364491344544" lon="11.71613376764148"><ele>77.33333333333334</ele><time>2026-04-12T14:37:53Z</time></trkpt><trkpt lat="44.336256198868575" lon="11.716091913958964"><ele>77.66666666666667</ele><time>2026-04-12T14:37:54Z</time></trkpt><trkpt lat="44.33608846052286" lon="11.716029947763367"><ele>78.0</ele><time>2026-04-12T14:37:55Z</time></trkpt><trkpt lat="44.33592241143237" lon="11.715991470862594"><ele>78.75</ele><time>2026-04-12T14:37:56Z</time></trkpt><trkpt lat="44.335777841702956" lon="11.715957971167777"><ele>79.5</ele><time>2026-04-12T14:37:57Z</time></trkpt><trkpt lat="44.335636707116116" lon="11.71594673102106"><ele>80.25</ele><time>2026-04-12T14:37:58Z</time></trkpt><trkpt lat="44.335490893074954" lon="11.715914518412541"><ele>81.0</ele><time>2026-04-12T14:37:59Z</time></trkpt><trkpt lat="44.335352317813836" lon="11.715858592595197"><ele>82.0</ele><time>2026-04-12T14:38:00Z</time></trkpt><trkpt lat="44.33522247266859" lon="11.715828206812482"><ele>83.0</ele><time>2026-04-12T14:38:01Z</time></trkpt><trkpt lat="44.335091146025604" lon="11.715817599229315"><ele>84.0</ele><time>2026-04-12T14:38:02Z</time></trkpt><trkpt lat="44.33496602160981" lon="11.715783855437568"><ele>85.0</ele><time>2026-04-12T14:38:03Z</time></trkpt><trkpt lat="44.33483843480096" lon="11.71575436468136"><ele>88.0</ele><time>2026-04-12T14:38:04Z</time></trkpt><trkpt lat="44.33470724506868" lon="11.715722360844767"><ele>91.0</ele><time>2026-04-12T14:38:05Z</time></trkpt><trkpt lat="44.33457709792983" lon="11.71569265904194"><ele>94.0</ele><time>2026-04-12T14:38:06Z</time></trkpt><trkpt lat="44.33444654345351" lon="11.715660889464326"><ele>97.0</ele><time>2026-04-12T14:38:07Z</time></trkpt><trkpt lat="44.33430989585022" lon="11.715631450137234"><ele>97.0</ele><time>2026-04-12T14:38:08Z</time></trkpt><trkpt lat="44.33418696494228" lon="11.71560395807292"><ele>97.0</ele><time>2026-04-12T14:38:09Z</time></trkpt><trkpt lat="44.33406831781046" lon="11.715572660075132"><ele>97.0</ele><time>2026-04-12T14:38:10Z</time></trkpt><trkpt lat="44.33394466727259" lon="11.715541740571132"><ele>97.0</ele><time>2026-04-12T14:38:11Z</time></trkpt><trkpt lat="44.33382166039285" lon="11.715513940626126"><ele>100.5</ele><time>2026-04-12T14:38:12Z</time></trkpt><trkpt lat="44.333711537226876" lon="11.715441271839518"><ele>104.0</ele><time>2026-04-12T14:38:13Z</time></trkpt><trkpt lat="44.33361807975577" lon="11.7153756166649"><ele>107.5</ele><time>2026-04-12T14:38:14Z</time></trkpt><trkpt lat="44.33351842169724" lon="11.715285759089157"><ele>111.0</ele><time>2026-04-12T14:38:15Z</time></trkpt><trkpt lat="44.33341019056738" lon="11.715197327189237"><ele>111.0</ele><time>2026-04-12T14:38:16Z</time></trkpt><trkpt lat="44.333312825519464" lon="11.715092453076833"><ele>111.0</ele><time>2026-04-12T14:38:17Z</time></trkpt><trkpt lat="44.33320615804294" lon="11.714970492028867"><ele>111.0</ele><time>2026-04-12T14:38:18Z</time></trkpt><trkpt lat="44.33311141809481" lon="11.714841365403103"><ele>111.0</ele><time>2026-04-12T14:38:19Z</time></trkpt><trkpt lat="44.3330277140918" lon="11.714692943448405"><ele>112.5</ele><time>2026-04-12T14:38:20Z</time></trkpt><trkpt lat="44.33296531008113" lon="11.714517045505254"><ele>114.0</ele><time>2026-04-12T14:38:21Z</time></trkpt><trkpt lat="44.332915503762585" lon="11.714328958866597"><ele>115.5</ele><time>2026-04-12T14:38:22Z</time></trkpt><trkpt lat="44.332880535799255" lon="11.714148040294987"><ele>117.0</ele><time>2026-04-12T14:38:23Z</time></trkpt><trkpt lat="44.33285213055788" lon="11.713988753660251"><ele>117.39999999999999</ele><time>2026-04-12T14:38:24Z</time></trkpt><trkpt lat="44.332823036020066" lon="11.713853777567763"><ele>117.79999999999998</ele><time>2026-04-12T14:38:25Z</time></trkpt><trkpt lat="44.33279014067633" lon="11.713750155037458"><ele>118.2</ele><time>2026-04-12T14:38:26Z</time></trkpt><trkpt lat="44.33272332094018" lon="11.713643891854748"><ele>118.6</ele><time>2026-04-12T14:38:27Z</time></trkpt><trkpt lat="44.33262490363611" lon="11.713540648903157"><ele>119.0</ele><time>2026-04-12T14:38:28Z</time></trkpt><trkpt lat="44.3324823617305" lon="11.71344477055251"><ele>119.0</ele><time>2026-04-12T14:38:29Z</time></trkpt><trkpt lat="44.33233915893562" lon="11.713348425429967"><ele>119.0</ele><time>2026-04-12T14:38:30Z</time></trkpt><trkpt lat="44.33219995803917" lon="11.713255051593876"><ele>119.0</ele><time>2026-04-12T14:38:31Z</time></trkpt><trkpt lat="44.33204694868359" lon="11.713124300443422"><ele>123.33333333333333</ele><time>2026-04-12T14:38:32Z</time></trkpt><trkpt lat="44.331899496619066" lon="11.712954696384719"><ele>127.66666666666666</ele><time>2026-04-12T14:38:33Z</time></trkpt><trkpt lat="44.33177102598953" lon="11.712823585014018"><ele>132.0</ele><time>2026-04-12T14:38:34Z</time></trkpt><trkpt lat="44.331643553103014" lon="11.7126965276553"><ele>132.0</ele><time>2026-04-12T14:38:35Z</time></trkpt><trkpt lat="44.33151881574003" lon="11.712569998425659"><ele>132.0</ele><time>2026-04-12T14:38:36Z</time></trkpt><trkpt lat="44.33138165910299" lon="11.712453517343834"><ele>132.0</ele><time>2026-04-12T14:38:37Z</time></trkpt><trkpt lat="44.331247274568554" lon="11.712315748165615"><ele>133.33333333333334</ele><time>2026-04-12T14:38:38Z</time></trkpt><trkpt lat="44.33109540319166" lon="11.712163430535712"><ele>134.66666666666669</ele><time>2026-04-12T14:38:39.001Z</time></trkpt><trkpt lat="44.33094049777214" lon="11.711998118324829"><ele>136.0</ele><time>2026-04-12T14:38:40.001Z</time></trkpt><trkpt lat="44.33079860820756" lon="11.711855116398086"><ele>136.0</ele><time>2026-04-12T14:38:41.001Z</time></trkpt><trkpt lat="44.33064989105587" lon="11.71170751431752"><ele>136.0</ele><time>2026-04-12T14:38:42.001Z</time></trkpt><trkpt lat="44.330495693233466" lon="11.711581764111806"><ele>136.0</ele><time>2026-04-12T14:38:43.001Z</time></trkpt><trkpt lat="44.33035554173006" lon="11.711488229782473"><ele>139.66666666666669</ele><time>2026-04-12T14:38:44.001Z</time></trkpt><trkpt lat="44.33021875605079" lon="11.711413278585221"><ele>143.33333333333334</ele><time>2026-04-12T14:38:45.001Z</time></trkpt><trkpt lat="44.330085614575175" lon="11.71130323439423"><ele>147.0</ele><time>2026-04-12T14:38:46.001Z</time></trkpt><trkpt lat="44.3299410634709" lon="11.711206683128662"><ele>147.0</ele><time>2026-04-12T14:38:47.001Z</time></trkpt><trkpt lat="44.329792672368775" lon="11.711129964440024"><ele>147.0</ele><time>2026-04-12T14:38:48.001Z</time></trkpt><trkpt lat="44.32965192253202" lon="11.711036436134963"><ele>147.0</ele><time>2026-04-12T14:38:49.001Z</time></trkpt><trkpt lat="44.32952072531292" lon="11.710949365533613"><ele>149.0</ele><time>2026-04-12T14:38:50.001Z</time></trkpt><trkpt lat="44.329387369487854" lon="11.710856074090682"><ele>151.0</ele><time>2026-04-12T14:38:51.001Z</time></trkpt><trkpt lat="44.329246526135734" lon="11.71077434438012"><ele>153.0</ele><time>2026-04-12T14:38:52.001Z</time></trkpt><trkpt lat="44.32909922276858" lon="11.71069810840198"><ele>153.0</ele><time>2026-04-12T14:38:53.001Z</time></trkpt><trkpt lat="44.328958630428986" lon="11.710642740737567"><ele>153.0</ele><time>2026-04-12T14:38:54.001Z</time></trkpt><trkpt lat="44.32882601313673" lon="11.710606769051081"><ele>153.0</ele><time>2026-04-12T14:38:55.001Z</time></trkpt><trkpt lat="44.32870231839051" lon="11.710563992089769"><ele>153.0</ele><time>2026-04-12T14:38:56.001Z</time></trkpt><trkpt lat="44.32856929677187" lon="11.710516047849191"><ele>153.5</ele><time>2026-04-12T14:38:57.001Z</time></trkpt><trkpt lat="44.32843945611021" lon="11.71047399959359"><ele>154.0</ele><time>2026-04-12T14:38:58.001Z</time></trkpt><trkpt lat="44.32832639287715" lon="11.71043279896761"><ele>154.5</ele><time>2026-04-12T14:38:59.001Z</time></trkpt><trkpt lat="44.3281973255666" lon="11.710391840382702"><ele>155.0</ele><time>2026-04-12T14:39:00.001Z</time></trkpt><trkpt lat="44.328049024816586" lon="11.710317227089002"><ele>155.33333333333331</ele><time>2026-04-12T14:39:01.001Z</time></trkpt><trkpt lat="44.327873059395856" lon="11.710257698709439"><ele>155.66666666666666</ele><time>2026-04-12T14:39:02.001Z</time></trkpt><trkpt lat="44.32766393538278" lon="11.710186952870039"><ele>156.0</ele><time>2026-04-12T14:39:03.001Z</time></trkpt><trkpt lat="44.32742485583677" lon="11.710104859039566"><ele>159.5</ele><time>2026-04-12T14:39:04.001Z</time></trkpt><trkpt lat="44.32718620183843" lon="11.71003970519004"><ele>163.0</ele><time>2026-04-12T14:39:05.001Z</time></trkpt><trkpt lat="44.32696318797704" lon="11.709960773769943"><ele>163.0</ele><time>2026-04-12T14:39:06.001Z</time></trkpt><trkpt lat="44.326763972248294" lon="11.709889984188525"><ele>163.0</ele><time>2026-04-12T14:39:07.001Z</time></trkpt><trkpt lat="44.32656971135865" lon="11.709814111961704"><ele>163.0</ele><time>2026-04-12T14:39:08.001Z</time></trkpt><trkpt lat="44.3263697592457" lon="11.709716154004228"><ele>165.0</ele><time>2026-04-12T14:39:09.001Z</time></trkpt><trkpt lat="44.326171477738555" lon="11.709606626396857"><ele>167.0</ele><time>2026-04-12T14:39:10.001Z</time></trkpt><trkpt lat="44.32598073720829" lon="11.709499814984529"><ele>169.0</ele><time>2026-04-12T14:39:11.001Z</time></trkpt><trkpt lat="44.325804945326205" lon="11.709410346642924"><ele>168.0</ele><time>2026-04-12T14:39:12.001Z</time></trkpt><trkpt lat="44.325644855311765" lon="11.70932931400533"><ele>167.0</ele><time>2026-04-12T14:39:13.001Z</time></trkpt><trkpt lat="44.325483320414286" lon="11.709248496688003"><ele>166.0</ele><time>2026-04-12T14:39:14.001Z</time></trkpt><trkpt lat="44.325314531106834" lon="11.709160557719555"><ele>169.66666666666669</ele><time>2026-04-12T14:39:15.001Z</time></trkpt><trkpt lat="44.325144733800364" lon="11.709060529035611"><ele>173.33333333333334</ele><time>2026-04-12T14:39:16.001Z</time></trkpt><trkpt lat="44.3249689710432" lon="11.708950963035944"><ele>177.0</ele><time>2026-04-12T14:39:17.001Z</time></trkpt><trkpt lat="44.32481260360225" lon="11.70881030684629"><ele>179.66666666666666</ele><time>2026-04-12T14:39:18.001Z</time></trkpt><trkpt lat="44.324666279093044" lon="11.708695905962406"><ele>182.33333333333331</ele><time>2026-04-12T14:39:19.001Z</time></trkpt><trkpt lat="44.32453322146482" lon="11.708591750719446"><ele>185.0</ele><time>2026-04-12T14:39:20.001Z</time></trkpt><trkpt lat="44.32438763150434" lon="11.708503756217146"><ele>185.6</ele><time>2026-04-12T14:39:21.001Z</time></trkpt><trkpt lat="44.3242641037401" lon="11.708401147642022"><ele>186.2</ele><time>2026-04-12T14:39:22.001Z</time></trkpt><trkpt lat="44.32416119746776" lon="11.708316649001983"><ele>186.8</ele><time>2026-04-12T14:39:23.001Z</time></trkpt><trkpt lat="44.32407315152379" lon="11.708249628750528"><ele>187.4</ele><time>2026-04-12T14:39:24.001Z</time></trkpt><trkpt lat="44.323997256699236" lon="11.708193925936907"><ele>188.0</ele><time>2026-04-12T14:39:25.001Z</time></trkpt><trkpt lat="44.323921930345875" lon="11.708142969713302"><ele>189.0</ele><time>2026-04-12T14:39:26.001Z</time></trkpt><trkpt lat="44.323826684322825" lon="11.708080687658258"><ele>190.0</ele><time>2026-04-12T14:39:27.001Z</time></trkpt><trkpt lat="44.32372175823657" lon="11.708032067964528"><ele>191.0</ele><time>2026-04-12T14:39:28.001Z</time></trkpt><trkpt lat="44.32360954213606" lon="11.708011850916739"><ele>192.0</ele><time>2026-04-12T14:39:29.001Z</time></trkpt><trkpt lat="44.32348136035481" lon="11.708017490655555"><ele>192.0</ele><time>2026-04-12T14:39:30.001Z</time></trkpt><trkpt lat="44.3233434789513" lon="11.708039583788795"><ele>192.0</ele><time>2026-04-12T14:39:31.001Z</time></trkpt><trkpt lat="44.323201636571575" lon="11.70810412933454"><ele>192.0</ele><time>2026-04-12T14:39:32.001Z</time></trkpt><trkpt lat="44.323050152944376" lon="11.708172643247266"><ele>192.0</ele><time>2026-04-12T14:39:33.001Z</time></trkpt><trkpt lat="44.32290709946104" lon="11.70823841969267"><ele>191.0</ele><time>2026-04-12T14:39:34.001Z</time></trkpt><trkpt lat="44.322782883377464" lon="11.708293980734531"><ele>190.0</ele><time>2026-04-12T14:39:35.001Z</time></trkpt><trkpt lat="44.322663899465546" lon="11.708340502055506"><ele>189.0</ele><time>2026-04-12T14:39:36.001Z</time></trkpt><trkpt lat="44.32253552201799" lon="11.708404786708199"><ele>188.0</ele><time>2026-04-12T14:39:37.001Z</time></trkpt><trkpt lat="44.32240843305845" lon="11.708488742673593"><ele>188.5</ele><time>2026-04-12T14:39:38.001Z</time></trkpt><trkpt lat="44.32228656095015" lon="11.708595388380205"><ele>189.0</ele><time>2026-04-12T14:39:39.001Z</time></trkpt><trkpt lat="44.322175533004796" lon="11.708722565727836"><ele>189.5</ele><time>2026-04-12T14:39:40.001Z</time></trkpt><trkpt lat="44.322080052019366" lon="11.708831891253288"><ele>190.0</ele><time>2026-04-12T14:39:41.001Z</time></trkpt><trkpt lat="44.32197989455528" lon="11.708958861222854"><ele>189.0</ele><time>2026-04-12T14:39:42.001Z</time></trkpt><trkpt lat="44.32185769864636" lon="11.709059474109363"><ele>188.0</ele><time>2026-04-12T14:39:43.001Z</time></trkpt><trkpt lat="44.32173621485034" lon="11.709133403185582"><ele>187.0</ele><time>2026-04-12T14:39:44.001Z</time></trkpt><trkpt lat="44.321593898883926" lon="11.709181953204618"><ele>186.0</ele><time>2026-04-12T14:39:45.001Z</time></trkpt><trkpt lat="44.3214383482485" lon="11.70923408953229"><ele>183.33333333333334</ele><time>2026-04-12T14:39:46.001Z</time></trkpt><trkpt lat="44.32126888785171" lon="11.709326211643374"><ele>180.66666666666669</ele><time>2026-04-12T14:39:47.001Z</time></trkpt><trkpt lat="44.3210935490559" lon="11.709382074984589"><ele>178.0</ele><time>2026-04-12T14:39:48.001Z</time></trkpt><trkpt lat="44.320938613953615" lon="11.709453508187801"><ele>178.0</ele><time>2026-04-12T14:39:49.001Z</time></trkpt><trkpt lat="44.32079740177927" lon="11.709517213815188"><ele>178.0</ele><time>2026-04-12T14:39:50.001Z</time></trkpt><trkpt lat="44.320653227871034" lon="11.709576301746502"><ele>178.0</ele><time>2026-04-12T14:39:51.001Z</time></trkpt><trkpt lat="44.32051911205392" lon="11.709645472284295"><ele>178.0</ele><time>2026-04-12T14:39:52.001Z</time></trkpt><trkpt lat="44.32037570463714" lon="11.709681121850512"><ele>178.66666666666669</ele><time>2026-04-12T14:39:53.001Z</time></trkpt><trkpt lat="44.32022129283469" lon="11.709722817352691"><ele>179.33333333333334</ele><time>2026-04-12T14:39:54.001Z</time></trkpt><trkpt lat="44.32006672663238" lon="11.709755778378769"><ele>180.0</ele><time>2026-04-12T14:39:55.001Z</time></trkpt><trkpt lat="44.31991562681459" lon="11.709786290779551"><ele>180.0</ele><time>2026-04-12T14:39:56.001Z</time></trkpt><trkpt lat="44.31976642101834" lon="11.709810811490557"><ele>180.0</ele><time>2026-04-12T14:39:57.001Z</time></trkpt><trkpt lat="44.31963053329415" lon="11.70982957689779"><ele>180.0</ele><time>2026-04-12T14:39:58.001Z</time></trkpt><trkpt lat="44.319503995182544" lon="11.709852226489028"><ele>180.0</ele><time>2026-04-12T14:39:59.001Z</time></trkpt><trkpt lat="44.31937779339586" lon="11.70986217615318"><ele>180.5</ele><time>2026-04-12T14:40:00.001Z</time></trkpt><trkpt lat="44.319239266354806" lon="11.709896877229747"><ele>181.0</ele><time>2026-04-12T14:40:01.001Z</time></trkpt><trkpt lat="44.319093847170734" lon="11.709952055450522"><ele>181.5</ele><time>2026-04-12T14:40:02.001Z</time></trkpt><trkpt lat="44.31894908025957" lon="11.710012628412407"><ele>182.0</ele><time>2026-04-12T14:40:03.001Z</time></trkpt><trkpt lat="44.318795242528644" lon="11.710079024627177"><ele>180.0</ele><time>2026-04-12T14:40:04.001Z</time></trkpt><trkpt lat="44.31863770748757" lon="11.710145851455328"><ele>178.0</ele><time>2026-04-12T14:40:05.001Z</time></trkpt><trkpt lat="44.318478422890145" lon="11.710210762199138"><ele>176.0</ele><time>2026-04-12T14:40:06.001Z</time></trkpt><trkpt lat="44.31832923457066" lon="11.710277921092661"><ele>176.0</ele><time>2026-04-12T14:40:07.001Z</time></trkpt><trkpt lat="44.31818072971707" lon="11.710342219701136"><ele>176.0</ele><time>2026-04-12T14:40:08.001Z</time></trkpt><trkpt lat="44.318030181099786" lon="11.71037849981333"><ele>176.0</ele><time>2026-04-12T14:40:09.001Z</time></trkpt><trkpt lat="44.31787590684384" lon="11.710396762787402"><ele>177.0</ele><time>2026-04-12T14:40:10.001Z</time></trkpt><trkpt lat="44.31771597576213" lon="11.71036440655966"><ele>178.0</ele><time>2026-04-12T14:40:11.001Z</time></trkpt><trkpt lat="44.31755241742157" lon="11.71034775051054"><ele>179.0</ele><time>2026-04-12T14:40:12.001Z</time></trkpt><trkpt lat="44.31738314785398" lon="11.710321259755984"><ele>178.0</ele><time>2026-04-12T14:40:13.001Z</time></trkpt><trkpt lat="44.317216076117546" lon="11.710309457693526"><ele>177.0</ele><time>2026-04-12T14:40:14.001Z</time></trkpt><trkpt lat="44.3170511555172" lon="11.710248008387888"><ele>176.0</ele><time>2026-04-12T14:40:15.001Z</time></trkpt><trkpt lat="44.316879576601956" lon="11.710204599952858"><ele>176.0</ele><time>2026-04-12T14:40:16.001Z</time></trkpt><trkpt lat="44.31671461067966" lon="11.7101678146851"><ele>176.0</ele><time>2026-04-12T14:40:17.001Z</time></trkpt><trkpt lat="44.31655241910927" lon="11.710136253681824"><ele>176.0</ele><time>2026-04-12T14:40:18.001Z</time></trkpt><trkpt lat="44.31638433273322" lon="11.7101089867138"><ele>177.66666666666666</ele><time>2026-04-12T14:40:19.001Z</time></trkpt><trkpt lat="44.31621245346435" lon="11.710089256295781"><ele>179.33333333333334</ele><time>2026-04-12T14:40:20.001Z</time></trkpt><trkpt lat="44.316044246818414" lon="11.71005100717326"><ele>181.0</ele><time>2026-04-12T14:40:21.001Z</time></trkpt><trkpt lat="44.31587958650402" lon="11.709999282292678"><ele>181.0</ele><time>2026-04-12T14:40:22.001Z</time></trkpt><trkpt lat="44.3157092851701" lon="11.709948377615158"><ele>181.0</ele><time>2026-04-12T14:40:23.001Z</time></trkpt><trkpt lat="44.31553744101471" lon="11.709926699169886"><ele>181.0</ele><time>2026-04-12T14:40:24.001Z</time></trkpt><trkpt lat="44.31536078249996" lon="11.709869737861016"><ele>183.66666666666669</ele><time>2026-04-12T14:40:25.001Z</time></trkpt><trkpt lat="44.315195475471135" lon="11.709833649491175"><ele>186.33333333333334</ele><time>2026-04-12T14:40:26.001Z</time></trkpt><trkpt lat="44.315047542849015" lon="11.70980181590376"><ele>189.0</ele><time>2026-04-12T14:40:27.001Z</time></trkpt><trkpt lat="44.31489942120241" lon="11.709774580577564"><ele>189.0</ele><time>2026-04-12T14:40:28.001Z</time></trkpt><trkpt lat="44.31475703553171" lon="11.709753758470418"><ele>189.0</ele><time>2026-04-12T14:40:29.001Z</time></trkpt><trkpt lat="44.31461424164694" lon="11.709736743315508"><ele>189.0</ele><time>2026-04-12T14:40:30.001Z</time></trkpt><trkpt lat="44.314469915094314" lon="11.709726724421268"><ele>189.0</ele><time>2026-04-12T14:40:31.001Z</time></trkpt><trkpt lat="44.314332217609405" lon="11.709720150981857"><ele>189.0</ele><time>2026-04-12T14:40:32.001Z</time></trkpt><trkpt lat="44.31419035857661" lon="11.709715834150558"><ele>189.0</ele><time>2026-04-12T14:40:33.001Z</time></trkpt><trkpt lat="44.31405166960121" lon="11.709710899055112"><ele>189.0</ele><time>2026-04-12T14:40:34.001Z</time></trkpt><trkpt lat="44.3139165213499" lon="11.709698722562694"><ele>189.0</ele><time>2026-04-12T14:40:35.001Z</time></trkpt><trkpt lat="44.313784297614895" lon="11.709669619527325"><ele>188.75</ele><time>2026-04-12T14:40:36.001Z</time></trkpt><trkpt lat="44.313657387451336" lon="11.70961844755773"><ele>188.5</ele><time>2026-04-12T14:40:37.001Z</time></trkpt><trkpt lat="44.31353313250625" lon="11.709547576686168"><ele>188.25</ele><time>2026-04-12T14:40:38.001Z</time></trkpt><trkpt lat="44.313390266248994" lon="11.709459716354836"><ele>188.0</ele><time>2026-04-12T14:40:39.001Z</time></trkpt><trkpt lat="44.313251660934704" lon="11.70937169596843"><ele>186.75</ele><time>2026-04-12T14:40:40.001Z</time></trkpt><trkpt lat="44.313109868752086" lon="11.709281651766299"><ele>185.5</ele><time>2026-04-12T14:40:41.001Z</time></trkpt><trkpt lat="44.31298595203504" lon="11.709202959292003"><ele>184.25</ele><time>2026-04-12T14:40:42.001Z</time></trkpt><trkpt lat="44.31286804898528" lon="11.70912808572698"><ele>183.0</ele><time>2026-04-12T14:40:43.001Z</time></trkpt><trkpt lat="44.312734206904935" lon="11.709038286180572"><ele>183.0</ele><time>2026-04-12T14:40:44.001Z</time></trkpt><trkpt lat="44.31260638723942" lon="11.708930836166617"><ele>183.0</ele><time>2026-04-12T14:40:45.001Z</time></trkpt><trkpt lat="44.31248182633978" lon="11.708798055718923"><ele>183.0</ele><time>2026-04-12T14:40:46.001Z</time></trkpt><trkpt lat="44.312354434592535" lon="11.708649238069667"><ele>183.0</ele><time>2026-04-12T14:40:47.001Z</time></trkpt><trkpt lat="44.31223866707991" lon="11.70851138922837"><ele>183.0</ele><time>2026-04-12T14:40:48.001Z</time></trkpt><trkpt lat="44.312108633122946" lon="11.708385351431506"><ele>183.0</ele><time>2026-04-12T14:40:49.001Z</time></trkpt><trkpt lat="44.31200323540892" lon="11.70822723648098"><ele>183.0</ele><time>2026-04-12T14:40:50.001Z</time></trkpt><trkpt lat="44.311877294041345" lon="11.708105175798726"><ele>183.0</ele><time>2026-04-12T14:40:51.001Z</time></trkpt><trkpt lat="44.31177964167792" lon="11.707953066116723"><ele>183.0</ele><time>2026-04-12T14:40:52.001Z</time></trkpt><trkpt lat="44.31167179439862" lon="11.707811378347442"><ele>183.0</ele><time>2026-04-12T14:40:53.001Z</time></trkpt><trkpt lat="44.311569660898364" lon="11.707674556301887"><ele>182.33333333333334</ele><time>2026-04-12T14:40:54.001Z</time></trkpt><trkpt lat="44.311462534606655" lon="11.707529816785033"><ele>181.66666666666669</ele><time>2026-04-12T14:40:55.001Z</time></trkpt><trkpt lat="44.311345523515485" lon="11.707385875221219"><ele>181.0</ele><time>2026-04-12T14:40:56.001Z</time></trkpt><trkpt lat="44.31121676463676" lon="11.70726483501663"><ele>184.33333333333334</ele><time>2026-04-12T14:40:57.001Z</time></trkpt><trkpt lat="44.31109341129152" lon="11.707129564215823"><ele>187.66666666666666</ele><time>2026-04-12T14:40:58.001Z</time></trkpt><trkpt lat="44.31096924163323" lon="11.706984726487534"><ele>191.0</ele><time>2026-04-12T14:40:59.001Z</time></trkpt><trkpt lat="44.31084092314055" lon="11.706856671283457"><ele>191.0</ele><time>2026-04-12T14:41:00.001Z</time></trkpt><trkpt lat="44.310732656812725" lon="11.706742891919284"><ele>191.0</ele><time>2026-04-12T14:41:01.001Z</time></trkpt><trkpt lat="44.31063172004985" lon="11.706651213278148"><ele>191.0</ele><time>2026-04-12T14:41:02.001Z</time></trkpt><trkpt lat="44.310516348876355" lon="11.706582726992234"><ele>191.0</ele><time>2026-04-12T14:41:03.001Z</time></trkpt><trkpt lat="44.31037853640401" lon="11.706539687243518"><ele>194.0</ele><time>2026-04-12T14:41:04.001Z</time></trkpt><trkpt lat="44.31023383939146" lon="11.706524946784763"><ele>197.0</ele><time>2026-04-12T14:41:05.001Z</time></trkpt><trkpt lat="44.31008479897205" lon="11.706519533392438"><ele>200.0</ele><time>2026-04-12T14:41:06.001Z</time></trkpt><trkpt lat="44.309933112916156" lon="11.70648125417812"><ele>203.0</ele><time>2026-04-12T14:41:07.001Z</time></trkpt><trkpt lat="44.309772081909124" lon="11.706480945078042"><ele>206.66666666666669</ele><time>2026-04-12T14:41:08.001Z</time></trkpt><trkpt lat="44.30961080721768" lon="11.70645290554591"><ele>210.33333333333331</ele><time>2026-04-12T14:41:09.001Z</time></trkpt><trkpt lat="44.30944138266778" lon="11.706434985737763"><ele>214.0</ele><time>2026-04-12T14:41:10.001Z</time></trkpt><trkpt lat="44.309283730965284" lon="11.706414202796543"><ele>214.0</ele><time>2026-04-12T14:41:11.001Z</time></trkpt><trkpt lat="44.309141070111124" lon="11.70638975259172"><ele>214.0</ele><time>2026-04-12T14:41:12.001Z</time></trkpt><trkpt lat="44.309007755378914" lon="11.706359129314613"><ele>214.0</ele><time>2026-04-12T14:41:13.001Z</time></trkpt><trkpt lat="44.308879973959776" lon="11.706280921795004"><ele>214.0</ele><time>2026-04-12T14:41:14.001Z</time></trkpt><trkpt lat="44.30873305172325" lon="11.706219864864593"><ele>214.25</ele><time>2026-04-12T14:41:15.001Z</time></trkpt><trkpt lat="44.308587787717144" lon="11.706116449802648"><ele>214.5</ele><time>2026-04-12T14:41:16.001Z</time></trkpt><trkpt lat="44.30845508833511" lon="11.706021910956407"><ele>214.75</ele><time>2026-04-12T14:41:17.001Z</time></trkpt><trkpt lat="44.30833781624463" lon="11.705939065757178"><ele>215.0</ele><time>2026-04-12T14:41:18.001Z</time></trkpt><trkpt lat="44.308227135629096" lon="11.705856691484488"><ele>216.4</ele><time>2026-04-12T14:41:19.001Z</time></trkpt><trkpt lat="44.30812229469897" lon="11.705772127320012"><ele>217.8</ele><time>2026-04-12T14:41:20.001Z</time></trkpt><trkpt lat="44.30802328734281" lon="11.705710707722863"><ele>219.2</ele><time>2026-04-12T14:41:21.001Z</time></trkpt><trkpt lat="44.30792361548094" lon="11.70567178402727"><ele>220.6</ele><time>2026-04-12T14:41:22.001Z</time></trkpt><trkpt lat="44.30780786352843" lon="11.705664374839953"><ele>222.0</ele><time>2026-04-12T14:41:23.001Z</time></trkpt><trkpt lat="44.30767318462622" lon="11.705669648294196"><ele>222.0</ele><time>2026-04-12T14:41:24.001Z</time></trkpt><trkpt lat="44.307530774430774" lon="11.705720216397962"><ele>222.0</ele><time>2026-04-12T14:41:25.001Z</time></trkpt><trkpt lat="44.30739528162282" lon="11.705772644100934"><ele>222.0</ele><time>2026-04-12T14:41:26.001Z</time></trkpt><trkpt lat="44.30725155329834" lon="11.705844348848563"><ele>222.0</ele><time>2026-04-12T14:41:27.001Z</time></trkpt><trkpt lat="44.30711037749653" lon="11.705919465722562"><ele>221.75</ele><time>2026-04-12T14:41:28.001Z</time></trkpt><trkpt lat="44.30696697655543" lon="11.70598845446681"><ele>221.5</ele><time>2026-04-12T14:41:29.001Z</time></trkpt><trkpt lat="44.30683233904668" lon="11.706031191263996"><ele>221.25</ele><time>2026-04-12T14:41:30.001Z</time></trkpt><trkpt lat="44.306684304509815" lon="11.706060641062178"><ele>221.0</ele><time>2026-04-12T14:41:31.001Z</time></trkpt><trkpt lat="44.30653485603957" lon="11.706084726476442"><ele>223.0</ele><time>2026-04-12T14:41:32.001Z</time></trkpt><trkpt lat="44.30637046128678" lon="11.706106307661603"><ele>225.0</ele><time>2026-04-12T14:41:33.001Z</time></trkpt><trkpt lat="44.306213294725694" lon="11.706126507287678"><ele>227.0</ele><time>2026-04-12T14:41:34.001Z</time></trkpt><trkpt lat="44.30606370474705" lon="11.706146841598612"><ele>227.0</ele><time>2026-04-12T14:41:35.001Z</time></trkpt><trkpt lat="44.305913396323255" lon="11.7061673354269"><ele>227.0</ele><time>2026-04-12T14:41:36.001Z</time></trkpt><trkpt lat="44.3057733070367" lon="11.706186435927835"><ele>227.0</ele><time>2026-04-12T14:41:37.001Z</time></trkpt><trkpt lat="44.30562081818203" lon="11.706206165199502"><ele>227.0</ele><time>2026-04-12T14:41:38.001Z</time></trkpt><trkpt lat="44.30548258483612" lon="11.706223438188783"><ele>230.0</ele><time>2026-04-12T14:41:39.001Z</time></trkpt><trkpt lat="44.305352199193315" lon="11.706238442954678"><ele>233.0</ele><time>2026-04-12T14:41:40.001Z</time></trkpt><trkpt lat="44.30521693570893" lon="11.70625214278234"><ele>236.0</ele><time>2026-04-12T14:41:41.001Z</time></trkpt><trkpt lat="44.30508055067306" lon="11.706259198783277"><ele>239.0</ele><time>2026-04-12T14:41:42.001Z</time></trkpt><trkpt lat="44.30494472303304" lon="11.706258321237334"><ele>239.0</ele><time>2026-04-12T14:41:43.001Z</time></trkpt><trkpt lat="44.30481270202953" lon="11.706251548444298"><ele>238.99999999999997</ele><time>2026-04-12T14:41:44.001Z</time></trkpt><trkpt lat="44.304712474447335" lon="11.706249846904393"><ele>238.99999999999997</ele><time>2026-04-12T14:41:45.001Z</time></trkpt><trkpt lat="44.30462449099101" lon="11.706249113932127"><ele>239.0</ele><time>2026-04-12T14:41:46.001Z</time></trkpt><trkpt lat="44.30455795431263" lon="11.706235128142954"><ele>239.0</ele><time>2026-04-12T14:41:47.001Z</time></trkpt><trkpt lat="44.304454005474945" lon="11.706197839338824"><ele>240.6</ele><time>2026-04-12T14:41:49.001Z</time></trkpt><trkpt lat="44.30439034826483" lon="11.706151478084038"><ele>242.2</ele><time>2026-04-12T14:41:50.001Z</time></trkpt><trkpt lat="44.30431454028104" lon="11.706094114587682"><ele>243.79999999999998</ele><time>2026-04-12T14:41:51.001Z</time></trkpt><trkpt lat="44.30422578357165" lon="11.706030434176522"><ele>245.39999999999998</ele><time>2026-04-12T14:41:52.001Z</time></trkpt><trkpt lat="44.30413775348615" lon="11.705940982030137"><ele>247.0</ele><time>2026-04-12T14:41:53.001Z</time></trkpt><trkpt lat="44.30401846422348" lon="11.705866630354913"><ele>247.0</ele><time>2026-04-12T14:41:54.001Z</time></trkpt><trkpt lat="44.303924262823735" lon="11.705760498365251"><ele>247.0</ele><time>2026-04-12T14:41:55.001Z</time></trkpt><trkpt lat="44.303816316040624" lon="11.705682802037986"><ele>247.0</ele><time>2026-04-12T14:41:56.001Z</time></trkpt><trkpt lat="44.30369592955873" lon="11.705589259746148"><ele>247.0</ele><time>2026-04-12T14:41:57.001Z</time></trkpt><trkpt lat="44.30357229059598" lon="11.70548921414697"><ele>248.25</ele><time>2026-04-12T14:41:58.001Z</time></trkpt><trkpt lat="44.303446708060875" lon="11.705388048870518"><ele>249.5</ele><time>2026-04-12T14:41:59.001Z</time></trkpt><trkpt lat="44.30333903260017" lon="11.705302517394037"><ele>250.75</ele><time>2026-04-12T14:42:00.001Z</time></trkpt><trkpt lat="44.30324003640393" lon="11.705222991903948"><ele>252.0</ele><time>2026-04-12T14:42:01.001Z</time></trkpt><trkpt lat="44.30314906548584" lon="11.705140074289664"><ele>250.0</ele><time>2026-04-12T14:42:02.001Z</time></trkpt><trkpt lat="44.30306229838598" lon="11.705050931846431"><ele>248.0</ele><time>2026-04-12T14:42:03.001Z</time></trkpt><trkpt lat="44.302952047837636" lon="11.704985952958943"><ele>246.0</ele><time>2026-04-12T14:42:04.001Z</time></trkpt><trkpt lat="44.30282652156482" lon="11.704919786492072"><ele>244.0</ele><time>2026-04-12T14:42:05.001Z</time></trkpt><trkpt lat="44.30268850246311" lon="11.704875719537275"><ele>244.0</ele><time>2026-04-12T14:42:06.001Z</time></trkpt><trkpt lat="44.30254731646238" lon="11.704846594321697"><ele>244.0</ele><time>2026-04-12T14:42:07.001Z</time></trkpt><trkpt lat="44.302416080906504" lon="11.704837788043491"><ele>244.0</ele><time>2026-04-12T14:42:08.001Z</time></trkpt><trkpt lat="44.302291148494085" lon="11.70482162061945"><ele>244.0</ele><time>2026-04-12T14:42:09.001Z</time></trkpt><trkpt lat="44.30217237877874" lon="11.70478927578216"><ele>241.0</ele><time>2026-04-12T14:42:10.001Z</time></trkpt><trkpt lat="44.302034860937226" lon="11.7047497080181"><ele>238.0</ele><time>2026-04-12T14:42:11.001Z</time></trkpt><trkpt lat="44.301891242737845" lon="11.704713103956687"><ele>235.0</ele><time>2026-04-12T14:42:12.001Z</time></trkpt><trkpt lat="44.30174049112596" lon="11.704664057579409"><ele>232.0</ele><time>2026-04-12T14:42:13.001Z</time></trkpt><trkpt lat="44.30158841692888" lon="11.704609769943088"><ele>232.0</ele><time>2026-04-12T14:42:14.001Z</time></trkpt><trkpt lat="44.30143132000517" lon="11.70455945276118"><ele>232.0</ele><time>2026-04-12T14:42:15.001Z</time></trkpt><trkpt lat="44.30129396831493" lon="11.704526421398109"><ele>232.0</ele><time>2026-04-12T14:42:16.001Z</time></trkpt><trkpt lat="44.3011762989101" lon="11.704496913370846"><ele>232.0</ele><time>2026-04-12T14:42:17.001Z</time></trkpt><trkpt lat="44.30105268636197" lon="11.704426136953929"><ele>227.75</ele><time>2026-04-12T14:42:18.001Z</time></trkpt><trkpt lat="44.30093049785288" lon="11.704351281238784"><ele>223.5</ele><time>2026-04-12T14:42:19.001Z</time></trkpt><trkpt lat="44.300821136903735" lon="11.704293308576915"><ele>219.25</ele><time>2026-04-12T14:42:20.001Z</time></trkpt><trkpt lat="44.30071929712508" lon="11.704258656104926"><ele>215.0</ele><time>2026-04-12T14:42:21.001Z</time></trkpt><trkpt lat="44.30061219610499" lon="11.704254332023785"><ele>215.5</ele><time>2026-04-12T14:42:22.001Z</time></trkpt><trkpt lat="44.30048107021683" lon="11.704275025325742"><ele>216.0</ele><time>2026-04-12T14:42:23.001Z</time></trkpt><trkpt lat="44.30034243223641" lon="11.704271025745594"><ele>216.5</ele><time>2026-04-12T14:42:24.001Z</time></trkpt><trkpt lat="44.30019040665583" lon="11.704265733169224"><ele>217.0</ele><time>2026-04-12T14:42:25.001Z</time></trkpt><trkpt lat="44.30004476111311" lon="11.704210025148173"><ele>217.0</ele><time>2026-04-12T14:42:26.001Z</time></trkpt><trkpt lat="44.29991168808571" lon="11.704123701552511"><ele>217.0</ele><time>2026-04-12T14:42:27.001Z</time></trkpt><trkpt lat="44.29979311452411" lon="11.704023955392993"><ele>217.0</ele><time>2026-04-12T14:42:28.001Z</time></trkpt><trkpt lat="44.29967032746857" lon="11.703920282066509"><ele>217.0</ele><time>2026-04-12T14:42:29.001Z</time></trkpt><trkpt lat="44.29954744380866" lon="11.70381583808219"><ele>216.75</ele><time>2026-04-12T14:42:30.001Z</time></trkpt><trkpt lat="44.29944006869181" lon="11.703724105700244"><ele>216.5</ele><time>2026-04-12T14:42:31.001Z</time></trkpt><trkpt lat="44.29932561859787" lon="11.703658666195162"><ele>216.25</ele><time>2026-04-12T14:42:32.001Z</time></trkpt><trkpt lat="44.299214239599706" lon="11.70357032052564"><ele>216.0</ele><time>2026-04-12T14:42:33.001Z</time></trkpt><trkpt lat="44.29910150255749" lon="11.70350285801728"><ele>217.0</ele><time>2026-04-12T14:42:34.001Z</time></trkpt><trkpt lat="44.29899255170664" lon="11.703464653208526"><ele>218.0</ele><time>2026-04-12T14:42:35.001Z</time></trkpt><trkpt lat="44.29889180125709" lon="11.703429696754101"><ele>219.0</ele><time>2026-04-12T14:42:36.001Z</time></trkpt><trkpt lat="44.298781315593" lon="11.703372515514275"><ele>220.0</ele><time>2026-04-12T14:42:37.001Z</time></trkpt><trkpt lat="44.29868381550586" lon="11.70327950593789"><ele>221.8</ele><time>2026-04-12T14:42:38.001Z</time></trkpt><trkpt lat="44.29859232817101" lon="11.70320241243537"><ele>223.6</ele><time>2026-04-12T14:42:39.001Z</time></trkpt><trkpt lat="44.298516528134286" lon="11.703138537954741"><ele>225.39999999999998</ele><time>2026-04-12T14:42:40.001Z</time></trkpt><trkpt lat="44.29844551462089" lon="11.703091200703684"><ele>227.2</ele><time>2026-04-12T14:42:41.001Z</time></trkpt><trkpt lat="44.29836605091113" lon="11.703035474449665"><ele>229.0</ele><time>2026-04-12T14:42:42.001Z</time></trkpt><trkpt lat="44.29828978499993" lon="11.702961134625728"><ele>229.0</ele><time>2026-04-12T14:42:43.001Z</time></trkpt><trkpt lat="44.29820841393863" lon="11.702898926104279"><ele>228.99999999999997</ele><time>2026-04-12T14:42:44.001Z</time></trkpt><trkpt lat="44.298136771252" lon="11.702821464535504"><ele>228.99999999999997</ele><time>2026-04-12T14:42:45.001Z</time></trkpt><trkpt lat="44.29807262375596" lon="11.70274174681002"><ele>229.0</ele><time>2026-04-12T14:42:46.001Z</time></trkpt><trkpt lat="44.298009264477486" lon="11.702636725964922"><ele>229.0</ele><time>2026-04-12T14:42:47.001Z</time></trkpt><trkpt lat="44.297953832118814" lon="11.702522333739797"><ele>229.75</ele><time>2026-04-12T14:42:48.001Z</time></trkpt><trkpt lat="44.2979046347226" lon="11.70244868193372"><ele>230.5</ele><time>2026-04-12T14:42:49.001Z</time></trkpt><trkpt lat="44.29778910321502" lon="11.702316623176204"><ele>231.25</ele><time>2026-04-12T14:42:51.001Z</time></trkpt><trkpt lat="44.29766905744871" lon="11.702395187221303"><ele>232.0</ele><time>2026-04-12T14:42:52.001Z</time></trkpt><trkpt lat="44.29756642825674" lon="11.702374935796524"><ele>232.0</ele><time>2026-04-12T14:42:53.001Z</time></trkpt><trkpt lat="44.297455955168864" lon="11.702354622780197"><ele>232.0</ele><time>2026-04-12T14:42:54.001Z</time></trkpt><trkpt lat="44.29734914906176" lon="11.70233146321594"><ele>232.0</ele><time>2026-04-12T14:42:55.001Z</time></trkpt><trkpt lat="44.297240307153956" lon="11.702307589486766"><ele>232.0</ele><time>2026-04-12T14:42:56.001Z</time></trkpt><trkpt lat="44.297119853628416" lon="11.702275836655724"><ele>236.25</ele><time>2026-04-12T14:42:57.001Z</time></trkpt><trkpt lat="44.296996125430674" lon="11.702245934364013"><ele>240.5</ele><time>2026-04-12T14:42:58.001Z</time></trkpt><trkpt lat="44.29687591654059" lon="11.702231200381647"><ele>244.75</ele><time>2026-04-12T14:42:59.001Z</time></trkpt><trkpt lat="44.29674742353295" lon="11.702230703750546"><ele>249.0</ele><time>2026-04-12T14:43:00.001Z</time></trkpt><trkpt lat="44.29664288065325" lon="11.702250380426282"><ele>249.0</ele><time>2026-04-12T14:43:01.001Z</time></trkpt><trkpt lat="44.296545325394575" lon="11.702274718770445"><ele>249.0</ele><time>2026-04-12T14:43:02.001Z</time></trkpt><trkpt lat="44.296471129276675" lon="11.70229377050977"><ele>249.0</ele><time>2026-04-12T14:43:03.001Z</time></trkpt><trkpt lat="44.29636079171151" lon="11.702363324974886"><ele>249.0</ele><time>2026-04-12T14:43:05.001Z</time></trkpt><trkpt lat="44.296292576850185" lon="11.702385924214058"><ele>249.0</ele><time>2026-04-12T14:43:06.001Z</time></trkpt><trkpt lat="44.29621906351785" lon="11.702414889647072"><ele>249.0</ele><time>2026-04-12T14:43:07.001Z</time></trkpt><trkpt lat="44.29615563931156" lon="11.702428431961925"><ele>248.0</ele><time>2026-04-12T14:43:08.001Z</time></trkpt><trkpt lat="44.296027424567015" lon="11.702420548473919"><ele>247.0</ele><time>2026-04-12T14:43:10.001Z</time></trkpt><trkpt lat="44.295960133816365" lon="11.702408063038495"><ele>246.0</ele><time>2026-04-12T14:43:11.001Z</time></trkpt><trkpt lat="44.295896496823495" lon="11.702381131872444"><ele>245.0</ele><time>2026-04-12T14:43:12.001Z</time></trkpt><trkpt lat="44.2958360766615" lon="11.702346897712586"><ele>244.0</ele><time>2026-04-12T14:43:13.001Z</time></trkpt><trkpt lat="44.29577473495238" lon="11.70230651920692"><ele>243.0</ele><time>2026-04-12T14:43:14.001Z</time></trkpt><trkpt lat="44.295712043110115" lon="11.702264898195262"><ele>243.0</ele><time>2026-04-12T14:43:15.001Z</time></trkpt><trkpt lat="44.29563962657852" lon="11.702215564364261"><ele>243.0</ele><time>2026-04-12T14:43:16.001Z</time></trkpt><trkpt lat="44.29556030589465" lon="11.70216108756394"><ele>243.0</ele><time>2026-04-12T14:43:17.001Z</time></trkpt><trkpt lat="44.29548589520637" lon="11.702071206881913"><ele>243.0</ele><time>2026-04-12T14:43:18.001Z</time></trkpt><trkpt lat="44.295393275944484" lon="11.702007036988993"><ele>243.0</ele><time>2026-04-12T14:43:19.001Z</time></trkpt><trkpt lat="44.295298829962945" lon="11.701944702215917"><ele>240.0</ele><time>2026-04-12T14:43:20.001Z</time></trkpt><trkpt lat="44.29520438380314" lon="11.70187636032278"><ele>237.0</ele><time>2026-04-12T14:43:21.001Z</time></trkpt><trkpt lat="44.29511189410444" lon="11.70179736965426"><ele>234.0</ele><time>2026-04-12T14:43:22.001Z</time></trkpt><trkpt lat="44.295022829768826" lon="11.701718230278487"><ele>231.0</ele><time>2026-04-12T14:43:23.001Z</time></trkpt><trkpt lat="44.294931703438316" lon="11.701642064152896"><ele>228.0</ele><time>2026-04-12T14:43:24.001Z</time></trkpt><trkpt lat="44.29483648417586" lon="11.701565202353558"><ele>225.75</ele><time>2026-04-12T14:43:25.001Z</time></trkpt><trkpt lat="44.29473620962747" lon="11.7014833568052"><ele>223.5</ele><time>2026-04-12T14:43:26.001Z</time></trkpt><trkpt lat="44.29464078320416" lon="11.701396069257084"><ele>221.25</ele><time>2026-04-12T14:43:27.001Z</time></trkpt><trkpt lat="44.29454754137838" lon="11.701305291477885"><ele>219.0</ele><time>2026-04-12T14:43:28.001Z</time></trkpt><trkpt lat="44.29445129399598" lon="11.701208432701646"><ele>219.0</ele><time>2026-04-12T14:43:29.001Z</time></trkpt><trkpt lat="44.29435159777846" lon="11.701116414976683"><ele>219.0</ele><time>2026-04-12T14:43:30.001Z</time></trkpt><trkpt lat="44.29424155032631" lon="11.701036360652479"><ele>219.0</ele><time>2026-04-12T14:43:31.001Z</time></trkpt><trkpt lat="44.29411853500218" lon="11.700980469901431"><ele>219.0</ele><time>2026-04-12T14:43:32.001Z</time></trkpt><trkpt lat="44.29399523114531" lon="11.700923278313361"><ele>220.25</ele><time>2026-04-12T14:43:33.001Z</time></trkpt><trkpt lat="44.293866517262494" lon="11.70088881083384"><ele>221.5</ele><time>2026-04-12T14:43:34.001Z</time></trkpt><trkpt lat="44.29374401819706" lon="11.700846407619878"><ele>222.75</ele><time>2026-04-12T14:43:35.001Z</time></trkpt><trkpt lat="44.293623215719066" lon="11.700817711388611"><ele>224.0</ele><time>2026-04-12T14:43:36.001Z</time></trkpt><trkpt lat="44.29351114044164" lon="11.700778446156608"><ele>224.0</ele><time>2026-04-12T14:43:37.001Z</time></trkpt><trkpt lat="44.2934066640889" lon="11.70074275544199"><ele>223.99999999999997</ele><time>2026-04-12T14:43:38.001Z</time></trkpt><trkpt lat="44.29331271716622" lon="11.700705964013954"><ele>223.99999999999997</ele><time>2026-04-12T14:43:39.001Z</time></trkpt><trkpt lat="44.29321746836212" lon="11.700667895143683"><ele>224.0</ele><time>2026-04-12T14:43:40.001Z</time></trkpt><trkpt lat="44.2931340490966" lon="11.700632998182602"><ele>224.0</ele><time>2026-04-12T14:43:41.001Z</time></trkpt><trkpt lat="44.293050826620146" lon="11.700586261747294"><ele>223.16666666666669</ele><time>2026-04-12T14:43:42.001Z</time></trkpt><trkpt lat="44.292974486608095" lon="11.70051837744303"><ele>222.33333333333334</ele><time>2026-04-12T14:43:43.001Z</time></trkpt><trkpt lat="44.29291409140151" lon="11.700433255480231"><ele>221.5</ele><time>2026-04-12T14:43:44.001Z</time></trkpt><trkpt lat="44.29286972695861" lon="11.700355491619376"><ele>220.66666666666669</ele><time>2026-04-12T14:43:45.001Z</time></trkpt><trkpt lat="44.29283622190672" lon="11.700278507858185"><ele>219.83333333333334</ele><time>2026-04-12T14:43:46.001Z</time></trkpt><trkpt lat="44.2928079408594" lon="11.700195181361362"><ele>219.0</ele><time>2026-04-12T14:43:47.001Z</time></trkpt><trkpt lat="44.29277350658263" lon="11.700084691439086"><ele>219.0</ele><time>2026-04-12T14:43:48.001Z</time></trkpt><trkpt lat="44.29273968157225" lon="11.699958479804451"><ele>219.0</ele><time>2026-04-12T14:43:49.001Z</time></trkpt><trkpt lat="44.29270535578222" lon="11.699851499313752"><ele>219.0</ele><time>2026-04-12T14:43:50.001Z</time></trkpt><trkpt lat="44.29266377098634" lon="11.699766460192548"><ele>219.0</ele><time>2026-04-12T14:43:51.001Z</time></trkpt><trkpt lat="44.29262218973636" lon="11.699688749181323"><ele>219.0</ele><time>2026-04-12T14:43:52.001Z</time></trkpt><trkpt lat="44.292573433264984" lon="11.699630030927718"><ele>219.0</ele><time>2026-04-12T14:43:53.001Z</time></trkpt><trkpt lat="44.29252285245041" lon="11.699575826977195"><ele>219.0</ele><time>2026-04-12T14:43:54.001Z</time></trkpt><trkpt lat="44.292442441944786" lon="11.699471060729985"><ele>218.99999999999997</ele><time>2026-04-12T14:43:56.001Z</time></trkpt><trkpt lat="44.29237545777559" lon="11.699353890551615"><ele>218.99999999999997</ele><time>2026-04-12T14:43:58.001Z</time></trkpt><trkpt lat="44.292341446224604" lon="11.699232112312012"><ele>219.0</ele><time>2026-04-12T14:44:00.001Z</time></trkpt><trkpt lat="44.292375075140285" lon="11.69932143689695"><ele>219.0</ele><time>2026-04-12T14:45:07Z</time></trkpt><trkpt lat="44.29241397021612" lon="11.699403984053982"><ele>219.0</ele><time>2026-04-12T14:45:17Z</time></trkpt><trkpt lat="44.29246545938474" lon="11.699476905150869"><ele>219.0</ele><time>2026-04-12T14:45:25Z</time></trkpt><trkpt lat="44.29247534749587" lon="11.699564503799905"><ele>219.0</ele><time>2026-04-12T14:45:31Z</time></trkpt><trkpt lat="44.292525755083716" lon="11.69962728743787"><ele>219.0</ele><time>2026-04-12T14:45:36Z</time></trkpt><trkpt lat="44.29257958137049" lon="11.699677667436632"><ele>219.0</ele><time>2026-04-12T14:45:42Z</time></trkpt><trkpt lat="44.29262906110764" lon="11.699756012927176"><ele>219.0</ele><time>2026-04-12T14:45:48.001Z</time></trkpt><trkpt lat="44.29267213208242" lon="11.699831668448443"><ele>219.0</ele><time>2026-04-12T14:45:53Z</time></trkpt><trkpt lat="44.29269854008326" lon="11.699915930248501"><ele>219.0</ele><time>2026-04-12T14:45:58Z</time></trkpt><trkpt lat="44.292721011217125" lon="11.700005850050115"><ele>219.0</ele><time>2026-04-12T14:46:03Z</time></trkpt><trkpt lat="44.292744115105336" lon="11.700090809028984"><ele>219.0</ele><time>2026-04-12T14:46:08Z</time></trkpt><trkpt lat="44.29275847252154" lon="11.70018081231193"><ele>219.0</ele><time>2026-04-12T14:46:13Z</time></trkpt><trkpt lat="44.292757862488514" lon="11.700272767158317"><ele>214.0</ele><time>2026-04-12T14:46:18Z</time></trkpt><trkpt lat="44.29274317586623" lon="11.700361972503437"><ele>214.0</ele><time>2026-04-12T14:46:38Z</time></trkpt><trkpt lat="44.29269869061726" lon="11.700439669381112"><ele>214.0</ele><time>2026-04-12T14:46:45Z</time></trkpt></trkseg><trkseg><trkpt lat="44.50438387082007" lon="11.823491984658032"><ele>2.8333333333333335</ele><time>2026-04-12T16:22:05Z</time></trkpt><trkpt lat="44.50442456685427" lon="11.823424521768393"><ele>2.6666666666666665</ele><time>2026-04-12T16:22:07Z</time></trkpt><trkpt lat="44.50451975400687" lon="11.823439352647174"><ele>2.5</ele><time>2026-04-12T16:22:09Z</time></trkpt><trkpt lat="44.50458378246523" lon="11.82348742543422"><ele>2.333333333333333</ele><time>2026-04-12T16:22:10Z</time></trkpt><trkpt lat="44.50465364562268" lon="11.8235417221118"><ele>2.1666666666666665</ele><time>2026-04-12T16:22:12Z</time></trkpt><trkpt lat="44.50470369990644" lon="11.823459702577361"><ele>2.0</ele><time>2026-04-12T16:22:14Z</time></trkpt><trkpt lat="44.504712053146676" lon="11.82336440222283"><ele>2.4000000000000004</ele><time>2026-04-12T16:22:15Z</time></trkpt><trkpt lat="44.50472298284064" lon="11.823243141297613"><ele>2.8000000000000003</ele><time>2026-04-12T16:22:16Z</time></trkpt><trkpt lat="44.50472596560339" lon="11.823095560289982"><ele>3.2</ele><time>2026-04-12T16:22:17Z</time></trkpt><trkpt lat="44.50471818522564" lon="11.822912020928085"><ele>3.6</ele><time>2026-04-12T16:22:18Z</time></trkpt><trkpt lat="44.50471726793079" lon="11.822778415744402"><ele>4.0</ele><time>2026-04-12T16:22:19Z</time></trkpt><trkpt lat="44.50471806534724" lon="11.822679858920216"><ele>4.0</ele><time>2026-04-12T16:22:20Z</time></trkpt><trkpt lat="44.504733522082894" lon="11.822553960005477"><ele>4.0</ele><time>2026-04-12T16:22:22Z</time></trkpt><trkpt lat="44.5047769557524" lon="11.822448431928068"><ele>4.0</ele><time>2026-04-12T16:22:24Z</time></trkpt><trkpt lat="44.50476054823644" lon="11.822358677940727"><ele>4.0</ele><time>2026-04-12T16:22:27Z</time></trkpt><trkpt lat="44.50459330617474" lon="11.822296799369166"><ele>4.0</ele><time>2026-04-12T16:22:28Z</time></trkpt><trkpt lat="44.504503742299946" lon="11.822237355551794"><ele>3.75</ele><time>2026-04-12T16:22:29Z</time></trkpt><trkpt lat="44.504393082071324" lon="11.822159754729691"><ele>3.5</ele><time>2026-04-12T16:22:30Z</time></trkpt><trkpt lat="44.50426453003258" lon="11.822076273274364"><ele>3.25</ele><time>2026-04-12T16:22:31Z</time></trkpt><trkpt lat="44.50413460708215" lon="11.821991061932277"><ele>3.0</ele><time>2026-04-12T16:22:32Z</time></trkpt><trkpt lat="44.503977787418734" lon="11.821878395194359"><ele>3.0</ele><time>2026-04-12T16:22:33Z</time></trkpt><trkpt lat="44.50383455118684" lon="11.821788148436974"><ele>3.0</ele><time>2026-04-12T16:22:34Z</time></trkpt><trkpt lat="44.50368378063954" lon="11.821687211373632"><ele>3.0</ele><time>2026-04-12T16:22:35Z</time></trkpt><trkpt lat="44.50354862031696" lon="11.8215864180471"><ele>3.0</ele><time>2026-04-12T16:22:36Z</time></trkpt><trkpt lat="44.50343301171171" lon="11.8214984633098"><ele>3.0</ele><time>2026-04-12T16:22:37Z</time></trkpt><trkpt lat="44.50331926101326" lon="11.82142195207535"><ele>3.0</ele><time>2026-04-12T16:22:38Z</time></trkpt><trkpt lat="44.50319090928309" lon="11.821341158396866"><ele>3.0</ele><time>2026-04-12T16:22:39Z</time></trkpt><trkpt lat="44.50306175123" lon="11.821257477759017"><ele>3.0</ele><time>2026-04-12T16:22:40Z</time></trkpt><trkpt lat="44.50295041641049" lon="11.821177606685401"><ele>3.0</ele><time>2026-04-12T16:22:41Z</time></trkpt><trkpt lat="44.502854576458596" lon="11.821113368127534"><ele>3.0</ele><time>2026-04-12T16:22:42Z</time></trkpt><trkpt lat="44.50276546955274" lon="11.821054828607807"><ele>3.0</ele><time>2026-04-12T16:22:43Z</time></trkpt><trkpt lat="44.50268594124088" lon="11.821006690538033"><ele>3.0</ele><time>2026-04-12T16:22:44Z</time></trkpt><trkpt lat="44.50261204932266" lon="11.820956108294977"><ele>2.75</ele><time>2026-04-12T16:22:45Z</time></trkpt><trkpt lat="44.50256213895868" lon="11.82089140539653"><ele>2.5</ele><time>2026-04-12T16:22:46Z</time></trkpt><trkpt lat="44.50252139266096" lon="11.820705908319766"><ele>2.25</ele><time>2026-04-12T16:22:48Z</time></trkpt><trkpt lat="44.502514067485855" lon="11.820563218012966"><ele>2.0</ele><time>2026-04-12T16:22:50Z</time></trkpt><trkpt lat="44.50268826221157" lon="11.82049192665047"><ele>2.0</ele><time>2026-04-12T16:22:52Z</time></trkpt><trkpt lat="44.502791910647176" lon="11.820465770145782"><ele>2.0</ele><time>2026-04-12T16:22:53Z</time></trkpt><trkpt lat="44.50289875510571" lon="11.82044584792145"><ele>2.0</ele><time>2026-04-12T16:22:54Z</time></trkpt><trkpt lat="44.50301986382342" lon="11.820423794276781"><ele>2.0</ele><time>2026-04-12T16:22:55Z</time></trkpt><trkpt lat="44.50314393296455" lon="11.820405944076121"><ele>1.75</ele><time>2026-04-12T16:22:56Z</time></trkpt><trkpt lat="44.503274716530036" lon="11.82038301029029"><ele>1.5</ele><time>2026-04-12T16:22:57Z</time></trkpt><trkpt lat="44.50342137225357" lon="11.820354384935687"><ele>1.25</ele><time>2026-04-12T16:22:58Z</time></trkpt><trkpt lat="44.503580115051086" lon="11.820321303806187"><ele>1.0</ele><time>2026-04-12T16:22:59Z</time></trkpt><trkpt lat="44.50373182943067" lon="11.820293562130466"><ele>1.6666666666666665</ele><time>2026-04-12T16:23:00Z</time></trkpt><trkpt lat="44.503896594187104" lon="11.820262816299174"><ele>2.3333333333333335</ele><time>2026-04-12T16:23:01Z</time></trkpt><trkpt lat="44.504071071459016" lon="11.820235900400112"><ele>3.0</ele><time>2026-04-12T16:23:02Z</time></trkpt><trkpt lat="44.50425823749498" lon="11.82020061806222"><ele>3.0</ele><time>2026-04-12T16:23:03Z</time></trkpt><trkpt lat="44.50445361185341" lon="11.82016778207572"><ele>3.0</ele><time>2026-04-12T16:23:04Z</time></trkpt><trkpt lat="44.50465548206473" lon="11.820135013789395"><ele>3.0</ele><time>2026-04-12T16:23:05Z</time></trkpt><trkpt lat="44.50485215428742" lon="11.820100414585418"><ele>3.0</ele><time>2026-04-12T16:23:06Z</time></trkpt><trkpt lat="44.50501663104986" lon="11.820073699271674"><ele>3.0</ele><time>2026-04-12T16:23:07Z</time></trkpt><trkpt lat="44.50517287360324" lon="11.820044756646324"><ele>3.0</ele><time>2026-04-12T16:23:08Z</time></trkpt><trkpt lat="44.50531550817115" lon="11.820021062087589"><ele>2.75</ele><time>2026-04-12T16:23:09Z</time></trkpt><trkpt lat="44.50545319300099" lon="11.819996457618554"><ele>2.5</ele><time>2026-04-12T16:23:10Z</time></trkpt><trkpt lat="44.505593359278656" lon="11.819971210633097"><ele>2.25</ele><time>2026-04-12T16:23:11Z</time></trkpt><trkpt lat="44.50572218641104" lon="11.819951390795117"><ele>2.0</ele><time>2026-04-12T16:23:12Z</time></trkpt><trkpt lat="44.50584011089159" lon="11.819932174874602"><ele>2.0</ele><time>2026-04-12T16:23:13Z</time></trkpt><trkpt lat="44.505939911754396" lon="11.819913267640208"><ele>2.0</ele><time>2026-04-12T16:23:14Z</time></trkpt><trkpt lat="44.506027487029066" lon="11.819898306630215"><ele>2.0</ele><time>2026-04-12T16:23:15Z</time></trkpt><trkpt lat="44.50610142298292" lon="11.819884561314222"><ele>2.0</ele><time>2026-04-12T16:23:16Z</time></trkpt><trkpt lat="44.50616666893315" lon="11.819889339362431"><ele>2.0</ele><time>2026-04-12T16:23:17Z</time></trkpt><trkpt lat="44.50621985585361" lon="11.819678589854608"><ele>2.0</ele><time>2026-04-12T16:23:19Z</time></trkpt><trkpt lat="44.50623148599027" lon="11.819551537203365"><ele>2.0</ele><time>2026-04-12T16:23:20Z</time></trkpt><trkpt lat="44.506241001678596" lon="11.819413982914183"><ele>2.0</ele><time>2026-04-12T16:23:21Z</time></trkpt><trkpt lat="44.50626019802499" lon="11.819240031098698"><ele>2.0</ele><time>2026-04-12T16:23:22Z</time></trkpt><trkpt lat="44.506289530491884" lon="11.81906006127427"><ele>2.0</ele><time>2026-04-12T16:23:23Z</time></trkpt><trkpt lat="44.50631648706036" lon="11.818911831062964"><ele>2.0</ele><time>2026-04-12T16:23:24Z</time></trkpt><trkpt lat="44.50634798588237" lon="11.818760989383488"><ele>2.0</ele><time>2026-04-12T16:23:25Z</time></trkpt><trkpt lat="44.50638762862016" lon="11.818589021243843"><ele>2.0</ele><time>2026-04-12T16:23:26Z</time></trkpt><trkpt lat="44.50643717154918" lon="11.81839680037573"><ele>2.0</ele><time>2026-04-12T16:23:27Z</time></trkpt><trkpt lat="44.50648367777697" lon="11.818196930543614"><ele>2.0</ele><time>2026-04-12T16:23:28Z</time></trkpt><trkpt lat="44.50652983584479" lon="11.817991875239112"><ele>2.0</ele><time>2026-04-12T16:23:29Z</time></trkpt><trkpt lat="44.50658429426539" lon="11.817769022047326"><ele>2.0</ele><time>2026-04-12T16:23:30Z</time></trkpt><trkpt lat="44.50664119934127" lon="11.81754112534014"><ele>2.0</ele><time>2026-04-12T16:23:31Z</time></trkpt><trkpt lat="44.50669717235892" lon="11.817317671332823"><ele>2.0</ele><time>2026-04-12T16:23:32Z</time></trkpt><trkpt lat="44.50675777469404" lon="11.817081647975783"><ele>2.0</ele><time>2026-04-12T16:23:33Z</time></trkpt><trkpt lat="44.50681949840942" lon="11.816826650582735"><ele>2.333333333333333</ele><time>2026-04-12T16:23:34Z</time></trkpt><trkpt lat="44.506881512970146" lon="11.816565447473419"><ele>2.6666666666666665</ele><time>2026-04-12T16:23:35Z</time></trkpt><trkpt lat="44.50694532961851" lon="11.816298873291002"><ele>3.0</ele><time>2026-04-12T16:23:36Z</time></trkpt><trkpt lat="44.50701129509789" lon="11.816029837154582"><ele>3.0</ele><time>2026-04-12T16:23:37Z</time></trkpt><trkpt lat="44.50707717444268" lon="11.81575762015539"><ele>3.0</ele><time>2026-04-12T16:23:38Z</time></trkpt><trkpt lat="44.5071430859354" lon="11.815483698150084"><ele>3.0</ele><time>2026-04-12T16:23:39Z</time></trkpt><trkpt lat="44.507209236235276" lon="11.815205630872207"><ele>3.333333333333333</ele><time>2026-04-12T16:23:40Z</time></trkpt><trkpt lat="44.50727159574114" lon="11.814933845362852"><ele>3.6666666666666665</ele><time>2026-04-12T16:23:41Z</time></trkpt><trkpt lat="44.50733149439571" lon="11.814678854603303"><ele>4.0</ele><time>2026-04-12T16:23:42Z</time></trkpt><trkpt lat="44.50739800640456" lon="11.814430780613051"><ele>3.6666666666666665</ele><time>2026-04-12T16:23:43Z</time></trkpt><trkpt lat="44.50745938920652" lon="11.814173443854301"><ele>3.333333333333333</ele><time>2026-04-12T16:23:44Z</time></trkpt><trkpt lat="44.507522335513144" lon="11.813920838259705"><ele>3.0</ele><time>2026-04-12T16:23:45Z</time></trkpt><trkpt lat="44.50758490599983" lon="11.813663687774339"><ele>3.0</ele><time>2026-04-12T16:23:46Z</time></trkpt><trkpt lat="44.50764808570535" lon="11.81341138130514"><ele>3.0</ele><time>2026-04-12T16:23:47Z</time></trkpt><trkpt lat="44.50770996584558" lon="11.813158793004842"><ele>3.0</ele><time>2026-04-12T16:23:48Z</time></trkpt><trkpt lat="44.5077757068475" lon="11.812895028182188"><ele>3.333333333333333</ele><time>2026-04-12T16:23:49Z</time></trkpt><trkpt lat="44.50783721045182" lon="11.812655775384513"><ele>3.6666666666666665</ele><time>2026-04-12T16:23:50Z</time></trkpt><trkpt lat="44.50789997771179" lon="11.812412023052618"><ele>4.0</ele><time>2026-04-12T16:23:51Z</time></trkpt><trkpt lat="44.50796756993631" lon="11.812171498913877"><ele>4.5</ele><time>2026-04-12T16:23:51.999Z</time></trkpt><trkpt lat="44.50804164443141" lon="11.811943483471378"><ele>5.0</ele><time>2026-04-12T16:23:52.999Z</time></trkpt><trkpt lat="44.50821986181432" lon="11.811463917325856"><ele>5.0</ele><time>2026-04-12T16:23:54.999Z</time></trkpt><trkpt lat="44.508317275392564" lon="11.811223146610462"><ele>5.0</ele><time>2026-04-12T16:23:55.999Z</time></trkpt><trkpt lat="44.50842090486401" lon="11.810985244334033"><ele>5.0</ele><time>2026-04-12T16:23:56.999Z</time></trkpt><trkpt lat="44.508540550661074" lon="11.810733580217837"><ele>5.0</ele><time>2026-04-12T16:23:57.999Z</time></trkpt><trkpt lat="44.50864600186079" lon="11.810511017184254"><ele>5.0</ele><time>2026-04-12T16:23:58.999Z</time></trkpt><trkpt lat="44.508763439778974" lon="11.810275809895312"><ele>5.0</ele><time>2026-04-12T16:23:59.999Z</time></trkpt><trkpt lat="44.508877093090504" lon="11.810037528535013"><ele>5.0</ele><time>2026-04-12T16:24:00.999Z</time></trkpt><trkpt lat="44.50899192062996" lon="11.809803988501786"><ele>5.0</ele><time>2026-04-12T16:24:01.999Z</time></trkpt><trkpt lat="44.50910532510957" lon="11.809574567921821"><ele>5.0</ele><time>2026-04-12T16:24:02.999Z</time></trkpt><trkpt lat="44.50922957455169" lon="11.809348658988757"><ele>5.0</ele><time>2026-04-12T16:24:03.999Z</time></trkpt><trkpt lat="44.50934717615782" lon="11.809117123287152"><ele>5.0</ele><time>2026-04-12T16:24:04.999Z</time></trkpt><trkpt lat="44.50946700688739" lon="11.80888576098328"><ele>5.0</ele><time>2026-04-12T16:24:05.999Z</time></trkpt><trkpt lat="44.509584399559635" lon="11.808657304932103"><ele>4.0</ele><time>2026-04-12T16:24:06.999Z</time></trkpt><trkpt lat="44.509827432195486" lon="11.808198012928534"><ele>3.0</ele><time>2026-04-12T16:24:08.999Z</time></trkpt><trkpt lat="44.50993958638154" lon="11.807989200002027"><ele>3.0</ele><time>2026-04-12T16:24:09.999Z</time></trkpt><trkpt lat="44.51005588316308" lon="11.807766625483632"><ele>3.0</ele><time>2026-04-12T16:24:11Z</time></trkpt><trkpt lat="44.51017079126422" lon="11.807546584275126"><ele>3.0</ele><time>2026-04-12T16:24:12Z</time></trkpt><trkpt lat="44.51028947861733" lon="11.807324898612896"><ele>3.666666666666667</ele><time>2026-04-12T16:24:13Z</time></trkpt><trkpt lat="44.51040227396753" lon="11.807106026259188"><ele>4.333333333333334</ele><time>2026-04-12T16:24:14Z</time></trkpt><trkpt lat="44.510525251794334" lon="11.806880242599288"><ele>5.0</ele><time>2026-04-12T16:24:15Z</time></trkpt><trkpt lat="44.5106441803062" lon="11.806659932661592"><ele>5.333333333333334</ele><time>2026-04-12T16:24:16Z</time></trkpt><trkpt lat="44.51075607532598" lon="11.806448527114625"><ele>5.666666666666667</ele><time>2026-04-12T16:24:17Z</time></trkpt><trkpt lat="44.51086981885868" lon="11.806233771288596"><ele>6.0</ele><time>2026-04-12T16:24:18Z</time></trkpt><trkpt lat="44.51097535013627" lon="11.806035267739112"><ele>6.0</ele><time>2026-04-12T16:24:19Z</time></trkpt><trkpt lat="44.51108097366913" lon="11.805837610498129"><ele>6.0</ele><time>2026-04-12T16:24:20Z</time></trkpt><trkpt lat="44.511187138131234" lon="11.805636223761972"><ele>6.0</ele><time>2026-04-12T16:24:21Z</time></trkpt><trkpt lat="44.51129717020745" lon="11.805428568749866"><ele>5.666666666666667</ele><time>2026-04-12T16:24:22Z</time></trkpt><trkpt lat="44.51140248676221" lon="11.805222559228376"><ele>5.333333333333334</ele><time>2026-04-12T16:24:23Z</time></trkpt><trkpt lat="44.51150557580267" lon="11.805021294277942"><ele>5.0</ele><time>2026-04-12T16:24:24Z</time></trkpt><trkpt lat="44.51161472621644" lon="11.804817429688823"><ele>5.666666666666667</ele><time>2026-04-12T16:24:25Z</time></trkpt><trkpt lat="44.51172035410345" lon="11.804610836366056"><ele>6.333333333333334</ele><time>2026-04-12T16:24:26Z</time></trkpt><trkpt lat="44.51182342112623" lon="11.80440556312397"><ele>7.0</ele><time>2026-04-12T16:24:27Z</time></trkpt><trkpt lat="44.511932688061364" lon="11.804187252628232"><ele>7.0</ele><time>2026-04-12T16:24:28Z</time></trkpt><trkpt lat="44.51204279083383" lon="11.803964513777695"><ele>7.0</ele><time>2026-04-12T16:24:29Z</time></trkpt><trkpt lat="44.512162701603486" lon="11.803737187313045"><ele>7.0</ele><time>2026-04-12T16:24:30Z</time></trkpt><trkpt lat="44.51228309062166" lon="11.803512607540524"><ele>7.0</ele><time>2026-04-12T16:24:31Z</time></trkpt><trkpt lat="44.51240972762244" lon="11.80328241334254"><ele>7.0</ele><time>2026-04-12T16:24:32Z</time></trkpt><trkpt lat="44.51253608800045" lon="11.803049585707885"><ele>7.0</ele><time>2026-04-12T16:24:33Z</time></trkpt><trkpt lat="44.5126600405302" lon="11.802819858049471"><ele>7.0</ele><time>2026-04-12T16:24:34Z</time></trkpt><trkpt lat="44.512779223835786" lon="11.802591700318903"><ele>7.0</ele><time>2026-04-12T16:24:35Z</time></trkpt><trkpt lat="44.51290668910077" lon="11.802361658508202"><ele>7.0</ele><time>2026-04-12T16:24:36Z</time></trkpt><trkpt lat="44.51302928143784" lon="11.80213307150125"><ele>7.0</ele><time>2026-04-12T16:24:37Z</time></trkpt><trkpt lat="44.513154537493065" lon="11.80190273908982"><ele>7.0</ele><time>2026-04-12T16:24:38Z</time></trkpt><trkpt lat="44.51328016964739" lon="11.801674203016024"><ele>7.0</ele><time>2026-04-12T16:24:39Z</time></trkpt><trkpt lat="44.513403625730255" lon="11.801446808551612"><ele>6.666666666666667</ele><time>2026-04-12T16:24:40Z</time></trkpt><trkpt lat="44.513526270360664" lon="11.801217143157867"><ele>6.333333333333334</ele><time>2026-04-12T16:24:41Z</time></trkpt><trkpt lat="44.513649299552704" lon="11.800986647914112"><ele>6.0</ele><time>2026-04-12T16:24:42Z</time></trkpt><trkpt lat="44.51377472972176" lon="11.800755360977293"><ele>5.666666666666667</ele><time>2026-04-12T16:24:43Z</time></trkpt><trkpt lat="44.51390119140544" lon="11.800524908231768"><ele>5.333333333333334</ele><time>2026-04-12T16:24:44Z</time></trkpt><trkpt lat="44.51402792822876" lon="11.800292651766597"><ele>5.0</ele><time>2026-04-12T16:24:45Z</time></trkpt><trkpt lat="44.51415426939745" lon="11.80006184907146"><ele>5.666666666666667</ele><time>2026-04-12T16:24:46Z</time></trkpt><trkpt lat="44.514279613476035" lon="11.799831458563498"><ele>6.333333333333334</ele><time>2026-04-12T16:24:47Z</time></trkpt><trkpt lat="44.51440736386892" lon="11.799600804355919"><ele>7.0</ele><time>2026-04-12T16:24:48Z</time></trkpt><trkpt lat="44.51453247354972" lon="11.799368318132055"><ele>6.666666666666667</ele><time>2026-04-12T16:24:49Z</time></trkpt><trkpt lat="44.51465913187576" lon="11.799137995629014"><ele>6.333333333333334</ele><time>2026-04-12T16:24:50Z</time></trkpt><trkpt lat="44.51478181228672" lon="11.798907798720538"><ele>6.0</ele><time>2026-04-12T16:24:51Z</time></trkpt><trkpt lat="44.514905571827455" lon="11.798678071436182"><ele>6.333333333333334</ele><time>2026-04-12T16:24:52Z</time></trkpt><trkpt lat="44.51503134338254" lon="11.79844791627937"><ele>6.666666666666667</ele><time>2026-04-12T16:24:53Z</time></trkpt><trkpt lat="44.515157616502485" lon="11.79821737166247"><ele>7.0</ele><time>2026-04-12T16:24:54Z</time></trkpt><trkpt lat="44.515281721882666" lon="11.79798685630416"><ele>7.0</ele><time>2026-04-12T16:24:55Z</time></trkpt><trkpt lat="44.515407249153334" lon="11.797755487808374"><ele>7.0</ele><time>2026-04-12T16:24:56Z</time></trkpt><trkpt lat="44.515533618591036" lon="11.797521992222913"><ele>7.0</ele><time>2026-04-12T16:24:57Z</time></trkpt><trkpt lat="44.51566050265835" lon="11.797290449515412"><ele>7.0</ele><time>2026-04-12T16:24:58Z</time></trkpt><trkpt lat="44.51578857642463" lon="11.797060375902515"><ele>7.0</ele><time>2026-04-12T16:24:59Z</time></trkpt><trkpt lat="44.51591529594988" lon="11.796829694389192"><ele>7.0</ele><time>2026-04-12T16:25:00Z</time></trkpt><trkpt lat="44.51604108990549" lon="11.796595073707994"><ele>7.333333333333334</ele><time>2026-04-12T16:25:01Z</time></trkpt><trkpt lat="44.51616264785849" lon="11.796363115602198"><ele>7.666666666666666</ele><time>2026-04-12T16:25:02Z</time></trkpt><trkpt lat="44.51628878745426" lon="11.796131123463956"><ele>8.0</ele><time>2026-04-12T16:25:03Z</time></trkpt><trkpt lat="44.51641341533202" lon="11.795898813148012"><ele>7.0</ele><time>2026-04-12T16:25:04Z</time></trkpt><trkpt lat="44.51653584250468" lon="11.795670992375545"><ele>6.0</ele><time>2026-04-12T16:25:05Z</time></trkpt><trkpt lat="44.51665896011421" lon="11.795439262348369"><ele>5.0</ele><time>2026-04-12T16:25:06Z</time></trkpt><trkpt lat="44.51678141712355" lon="11.795210478497264"><ele>5.0</ele><time>2026-04-12T16:25:07Z</time></trkpt><trkpt lat="44.51690814693618" lon="11.794977470262495"><ele>5.0</ele><time>2026-04-12T16:25:08Z</time></trkpt><trkpt lat="44.517034868145764" lon="11.794747200111185"><ele>5.0</ele><time>2026-04-12T16:25:09Z</time></trkpt><trkpt lat="44.51716313878458" lon="11.794514448957893"><ele>5.666666666666667</ele><time>2026-04-12T16:25:10Z</time></trkpt><trkpt lat="44.51728759741557" lon="11.79427942457827"><ele>6.333333333333334</ele><time>2026-04-12T16:25:11Z</time></trkpt><trkpt lat="44.51741495386122" lon="11.794042555683284"><ele>7.0</ele><time>2026-04-12T16:25:12Z</time></trkpt><trkpt lat="44.517542253548726" lon="11.793808889762449"><ele>7.0</ele><time>2026-04-12T16:25:13Z</time></trkpt><trkpt lat="44.51766817077026" lon="11.793575290807762"><ele>7.0</ele><time>2026-04-12T16:25:14Z</time></trkpt><trkpt lat="44.517792183637205" lon="11.793344517165616"><ele>7.0</ele><time>2026-04-12T16:25:15Z</time></trkpt><trkpt lat="44.51791747575963" lon="11.793112347143637"><ele>7.0</ele><time>2026-04-12T16:25:16Z</time></trkpt><trkpt lat="44.51804135397422" lon="11.792880229547109"><ele>7.0</ele><time>2026-04-12T16:25:17Z</time></trkpt><trkpt lat="44.51816804628276" lon="11.792646502629848"><ele>7.0</ele><time>2026-04-12T16:25:18Z</time></trkpt><trkpt lat="44.518291851090524" lon="11.792414482247134"><ele>7.0</ele><time>2026-04-12T16:25:19Z</time></trkpt><trkpt lat="44.518416507763284" lon="11.792181905051535"><ele>7.0</ele><time>2026-04-12T16:25:20Z</time></trkpt><trkpt lat="44.51854180482628" lon="11.791950829262499"><ele>7.0</ele><time>2026-04-12T16:25:21Z</time></trkpt><trkpt lat="44.51866706945171" lon="11.791717663728557"><ele>6.333333333333334</ele><time>2026-04-12T16:25:22Z</time></trkpt><trkpt lat="44.518791903433154" lon="11.791484278252836"><ele>5.666666666666667</ele><time>2026-04-12T16:25:22.999Z</time></trkpt><trkpt lat="44.51891686342387" lon="11.791250999867772"><ele>5.0</ele><time>2026-04-12T16:25:23.999Z</time></trkpt><trkpt lat="44.519042882357446" lon="11.791021510522027"><ele>5.666666666666667</ele><time>2026-04-12T16:25:24.999Z</time></trkpt><trkpt lat="44.5191680943662" lon="11.790793233350424"><ele>6.333333333333334</ele><time>2026-04-12T16:25:25.999Z</time></trkpt><trkpt lat="44.51929078950008" lon="11.790564956331865"><ele>7.0</ele><time>2026-04-12T16:25:26.999Z</time></trkpt><trkpt lat="44.519412046823675" lon="11.790336399055336"><ele>7.0</ele><time>2026-04-12T16:25:27.999Z</time></trkpt><trkpt lat="44.519537042704755" lon="11.790106845265143"><ele>7.0</ele><time>2026-04-12T16:25:28.999Z</time></trkpt><trkpt lat="44.51966197269217" lon="11.789877501330055"><ele>7.0</ele><time>2026-04-12T16:25:29.999Z</time></trkpt><trkpt lat="44.51978432731534" lon="11.789650968927639"><ele>6.333333333333334</ele><time>2026-04-12T16:25:30.999Z</time></trkpt><trkpt lat="44.51990843469318" lon="11.78942179621728"><ele>5.666666666666667</ele><time>2026-04-12T16:25:31.999Z</time></trkpt><trkpt lat="44.52003119974562" lon="11.789191030128013"><ele>5.0</ele><time>2026-04-12T16:25:32.999Z</time></trkpt><trkpt lat="44.52015614489342" lon="11.78896163415297"><ele>5.0</ele><time>2026-04-12T16:25:33.999Z</time></trkpt><trkpt lat="44.52027998692683" lon="11.78873155903137"><ele>5.0</ele><time>2026-04-12T16:25:34.999Z</time></trkpt><trkpt lat="44.52040202852317" lon="11.78850180651125"><ele>5.0</ele><time>2026-04-12T16:25:35.999Z</time></trkpt><trkpt lat="44.520523255733636" lon="11.788273575990491"><ele>5.0</ele><time>2026-04-12T16:25:36.999Z</time></trkpt><trkpt lat="44.520646607761236" lon="11.788046810663984"><ele>5.0</ele><time>2026-04-12T16:25:37.999Z</time></trkpt><trkpt lat="44.52077112743401" lon="11.787816688180841"><ele>5.0</ele><time>2026-04-12T16:25:38.999Z</time></trkpt><trkpt lat="44.520894461818756" lon="11.78758794452445"><ele>5.0</ele><time>2026-04-12T16:25:39.999Z</time></trkpt><trkpt lat="44.52102041819408" lon="11.787361115889013"><ele>5.0</ele><time>2026-04-12T16:25:40.999Z</time></trkpt><trkpt lat="44.52114457353382" lon="11.78712442120963"><ele>5.0</ele><time>2026-04-12T16:25:41.999Z</time></trkpt><trkpt lat="44.52126910775064" lon="11.786898083128461"><ele>5.0</ele><time>2026-04-12T16:25:42.999Z</time></trkpt><trkpt lat="44.52139548461624" lon="11.786669080558621"><ele>5.0</ele><time>2026-04-12T16:25:43.999Z</time></trkpt><trkpt lat="44.5215193215176" lon="11.786440574289836"><ele>5.0</ele><time>2026-04-12T16:25:44.999Z</time></trkpt><trkpt lat="44.521643013879135" lon="11.786208341295811"><ele>5.0</ele><time>2026-04-12T16:25:45.999Z</time></trkpt><trkpt lat="44.52176756162449" lon="11.785979828242516"><ele>5.0</ele><time>2026-04-12T16:25:46.999Z</time></trkpt><trkpt lat="44.521893164206524" lon="11.78574731110601"><ele>5.0</ele><time>2026-04-12T16:25:47.999Z</time></trkpt><trkpt lat="44.52201466249042" lon="11.785519298138222"><ele>5.0</ele><time>2026-04-12T16:25:48.999Z</time></trkpt><trkpt lat="44.52213932013694" lon="11.78528661192388"><ele>5.0</ele><time>2026-04-12T16:25:49.999Z</time></trkpt><trkpt lat="44.522264362067766" lon="11.785052220380338"><ele>5.0</ele><time>2026-04-12T16:25:50.999Z</time></trkpt><trkpt lat="44.52238844826294" lon="11.784821902914697"><ele>5.666666666666667</ele><time>2026-04-12T16:25:51.999Z</time></trkpt><trkpt lat="44.52251327547763" lon="11.784596030415695"><ele>6.333333333333334</ele><time>2026-04-12T16:25:52.999Z</time></trkpt><trkpt lat="44.5226309472507" lon="11.784381666751058"><ele>7.0</ele><time>2026-04-12T16:25:53.999Z</time></trkpt><trkpt lat="44.522738735498045" lon="11.784184729225872"><ele>7.0</ele><time>2026-04-12T16:25:54.999Z</time></trkpt><trkpt lat="44.522843858986434" lon="11.783992402443678"><ele>7.0</ele><time>2026-04-12T16:25:55.999Z</time></trkpt><trkpt lat="44.52294889334315" lon="11.783801188891577"><ele>7.0</ele><time>2026-04-12T16:25:56.999Z</time></trkpt><trkpt lat="44.523055817923385" lon="11.78360595895576"><ele>6.666666666666667</ele><time>2026-04-12T16:25:57.999Z</time></trkpt><trkpt lat="44.52316300918835" lon="11.78341417687168"><ele>6.333333333333334</ele><time>2026-04-12T16:25:58.999Z</time></trkpt><trkpt lat="44.52327153359316" lon="11.783220521630428"><ele>6.0</ele><time>2026-04-12T16:25:59.999Z</time></trkpt><trkpt lat="44.52338106109263" lon="11.783018880309932"><ele>6.0</ele><time>2026-04-12T16:26:00.999Z</time></trkpt><trkpt lat="44.52349445687125" lon="11.782814041426665"><ele>6.0</ele><time>2026-04-12T16:26:01.999Z</time></trkpt><trkpt lat="44.52359998427773" lon="11.782612152937206"><ele>6.0</ele><time>2026-04-12T16:26:02.999Z</time></trkpt><trkpt lat="44.523701938847324" lon="11.782433668034198"><ele>6.0</ele><time>2026-04-12T16:26:03.999Z</time></trkpt><trkpt lat="44.52379453913451" lon="11.782259533134484"><ele>6.0</ele><time>2026-04-12T16:26:04.999Z</time></trkpt><trkpt lat="44.5238865530644" lon="11.782099027619479"><ele>6.0</ele><time>2026-04-12T16:26:05.999Z</time></trkpt><trkpt lat="44.52396632786863" lon="11.781951798278211"><ele>6.0</ele><time>2026-04-12T16:26:06.999Z</time></trkpt><trkpt lat="44.524044042907015" lon="11.781810306410238"><ele>6.0</ele><time>2026-04-12T16:26:07.999Z</time></trkpt><trkpt lat="44.524117295074966" lon="11.781678496381954"><ele>6.0</ele><time>2026-04-12T16:26:08.999Z</time></trkpt><trkpt lat="44.52418980426705" lon="11.781546519258354"><ele>6.0</ele><time>2026-04-12T16:26:09.999Z</time></trkpt><trkpt lat="44.524260074086726" lon="11.781418551397312"><ele>6.0</ele><time>2026-04-12T16:26:10.999Z</time></trkpt><trkpt lat="44.52432736260798" lon="11.781287634147493"><ele>6.0</ele><time>2026-04-12T16:26:11.999Z</time></trkpt><trkpt lat="44.52438342722449" lon="11.781193053116894"><ele>6.0</ele><time>2026-04-12T16:26:12.999Z</time></trkpt><trkpt lat="44.52443108734549" lon="11.781103234838902"><ele>6.0</ele><time>2026-04-12T16:26:13.999Z</time></trkpt><trkpt lat="44.52447201775018" lon="11.781025122860129"><ele>6.0</ele><time>2026-04-12T16:26:14.999Z</time></trkpt><trkpt lat="44.52452854019832" lon="11.780927390380201"><ele>6.0</ele><time>2026-04-12T16:26:16.999Z</time></trkpt><trkpt lat="44.5246042855594" lon="11.78085631589032"><ele>6.0</ele><time>2026-04-12T16:26:20.999Z</time></trkpt><trkpt lat="44.52464770727155" lon="11.780697714121928"><ele>6.166666666666667</ele><time>2026-04-12T16:26:22.999Z</time></trkpt><trkpt lat="44.52466668742499" lon="11.78059538967729"><ele>6.333333333333334</ele><time>2026-04-12T16:26:24Z</time></trkpt><trkpt lat="44.52469349423441" lon="11.78046540880291"><ele>6.5</ele><time>2026-04-12T16:26:25Z</time></trkpt><trkpt lat="44.52471773182608" lon="11.780333404347058"><ele>6.666666666666667</ele><time>2026-04-12T16:26:26Z</time></trkpt><trkpt lat="44.524734559635625" lon="11.78022520507094"><ele>6.833333333333334</ele><time>2026-04-12T16:26:27Z</time></trkpt><trkpt lat="44.52475252597691" lon="11.780105578588092"><ele>7.0</ele><time>2026-04-12T16:26:28Z</time></trkpt><trkpt lat="44.52477824786337" lon="11.779950236288794"><ele>7.0</ele><time>2026-04-12T16:26:29Z</time></trkpt><trkpt lat="44.52481123228331" lon="11.779767628671273"><ele>7.0</ele><time>2026-04-12T16:26:30Z</time></trkpt><trkpt lat="44.52484500495272" lon="11.779555593592875"><ele>7.0</ele><time>2026-04-12T16:26:31Z</time></trkpt><trkpt lat="44.5248832554469" lon="11.779310851754396"><ele>6.666666666666667</ele><time>2026-04-12T16:26:32Z</time></trkpt><trkpt lat="44.52492745947049" lon="11.779020678856474"><ele>6.333333333333334</ele><time>2026-04-12T16:26:33Z</time></trkpt><trkpt lat="44.52497044624587" lon="11.778745155728833"><ele>6.0</ele><time>2026-04-12T16:26:34Z</time></trkpt><trkpt lat="44.525016038741974" lon="11.778468347049486"><ele>6.0</ele><time>2026-04-12T16:26:35Z</time></trkpt><trkpt lat="44.525060151518176" lon="11.778199737784318"><ele>6.0</ele><time>2026-04-12T16:26:36Z</time></trkpt><trkpt lat="44.525104573894026" lon="11.777915944741627"><ele>6.0</ele><time>2026-04-12T16:26:37Z</time></trkpt><trkpt lat="44.52514929198371" lon="11.77763560915807"><ele>6.0</ele><time>2026-04-12T16:26:38Z</time></trkpt><trkpt lat="44.52519528815065" lon="11.77734359149013"><ele>6.0</ele><time>2026-04-12T16:26:39Z</time></trkpt><trkpt lat="44.52524285208437" lon="11.777041680734701"><ele>6.0</ele><time>2026-04-12T16:26:40Z</time></trkpt><trkpt lat="44.52529627866017" lon="11.776722440540269"><ele>6.0</ele><time>2026-04-12T16:26:41Z</time></trkpt><trkpt lat="44.525347597077285" lon="11.776401408593363"><ele>6.0</ele><time>2026-04-12T16:26:42Z</time></trkpt><trkpt lat="44.525393460446416" lon="11.776103264357126"><ele>5.333333333333333</ele><time>2026-04-12T16:26:43Z</time></trkpt><trkpt lat="44.52543789093117" lon="11.775830000184953"><ele>4.666666666666666</ele><time>2026-04-12T16:26:44Z</time></trkpt><trkpt lat="44.52548144542967" lon="11.775558832700515"><ele>4.0</ele><time>2026-04-12T16:26:45Z</time></trkpt><trkpt lat="44.525525110202715" lon="11.775290089860741"><ele>4.333333333333333</ele><time>2026-04-12T16:26:46Z</time></trkpt><trkpt lat="44.52556968252029" lon="11.775011504452063"><ele>4.666666666666667</ele><time>2026-04-12T16:26:47Z</time></trkpt><trkpt lat="44.52561714159279" lon="11.774727973966819"><ele>5.0</ele><time>2026-04-12T16:26:48Z</time></trkpt><trkpt lat="44.525665229548196" lon="11.774444281630261"><ele>5.666666666666667</ele><time>2026-04-12T16:26:49Z</time></trkpt><trkpt lat="44.52571179421936" lon="11.774162442937921"><ele>6.333333333333334</ele><time>2026-04-12T16:26:50Z</time></trkpt><trkpt lat="44.52575692567563" lon="11.773874422534584"><ele>7.0</ele><time>2026-04-12T16:26:51Z</time></trkpt><trkpt lat="44.52580277747353" lon="11.773587244478763"><ele>7.0</ele><time>2026-04-12T16:26:52Z</time></trkpt><trkpt lat="44.52584937642023" lon="11.77329912740743"><ele>7.0</ele><time>2026-04-12T16:26:53Z</time></trkpt><trkpt lat="44.525895534779366" lon="11.773015213006476"><ele>7.0</ele><time>2026-04-12T16:26:54Z</time></trkpt><trkpt lat="44.525942394667474" lon="11.772724328447863"><ele>6.333333333333334</ele><time>2026-04-12T16:26:55Z</time></trkpt><trkpt lat="44.52598816812365" lon="11.772432541628636"><ele>5.666666666666667</ele><time>2026-04-12T16:26:56Z</time></trkpt><trkpt lat="44.52603649962059" lon="11.772139590358499"><ele>5.0</ele><time>2026-04-12T16:26:57Z</time></trkpt><trkpt lat="44.526084517022575" lon="11.771853110212053"><ele>5.0</ele><time>2026-04-12T16:26:58Z</time></trkpt><trkpt lat="44.52612986738071" lon="11.771554509501648"><ele>5.0</ele><time>2026-04-12T16:26:59Z</time></trkpt><trkpt lat="44.526177008776266" lon="11.771260932209938"><ele>5.0</ele><time>2026-04-12T16:27:00Z</time></trkpt><trkpt lat="44.52622415352195" lon="11.77095999436184"><ele>5.333333333333334</ele><time>2026-04-12T16:27:01Z</time></trkpt><trkpt lat="44.5262717592859" lon="11.770667920650286"><ele>5.666666666666667</ele><time>2026-04-12T16:27:02Z</time></trkpt><trkpt lat="44.52632053480136" lon="11.770371987594128"><ele>6.0</ele><time>2026-04-12T16:27:03Z</time></trkpt><trkpt lat="44.52637016017216" lon="11.770075447683741"><ele>6.0</ele><time>2026-04-12T16:27:04Z</time></trkpt><trkpt lat="44.52641729685551" lon="11.769777451552194"><ele>6.0</ele><time>2026-04-12T16:27:05Z</time></trkpt><trkpt lat="44.52646448790162" lon="11.769481603123994"><ele>6.0</ele><time>2026-04-12T16:27:06Z</time></trkpt><trkpt lat="44.52651191457231" lon="11.769184333097456"><ele>6.0</ele><time>2026-04-12T16:27:07Z</time></trkpt><trkpt lat="44.52655810499551" lon="11.76889140481679"><ele>6.0</ele><time>2026-04-12T16:27:08Z</time></trkpt><trkpt lat="44.52660513677682" lon="11.768600149826959"><ele>6.0</ele><time>2026-04-12T16:27:09Z</time></trkpt><trkpt lat="44.5266517978667" lon="11.768310584016042"><ele>6.0</ele><time>2026-04-12T16:27:10Z</time></trkpt><trkpt lat="44.52669865210502" lon="11.76802118002712"><ele>6.0</ele><time>2026-04-12T16:27:11Z</time></trkpt><trkpt lat="44.526746120719835" lon="11.76773511355529"><ele>6.0</ele><time>2026-04-12T16:27:12Z</time></trkpt><trkpt lat="44.52679028752371" lon="11.767462471943203"><ele>6.0</ele><time>2026-04-12T16:27:13Z</time></trkpt><trkpt lat="44.52683090244014" lon="11.767213053593622"><ele>6.0</ele><time>2026-04-12T16:27:14Z</time></trkpt><trkpt lat="44.526868554490726" lon="11.766973352228824"><ele>6.0</ele><time>2026-04-12T16:27:15Z</time></trkpt><trkpt lat="44.52690534044267" lon="11.766744420207088"><ele>6.0</ele><time>2026-04-12T16:27:16Z</time></trkpt><trkpt lat="44.52694312134411" lon="11.766525620450903"><ele>6.0</ele><time>2026-04-12T16:27:17Z</time></trkpt><trkpt lat="44.52697958959209" lon="11.766304400289645"><ele>6.0</ele><time>2026-04-12T16:27:18Z</time></trkpt><trkpt lat="44.527015735555175" lon="11.766089558204687"><ele>6.25</ele><time>2026-04-12T16:27:19Z</time></trkpt><trkpt lat="44.52704956248915" lon="11.765891620954099"><ele>6.5</ele><time>2026-04-12T16:27:20Z</time></trkpt><trkpt lat="44.52707927586798" lon="11.765710074383003"><ele>6.75</ele><time>2026-04-12T16:27:21Z</time></trkpt><trkpt lat="44.52710046153991" lon="11.765541235508222"><ele>7.0</ele><time>2026-04-12T16:27:22Z</time></trkpt><trkpt lat="44.5271234567085" lon="11.765396572830833"><ele>7.199999999999999</ele><time>2026-04-12T16:27:23Z</time></trkpt><trkpt lat="44.52714364969199" lon="11.76527136463398"><ele>7.3999999999999995</ele><time>2026-04-12T16:27:24Z</time></trkpt><trkpt lat="44.527162887514166" lon="11.765156044517438"><ele>7.6000000000000005</ele><time>2026-04-12T16:27:25Z</time></trkpt><trkpt lat="44.527203053049725" lon="11.7650393288431"><ele>7.800000000000001</ele><time>2026-04-12T16:27:26Z</time></trkpt><trkpt lat="44.52728055268448" lon="11.764930749222504"><ele>8.0</ele><time>2026-04-12T16:27:27Z</time></trkpt><trkpt lat="44.527398672444484" lon="11.764852569731476"><ele>8.25</ele><time>2026-04-12T16:27:28Z</time></trkpt><trkpt lat="44.52753565565527" lon="11.764823982983973"><ele>8.5</ele><time>2026-04-12T16:27:29Z</time></trkpt><trkpt lat="44.52768092074302" lon="11.764813197643097"><ele>8.75</ele><time>2026-04-12T16:27:30Z</time></trkpt><trkpt lat="44.52781602490451" lon="11.764786287073692"><ele>9.0</ele><time>2026-04-12T16:27:31Z</time></trkpt><trkpt lat="44.52792198199941" lon="11.764754105418646"><ele>9.2</ele><time>2026-04-12T16:27:32Z</time></trkpt><trkpt lat="44.528009807725525" lon="11.764731975050875"><ele>9.4</ele><time>2026-04-12T16:27:33Z</time></trkpt><trkpt lat="44.528112007949765" lon="11.764694338502627"><ele>9.6</ele><time>2026-04-12T16:27:35Z</time></trkpt><trkpt lat="44.528132791876686" lon="11.764544943479711"><ele>9.8</ele><time>2026-04-12T16:27:37Z</time></trkpt><trkpt lat="44.528121847589304" lon="11.764438142474111"><ele>10.0</ele><time>2026-04-12T16:27:38Z</time></trkpt><trkpt lat="44.52810313002759" lon="11.764312318633788"><ele>10.2</ele><time>2026-04-12T16:27:39Z</time></trkpt><trkpt lat="44.52808445040111" lon="11.764195678619174"><ele>10.4</ele><time>2026-04-12T16:27:40Z</time></trkpt><trkpt lat="44.52805949610832" lon="11.764034321557055"><ele>10.600000000000001</ele><time>2026-04-12T16:27:42Z</time></trkpt><trkpt lat="44.528090086514446" lon="11.763884833717691"><ele>10.8</ele><time>2026-04-12T16:27:44Z</time></trkpt><trkpt lat="44.5281622324038" lon="11.763837584622646"><ele>11.0</ele><time>2026-04-12T16:27:45Z</time></trkpt><trkpt lat="44.52826747789638" lon="11.763814254731955"><ele>11.0</ele><time>2026-04-12T16:27:46Z</time></trkpt><trkpt lat="44.52838272496336" lon="11.763796240840458"><ele>11.0</ele><time>2026-04-12T16:27:47Z</time></trkpt><trkpt lat="44.52850088573611" lon="11.763767378570563"><ele>11.0</ele><time>2026-04-12T16:27:48Z</time></trkpt><trkpt lat="44.528631239276855" lon="11.76372485031012"><ele>11.0</ele><time>2026-04-12T16:27:49Z</time></trkpt><trkpt lat="44.52875908510341" lon="11.763678753223227"><ele>10.666666666666666</ele><time>2026-04-12T16:27:50Z</time></trkpt><trkpt lat="44.528900273743496" lon="11.763624224099678"><ele>10.333333333333334</ele><time>2026-04-12T16:27:51Z</time></trkpt><trkpt lat="44.529055937135645" lon="11.763559198277267"><ele>10.0</ele><time>2026-04-12T16:27:52Z</time></trkpt><trkpt lat="44.529227122239725" lon="11.763478000686565"><ele>10.0</ele><time>2026-04-12T16:27:53Z</time></trkpt><trkpt lat="44.52941624342516" lon="11.763390691465268"><ele>10.0</ele><time>2026-04-12T16:27:54Z</time></trkpt><trkpt lat="44.529592156359676" lon="11.763309778326494"><ele>10.0</ele><time>2026-04-12T16:27:55Z</time></trkpt><trkpt lat="44.529747272767544" lon="11.763240469799863"><ele>10.0</ele><time>2026-04-12T16:27:56Z</time></trkpt><trkpt lat="44.52989175878128" lon="11.763176827776805"><ele>10.0</ele><time>2026-04-12T16:27:57Z</time></trkpt><trkpt lat="44.530028764369646" lon="11.763113491509179"><ele>10.0</ele><time>2026-04-12T16:27:58Z</time></trkpt><trkpt lat="44.53016108504497" lon="11.763062300845418"><ele>10.0</ele><time>2026-04-12T16:27:59Z</time></trkpt><trkpt lat="44.53029068818496" lon="11.76299857715485"><ele>10.0</ele><time>2026-04-12T16:28:00Z</time></trkpt><trkpt lat="44.53042678958977" lon="11.762943686316886"><ele>10.0</ele><time>2026-04-12T16:28:01Z</time></trkpt><trkpt lat="44.530552184236356" lon="11.762894869700936"><ele>10.0</ele><time>2026-04-12T16:28:02Z</time></trkpt><trkpt lat="44.530666706833266" lon="11.762852432576617"><ele>10.0</ele><time>2026-04-12T16:28:03Z</time></trkpt><trkpt lat="44.53076757679099" lon="11.762816249588221"><ele>10.0</ele><time>2026-04-12T16:28:04Z</time></trkpt><trkpt lat="44.53086681371676" lon="11.76277659131277"><ele>10.0</ele><time>2026-04-12T16:28:05Z</time></trkpt><trkpt lat="44.53095398307449" lon="11.762739073142216"><ele>10.0</ele><time>2026-04-12T16:28:06Z</time></trkpt><trkpt lat="44.531037689574525" lon="11.762698899688036"><ele>10.0</ele><time>2026-04-12T16:28:07Z</time></trkpt><trkpt lat="44.53111498485412" lon="11.762636336484457"><ele>10.0</ele><time>2026-04-12T16:28:08Z</time></trkpt><trkpt lat="44.53118530869631" lon="11.76253436061037"><ele>9.75</ele><time>2026-04-12T16:28:09Z</time></trkpt><trkpt lat="44.53124249813442" lon="11.76238118135758"><ele>9.5</ele><time>2026-04-12T16:28:10Z</time></trkpt><trkpt lat="44.531267823828756" lon="11.762208533394848"><ele>9.25</ele><time>2026-04-12T16:28:11Z</time></trkpt><trkpt lat="44.531272816827034" lon="11.76200081622143"><ele>9.0</ele><time>2026-04-12T16:28:12Z</time></trkpt><trkpt lat="44.53127156413761" lon="11.761809552314972"><ele>9.0</ele><time>2026-04-12T16:28:12.999Z</time></trkpt><trkpt lat="44.53127289305402" lon="11.761593234545337"><ele>9.0</ele><time>2026-04-12T16:28:13.999Z</time></trkpt><trkpt lat="44.531279596920314" lon="11.76135912226819"><ele>9.0</ele><time>2026-04-12T16:28:14.999Z</time></trkpt><trkpt lat="44.531290843926534" lon="11.761112754524426"><ele>9.0</ele><time>2026-04-12T16:28:15.999Z</time></trkpt><trkpt lat="44.531300435108236" lon="11.76087973723624"><ele>9.0</ele><time>2026-04-12T16:28:17Z</time></trkpt><trkpt lat="44.53131344239839" lon="11.760678953576681"><ele>9.0</ele><time>2026-04-12T16:28:18Z</time></trkpt><trkpt lat="44.53133213478565" lon="11.760494663336058"><ele>9.0</ele><time>2026-04-12T16:28:19Z</time></trkpt><trkpt lat="44.531367671385404" lon="11.760321844710038"><ele>8.5</ele><time>2026-04-12T16:28:20Z</time></trkpt><trkpt lat="44.53144163502722" lon="11.760170710181356"><ele>8.0</ele><time>2026-04-12T16:28:21Z</time></trkpt><trkpt lat="44.5315490484656" lon="11.760035410273096"><ele>7.5</ele><time>2026-04-12T16:28:22Z</time></trkpt><trkpt lat="44.53167320898051" lon="11.759899075738383"><ele>7.0</ele><time>2026-04-12T16:28:23Z</time></trkpt><trkpt lat="44.53180417396327" lon="11.759753352679704"><ele>6.5</ele><time>2026-04-12T16:28:24Z</time></trkpt><trkpt lat="44.53206965940201" lon="11.7594394289636"><ele>6.0</ele><time>2026-04-12T16:28:26Z</time></trkpt><trkpt lat="44.532208630203954" lon="11.759267514674963"><ele>5.666666666666667</ele><time>2026-04-12T16:28:27Z</time></trkpt><trkpt lat="44.53234905287483" lon="11.759094863952397"><ele>5.333333333333334</ele><time>2026-04-12T16:28:28Z</time></trkpt><trkpt lat="44.532492575990965" lon="11.758918420566877"><ele>5.0</ele><time>2026-04-12T16:28:29Z</time></trkpt><trkpt lat="44.532638223228915" lon="11.758744345614206"><ele>5.0</ele><time>2026-04-12T16:28:30Z</time></trkpt><trkpt lat="44.532787233361546" lon="11.758562975859439"><ele>5.0</ele><time>2026-04-12T16:28:31Z</time></trkpt><trkpt lat="44.532946706304955" lon="11.75836699090061"><ele>5.0</ele><time>2026-04-12T16:28:32Z</time></trkpt><trkpt lat="44.53310673631424" lon="11.758174941381299"><ele>5.0</ele><time>2026-04-12T16:28:33Z</time></trkpt><trkpt lat="44.533248167327656" lon="11.758002230860175"><ele>5.0</ele><time>2026-04-12T16:28:34Z</time></trkpt><trkpt lat="44.53337823901299" lon="11.75784415523715"><ele>5.0</ele><time>2026-04-12T16:28:35Z</time></trkpt><trkpt lat="44.5335011839583" lon="11.757698636290533"><ele>5.0</ele><time>2026-04-12T16:28:36Z</time></trkpt><trkpt lat="44.533622296138155" lon="11.757554871218625"><ele>5.0</ele><time>2026-04-12T16:28:37Z</time></trkpt><trkpt lat="44.533736252358786" lon="11.757413548313092"><ele>5.0</ele><time>2026-04-12T16:28:38Z</time></trkpt><trkpt lat="44.5338545739339" lon="11.757278723347298"><ele>5.0</ele><time>2026-04-12T16:28:39Z</time></trkpt><trkpt lat="44.53394177187639" lon="11.757165285037361"><ele>5.0</ele><time>2026-04-12T16:28:40Z</time></trkpt><trkpt lat="44.5340356489573" lon="11.757051936412855"><ele>5.0</ele><time>2026-04-12T16:28:41Z</time></trkpt><trkpt lat="44.53412534267753" lon="11.756944854503846"><ele>5.0</ele><time>2026-04-12T16:28:42Z</time></trkpt><trkpt lat="44.53421927795996" lon="11.756827441467548"><ele>5.25</ele><time>2026-04-12T16:28:43Z</time></trkpt><trkpt lat="44.53431042992558" lon="11.756714257393462"><ele>5.5</ele><time>2026-04-12T16:28:44Z</time></trkpt><trkpt lat="44.53440072836438" lon="11.756603948299553"><ele>5.75</ele><time>2026-04-12T16:28:45Z</time></trkpt><trkpt lat="44.53448823020853" lon="11.756493743590639"><ele>6.0</ele><time>2026-04-12T16:28:46Z</time></trkpt><trkpt lat="44.53457600972949" lon="11.756380289968645"><ele>6.0</ele><time>2026-04-12T16:28:47Z</time></trkpt><trkpt lat="44.53466606698716" lon="11.75628151933365"><ele>6.0</ele><time>2026-04-12T16:28:48Z</time></trkpt><trkpt lat="44.53475220331468" lon="11.756177651070637"><ele>6.0</ele><time>2026-04-12T16:28:49Z</time></trkpt><trkpt lat="44.53484012236993" lon="11.756070617794727"><ele>6.0</ele><time>2026-04-12T16:28:50Z</time></trkpt><trkpt lat="44.53494221400458" lon="11.755943499589529"><ele>6.0</ele><time>2026-04-12T16:28:51Z</time></trkpt><trkpt lat="44.53505462327612" lon="11.75580518747293"><ele>6.0</ele><time>2026-04-12T16:28:52Z</time></trkpt><trkpt lat="44.535177870319146" lon="11.755654881588935"><ele>6.0</ele><time>2026-04-12T16:28:53Z</time></trkpt><trkpt lat="44.5353165722011" lon="11.755487766067835"><ele>5.666666666666667</ele><time>2026-04-12T16:28:54Z</time></trkpt><trkpt lat="44.53546874029929" lon="11.755299668815205"><ele>5.333333333333334</ele><time>2026-04-12T16:28:55Z</time></trkpt><trkpt lat="44.535630634969664" lon="11.755099236205103"><ele>5.0</ele><time>2026-04-12T16:28:56Z</time></trkpt><trkpt lat="44.53579003535975" lon="11.754904075762802"><ele>5.0</ele><time>2026-04-12T16:28:57Z</time></trkpt><trkpt lat="44.53595555899601" lon="11.754700935214906"><ele>5.0</ele><time>2026-04-12T16:28:58Z</time></trkpt><trkpt lat="44.53612485738257" lon="11.75449497231023"><ele>5.0</ele><time>2026-04-12T16:28:59Z</time></trkpt><trkpt lat="44.536294837632795" lon="11.754290221616682"><ele>5.333333333333334</ele><time>2026-04-12T16:29:00Z</time></trkpt><trkpt lat="44.53646292327348" lon="11.75408832904276"><ele>5.666666666666667</ele><time>2026-04-12T16:29:01Z</time></trkpt><trkpt lat="44.53662956536401" lon="11.753889082818011"><ele>6.0</ele><time>2026-04-12T16:29:02Z</time></trkpt><trkpt lat="44.53679457255009" lon="11.753689612683097"><ele>5.666666666666667</ele><time>2026-04-12T16:29:03Z</time></trkpt><trkpt lat="44.53695580563774" lon="11.753493222081234"><ele>5.333333333333334</ele><time>2026-04-12T16:29:04Z</time></trkpt><trkpt lat="44.537112072845936" lon="11.753302262411557"><ele>5.0</ele><time>2026-04-12T16:29:05Z</time></trkpt><trkpt lat="44.53726772991546" lon="11.75311168686686"><ele>4.666666666666667</ele><time>2026-04-12T16:29:06Z</time></trkpt><trkpt lat="44.53742083820935" lon="11.752925671349669"><ele>4.333333333333333</ele><time>2026-04-12T16:29:07Z</time></trkpt><trkpt lat="44.53757342026083" lon="11.752741474916684"><ele>4.0</ele><time>2026-04-12T16:29:08Z</time></trkpt><trkpt lat="44.5377245351056" lon="11.752559259117929"><ele>4.0</ele><time>2026-04-12T16:29:09Z</time></trkpt><trkpt lat="44.53787598122077" lon="11.752373869036251"><ele>4.0</ele><time>2026-04-12T16:29:10Z</time></trkpt><trkpt lat="44.53802840929519" lon="11.752186583467662"><ele>4.0</ele><time>2026-04-12T16:29:11Z</time></trkpt><trkpt lat="44.53818109147811" lon="11.751999253109574"><ele>4.333333333333333</ele><time>2026-04-12T16:29:12Z</time></trkpt><trkpt lat="44.5383338879152" lon="11.751814506445626"><ele>4.666666666666667</ele><time>2026-04-12T16:29:13Z</time></trkpt><trkpt lat="44.53848677018005" lon="11.751628117836827"><ele>5.0</ele><time>2026-04-12T16:29:14Z</time></trkpt><trkpt lat="44.53864140694352" lon="11.751437932535481"><ele>5.0</ele><time>2026-04-12T16:29:15Z</time></trkpt><trkpt lat="44.53879744506268" lon="11.751245925266419"><ele>5.0</ele><time>2026-04-12T16:29:16Z</time></trkpt><trkpt lat="44.53895479137691" lon="11.751055164659759"><ele>5.0</ele><time>2026-04-12T16:29:17Z</time></trkpt><trkpt lat="44.539113595403904" lon="11.750866413839612"><ele>5.0</ele><time>2026-04-12T16:29:18Z</time></trkpt><trkpt lat="44.53927139365243" lon="11.750675752163495"><ele>5.0</ele><time>2026-04-12T16:29:19Z</time></trkpt><trkpt lat="44.539427412799505" lon="11.750485056484461"><ele>5.0</ele><time>2026-04-12T16:29:20Z</time></trkpt><trkpt lat="44.53958394596735" lon="11.750294502601088"><ele>4.666666666666667</ele><time>2026-04-12T16:29:21Z</time></trkpt><trkpt lat="44.539739719180574" lon="11.750105589908966"><ele>4.333333333333333</ele><time>2026-04-12T16:29:22Z</time></trkpt><trkpt lat="44.53989473555807" lon="11.749916534325378"><ele>4.0</ele><time>2026-04-12T16:29:23Z</time></trkpt><trkpt lat="44.540051778559445" lon="11.749725868643802"><ele>4.0</ele><time>2026-04-12T16:29:24Z</time></trkpt><trkpt lat="44.54020994129962" lon="11.749535527125941"><ele>4.0</ele><time>2026-04-12T16:29:25Z</time></trkpt><trkpt lat="44.54036911405477" lon="11.749344008624362"><ele>4.0</ele><time>2026-04-12T16:29:26Z</time></trkpt><trkpt lat="44.54052302596876" lon="11.749154567506503"><ele>4.333333333333333</ele><time>2026-04-12T16:29:27Z</time></trkpt><trkpt lat="44.540679141356435" lon="11.748963289049769"><ele>4.666666666666667</ele><time>2026-04-12T16:29:28Z</time></trkpt><trkpt lat="44.540835545132836" lon="11.748771415514819"><ele>5.0</ele><time>2026-04-12T16:29:29Z</time></trkpt><trkpt lat="44.54099313319957" lon="11.748579859947272"><ele>6.0</ele><time>2026-04-12T16:29:30Z</time></trkpt><trkpt lat="44.54130274500897" lon="11.748197511771602"><ele>7.0</ele><time>2026-04-12T16:29:32Z</time></trkpt><trkpt lat="44.54145689261915" lon="11.748007604573504"><ele>7.0</ele><time>2026-04-12T16:29:33Z</time></trkpt><trkpt lat="44.541611388062144" lon="11.747821034864831"><ele>7.0</ele><time>2026-04-12T16:29:34Z</time></trkpt><trkpt lat="44.541764571435394" lon="11.747632170930927"><ele>7.0</ele><time>2026-04-12T16:29:35Z</time></trkpt><trkpt lat="44.5419184088354" lon="11.747443439202476"><ele>7.0</ele><time>2026-04-12T16:29:36Z</time></trkpt><trkpt lat="44.542076273597246" lon="11.74724883023914"><ele>7.0</ele><time>2026-04-12T16:29:37Z</time></trkpt><trkpt lat="44.54223087699328" lon="11.747055299439255"><ele>7.0</ele><time>2026-04-12T16:29:38Z</time></trkpt><trkpt lat="44.54238562263687" lon="11.746867057237637"><ele>6.333333333333334</ele><time>2026-04-12T16:29:39Z</time></trkpt><trkpt lat="44.54254236752846" lon="11.746680682040893"><ele>5.666666666666667</ele><time>2026-04-12T16:29:40Z</time></trkpt><trkpt lat="44.54270394225804" lon="11.746492468324803"><ele>5.0</ele><time>2026-04-12T16:29:41Z</time></trkpt><trkpt lat="44.542862309386045" lon="11.746295891410625"><ele>4.666666666666667</ele><time>2026-04-12T16:29:42Z</time></trkpt><trkpt lat="44.543022379541256" lon="11.746099063786627"><ele>4.333333333333333</ele><time>2026-04-12T16:29:43Z</time></trkpt><trkpt lat="44.54318589805244" lon="11.745899374366669"><ele>4.0</ele><time>2026-04-12T16:29:44Z</time></trkpt><trkpt lat="44.54335015599014" lon="11.74569780749039"><ele>4.0</ele><time>2026-04-12T16:29:45Z</time></trkpt><trkpt lat="44.543514390174494" lon="11.74549910628965"><ele>4.0</ele><time>2026-04-12T16:29:46Z</time></trkpt><trkpt lat="44.54367920750374" lon="11.745298970035213"><ele>4.0</ele><time>2026-04-12T16:29:47Z</time></trkpt><trkpt lat="44.54384136693869" lon="11.745102400368864"><ele>4.0</ele><time>2026-04-12T16:29:48Z</time></trkpt><trkpt lat="44.54400531164213" lon="11.74490456777289"><ele>4.0</ele><time>2026-04-12T16:29:49Z</time></trkpt><trkpt lat="44.544170010078325" lon="11.744706988713668"><ele>4.0</ele><time>2026-04-12T16:29:50Z</time></trkpt><trkpt lat="44.54433466936958" lon="11.744509991126344"><ele>4.0</ele><time>2026-04-12T16:29:51Z</time></trkpt><trkpt lat="44.54449813021356" lon="11.744311013164722"><ele>4.0</ele><time>2026-04-12T16:29:52Z</time></trkpt><trkpt lat="44.54466189513996" lon="11.74411100441452"><ele>4.0</ele><time>2026-04-12T16:29:53Z</time></trkpt><trkpt lat="44.544826053011604" lon="11.743911459925796"><ele>4.333333333333333</ele><time>2026-04-12T16:29:54Z</time></trkpt><trkpt lat="44.54498852365339" lon="11.743715454567369"><ele>4.666666666666667</ele><time>2026-04-12T16:29:55Z</time></trkpt><trkpt lat="44.54514844583828" lon="11.743524440103776"><ele>5.0</ele><time>2026-04-12T16:29:56Z</time></trkpt><trkpt lat="44.54530599964755" lon="11.743331094106717"><ele>5.333333333333334</ele><time>2026-04-12T16:29:57Z</time></trkpt><trkpt lat="44.54547286511678" lon="11.743138357536903"><ele>5.666666666666667</ele><time>2026-04-12T16:29:58Z</time></trkpt><trkpt lat="44.54562291184559" lon="11.74294218033385"><ele>6.0</ele><time>2026-04-12T16:29:59Z</time></trkpt><trkpt lat="44.54578296491199" lon="11.742744970400976"><ele>6.333333333333334</ele><time>2026-04-12T16:30:00Z</time></trkpt><trkpt lat="44.54594101055077" lon="11.742554732069351"><ele>6.666666666666667</ele><time>2026-04-12T16:30:01Z</time></trkpt><trkpt lat="44.546102348076076" lon="11.742360316317846"><ele>7.0</ele><time>2026-04-12T16:30:02Z</time></trkpt><trkpt lat="44.54626439721831" lon="11.74216466066757"><ele>6.666666666666667</ele><time>2026-04-12T16:30:03Z</time></trkpt><trkpt lat="44.54642714877184" lon="11.741968507593574"><ele>6.333333333333334</ele><time>2026-04-12T16:30:04Z</time></trkpt><trkpt lat="44.54659110510951" lon="11.741770766396801"><ele>6.0</ele><time>2026-04-12T16:30:05Z</time></trkpt><trkpt lat="44.54675505928501" lon="11.74157243166523"><ele>6.0</ele><time>2026-04-12T16:30:06Z</time></trkpt><trkpt lat="44.54692006142614" lon="11.741372514224226"><ele>6.0</ele><time>2026-04-12T16:30:07Z</time></trkpt><trkpt lat="44.547086581004116" lon="11.74117695662345"><ele>6.0</ele><time>2026-04-12T16:30:08Z</time></trkpt><trkpt lat="44.54725437630044" lon="11.740981668840758"><ele>6.0</ele><time>2026-04-12T16:30:09Z</time></trkpt><trkpt lat="44.54741873139004" lon="11.740786085046256"><ele>6.0</ele><time>2026-04-12T16:30:10Z</time></trkpt><trkpt lat="44.54758363959176" lon="11.740584091840821"><ele>6.0</ele><time>2026-04-12T16:30:11Z</time></trkpt><trkpt lat="44.54774868919577" lon="11.740386404806328"><ele>5.0</ele><time>2026-04-12T16:30:12Z</time></trkpt><trkpt lat="44.54791059074568" lon="11.740192124327894"><ele>4.0</ele><time>2026-04-12T16:30:13Z</time></trkpt><trkpt lat="44.548069405870294" lon="11.739997468473126"><ele>3.0</ele><time>2026-04-12T16:30:14Z</time></trkpt><trkpt lat="44.548229833578816" lon="11.739803841133204"><ele>3.0</ele><time>2026-04-12T16:30:15Z</time></trkpt><trkpt lat="44.54839072683901" lon="11.739606583584179"><ele>3.0</ele><time>2026-04-12T16:30:16Z</time></trkpt><trkpt lat="44.54854933464217" lon="11.739410439108951"><ele>3.0</ele><time>2026-04-12T16:30:17Z</time></trkpt><trkpt lat="44.54870954265184" lon="11.739214608659148"><ele>3.0</ele><time>2026-04-12T16:30:18Z</time></trkpt><trkpt lat="44.548872140563006" lon="11.739018462492126"><ele>3.0</ele><time>2026-04-12T16:30:19Z</time></trkpt><trkpt lat="44.54902906074579" lon="11.738834845432129"><ele>3.0</ele><time>2026-04-12T16:30:20Z</time></trkpt><trkpt lat="44.549188542284824" lon="11.73864719314014"><ele>3.333333333333333</ele><time>2026-04-12T16:30:21Z</time></trkpt><trkpt lat="44.54934767065251" lon="11.738457054013752"><ele>3.6666666666666665</ele><time>2026-04-12T16:30:22Z</time></trkpt><trkpt lat="44.54950670973269" lon="11.738264560914246"><ele>4.0</ele><time>2026-04-12T16:30:23Z</time></trkpt><trkpt lat="44.54966466649243" lon="11.738074174881852"><ele>4.0</ele><time>2026-04-12T16:30:24Z</time></trkpt><trkpt lat="44.54981916728102" lon="11.737888943188354"><ele>4.0</ele><time>2026-04-12T16:30:25Z</time></trkpt><trkpt lat="44.549974354985615" lon="11.737698140048964"><ele>4.0</ele><time>2026-04-12T16:30:26Z</time></trkpt><trkpt lat="44.550129104268336" lon="11.737509927617214"><ele>5.0</ele><time>2026-04-12T16:30:27Z</time></trkpt><trkpt lat="44.55028545934806" lon="11.737323110672484"><ele>6.0</ele><time>2026-04-12T16:30:28Z</time></trkpt><trkpt lat="44.55044074076236" lon="11.737139052817707"><ele>7.0</ele><time>2026-04-12T16:30:29Z</time></trkpt><trkpt lat="44.55059709243148" lon="11.736950794027118"><ele>6.666666666666667</ele><time>2026-04-12T16:30:30Z</time></trkpt><trkpt lat="44.55075632016564" lon="11.736763681565735"><ele>6.333333333333334</ele><time>2026-04-12T16:30:31Z</time></trkpt><trkpt lat="44.55091309510751" lon="11.73657465429664"><ele>6.0</ele><time>2026-04-12T16:30:32Z</time></trkpt><trkpt lat="44.551069712031634" lon="11.736386358760916"><ele>6.0</ele><time>2026-04-12T16:30:33Z</time></trkpt><trkpt lat="44.55122822928796" lon="11.736201679227575"><ele>6.0</ele><time>2026-04-12T16:30:34Z</time></trkpt><trkpt lat="44.55138256995016" lon="11.736021721481242"><ele>6.0</ele><time>2026-04-12T16:30:35Z</time></trkpt><trkpt lat="44.55153271258905" lon="11.735843142142285"><ele>6.0</ele><time>2026-04-12T16:30:36Z</time></trkpt><trkpt lat="44.55168151724191" lon="11.735663473543434"><ele>6.0</ele><time>2026-04-12T16:30:37Z</time></trkpt><trkpt lat="44.55182300760304" lon="11.735493888593"><ele>6.0</ele><time>2026-04-12T16:30:38Z</time></trkpt><trkpt lat="44.55195786625699" lon="11.73532845476484"><ele>6.0</ele><time>2026-04-12T16:30:39Z</time></trkpt><trkpt lat="44.55209228057616" lon="11.735165622750682"><ele>6.0</ele><time>2026-04-12T16:30:40Z</time></trkpt><trkpt lat="44.55221677202845" lon="11.73501533636478"><ele>6.0</ele><time>2026-04-12T16:30:41Z</time></trkpt><trkpt lat="44.55233850662563" lon="11.734867468415636"><ele>6.0</ele><time>2026-04-12T16:30:42Z</time></trkpt><trkpt lat="44.552457116589046" lon="11.734719853708706"><ele>6.0</ele><time>2026-04-12T16:30:43Z</time></trkpt><trkpt lat="44.55257463191274" lon="11.734574919600501"><ele>6.0</ele><time>2026-04-12T16:30:44Z</time></trkpt><trkpt lat="44.55270027926914" lon="11.734422191758837"><ele>6.0</ele><time>2026-04-12T16:30:45Z</time></trkpt><trkpt lat="44.55283721861283" lon="11.734258042824704"><ele>6.0</ele><time>2026-04-12T16:30:46Z</time></trkpt><trkpt lat="44.55298228475266" lon="11.734090546542262"><ele>6.0</ele><time>2026-04-12T16:30:47Z</time></trkpt><trkpt lat="44.55312672192406" lon="11.733922799807836"><ele>5.333333333333333</ele><time>2026-04-12T16:30:48Z</time></trkpt><trkpt lat="44.55327546816557" lon="11.73374896852955"><ele>4.666666666666666</ele><time>2026-04-12T16:30:49Z</time></trkpt><trkpt lat="44.55342462543664" lon="11.733581972926002"><ele>4.0</ele><time>2026-04-12T16:30:50Z</time></trkpt><trkpt lat="44.55358189588696" lon="11.733423172754984"><ele>4.333333333333333</ele><time>2026-04-12T16:30:51Z</time></trkpt><trkpt lat="44.553750906839824" lon="11.733268076591186"><ele>4.666666666666667</ele><time>2026-04-12T16:30:52Z</time></trkpt><trkpt lat="44.55392296892065" lon="11.733146598190746"><ele>5.0</ele><time>2026-04-12T16:30:53Z</time></trkpt><trkpt lat="44.55409907136476" lon="11.73303703968692"><ele>5.0</ele><time>2026-04-12T16:30:54Z</time></trkpt><trkpt lat="44.55427836104059" lon="11.732928819631825"><ele>5.0</ele><time>2026-04-12T16:30:55Z</time></trkpt><trkpt lat="44.55445767064602" lon="11.732823846118034"><ele>5.0</ele><time>2026-04-12T16:30:56Z</time></trkpt><trkpt lat="44.55464039518708" lon="11.732708323878677"><ele>5.0</ele><time>2026-04-12T16:30:57Z</time></trkpt><trkpt lat="44.5548173714325" lon="11.732599082134296"><ele>5.0</ele><time>2026-04-12T16:30:58Z</time></trkpt><trkpt lat="44.55499377694372" lon="11.732488341136571"><ele>5.0</ele><time>2026-04-12T16:30:59Z</time></trkpt><trkpt lat="44.55517211693306" lon="11.732373841013084"><ele>5.0</ele><time>2026-04-12T16:31:00Z</time></trkpt><trkpt lat="44.55535157264165" lon="11.732260471985525"><ele>5.0</ele><time>2026-04-12T16:31:01Z</time></trkpt><trkpt lat="44.55553456052595" lon="11.732145921351902"><ele>5.0</ele><time>2026-04-12T16:31:02Z</time></trkpt><trkpt lat="44.55571719055601" lon="11.732039125487923"><ele>5.333333333333334</ele><time>2026-04-12T16:31:03Z</time></trkpt><trkpt lat="44.55589558717187" lon="11.731923220356249"><ele>5.666666666666667</ele><time>2026-04-12T16:31:04Z</time></trkpt><trkpt lat="44.556076074937565" lon="11.731810434017245"><ele>6.0</ele><time>2026-04-12T16:31:05Z</time></trkpt><trkpt lat="44.55625952543506" lon="11.731694556332993"><ele>6.0</ele><time>2026-04-12T16:31:06Z</time></trkpt><trkpt lat="44.55644076702427" lon="11.731577255779055"><ele>6.0</ele><time>2026-04-12T16:31:07Z</time></trkpt><trkpt lat="44.55661911500729" lon="11.731459927528379"><ele>6.0</ele><time>2026-04-12T16:31:08Z</time></trkpt><trkpt lat="44.55680488233753" lon="11.731350328890606"><ele>6.0</ele><time>2026-04-12T16:31:09Z</time></trkpt><trkpt lat="44.55698940508532" lon="11.731244047116533"><ele>6.0</ele><time>2026-04-12T16:31:10Z</time></trkpt><trkpt lat="44.557175602856404" lon="11.731124810610407"><ele>6.0</ele><time>2026-04-12T16:31:11Z</time></trkpt><trkpt lat="44.55735625313878" lon="11.7310140564732"><ele>6.0</ele><time>2026-04-12T16:31:12Z</time></trkpt><trkpt lat="44.55754123153327" lon="11.730899045013873"><ele>6.0</ele><time>2026-04-12T16:31:13Z</time></trkpt><trkpt lat="44.55772238968132" lon="11.730786737611073"><ele>6.0</ele><time>2026-04-12T16:31:14Z</time></trkpt><trkpt lat="44.55790262068153" lon="11.7306730880352"><ele>6.666666666666666</ele><time>2026-04-12T16:31:15Z</time></trkpt><trkpt lat="44.558081974635385" lon="11.73055706546776"><ele>7.333333333333333</ele><time>2026-04-12T16:31:16Z</time></trkpt><trkpt lat="44.558262260339376" lon="11.73044458858599"><ele>8.0</ele><time>2026-04-12T16:31:17Z</time></trkpt><trkpt lat="44.558446138130144" lon="11.730333191572747"><ele>7.666666666666666</ele><time>2026-04-12T16:31:18Z</time></trkpt><trkpt lat="44.55863223412637" lon="11.730217260967205"><ele>7.333333333333334</ele><time>2026-04-12T16:31:19Z</time></trkpt><trkpt lat="44.55881965445746" lon="11.730100425410635"><ele>7.0</ele><time>2026-04-12T16:31:20Z</time></trkpt><trkpt lat="44.55900743408028" lon="11.72998806896558"><ele>6.666666666666667</ele><time>2026-04-12T16:31:21Z</time></trkpt><trkpt lat="44.55919712613113" lon="11.729870582537858"><ele>6.333333333333334</ele><time>2026-04-12T16:31:22Z</time></trkpt><trkpt lat="44.55938670739658" lon="11.729754193641462"><ele>6.0</ele><time>2026-04-12T16:31:23Z</time></trkpt><trkpt lat="44.55957286073136" lon="11.729630078296799"><ele>5.666666666666667</ele><time>2026-04-12T16:31:24Z</time></trkpt><trkpt lat="44.55976041777527" lon="11.72951657782711"><ele>5.333333333333334</ele><time>2026-04-12T16:31:25Z</time></trkpt><trkpt lat="44.55994534745374" lon="11.72940299118573"><ele>5.0</ele><time>2026-04-12T16:31:26Z</time></trkpt><trkpt lat="44.560135777610405" lon="11.72928813708004"><ele>5.0</ele><time>2026-04-12T16:31:27Z</time></trkpt><trkpt lat="44.560323824000456" lon="11.729173429988046"><ele>5.0</ele><time>2026-04-12T16:31:28Z</time></trkpt><trkpt lat="44.56051479434498" lon="11.729054659352084"><ele>5.0</ele><time>2026-04-12T16:31:29Z</time></trkpt><trkpt lat="44.56070465741163" lon="11.728937522508684"><ele>5.0</ele><time>2026-04-12T16:31:30Z</time></trkpt><trkpt lat="44.560891479629134" lon="11.7288208211768"><ele>5.0</ele><time>2026-04-12T16:31:31Z</time></trkpt><trkpt lat="44.56107880579372" lon="11.728703454801174"><ele>5.0</ele><time>2026-04-12T16:31:32Z</time></trkpt><trkpt lat="44.56126654865126" lon="11.728587268741448"><ele>5.333333333333334</ele><time>2026-04-12T16:31:33Z</time></trkpt><trkpt lat="44.56145441943674" lon="11.728470860874822"><ele>5.666666666666667</ele><time>2026-04-12T16:31:34Z</time></trkpt><trkpt lat="44.56162587874062" lon="11.728363661581367"><ele>6.0</ele><time>2026-04-12T16:31:35Z</time></trkpt><trkpt lat="44.56178511158585" lon="11.728265701124103"><ele>6.0</ele><time>2026-04-12T16:31:36Z</time></trkpt><trkpt lat="44.5619305615925" lon="11.728173919669752"><ele>6.0</ele><time>2026-04-12T16:31:37Z</time></trkpt><trkpt lat="44.56207173229963" lon="11.728085389170182"><ele>6.0</ele><time>2026-04-12T16:31:38Z</time></trkpt><trkpt lat="44.56219960946961" lon="11.728007965682822"><ele>6.199999999999999</ele><time>2026-04-12T16:31:39Z</time></trkpt><trkpt lat="44.56231822826631" lon="11.727935227764588"><ele>6.3999999999999995</ele><time>2026-04-12T16:31:40Z</time></trkpt><trkpt lat="44.56242557944116" lon="11.727870311492287"><ele>6.6</ele><time>2026-04-12T16:31:41Z</time></trkpt><trkpt lat="44.56252323961042" lon="11.727810491032777"><ele>6.8</ele><time>2026-04-12T16:31:42Z</time></trkpt><trkpt lat="44.56260928728399" lon="11.727757940176147"><ele>7.0</ele><time>2026-04-12T16:31:43Z</time></trkpt><trkpt lat="44.562672132802646" lon="11.727717261176222"><ele>7.166666666666667</ele><time>2026-04-12T16:31:44Z</time></trkpt><trkpt lat="44.56273959364731" lon="11.727671524258382"><ele>7.333333333333334</ele><time>2026-04-12T16:31:46Z</time></trkpt><trkpt lat="44.5627648537335" lon="11.727559884561742"><ele>7.5</ele><time>2026-04-12T16:31:52Z</time></trkpt><trkpt lat="44.56273661613929" lon="11.727463941685912"><ele>7.666666666666666</ele><time>2026-04-12T16:31:53Z</time></trkpt><trkpt lat="44.56270469941666" lon="11.72737843277876"><ele>7.833333333333333</ele><time>2026-04-12T16:31:54Z</time></trkpt><trkpt lat="44.5626713775472" lon="11.727270048816802"><ele>8.0</ele><time>2026-04-12T16:31:55Z</time></trkpt><trkpt lat="44.562629301651135" lon="11.727144140158483"><ele>8.0</ele><time>2026-04-12T16:31:56Z</time></trkpt><trkpt lat="44.56258929520459" lon="11.72702200501522"><ele>8.0</ele><time>2026-04-12T16:31:57Z</time></trkpt><trkpt lat="44.56254234349497" lon="11.726887309271719"><ele>8.0</ele><time>2026-04-12T16:31:58Z</time></trkpt><trkpt lat="44.5624857954193" lon="11.726723279707667"><ele>8.0</ele><time>2026-04-12T16:31:59Z</time></trkpt><trkpt lat="44.56241846132362" lon="11.726526318765774"><ele>8.0</ele><time>2026-04-12T16:32:00Z</time></trkpt><trkpt lat="44.5623555695193" lon="11.726334836451946"><ele>8.0</ele><time>2026-04-12T16:32:01Z</time></trkpt><trkpt lat="44.56230194913959" lon="11.726163829674501"><ele>8.0</ele><time>2026-04-12T16:32:02Z</time></trkpt><trkpt lat="44.56224887162165" lon="11.725999761511336"><ele>8.0</ele><time>2026-04-12T16:32:03Z</time></trkpt><trkpt lat="44.562191616096506" lon="11.72583335305711"><ele>7.75</ele><time>2026-04-12T16:32:04Z</time></trkpt><trkpt lat="44.56213595014335" lon="11.72566937913956"><ele>7.5</ele><time>2026-04-12T16:32:05Z</time></trkpt><trkpt lat="44.56207874788315" lon="11.725500788329795"><ele>7.25</ele><time>2026-04-12T16:32:06Z</time></trkpt><trkpt lat="44.56202412595703" lon="11.725334910220466"><ele>7.0</ele><time>2026-04-12T16:32:07Z</time></trkpt><trkpt lat="44.56197097753895" lon="11.725167822845584"><ele>7.0</ele><time>2026-04-12T16:32:08Z</time></trkpt><trkpt lat="44.56191650371522" lon="11.725003103157704"><ele>7.0</ele><time>2026-04-12T16:32:09Z</time></trkpt><trkpt lat="44.5618605321955" lon="11.724843622908509"><ele>7.0</ele><time>2026-04-12T16:32:10Z</time></trkpt><trkpt lat="44.561807807555574" lon="11.72468366479013"><ele>7.0</ele><time>2026-04-12T16:32:11Z</time></trkpt><trkpt lat="44.56175487003047" lon="11.724528078754169"><ele>7.25</ele><time>2026-04-12T16:32:12Z</time></trkpt><trkpt lat="44.561702809631456" lon="11.724373797762457"><ele>7.5</ele><time>2026-04-12T16:32:13Z</time></trkpt><trkpt lat="44.56165201426064" lon="11.72421951647349"><ele>7.75</ele><time>2026-04-12T16:32:14Z</time></trkpt><trkpt lat="44.56160242733998" lon="11.724069093004278"><ele>8.0</ele><time>2026-04-12T16:32:15Z</time></trkpt><trkpt lat="44.56155297477202" lon="11.723918131539536"><ele>8.0</ele><time>2026-04-12T16:32:16Z</time></trkpt><trkpt lat="44.56150222228099" lon="11.723769234583962"><ele>8.0</ele><time>2026-04-12T16:32:17Z</time></trkpt><trkpt lat="44.561455028428654" lon="11.723620551811225"><ele>8.0</ele><time>2026-04-12T16:32:18Z</time></trkpt><trkpt lat="44.561404194821975" lon="11.723469892153702"><ele>8.0</ele><time>2026-04-12T16:32:19Z</time></trkpt><trkpt lat="44.56135505911243" lon="11.723319677980106"><ele>8.0</ele><time>2026-04-12T16:32:20Z</time></trkpt><trkpt lat="44.56130669401479" lon="11.723173984149613"><ele>8.0</ele><time>2026-04-12T16:32:21Z</time></trkpt><trkpt lat="44.56126043406583" lon="11.723025966154113"><ele>8.0</ele><time>2026-04-12T16:32:22Z</time></trkpt><trkpt lat="44.56121032106493" lon="11.722876970439064"><ele>8.0</ele><time>2026-04-12T16:32:23Z</time></trkpt><trkpt lat="44.5611616949597" lon="11.722730705811989"><ele>8.0</ele><time>2026-04-12T16:32:24Z</time></trkpt><trkpt lat="44.561115433698454" lon="11.722593619817962"><ele>8.0</ele><time>2026-04-12T16:32:25Z</time></trkpt><trkpt lat="44.56106550581991" lon="11.72244747539141"><ele>8.0</ele><time>2026-04-12T16:32:26Z</time></trkpt><trkpt lat="44.56101314567094" lon="11.722302917253602"><ele>8.0</ele><time>2026-04-12T16:32:27Z</time></trkpt><trkpt lat="44.56096444882219" lon="11.72216548705686"><ele>8.0</ele><time>2026-04-12T16:32:28Z</time></trkpt><trkpt lat="44.56091942937326" lon="11.722022453075795"><ele>8.200000000000001</ele><time>2026-04-12T16:32:29Z</time></trkpt><trkpt lat="44.56087211085911" lon="11.721877551335226"><ele>8.4</ele><time>2026-04-12T16:32:30Z</time></trkpt><trkpt lat="44.56083173226291" lon="11.72174264664624"><ele>8.600000000000001</ele><time>2026-04-12T16:32:31Z</time></trkpt><trkpt lat="44.56079214413028" lon="11.721626734689014"><ele>8.8</ele><time>2026-04-12T16:32:32Z</time></trkpt><trkpt lat="44.560753643137346" lon="11.721517161496084"><ele>9.0</ele><time>2026-04-12T16:32:33Z</time></trkpt><trkpt lat="44.56071759094622" lon="11.72141181271212"><ele>9.0</ele><time>2026-04-12T16:32:34Z</time></trkpt><trkpt lat="44.560686957627915" lon="11.721319642675718"><ele>9.0</ele><time>2026-04-12T16:32:35Z</time></trkpt><trkpt lat="44.56065640213036" lon="11.721234842942978"><ele>9.0</ele><time>2026-04-12T16:32:36Z</time></trkpt><trkpt lat="44.56063790198711" lon="11.72108371259671"><ele>9.0</ele><time>2026-04-12T16:32:38Z</time></trkpt><trkpt lat="44.56068446376965" lon="11.720992406662642"><ele>9.0</ele><time>2026-04-12T16:32:39Z</time></trkpt><trkpt lat="44.56076349569848" lon="11.720910149688361"><ele>9.0</ele><time>2026-04-12T16:32:40Z</time></trkpt><trkpt lat="44.560869746227766" lon="11.720828559366248"><ele>9.0</ele><time>2026-04-12T16:32:41Z</time></trkpt><trkpt lat="44.56097378688643" lon="11.720732774019902"><ele>9.0</ele><time>2026-04-12T16:32:42Z</time></trkpt><trkpt lat="44.56107427032975" lon="11.72064595422513"><ele>9.0</ele><time>2026-04-12T16:32:43Z</time></trkpt><trkpt lat="44.56118328164681" lon="11.720552186808467"><ele>9.0</ele><time>2026-04-12T16:32:44Z</time></trkpt><trkpt lat="44.561286911688114" lon="11.720455129347338"><ele>8.75</ele><time>2026-04-12T16:32:45Z</time></trkpt><trkpt lat="44.561398577970515" lon="11.720350980420113"><ele>8.5</ele><time>2026-04-12T16:32:46Z</time></trkpt><trkpt lat="44.56151622140626" lon="11.720244096474516"><ele>8.25</ele><time>2026-04-12T16:32:47Z</time></trkpt><trkpt lat="44.56164191094992" lon="11.720126960895463"><ele>8.0</ele><time>2026-04-12T16:32:48Z</time></trkpt><trkpt lat="44.5617694637071" lon="11.720010165395369"><ele>8.0</ele><time>2026-04-12T16:32:49Z</time></trkpt><trkpt lat="44.56190512007354" lon="11.71988346273843"><ele>8.0</ele><time>2026-04-12T16:32:50Z</time></trkpt><trkpt lat="44.56203254003805" lon="11.719765444319046"><ele>8.0</ele><time>2026-04-12T16:32:51Z</time></trkpt><trkpt lat="44.56214306896939" lon="11.719665872020832"><ele>8.0</ele><time>2026-04-12T16:32:52Z</time></trkpt><trkpt lat="44.56224434264992" lon="11.719573719443801"><ele>7.25</ele><time>2026-04-12T16:32:53Z</time></trkpt><trkpt lat="44.56234212673326" lon="11.719477255510556"><ele>6.5</ele><time>2026-04-12T16:32:54Z</time></trkpt><trkpt lat="44.56245760031971" lon="11.719370537741057"><ele>5.75</ele><time>2026-04-12T16:32:55Z</time></trkpt><trkpt lat="44.56259119742264" lon="11.719250834504273"><ele>5.0</ele><time>2026-04-12T16:32:56Z</time></trkpt><trkpt lat="44.562735901570264" lon="11.719118137044886"><ele>5.0</ele><time>2026-04-12T16:32:57Z</time></trkpt><trkpt lat="44.56287094649285" lon="11.718992103652521"><ele>5.0</ele><time>2026-04-12T16:32:58Z</time></trkpt><trkpt lat="44.563001549086586" lon="11.718870608965123"><ele>5.0</ele><time>2026-04-12T16:32:59Z</time></trkpt><trkpt lat="44.56313994382604" lon="11.718743085711942"><ele>5.0</ele><time>2026-04-12T16:33:00Z</time></trkpt><trkpt lat="44.563287638444706" lon="11.718610469947691"><ele>5.0</ele><time>2026-04-12T16:33:01Z</time></trkpt><trkpt lat="44.56343972092165" lon="11.718470337370714"><ele>5.0</ele><time>2026-04-12T16:33:02Z</time></trkpt><trkpt lat="44.56359462987787" lon="11.71832489913654"><ele>5.0</ele><time>2026-04-12T16:33:03Z</time></trkpt><trkpt lat="44.5637491727177" lon="11.718182472129484"><ele>5.0</ele><time>2026-04-12T16:33:04Z</time></trkpt><trkpt lat="44.56390978005295" lon="11.718034319807423"><ele>5.0</ele><time>2026-04-12T16:33:05Z</time></trkpt><trkpt lat="44.564072072363324" lon="11.717884515605629"><ele>5.333333333333334</ele><time>2026-04-12T16:33:06Z</time></trkpt><trkpt lat="44.56423596832061" lon="11.717734632587938"><ele>5.666666666666667</ele><time>2026-04-12T16:33:07Z</time></trkpt><trkpt lat="44.56440590288252" lon="11.717577528310775"><ele>6.0</ele><time>2026-04-12T16:33:08Z</time></trkpt><trkpt lat="44.564560367193494" lon="11.717439106525578"><ele>6.0</ele><time>2026-04-12T16:33:09Z</time></trkpt><trkpt lat="44.56471779427732" lon="11.717296324449128"><ele>6.0</ele><time>2026-04-12T16:33:10Z</time></trkpt><trkpt lat="44.56488119937884" lon="11.717146043426126"><ele>6.0</ele><time>2026-04-12T16:33:11Z</time></trkpt><trkpt lat="44.56503896713819" lon="11.717001521519586"><ele>5.666666666666667</ele><time>2026-04-12T16:33:12Z</time></trkpt><trkpt lat="44.565195268986955" lon="11.716857301957909"><ele>5.333333333333334</ele><time>2026-04-12T16:33:13Z</time></trkpt><trkpt lat="44.56533800080957" lon="11.716722626711483"><ele>5.0</ele><time>2026-04-12T16:33:14Z</time></trkpt><trkpt lat="44.56547919297222" lon="11.716595601744016"><ele>5.0</ele><time>2026-04-12T16:33:15Z</time></trkpt><trkpt lat="44.56561662755807" lon="11.716489446534526"><ele>5.0</ele><time>2026-04-12T16:33:16Z</time></trkpt><trkpt lat="44.565761206945766" lon="11.71638712087736"><ele>5.0</ele><time>2026-04-12T16:33:17Z</time></trkpt><trkpt lat="44.565914051693916" lon="11.716278713934827"><ele>5.0</ele><time>2026-04-12T16:33:18Z</time></trkpt><trkpt lat="44.56607020723425" lon="11.716164381959036"><ele>5.0</ele><time>2026-04-12T16:33:19Z</time></trkpt><trkpt lat="44.56622909500104" lon="11.716045792184838"><ele>5.0</ele><time>2026-04-12T16:33:20Z</time></trkpt><trkpt lat="44.566387950678205" lon="11.715922981620388"><ele>5.666666666666667</ele><time>2026-04-12T16:33:21Z</time></trkpt><trkpt lat="44.56654974541314" lon="11.715794213282274"><ele>6.333333333333334</ele><time>2026-04-12T16:33:22Z</time></trkpt><trkpt lat="44.56670379046668" lon="11.715655956273379"><ele>7.0</ele><time>2026-04-12T16:33:23Z</time></trkpt><trkpt lat="44.56685880331308" lon="11.715511794094462"><ele>7.0</ele><time>2026-04-12T16:33:24Z</time></trkpt><trkpt lat="44.56701807440764" lon="11.715366443018992"><ele>7.0</ele><time>2026-04-12T16:33:25Z</time></trkpt><trkpt lat="44.5671808696705" lon="11.715221818139154"><ele>7.0</ele><time>2026-04-12T16:33:26Z</time></trkpt><trkpt lat="44.56733526767766" lon="11.71508095002132"><ele>7.0</ele><time>2026-04-12T16:33:27Z</time></trkpt><trkpt lat="44.56750246644249" lon="11.714931696876803"><ele>7.0</ele><time>2026-04-12T16:33:28Z</time></trkpt><trkpt lat="44.56766519559632" lon="11.714780978178734"><ele>7.0</ele><time>2026-04-12T16:33:29Z</time></trkpt><trkpt lat="44.56782758000985" lon="11.714630141387095"><ele>7.0</ele><time>2026-04-12T16:33:30Z</time></trkpt><trkpt lat="44.56799250109541" lon="11.714479089361797"><ele>7.0</ele><time>2026-04-12T16:33:31Z</time></trkpt><trkpt lat="44.56815881515395" lon="11.714323199531474"><ele>7.0</ele><time>2026-04-12T16:33:32Z</time></trkpt><trkpt lat="44.568325220986" lon="11.71416921890449"><ele>7.333333333333334</ele><time>2026-04-12T16:33:33Z</time></trkpt><trkpt lat="44.56849400198178" lon="11.714014052657694"><ele>7.666666666666666</ele><time>2026-04-12T16:33:34Z</time></trkpt><trkpt lat="44.5686654668387" lon="11.713858294638664"><ele>8.0</ele><time>2026-04-12T16:33:35Z</time></trkpt><trkpt lat="44.56883698365019" lon="11.713702652126516"><ele>8.0</ele><time>2026-04-12T16:33:36Z</time></trkpt><trkpt lat="44.5690082955006" lon="11.713544751289263"><ele>8.0</ele><time>2026-04-12T16:33:37Z</time></trkpt><trkpt lat="44.56918025412032" lon="11.713383278525635"><ele>8.0</ele><time>2026-04-12T16:33:38Z</time></trkpt><trkpt lat="44.569353591356595" lon="11.713222786048924"><ele>8.0</ele><time>2026-04-12T16:33:39Z</time></trkpt><trkpt lat="44.56952502959935" lon="11.713066570565232"><ele>8.0</ele><time>2026-04-12T16:33:40Z</time></trkpt><trkpt lat="44.56969624842319" lon="11.712909352138436"><ele>8.0</ele><time>2026-04-12T16:33:41Z</time></trkpt><trkpt lat="44.56986445800688" lon="11.71275198954033"><ele>8.333333333333332</ele><time>2026-04-12T16:33:42Z</time></trkpt><trkpt lat="44.5700327685458" lon="11.712595541083116"><ele>8.666666666666666</ele><time>2026-04-12T16:33:43Z</time></trkpt><trkpt lat="44.570201927906716" lon="11.712441884686365"><ele>9.0</ele><time>2026-04-12T16:33:44Z</time></trkpt><trkpt lat="44.57037048582333" lon="11.712286963237277"><ele>9.0</ele><time>2026-04-12T16:33:45Z</time></trkpt><trkpt lat="44.570537818827916" lon="11.712132315461808"><ele>9.0</ele><time>2026-04-12T16:33:46Z</time></trkpt><trkpt lat="44.570704531527596" lon="11.711977502419394"><ele>9.0</ele><time>2026-04-12T16:33:47Z</time></trkpt><trkpt lat="44.57086912622045" lon="11.711824855937795"><ele>9.0</ele><time>2026-04-12T16:33:48Z</time></trkpt><trkpt lat="44.571034221253804" lon="11.711673004026279"><ele>9.0</ele><time>2026-04-12T16:33:49Z</time></trkpt><trkpt lat="44.57119976834496" lon="11.711522460679308"><ele>9.0</ele><time>2026-04-12T16:33:50Z</time></trkpt><trkpt lat="44.5713639631081" lon="11.7113717332378"><ele>8.666666666666666</ele><time>2026-04-12T16:33:51Z</time></trkpt><trkpt lat="44.57152866967136" lon="11.711221168127626"><ele>8.333333333333332</ele><time>2026-04-12T16:33:52Z</time></trkpt><trkpt lat="44.5716916530014" lon="11.711069129099322"><ele>8.0</ele><time>2026-04-12T16:33:53Z</time></trkpt><trkpt lat="44.57185332129367" lon="11.710914477626"><ele>8.0</ele><time>2026-04-12T16:33:54Z</time></trkpt><trkpt lat="44.572016693485935" lon="11.710759261625856"><ele>8.0</ele><time>2026-04-12T16:33:55Z</time></trkpt><trkpt lat="44.5721805145331" lon="11.71060173153094"><ele>8.0</ele><time>2026-04-12T16:33:56Z</time></trkpt><trkpt lat="44.57234743882872" lon="11.710449704389658"><ele>7.666666666666666</ele><time>2026-04-12T16:33:57Z</time></trkpt><trkpt lat="44.57251729773886" lon="11.71029238269746"><ele>7.333333333333334</ele><time>2026-04-12T16:33:58Z</time></trkpt><trkpt lat="44.572701139341945" lon="11.71011911200216"><ele>7.0</ele><time>2026-04-12T16:33:59Z</time></trkpt><trkpt lat="44.572872686504084" lon="11.709958217092439"><ele>7.0</ele><time>2026-04-12T16:34:00Z</time></trkpt><trkpt lat="44.5730284121736" lon="11.709813342677688"><ele>7.0</ele><time>2026-04-12T16:34:01Z</time></trkpt><trkpt lat="44.573173952207675" lon="11.709676521994245"><ele>7.0</ele><time>2026-04-12T16:34:02Z</time></trkpt><trkpt lat="44.57331572941671" lon="11.709541958796898"><ele>7.0</ele><time>2026-04-12T16:34:03Z</time></trkpt><trkpt lat="44.57345718310824" lon="11.709411178186958"><ele>7.0</ele><time>2026-04-12T16:34:04Z</time></trkpt><trkpt lat="44.57359743364448" lon="11.709284149239911"><ele>7.0</ele><time>2026-04-12T16:34:05Z</time></trkpt><trkpt lat="44.573736112420356" lon="11.70915856581086"><ele>7.25</ele><time>2026-04-12T16:34:06Z</time></trkpt><trkpt lat="44.573867458581645" lon="11.70903478838089"><ele>7.5</ele><time>2026-04-12T16:34:07Z</time></trkpt><trkpt lat="44.57398602373165" lon="11.708922381763994"><ele>7.75</ele><time>2026-04-12T16:34:08Z</time></trkpt><trkpt lat="44.57409229546745" lon="11.70882406345547"><ele>8.0</ele><time>2026-04-12T16:34:09Z</time></trkpt><trkpt lat="44.57418871224357" lon="11.708734241934982"><ele>8.0</ele><time>2026-04-12T16:34:10Z</time></trkpt><trkpt lat="44.574278526066244" lon="11.708652485822913"><ele>8.0</ele><time>2026-04-12T16:34:11Z</time></trkpt><trkpt lat="44.57435814386322" lon="11.70855060651081"><ele>8.0</ele><time>2026-04-12T16:34:12Z</time></trkpt><trkpt lat="44.57441166935816" lon="11.708404827029657"><ele>8.0</ele><time>2026-04-12T16:34:13Z</time></trkpt><trkpt lat="44.574421919817745" lon="11.708229317749522"><ele>9.0</ele><time>2026-04-12T16:34:14Z</time></trkpt><trkpt lat="44.57439788584231" lon="11.708028569618683"><ele>10.0</ele><time>2026-04-12T16:34:15Z</time></trkpt><trkpt lat="44.57436058889932" lon="11.707819259444141"><ele>11.0</ele><time>2026-04-12T16:34:16Z</time></trkpt><trkpt lat="44.57433646820833" lon="11.707597680334764"><ele>11.0</ele><time>2026-04-12T16:34:17Z</time></trkpt><trkpt lat="44.574301766608855" lon="11.707331684477541"><ele>11.0</ele><time>2026-04-12T16:34:18Z</time></trkpt><trkpt lat="44.57426347429584" lon="11.707080521801545"><ele>11.0</ele><time>2026-04-12T16:34:19Z</time></trkpt><trkpt lat="44.57424232733807" lon="11.70687247208217"><ele>10.8</ele><time>2026-04-12T16:34:20Z</time></trkpt><trkpt lat="44.574223760787355" lon="11.70669364401333"><ele>10.600000000000001</ele><time>2026-04-12T16:34:21Z</time></trkpt><trkpt lat="44.574208730803676" lon="11.706553752928974"><ele>10.4</ele><time>2026-04-12T16:34:22Z</time></trkpt><trkpt lat="44.57419460659512" lon="11.706449228387712"><ele>10.2</ele><time>2026-04-12T16:34:23Z</time></trkpt><trkpt lat="44.57418078945448" lon="11.706290565749306"><ele>10.0</ele><time>2026-04-12T16:34:25Z</time></trkpt><trkpt lat="44.574284285739296" lon="11.70619470068976"><ele>10.0</ele><time>2026-04-12T16:34:27Z</time></trkpt><trkpt lat="44.57436581336541" lon="11.706176862066114"><ele>10.0</ele><time>2026-04-12T16:34:28Z</time></trkpt><trkpt lat="44.57445408448102" lon="11.706164407430915"><ele>10.0</ele><time>2026-04-12T16:34:29Z</time></trkpt><trkpt lat="44.574546371193996" lon="11.7061404795201"><ele>10.0</ele><time>2026-04-12T16:34:30Z</time></trkpt><trkpt lat="44.57463947261973" lon="11.70611320965795"><ele>10.0</ele><time>2026-04-12T16:34:31Z</time></trkpt><trkpt lat="44.57472683787166" lon="11.706091441590209"><ele>10.0</ele><time>2026-04-12T16:34:32Z</time></trkpt><trkpt lat="44.574799928066255" lon="11.706076637524522"><ele>10.166666666666668</ele><time>2026-04-12T16:34:33Z</time></trkpt><trkpt lat="44.57486548518057" lon="11.706062206644114"><ele>10.333333333333334</ele><time>2026-04-12T16:34:34Z</time></trkpt><trkpt lat="44.57493365723196" lon="11.706044766549939"><ele>10.5</ele><time>2026-04-12T16:34:35Z</time></trkpt><trkpt lat="44.57503539080606" lon="11.705979958462148"><ele>10.666666666666666</ele><time>2026-04-12T16:34:37Z</time></trkpt><trkpt lat="44.57506305901062" lon="11.705890721268212"><ele>10.833333333333332</ele><time>2026-04-12T16:34:38Z</time></trkpt><trkpt lat="44.575070447354584" lon="11.705768371229977"><ele>11.0</ele><time>2026-04-12T16:34:39Z</time></trkpt><trkpt lat="44.57505258072251" lon="11.705611678248555"><ele>11.0</ele><time>2026-04-12T16:34:40Z</time></trkpt><trkpt lat="44.57503349989429" lon="11.705465866729146"><ele>11.0</ele><time>2026-04-12T16:34:41Z</time></trkpt><trkpt lat="44.57501867540975" lon="11.705321836438204"><ele>11.0</ele><time>2026-04-12T16:34:42Z</time></trkpt><trkpt lat="44.57499857350541" lon="11.705166962478568"><ele>11.0</ele><time>2026-04-12T16:34:43Z</time></trkpt><trkpt lat="44.57497455642677" lon="11.705005849556"><ele>11.0</ele><time>2026-04-12T16:34:44Z</time></trkpt><trkpt lat="44.57495090025341" lon="11.704840598138922"><ele>10.5</ele><time>2026-04-12T16:34:45Z</time></trkpt><trkpt lat="44.57492919340857" lon="11.704655875265592"><ele>10.0</ele><time>2026-04-12T16:34:46Z</time></trkpt><trkpt lat="44.574909084672406" lon="11.704482931089906"><ele>9.5</ele><time>2026-04-12T16:34:47Z</time></trkpt><trkpt lat="44.57489256679874" lon="11.704333679971404"><ele>9.0</ele><time>2026-04-12T16:34:48Z</time></trkpt><trkpt lat="44.574888670494126" lon="11.704198350238727"><ele>8.6</ele><time>2026-04-12T16:34:49Z</time></trkpt><trkpt lat="44.574894002448055" lon="11.70406703227957"><ele>8.2</ele><time>2026-04-12T16:34:50Z</time></trkpt><trkpt lat="44.57493251242361" lon="11.70393941010752"><ele>7.799999999999999</ele><time>2026-04-12T16:34:51Z</time></trkpt><trkpt lat="44.57500914448079" lon="11.703831536536024"><ele>7.3999999999999995</ele><time>2026-04-12T16:34:52Z</time></trkpt><trkpt lat="44.57511482925909" lon="11.70377106248691"><ele>7.0</ele><time>2026-04-12T16:34:53Z</time></trkpt><trkpt lat="44.575236817248125" lon="11.703746798158834"><ele>7.0</ele><time>2026-04-12T16:34:54Z</time></trkpt><trkpt lat="44.57537041477471" lon="11.703725962191193"><ele>7.0</ele><time>2026-04-12T16:34:55Z</time></trkpt><trkpt lat="44.57550102250402" lon="11.703695067564132"><ele>7.0</ele><time>2026-04-12T16:34:56Z</time></trkpt><trkpt lat="44.57561252971142" lon="11.703662523591396"><ele>7.0</ele><time>2026-04-12T16:34:57Z</time></trkpt><trkpt lat="44.57572294617842" lon="11.703630684326988"><ele>7.0</ele><time>2026-04-12T16:34:58Z</time></trkpt><trkpt lat="44.57582848991592" lon="11.703605337211567"><ele>6.999999999999999</ele><time>2026-04-12T16:34:59Z</time></trkpt><trkpt lat="44.575923097881216" lon="11.703579027145134"><ele>6.999999999999999</ele><time>2026-04-12T16:35:00Z</time></trkpt><trkpt lat="44.57601481489582" lon="11.703551964667458"><ele>7.0</ele><time>2026-04-12T16:35:01Z</time></trkpt><trkpt lat="44.576118837047865" lon="11.703538484297653"><ele>7.0</ele><time>2026-04-12T16:35:02Z</time></trkpt><trkpt lat="44.576239380986415" lon="11.703552429396854"><ele>7.0</ele><time>2026-04-12T16:35:03Z</time></trkpt><trkpt lat="44.576372940186246" lon="11.703588546944975"><ele>7.0</ele><time>2026-04-12T16:35:04Z</time></trkpt><trkpt lat="44.576527230879236" lon="11.703625294931955"><ele>7.0</ele><time>2026-04-12T16:35:05Z</time></trkpt><trkpt lat="44.57670583205501" lon="11.703666144879016"><ele>7.0</ele><time>2026-04-12T16:35:06Z</time></trkpt><trkpt lat="44.57688150243585" lon="11.703707228556953"><ele>7.0</ele><time>2026-04-12T16:35:07Z</time></trkpt><trkpt lat="44.57705993490995" lon="11.703749327044934"><ele>7.0</ele><time>2026-04-12T16:35:08Z</time></trkpt><trkpt lat="44.57724225776468" lon="11.703789431296101"><ele>6.666666666666667</ele><time>2026-04-12T16:35:09Z</time></trkpt><trkpt lat="44.57742326621116" lon="11.703828425304627"><ele>6.333333333333334</ele><time>2026-04-12T16:35:10Z</time></trkpt><trkpt lat="44.57760620901671" lon="11.703867890640629"><ele>6.0</ele><time>2026-04-12T16:35:11Z</time></trkpt><trkpt lat="44.57779648234285" lon="11.70390847783196"><ele>6.666666666666666</ele><time>2026-04-12T16:35:12Z</time></trkpt><trkpt lat="44.5779893813608" lon="11.703949753674156"><ele>7.333333333333333</ele><time>2026-04-12T16:35:13Z</time></trkpt><trkpt lat="44.57818268960903" lon="11.703990423456323"><ele>8.0</ele><time>2026-04-12T16:35:14Z</time></trkpt><trkpt lat="44.57838369191853" lon="11.70403183618556"><ele>8.0</ele><time>2026-04-12T16:35:15Z</time></trkpt><trkpt lat="44.5785810575708" lon="11.704076935353502"><ele>8.0</ele><time>2026-04-12T16:35:16Z</time></trkpt><trkpt lat="44.57878213169333" lon="11.704121543027583"><ele>8.0</ele><time>2026-04-12T16:35:17Z</time></trkpt><trkpt lat="44.57898152624207" lon="11.704165603209907"><ele>8.0</ele><time>2026-04-12T16:35:18Z</time></trkpt><trkpt lat="44.579183051058386" lon="11.704207796721693"><ele>8.0</ele><time>2026-04-12T16:35:19Z</time></trkpt><trkpt lat="44.5793889905827" lon="11.704249194564419"><ele>8.0</ele><time>2026-04-12T16:35:20Z</time></trkpt><trkpt lat="44.57959276618974" lon="11.704290602553257"><ele>7.666666666666666</ele><time>2026-04-12T16:35:21Z</time></trkpt><trkpt lat="44.57979635502273" lon="11.704333999526078"><ele>7.333333333333334</ele><time>2026-04-12T16:35:22Z</time></trkpt><trkpt lat="44.57999229663579" lon="11.704377759758685"><ele>7.0</ele><time>2026-04-12T16:35:23Z</time></trkpt><trkpt lat="44.58018727544249" lon="11.704417944785426"><ele>7.0</ele><time>2026-04-12T16:35:24Z</time></trkpt><trkpt lat="44.5803817544798" lon="11.70445716760223"><ele>7.0</ele><time>2026-04-12T16:35:25Z</time></trkpt><trkpt lat="44.58077028145427" lon="11.704536158477893"><ele>7.0</ele><time>2026-04-12T16:35:27Z</time></trkpt><trkpt lat="44.58096231580143" lon="11.704577462540511"><ele>7.0</ele><time>2026-04-12T16:35:28Z</time></trkpt><trkpt lat="44.58115964767276" lon="11.704620168069548"><ele>7.0</ele><time>2026-04-12T16:35:29Z</time></trkpt><trkpt lat="44.58135169004776" lon="11.704657953852767"><ele>7.0</ele><time>2026-04-12T16:35:30Z</time></trkpt><trkpt lat="44.58154254434809" lon="11.704698225720588"><ele>7.0</ele><time>2026-04-12T16:35:31Z</time></trkpt><trkpt lat="44.58173073093106" lon="11.7047316661838"><ele>7.0</ele><time>2026-04-12T16:35:32Z</time></trkpt><trkpt lat="44.58192592995322" lon="11.704769923854084"><ele>7.333333333333334</ele><time>2026-04-12T16:35:33Z</time></trkpt><trkpt lat="44.5821177353769" lon="11.704811454638586"><ele>7.666666666666666</ele><time>2026-04-12T16:35:34Z</time></trkpt><trkpt lat="44.58231643114813" lon="11.704862727894653"><ele>8.0</ele><time>2026-04-12T16:35:35Z</time></trkpt><trkpt lat="44.582510742124974" lon="11.704915999395372"><ele>8.0</ele><time>2026-04-12T16:35:36Z</time></trkpt><trkpt lat="44.58270069422851" lon="11.704978755133562"><ele>8.0</ele><time>2026-04-12T16:35:37Z</time></trkpt><trkpt lat="44.58289119478376" lon="11.705053757686716"><ele>8.0</ele><time>2026-04-12T16:35:38Z</time></trkpt><trkpt lat="44.583078996288606" lon="11.705136536700378"><ele>7.666666666666666</ele><time>2026-04-12T16:35:39Z</time></trkpt><trkpt lat="44.583263187142876" lon="11.705223220270103"><ele>7.333333333333334</ele><time>2026-04-12T16:35:40Z</time></trkpt><trkpt lat="44.58344835730621" lon="11.705319203463379"><ele>7.0</ele><time>2026-04-12T16:35:41Z</time></trkpt><trkpt lat="44.583633457285785" lon="11.705428127066382"><ele>7.0</ele><time>2026-04-12T16:35:42Z</time></trkpt><trkpt lat="44.583819652197036" lon="11.70553717204396"><ele>7.0</ele><time>2026-04-12T16:35:43Z</time></trkpt><trkpt lat="44.584000569647344" lon="11.705633758681778"><ele>7.0</ele><time>2026-04-12T16:35:44Z</time></trkpt><trkpt lat="44.58418539955628" lon="11.705757900286443"><ele>7.0</ele><time>2026-04-12T16:35:45Z</time></trkpt><trkpt lat="44.58436932676416" lon="11.70587223237885"><ele>7.0</ele><time>2026-04-12T16:35:46Z</time></trkpt><trkpt lat="44.58455677166914" lon="11.705979846498678"><ele>7.0</ele><time>2026-04-12T16:35:47Z</time></trkpt><trkpt lat="44.58474500278529" lon="11.706085961499756"><ele>7.0</ele><time>2026-04-12T16:35:48Z</time></trkpt><trkpt lat="44.58493695912538" lon="11.706204383103543"><ele>7.0</ele><time>2026-04-12T16:35:49Z</time></trkpt><trkpt lat="44.58512794352841" lon="11.706316585760177"><ele>7.0</ele><time>2026-04-12T16:35:50Z</time></trkpt><trkpt lat="44.58531960919356" lon="11.706428220137495"><ele>6.666666666666667</ele><time>2026-04-12T16:35:51Z</time></trkpt><trkpt lat="44.585510310163" lon="11.706540457271675"><ele>6.333333333333334</ele><time>2026-04-12T16:35:52Z</time></trkpt><trkpt lat="44.58570053525697" lon="11.70665172898868"><ele>6.0</ele><time>2026-04-12T16:35:53Z</time></trkpt><trkpt lat="44.58589028750117" lon="11.706764708976547"><ele>6.0</ele><time>2026-04-12T16:35:54Z</time></trkpt><trkpt lat="44.58608064327025" lon="11.706879846355074"><ele>6.0</ele><time>2026-04-12T16:35:55Z</time></trkpt><trkpt lat="44.586268006560225" lon="11.706990784166182"><ele>6.0</ele><time>2026-04-12T16:35:56Z</time></trkpt><trkpt lat="44.586456144280746" lon="11.707102137058335"><ele>6.0</ele><time>2026-04-12T16:35:57Z</time></trkpt><trkpt lat="44.586646188842245" lon="11.707212695397192"><ele>6.0</ele><time>2026-04-12T16:35:58Z</time></trkpt><trkpt lat="44.58683657165639" lon="11.707322936431225"><ele>6.0</ele><time>2026-04-12T16:35:59Z</time></trkpt><trkpt lat="44.587022957002645" lon="11.707434125181765"><ele>6.0</ele><time>2026-04-12T16:36:00Z</time></trkpt><trkpt lat="44.58721494966852" lon="11.707547724901406"><ele>6.0</ele><time>2026-04-12T16:36:01Z</time></trkpt><trkpt lat="44.58740198099389" lon="11.707658576577325"><ele>6.0</ele><time>2026-04-12T16:36:02Z</time></trkpt><trkpt lat="44.58758770100302" lon="11.707767944800894"><ele>6.0</ele><time>2026-04-12T16:36:03Z</time></trkpt><trkpt lat="44.58777374517395" lon="11.70787699032516"><ele>6.0</ele><time>2026-04-12T16:36:04Z</time></trkpt><trkpt lat="44.5879587929858" lon="11.707986207878726"><ele>6.0</ele><time>2026-04-12T16:36:05Z</time></trkpt><trkpt lat="44.5881457704083" lon="11.708095782475112"><ele>6.0</ele><time>2026-04-12T16:36:06Z</time></trkpt><trkpt lat="44.58832894221962" lon="11.708203742080606"><ele>6.0</ele><time>2026-04-12T16:36:07Z</time></trkpt><trkpt lat="44.588513627726826" lon="11.708312976570358"><ele>6.0</ele><time>2026-04-12T16:36:08Z</time></trkpt><trkpt lat="44.588698619535194" lon="11.70842210907091"><ele>6.0</ele><time>2026-04-12T16:36:09Z</time></trkpt><trkpt lat="44.588882476636456" lon="11.708531388653407"><ele>6.0</ele><time>2026-04-12T16:36:10Z</time></trkpt><trkpt lat="44.58906464638463" lon="11.708640682421798"><ele>6.0</ele><time>2026-04-12T16:36:11Z</time></trkpt><trkpt lat="44.58924946810826" lon="11.708750329313444"><ele>6.0</ele><time>2026-04-12T16:36:12Z</time></trkpt><trkpt lat="44.58943322835364" lon="11.708858566055513"><ele>6.0</ele><time>2026-04-12T16:36:13Z</time></trkpt><trkpt lat="44.589614450249826" lon="11.708967248112552"><ele>6.0</ele><time>2026-04-12T16:36:14Z</time></trkpt><trkpt lat="44.589797761530626" lon="11.70907628988414"><ele>6.333333333333334</ele><time>2026-04-12T16:36:15Z</time></trkpt><trkpt lat="44.58998204205817" lon="11.709185000660485"><ele>6.666666666666667</ele><time>2026-04-12T16:36:16Z</time></trkpt><trkpt lat="44.590166444359625" lon="11.709293458077251"><ele>7.0</ele><time>2026-04-12T16:36:17Z</time></trkpt><trkpt lat="44.5903506010322" lon="11.709404401212563"><ele>6.666666666666667</ele><time>2026-04-12T16:36:18Z</time></trkpt><trkpt lat="44.590535972077234" lon="11.709514018765706"><ele>6.333333333333334</ele><time>2026-04-12T16:36:19Z</time></trkpt><trkpt lat="44.59072128404038" lon="11.709628248872088"><ele>6.0</ele><time>2026-04-12T16:36:20Z</time></trkpt><trkpt lat="44.59090581331351" lon="11.709734739469388"><ele>6.0</ele><time>2026-04-12T16:36:21Z</time></trkpt><trkpt lat="44.5910927712364" lon="11.709844447005489"><ele>6.0</ele><time>2026-04-12T16:36:22Z</time></trkpt><trkpt lat="44.59127670002518" lon="11.70995114981223"><ele>6.0</ele><time>2026-04-12T16:36:23Z</time></trkpt><trkpt lat="44.59146100915152" lon="11.710058342043046"><ele>6.0</ele><time>2026-04-12T16:36:24Z</time></trkpt><trkpt lat="44.59164750080615" lon="11.710167716653665"><ele>6.0</ele><time>2026-04-12T16:36:25Z</time></trkpt><trkpt lat="44.591832508412324" lon="11.710277920312299"><ele>6.0</ele><time>2026-04-12T16:36:26Z</time></trkpt><trkpt lat="44.5920179651031" lon="11.710386836269203"><ele>6.0</ele><time>2026-04-12T16:36:27Z</time></trkpt><trkpt lat="44.59220032227818" lon="11.710496316247097"><ele>6.0</ele><time>2026-04-12T16:36:28Z</time></trkpt><trkpt lat="44.592385139747186" lon="11.710606216277668"><ele>6.0</ele><time>2026-04-12T16:36:29Z</time></trkpt><trkpt lat="44.592570005140765" lon="11.710715832087937"><ele>6.0</ele><time>2026-04-12T16:36:30Z</time></trkpt><trkpt lat="44.592751701764335" lon="11.710824236613849"><ele>6.0</ele><time>2026-04-12T16:36:31Z</time></trkpt><trkpt lat="44.59293297058688" lon="11.710930079626703"><ele>6.0</ele><time>2026-04-12T16:36:32Z</time></trkpt><trkpt lat="44.59310889338035" lon="11.71103398751203"><ele>5.666666666666667</ele><time>2026-04-12T16:36:33Z</time></trkpt><trkpt lat="44.5932777149314" lon="11.711133881832687"><ele>5.333333333333334</ele><time>2026-04-12T16:36:34Z</time></trkpt><trkpt lat="44.59344245418095" lon="11.71122989925982"><ele>5.0</ele><time>2026-04-12T16:36:35Z</time></trkpt><trkpt lat="44.59359835845371" lon="11.711326062191166"><ele>5.0</ele><time>2026-04-12T16:36:36Z</time></trkpt><trkpt lat="44.59375410528885" lon="11.71142910522788"><ele>5.0</ele><time>2026-04-12T16:36:37Z</time></trkpt><trkpt lat="44.59390618351997" lon="11.711550237918251"><ele>5.0</ele><time>2026-04-12T16:36:38Z</time></trkpt><trkpt lat="44.59404568460629" lon="11.711694774291253"><ele>5.0</ele><time>2026-04-12T16:36:39Z</time></trkpt><trkpt lat="44.59418683396782" lon="11.711854539376036"><ele>5.0</ele><time>2026-04-12T16:36:40Z</time></trkpt><trkpt lat="44.594343064410445" lon="11.711999365617718"><ele>5.0</ele><time>2026-04-12T16:36:41Z</time></trkpt><trkpt lat="44.594519232556316" lon="11.712119202297247"><ele>4.666666666666667</ele><time>2026-04-12T16:36:42Z</time></trkpt><trkpt lat="44.59471383703617" lon="11.712228982766899"><ele>4.333333333333333</ele><time>2026-04-12T16:36:43Z</time></trkpt><trkpt lat="44.594909253852265" lon="11.712336550067109"><ele>4.0</ele><time>2026-04-12T16:36:44Z</time></trkpt><trkpt lat="44.59511013844329" lon="11.712453318836607"><ele>4.0</ele><time>2026-04-12T16:36:45Z</time></trkpt><trkpt lat="44.595310818453136" lon="11.712571177910261"><ele>4.0</ele><time>2026-04-12T16:36:46Z</time></trkpt><trkpt lat="44.59551566640267" lon="11.712689490047303"><ele>4.0</ele><time>2026-04-12T16:36:47Z</time></trkpt><trkpt lat="44.59571716909421" lon="11.71280699580539"><ele>4.333333333333333</ele><time>2026-04-12T16:36:48Z</time></trkpt><trkpt lat="44.59591195652361" lon="11.712923547493299"><ele>4.666666666666667</ele><time>2026-04-12T16:36:49Z</time></trkpt><trkpt lat="44.596099235875954" lon="11.713035810268375"><ele>5.0</ele><time>2026-04-12T16:36:50Z</time></trkpt><trkpt lat="44.596284578802745" lon="11.713145537507385"><ele>5.333333333333334</ele><time>2026-04-12T16:36:51Z</time></trkpt><trkpt lat="44.59646813803497" lon="11.713254024956385"><ele>5.666666666666667</ele><time>2026-04-12T16:36:52Z</time></trkpt><trkpt lat="44.5966529662575" lon="11.713362234816971"><ele>6.0</ele><time>2026-04-12T16:36:53Z</time></trkpt><trkpt lat="44.59683640986546" lon="11.713469470428457"><ele>6.333333333333334</ele><time>2026-04-12T16:36:54Z</time></trkpt><trkpt lat="44.59701893525107" lon="11.713577056536007"><ele>6.666666666666667</ele><time>2026-04-12T16:36:55Z</time></trkpt><trkpt lat="44.59719774396974" lon="11.713684574411863"><ele>7.0</ele><time>2026-04-12T16:36:56Z</time></trkpt><trkpt lat="44.597360127062046" lon="11.713779740650793"><ele>7.0</ele><time>2026-04-12T16:36:57Z</time></trkpt><trkpt lat="44.59750804584671" lon="11.713868136678663"><ele>7.0</ele><time>2026-04-12T16:36:58Z</time></trkpt><trkpt lat="44.59764779031851" lon="11.71395315203636"><ele>7.0</ele><time>2026-04-12T16:36:59Z</time></trkpt><trkpt lat="44.59777273964747" lon="11.714030493984357"><ele>6.3999999999999995</ele><time>2026-04-12T16:37:00Z</time></trkpt><trkpt lat="44.5978806392729" lon="11.7140958454273"><ele>5.799999999999999</ele><time>2026-04-12T16:37:01Z</time></trkpt><trkpt lat="44.59797083362697" lon="11.714154951473699"><ele>5.2</ele><time>2026-04-12T16:37:02Z</time></trkpt><trkpt lat="44.598050054574045" lon="11.714210251943365"><ele>4.6</ele><time>2026-04-12T16:37:03Z</time></trkpt><trkpt lat="44.598118042792294" lon="11.714254590475237"><ele>4.0</ele><time>2026-04-12T16:37:04Z</time></trkpt><trkpt lat="44.59822848637606" lon="11.714259611179726"><ele>4.0</ele><time>2026-04-12T16:37:06Z</time></trkpt><trkpt lat="44.598291210449645" lon="11.714197833603002"><ele>4.0</ele><time>2026-04-12T16:37:07Z</time></trkpt><trkpt lat="44.59835458235235" lon="11.714082261124473"><ele>4.0</ele><time>2026-04-12T16:37:08Z</time></trkpt><trkpt lat="44.598430078593836" lon="11.71394634585119"><ele>4.0</ele><time>2026-04-12T16:37:09Z</time></trkpt><trkpt lat="44.598512886870836" lon="11.713802859274784"><ele>4.0</ele><time>2026-04-12T16:37:10Z</time></trkpt><trkpt lat="44.59859637677947" lon="11.713657577242692"><ele>4.25</ele><time>2026-04-12T16:37:11Z</time></trkpt><trkpt lat="44.59867277483758" lon="11.713504270057243"><ele>4.5</ele><time>2026-04-12T16:37:12Z</time></trkpt><trkpt lat="44.598745190183855" lon="11.713324167968274"><ele>4.75</ele><time>2026-04-12T16:37:13Z</time></trkpt><trkpt lat="44.59880658445371" lon="11.71311605186508"><ele>5.0</ele><time>2026-04-12T16:37:14Z</time></trkpt><trkpt lat="44.59885260068169" lon="11.712906620354325"><ele>5.333333333333334</ele><time>2026-04-12T16:37:15Z</time></trkpt><trkpt lat="44.59889264312427" lon="11.71269680193417"><ele>5.666666666666667</ele><time>2026-04-12T16:37:16Z</time></trkpt><trkpt lat="44.598931187610766" lon="11.712461723253702"><ele>6.0</ele><time>2026-04-12T16:37:17Z</time></trkpt><trkpt lat="44.59896939358005" lon="11.712226962074293"><ele>6.0</ele><time>2026-04-12T16:37:18Z</time></trkpt><trkpt lat="44.59901893252619" lon="11.711993248467788"><ele>6.0</ele><time>2026-04-12T16:37:19Z</time></trkpt><trkpt lat="44.59907830570476" lon="11.711755589690252"><ele>6.0</ele><time>2026-04-12T16:37:20Z</time></trkpt><trkpt lat="44.599143991601885" lon="11.711519916719343"><ele>6.333333333333334</ele><time>2026-04-12T16:37:21Z</time></trkpt><trkpt lat="44.59921321424213" lon="11.711283835856507"><ele>6.666666666666667</ele><time>2026-04-12T16:37:22Z</time></trkpt><trkpt lat="44.59927959333349" lon="11.711037633634842"><ele>7.0</ele><time>2026-04-12T16:37:23Z</time></trkpt><trkpt lat="44.59934342145634" lon="11.710792881450216"><ele>6.333333333333334</ele><time>2026-04-12T16:37:24Z</time></trkpt><trkpt lat="44.59941002804849" lon="11.710551708238514"><ele>5.666666666666667</ele><time>2026-04-12T16:37:25Z</time></trkpt><trkpt lat="44.59947568752083" lon="11.710300701001424"><ele>5.0</ele><time>2026-04-12T16:37:26Z</time></trkpt><trkpt lat="44.59954181195787" lon="11.710053339985745"><ele>4.666666666666667</ele><time>2026-04-12T16:37:27Z</time></trkpt><trkpt lat="44.5996087274741" lon="11.70981483316706"><ele>4.333333333333333</ele><time>2026-04-12T16:37:28Z</time></trkpt><trkpt lat="44.59967137213196" lon="11.709569222523115"><ele>4.0</ele><time>2026-04-12T16:37:29Z</time></trkpt><trkpt lat="44.59973630400621" lon="11.709320900112326"><ele>4.0</ele><time>2026-04-12T16:37:30Z</time></trkpt><trkpt lat="44.5998023089002" lon="11.7090715714413"><ele>4.0</ele><time>2026-04-12T16:37:31Z</time></trkpt><trkpt lat="44.59986866667197" lon="11.708824638013127"><ele>4.0</ele><time>2026-04-12T16:37:32Z</time></trkpt><trkpt lat="44.59993179461873" lon="11.708586973843145"><ele>4.0</ele><time>2026-04-12T16:37:33Z</time></trkpt><trkpt lat="44.59998813771035" lon="11.70836841789625"><ele>4.0</ele><time>2026-04-12T16:37:34Z</time></trkpt><trkpt lat="44.600042147889354" lon="11.708165214731864"><ele>4.0</ele><time>2026-04-12T16:37:35Z</time></trkpt><trkpt lat="44.60009938739702" lon="11.707953922295884"><ele>4.0</ele><time>2026-04-12T16:37:36Z</time></trkpt><trkpt lat="44.6001560920447" lon="11.7077291721097"><ele>4.0</ele><time>2026-04-12T16:37:37Z</time></trkpt><trkpt lat="44.600213142165316" lon="11.707499173063697"><ele>4.0</ele><time>2026-04-12T16:37:38Z</time></trkpt><trkpt lat="44.60027716175946" lon="11.707263008473547"><ele>4.0</ele><time>2026-04-12T16:37:39Z</time></trkpt><trkpt lat="44.60034064049576" lon="11.707023207266506"><ele>4.0</ele><time>2026-04-12T16:37:40Z</time></trkpt><trkpt lat="44.60040245348585" lon="11.706775075708917"><ele>4.0</ele><time>2026-04-12T16:37:41Z</time></trkpt><trkpt lat="44.60047063364683" lon="11.706530998434369"><ele>4.0</ele><time>2026-04-12T16:37:42Z</time></trkpt><trkpt lat="44.6005569837463" lon="11.706300132783175"><ele>4.0</ele><time>2026-04-12T16:37:43Z</time></trkpt><trkpt lat="44.60067198024626" lon="11.706087517529589"><ele>4.0</ele><time>2026-04-12T16:37:44Z</time></trkpt><trkpt lat="44.600806013894854" lon="11.705892492268367"><ele>4.0</ele><time>2026-04-12T16:37:45Z</time></trkpt><trkpt lat="44.60094911842402" lon="11.705706421605575"><ele>4.0</ele><time>2026-04-12T16:37:46Z</time></trkpt><trkpt lat="44.601094401835695" lon="11.705511276355573"><ele>4.0</ele><time>2026-04-12T16:37:47Z</time></trkpt><trkpt lat="44.60123515301028" lon="11.705313167373967"><ele>4.0</ele><time>2026-04-12T16:37:48Z</time></trkpt><trkpt lat="44.60137274269388" lon="11.705117677690497"><ele>4.0</ele><time>2026-04-12T16:37:49Z</time></trkpt><trkpt lat="44.60151204078045" lon="11.704919766491209"><ele>4.0</ele><time>2026-04-12T16:37:50Z</time></trkpt><trkpt lat="44.60165234776407" lon="11.704719347687961"><ele>4.0</ele><time>2026-04-12T16:37:51Z</time></trkpt><trkpt lat="44.60179119487279" lon="11.704521229871057"><ele>4.0</ele><time>2026-04-12T16:37:52Z</time></trkpt><trkpt lat="44.60194138433771" lon="11.704332477626023"><ele>4.0</ele><time>2026-04-12T16:37:53Z</time></trkpt><trkpt lat="44.602104191794574" lon="11.70417359617123"><ele>3.6666666666666665</ele><time>2026-04-12T16:37:54Z</time></trkpt><trkpt lat="44.60227153100385" lon="11.704026757171054"><ele>3.333333333333333</ele><time>2026-04-12T16:37:55Z</time></trkpt><trkpt lat="44.60244129913678" lon="11.703885082860374"><ele>3.0</ele><time>2026-04-12T16:37:56Z</time></trkpt><trkpt lat="44.60261462224017" lon="11.703749634768164"><ele>3.0</ele><time>2026-04-12T16:37:57Z</time></trkpt><trkpt lat="44.60278557768166" lon="11.70361020742651"><ele>3.0</ele><time>2026-04-12T16:37:58Z</time></trkpt><trkpt lat="44.602955778478204" lon="11.703468693835495"><ele>3.0</ele><time>2026-04-12T16:37:59Z</time></trkpt><trkpt lat="44.60312916772765" lon="11.703326807347377"><ele>3.0</ele><time>2026-04-12T16:38:00Z</time></trkpt><trkpt lat="44.6033057558179" lon="11.703184745801112"><ele>3.0</ele><time>2026-04-12T16:38:01Z</time></trkpt><trkpt lat="44.60348090578969" lon="11.703040334471936"><ele>3.0</ele><time>2026-04-12T16:38:02Z</time></trkpt><trkpt lat="44.603652095227915" lon="11.702892740475221"><ele>3.333333333333333</ele><time>2026-04-12T16:38:03Z</time></trkpt><trkpt lat="44.603821229241014" lon="11.702732334341247"><ele>3.6666666666666665</ele><time>2026-04-12T16:38:04Z</time></trkpt><trkpt lat="44.60398209862189" lon="11.702559501132521"><ele>4.0</ele><time>2026-04-12T16:38:05Z</time></trkpt><trkpt lat="44.60414581295757" lon="11.702378750694173"><ele>4.0</ele><time>2026-04-12T16:38:06Z</time></trkpt><trkpt lat="44.604305438680505" lon="11.70219787012363"><ele>4.0</ele><time>2026-04-12T16:38:07Z</time></trkpt><trkpt lat="44.60446306455292" lon="11.702012056950343"><ele>4.0</ele><time>2026-04-12T16:38:08Z</time></trkpt><trkpt lat="44.60462318990827" lon="11.70182699714387"><ele>4.333333333333333</ele><time>2026-04-12T16:38:09Z</time></trkpt><trkpt lat="44.60478429773223" lon="11.701644010771119"><ele>4.666666666666667</ele><time>2026-04-12T16:38:10Z</time></trkpt><trkpt lat="44.60494896318238" lon="11.701459315346916"><ele>5.0</ele><time>2026-04-12T16:38:11Z</time></trkpt><trkpt lat="44.60511420274998" lon="11.701276080197754"><ele>5.0</ele><time>2026-04-12T16:38:12Z</time></trkpt><trkpt lat="44.60527820192228" lon="11.70109257783916"><ele>5.0</ele><time>2026-04-12T16:38:13Z</time></trkpt><trkpt lat="44.60543897965008" lon="11.700910770667612"><ele>5.0</ele><time>2026-04-12T16:38:14Z</time></trkpt><trkpt lat="44.605600393723705" lon="11.700728996626504"><ele>5.0</ele><time>2026-04-12T16:38:15Z</time></trkpt><trkpt lat="44.60576053708105" lon="11.70055079793567"><ele>5.0</ele><time>2026-04-12T16:38:16Z</time></trkpt><trkpt lat="44.60591906763311" lon="11.700368815181369"><ele>5.0</ele><time>2026-04-12T16:38:17Z</time></trkpt><trkpt lat="44.60607793716872" lon="11.700184803959766"><ele>5.333333333333334</ele><time>2026-04-12T16:38:18Z</time></trkpt><trkpt lat="44.60623801000545" lon="11.70000363539759"><ele>5.666666666666667</ele><time>2026-04-12T16:38:19Z</time></trkpt><trkpt lat="44.606397485848866" lon="11.69982395589397"><ele>6.0</ele><time>2026-04-12T16:38:20Z</time></trkpt><trkpt lat="44.60655861455854" lon="11.699642094149281"><ele>6.0</ele><time>2026-04-12T16:38:21Z</time></trkpt><trkpt lat="44.606718558101356" lon="11.699461335444484"><ele>6.0</ele><time>2026-04-12T16:38:22Z</time></trkpt><trkpt lat="44.60687870191957" lon="11.699280270065563"><ele>6.0</ele><time>2026-04-12T16:38:23Z</time></trkpt><trkpt lat="44.607038404902276" lon="11.699103579023634"><ele>6.333333333333334</ele><time>2026-04-12T16:38:24Z</time></trkpt><trkpt lat="44.607195836597654" lon="11.698923368334256"><ele>6.666666666666667</ele><time>2026-04-12T16:38:25Z</time></trkpt><trkpt lat="44.60735710374111" lon="11.698746993266328"><ele>7.0</ele><time>2026-04-12T16:38:26Z</time></trkpt><trkpt lat="44.60751834714107" lon="11.698569414221955"><ele>7.0</ele><time>2026-04-12T16:38:27Z</time></trkpt><trkpt lat="44.60767900179609" lon="11.698390500265571"><ele>7.0</ele><time>2026-04-12T16:38:28Z</time></trkpt><trkpt lat="44.607840159667305" lon="11.698207580233795"><ele>7.0</ele><time>2026-04-12T16:38:29Z</time></trkpt><trkpt lat="44.60800057887811" lon="11.698022481367786"><ele>6.0</ele><time>2026-04-12T16:38:30Z</time></trkpt><trkpt lat="44.60816178313618" lon="11.697846292852775"><ele>5.0</ele><time>2026-04-12T16:38:31Z</time></trkpt><trkpt lat="44.60832476608062" lon="11.697667520234077"><ele>4.0</ele><time>2026-04-12T16:38:32Z</time></trkpt><trkpt lat="44.608486320919624" lon="11.69748974728835"><ele>4.0</ele><time>2026-04-12T16:38:33Z</time></trkpt><trkpt lat="44.60864747616092" lon="11.697309252077789"><ele>4.0</ele><time>2026-04-12T16:38:34Z</time></trkpt><trkpt lat="44.60880972362116" lon="11.697126442368802"><ele>4.0</ele><time>2026-04-12T16:38:35Z</time></trkpt><trkpt lat="44.608971766293514" lon="11.696942692648244"><ele>4.666666666666666</ele><time>2026-04-12T16:38:36Z</time></trkpt><trkpt lat="44.60913424676999" lon="11.696762097823965"><ele>5.333333333333333</ele><time>2026-04-12T16:38:37Z</time></trkpt><trkpt lat="44.609297200276266" lon="11.69658001874646"><ele>6.0</ele><time>2026-04-12T16:38:38Z</time></trkpt><trkpt lat="44.60945935436384" lon="11.69639860335324"><ele>6.0</ele><time>2026-04-12T16:38:39Z</time></trkpt><trkpt lat="44.60962426746228" lon="11.696217998982885"><ele>6.0</ele><time>2026-04-12T16:38:40Z</time></trkpt><trkpt lat="44.60977945245967" lon="11.696047423496363"><ele>6.0</ele><time>2026-04-12T16:38:41Z</time></trkpt><trkpt lat="44.60992527121105" lon="11.695879398214345"><ele>4.666666666666667</ele><time>2026-04-12T16:38:42Z</time></trkpt><trkpt lat="44.6100728374218" lon="11.69571455941849"><ele>3.333333333333333</ele><time>2026-04-12T16:38:43Z</time></trkpt><trkpt lat="44.61022217169278" lon="11.695545726688716"><ele>2.0</ele><time>2026-04-12T16:38:44Z</time></trkpt><trkpt lat="44.61037175551679" lon="11.695374611878515"><ele>2.6666666666666665</ele><time>2026-04-12T16:38:45Z</time></trkpt><trkpt lat="44.610512435142084" lon="11.695215023900218"><ele>3.333333333333333</ele><time>2026-04-12T16:38:46Z</time></trkpt><trkpt lat="44.61064447581866" lon="11.695070989447288"><ele>4.0</ele><time>2026-04-12T16:38:47Z</time></trkpt><trkpt lat="44.610770392848174" lon="11.694927748303774"><ele>4.0</ele><time>2026-04-12T16:38:48Z</time></trkpt><trkpt lat="44.61088512783008" lon="11.694798008199976"><ele>4.0</ele><time>2026-04-12T16:38:49Z</time></trkpt><trkpt lat="44.61099755707288" lon="11.694674031049859"><ele>4.0</ele><time>2026-04-12T16:38:50Z</time></trkpt><trkpt lat="44.611111046336866" lon="11.694547970898531"><ele>4.0</ele><time>2026-04-12T16:38:51Z</time></trkpt><trkpt lat="44.61121496361261" lon="11.694425457770485"><ele>4.25</ele><time>2026-04-12T16:38:52Z</time></trkpt><trkpt lat="44.61131888448768" lon="11.694314220345618"><ele>4.5</ele><time>2026-04-12T16:38:53Z</time></trkpt><trkpt lat="44.611429065911075" lon="11.694227297480076"><ele>4.75</ele><time>2026-04-12T16:38:54Z</time></trkpt><trkpt lat="44.61156074514549" lon="11.694161470758003"><ele>5.0</ele><time>2026-04-12T16:38:55Z</time></trkpt><trkpt lat="44.61170405319173" lon="11.6941373310537"><ele>5.0</ele><time>2026-04-12T16:38:56Z</time></trkpt><trkpt lat="44.611859461056625" lon="11.694151472958717"><ele>5.0</ele><time>2026-04-12T16:38:57Z</time></trkpt><trkpt lat="44.61203140931894" lon="11.694212481068954"><ele>5.0</ele><time>2026-04-12T16:38:58Z</time></trkpt><trkpt lat="44.612223766191384" lon="11.694303334566468"><ele>5.0</ele><time>2026-04-12T16:38:59Z</time></trkpt><trkpt lat="44.612437834817015" lon="11.694390411850593"><ele>5.0</ele><time>2026-04-12T16:39:00Z</time></trkpt><trkpt lat="44.612616035603594" lon="11.694454048957807"><ele>5.0</ele><time>2026-04-12T16:39:01Z</time></trkpt><trkpt lat="44.612760673764576" lon="11.694518103833644"><ele>4.75</ele><time>2026-04-12T16:39:02Z</time></trkpt><trkpt lat="44.612908213204555" lon="11.69456992957907"><ele>4.5</ele><time>2026-04-12T16:39:03Z</time></trkpt><trkpt lat="44.61304997875013" lon="11.694615590950471"><ele>4.25</ele><time>2026-04-12T16:39:04Z</time></trkpt><trkpt lat="44.61318259944012" lon="11.694671855797864"><ele>4.0</ele><time>2026-04-12T16:39:05Z</time></trkpt><trkpt lat="44.613318829632405" lon="11.694724777485677"><ele>4.0</ele><time>2026-04-12T16:39:06Z</time></trkpt><trkpt lat="44.61343882824935" lon="11.694763221495222"><ele>4.0</ele><time>2026-04-12T16:39:07Z</time></trkpt><trkpt lat="44.613550295210395" lon="11.694798952695772"><ele>4.0</ele><time>2026-04-12T16:39:08Z</time></trkpt><trkpt lat="44.613645942820874" lon="11.694822053217395"><ele>4.0</ele><time>2026-04-12T16:39:09Z</time></trkpt><trkpt lat="44.613733656396576" lon="11.694817332039234"><ele>4.0</ele><time>2026-04-12T16:39:10Z</time></trkpt><trkpt lat="44.613836794495384" lon="11.694762727719251"><ele>4.0</ele><time>2026-04-12T16:39:11Z</time></trkpt><trkpt lat="44.61393892623763" lon="11.694665661943274"><ele>4.0</ele><time>2026-04-12T16:39:12Z</time></trkpt><trkpt lat="44.614028753766945" lon="11.694518925614485"><ele>4.0</ele><time>2026-04-12T16:39:13Z</time></trkpt><trkpt lat="44.614096161785184" lon="11.694332870344441"><ele>4.0</ele><time>2026-04-12T16:39:14Z</time></trkpt><trkpt lat="44.6141602444455" lon="11.6941167429744"><ele>4.0</ele><time>2026-04-12T16:39:15Z</time></trkpt><trkpt lat="44.61423543271768" lon="11.693840019758117"><ele>4.0</ele><time>2026-04-12T16:39:16Z</time></trkpt><trkpt lat="44.614311694300426" lon="11.693549540373226"><ele>4.0</ele><time>2026-04-12T16:39:17Z</time></trkpt><trkpt lat="44.614395682668764" lon="11.693261791382705"><ele>3.6666666666666665</ele><time>2026-04-12T16:39:18Z</time></trkpt><trkpt lat="44.61447583217519" lon="11.692979648929661"><ele>3.333333333333333</ele><time>2026-04-12T16:39:19Z</time></trkpt><trkpt lat="44.61455135778204" lon="11.692711347897088"><ele>3.0</ele><time>2026-04-12T16:39:20Z</time></trkpt><trkpt lat="44.614623449480284" lon="11.692448995157854"><ele>3.0</ele><time>2026-04-12T16:39:21Z</time></trkpt><trkpt lat="44.61470024699751" lon="11.692178649852032"><ele>3.0</ele><time>2026-04-12T16:39:22Z</time></trkpt><trkpt lat="44.61477601992021" lon="11.691912043213854"><ele>3.0</ele><time>2026-04-12T16:39:23Z</time></trkpt><trkpt lat="44.61485116819373" lon="11.691641060622153"><ele>3.0</ele><time>2026-04-12T16:39:24Z</time></trkpt><trkpt lat="44.61492783939841" lon="11.691369142971084"><ele>3.0</ele><time>2026-04-12T16:39:25Z</time></trkpt><trkpt lat="44.615000967044196" lon="11.691101892140331"><ele>3.0</ele><time>2026-04-12T16:39:26Z</time></trkpt><trkpt lat="44.61507574509647" lon="11.690837373792755"><ele>3.0</ele><time>2026-04-12T16:39:27Z</time></trkpt><trkpt lat="44.615148663927116" lon="11.690570100992241"><ele>3.0</ele><time>2026-04-12T16:39:28Z</time></trkpt><trkpt lat="44.61521879503037" lon="11.690312468391879"><ele>3.0</ele><time>2026-04-12T16:39:29Z</time></trkpt><trkpt lat="44.615288781368726" lon="11.690053122294533"><ele>2.6666666666666665</ele><time>2026-04-12T16:39:30Z</time></trkpt><trkpt lat="44.61536084167466" lon="11.68978985665643"><ele>2.333333333333333</ele><time>2026-04-12T16:39:31Z</time></trkpt><trkpt lat="44.615433345886544" lon="11.689527769819797"><ele>2.0</ele><time>2026-04-12T16:39:32Z</time></trkpt><trkpt lat="44.615505139792084" lon="11.689264578611176"><ele>2.333333333333333</ele><time>2026-04-12T16:39:33Z</time></trkpt><trkpt lat="44.61557821474237" lon="11.689000321176728"><ele>2.6666666666666665</ele><time>2026-04-12T16:39:34Z</time></trkpt><trkpt lat="44.615650079102544" lon="11.688734680648048"><ele>3.0</ele><time>2026-04-12T16:39:35Z</time></trkpt><trkpt lat="44.6157225937221" lon="11.688466661718163"><ele>3.0</ele><time>2026-04-12T16:39:36Z</time></trkpt><trkpt lat="44.61579391854186" lon="11.688201635542715"><ele>3.0</ele><time>2026-04-12T16:39:37Z</time></trkpt><trkpt lat="44.61586565377559" lon="11.68793495758398"><ele>3.0</ele><time>2026-04-12T16:39:38Z</time></trkpt><trkpt lat="44.615934371631326" lon="11.687671695129707"><ele>2.3333333333333335</ele><time>2026-04-12T16:39:39Z</time></trkpt><trkpt lat="44.61600641300713" lon="11.687402690404607"><ele>1.6666666666666665</ele><time>2026-04-12T16:39:40Z</time></trkpt><trkpt lat="44.61607770603496" lon="11.687137942984167"><ele>1.0</ele><time>2026-04-12T16:39:41Z</time></trkpt><trkpt lat="44.61614959619802" lon="11.68686818803511"><ele>1.6666666666666665</ele><time>2026-04-12T16:39:42Z</time></trkpt><trkpt lat="44.61622006277494" lon="11.686596478951985"><ele>2.3333333333333335</ele><time>2026-04-12T16:39:43Z</time></trkpt><trkpt lat="44.61629167201906" lon="11.686327804927902"><ele>3.0</ele><time>2026-04-12T16:39:44Z</time></trkpt><trkpt lat="44.61636377997677" lon="11.686054480140001"><ele>3.0</ele><time>2026-04-12T16:39:45Z</time></trkpt><trkpt lat="44.61643356989756" lon="11.685791425963407"><ele>3.0</ele><time>2026-04-12T16:39:46Z</time></trkpt><trkpt lat="44.61650209727508" lon="11.685534297964356"><ele>3.0</ele><time>2026-04-12T16:39:47Z</time></trkpt><trkpt lat="44.61656933722965" lon="11.685286201360263"><ele>3.666666666666667</ele><time>2026-04-12T16:39:48Z</time></trkpt><trkpt lat="44.616633772323" lon="11.685038540297006"><ele>4.333333333333334</ele><time>2026-04-12T16:39:49Z</time></trkpt><trkpt lat="44.616693727491395" lon="11.684803663911122"><ele>5.0</ele><time>2026-04-12T16:39:50Z</time></trkpt><trkpt lat="44.61675016213176" lon="11.684588804077999"><ele>5.5</ele><time>2026-04-12T16:39:51Z</time></trkpt><trkpt lat="44.61680323334044" lon="11.684384184788534"><ele>6.0</ele><time>2026-04-12T16:39:52Z</time></trkpt><trkpt lat="44.61685442338007" lon="11.684194636590288"><ele>6.5</ele><time>2026-04-12T16:39:53Z</time></trkpt><trkpt lat="44.6168959739136" lon="11.684026021657635"><ele>7.0</ele><time>2026-04-12T16:39:54Z</time></trkpt><trkpt lat="44.616937316865894" lon="11.68387104702422"><ele>7.0</ele><time>2026-04-12T16:39:55Z</time></trkpt><trkpt lat="44.6169734976148" lon="11.683731359074992"><ele>6.999999999999999</ele><time>2026-04-12T16:39:56Z</time></trkpt><trkpt lat="44.61700649607283" lon="11.683608491855951"><ele>6.999999999999999</ele><time>2026-04-12T16:39:57Z</time></trkpt><trkpt lat="44.617036289171125" lon="11.683498948945568"><ele>7.0</ele><time>2026-04-12T16:39:58Z</time></trkpt><trkpt lat="44.61706633121843" lon="11.683402541774091"><ele>7.0</ele><time>2026-04-12T16:39:59Z</time></trkpt><trkpt lat="44.61712284657899" lon="11.683282006151968"><ele>7.000000000000001</ele><time>2026-04-12T16:40:01Z</time></trkpt><trkpt lat="44.617158545805204" lon="11.68318055656645"><ele>7.0</ele><time>2026-04-12T16:40:04Z</time></trkpt><trkpt lat="44.61711596958313" lon="11.683042354224701"><ele>7.0</ele><time>2026-04-12T16:40:06Z</time></trkpt><trkpt lat="44.617061866517005" lon="11.68298951077414"><ele>7.0</ele><time>2026-04-12T16:40:07Z</time></trkpt><trkpt lat="44.61699671292674" lon="11.682942540844458"><ele>7.000000000000001</ele><time>2026-04-12T16:40:08Z</time></trkpt><trkpt lat="44.616918579202505" lon="11.682903115630813"><ele>7.0</ele><time>2026-04-12T16:40:09Z</time></trkpt><trkpt lat="44.61682596500226" lon="11.682873797368508"><ele>7.0</ele><time>2026-04-12T16:40:10Z</time></trkpt><trkpt lat="44.61673166361519" lon="11.68285067851344"><ele>6.999999999999999</ele><time>2026-04-12T16:40:11Z</time></trkpt><trkpt lat="44.61663090522167" lon="11.682817470315086"><ele>6.999999999999999</ele><time>2026-04-12T16:40:12Z</time></trkpt><trkpt lat="44.616520642212976" lon="11.682776871181689"><ele>7.0</ele><time>2026-04-12T16:40:13Z</time></trkpt><trkpt lat="44.61640073753962" lon="11.68273823472114"><ele>7.0</ele><time>2026-04-12T16:40:14Z</time></trkpt><trkpt lat="44.61628236150294" lon="11.68269879646924"><ele>7.0</ele><time>2026-04-12T16:40:15Z</time></trkpt><trkpt lat="44.616165911548315" lon="11.68265053109214"><ele>7.0</ele><time>2026-04-12T16:40:16Z</time></trkpt><trkpt lat="44.6160444342277" lon="11.682584696975175"><ele>7.0</ele><time>2026-04-12T16:40:17Z</time></trkpt><trkpt lat="44.61592321783514" lon="11.682508186106174"><ele>7.0</ele><time>2026-04-12T16:40:18Z</time></trkpt><trkpt lat="44.6158064400124" lon="11.682438149910913"><ele>6.75</ele><time>2026-04-12T16:40:19Z</time></trkpt><trkpt lat="44.61569441767825" lon="11.68237591865013"><ele>6.5</ele><time>2026-04-12T16:40:20Z</time></trkpt><trkpt lat="44.61557816819887" lon="11.68231381407653"><ele>6.25</ele><time>2026-04-12T16:40:21Z</time></trkpt><trkpt lat="44.61546559228004" lon="11.682246719469155"><ele>6.0</ele><time>2026-04-12T16:40:22Z</time></trkpt><trkpt lat="44.61535458227557" lon="11.68217972577817"><ele>5.75</ele><time>2026-04-12T16:40:23Z</time></trkpt><trkpt lat="44.615244757457596" lon="11.682118903671789"><ele>5.5</ele><time>2026-04-12T16:40:24Z</time></trkpt><trkpt lat="44.61513467638205" lon="11.68205768222696"><ele>5.25</ele><time>2026-04-12T16:40:25Z</time></trkpt><trkpt lat="44.61502345462982" lon="11.681998789686714"><ele>5.0</ele><time>2026-04-12T16:40:26Z</time></trkpt><trkpt lat="44.61491117408261" lon="11.681935752667572"><ele>5.2</ele><time>2026-04-12T16:40:27Z</time></trkpt><trkpt lat="44.61480270906047" lon="11.681867195576977"><ele>5.4</ele><time>2026-04-12T16:40:28Z</time></trkpt><trkpt lat="44.614696448263025" lon="11.681805971636368"><ele>5.6</ele><time>2026-04-12T16:40:29Z</time></trkpt><trkpt lat="44.6146016268899" lon="11.681751503994287"><ele>5.8</ele><time>2026-04-12T16:40:30Z</time></trkpt><trkpt lat="44.61450164985624" lon="11.681690319925481"><ele>6.0</ele><time>2026-04-12T16:40:31Z</time></trkpt><trkpt lat="44.614399056239165" lon="11.681633400335109"><ele>5.5</ele><time>2026-04-12T16:40:32Z</time></trkpt><trkpt lat="44.61429462736773" lon="11.681573319457657"><ele>5.0</ele><time>2026-04-12T16:40:33Z</time></trkpt><trkpt lat="44.61417847477544" lon="11.68151205605215"><ele>4.5</ele><time>2026-04-12T16:40:34Z</time></trkpt><trkpt lat="44.614041451118936" lon="11.681436495390628"><ele>4.0</ele><time>2026-04-12T16:40:35Z</time></trkpt><trkpt lat="44.613908383742675" lon="11.681363727894125"><ele>4.0</ele><time>2026-04-12T16:40:36Z</time></trkpt><trkpt lat="44.61379189606313" lon="11.681292846391615"><ele>4.0</ele><time>2026-04-12T16:40:37Z</time></trkpt><trkpt lat="44.61368727100714" lon="11.681229728868832"><ele>4.0</ele><time>2026-04-12T16:40:38Z</time></trkpt><trkpt lat="44.61359046763489" lon="11.681170481382006"><ele>4.0</ele><time>2026-04-12T16:40:39Z</time></trkpt><trkpt lat="44.613494921355965" lon="11.681099104002802"><ele>4.0</ele><time>2026-04-12T16:40:40Z</time></trkpt><trkpt lat="44.61341432723474" lon="11.680990512810919"><ele>4.0</ele><time>2026-04-12T16:40:41Z</time></trkpt><trkpt lat="44.61335388769999" lon="11.680852527410474"><ele>4.0</ele><time>2026-04-12T16:40:42Z</time></trkpt><trkpt lat="44.61331856735737" lon="11.68068358939558"><ele>4.0</ele><time>2026-04-12T16:40:43Z</time></trkpt><trkpt lat="44.61331056051146" lon="11.6805052576261"><ele>4.0</ele><time>2026-04-12T16:40:44Z</time></trkpt><trkpt lat="44.613320810219065" lon="11.680333874483972"><ele>4.0</ele><time>2026-04-12T16:40:45Z</time></trkpt><trkpt lat="44.61333836211379" lon="11.680158330934185"><ele>4.0</ele><time>2026-04-12T16:40:46Z</time></trkpt><trkpt lat="44.61335115165145" lon="11.679985690071867"><ele>4.0</ele><time>2026-04-12T16:40:47Z</time></trkpt><trkpt lat="44.613360765665135" lon="11.679810264185456"><ele>4.0</ele><time>2026-04-12T16:40:48Z</time></trkpt><trkpt lat="44.61337630019438" lon="11.67965116131964"><ele>4.0</ele><time>2026-04-12T16:40:49Z</time></trkpt><trkpt lat="44.613398772047105" lon="11.679494274682593"><ele>4.0</ele><time>2026-04-12T16:40:50Z</time></trkpt><trkpt lat="44.613417909246856" lon="11.67933501339936"><ele>4.0</ele><time>2026-04-12T16:40:51Z</time></trkpt><trkpt lat="44.61343297406649" lon="11.67916620148904"><ele>4.0</ele><time>2026-04-12T16:40:52Z</time></trkpt><trkpt lat="44.61344385149405" lon="11.679009489420128"><ele>4.0</ele><time>2026-04-12T16:40:53Z</time></trkpt><trkpt lat="44.6134588712159" lon="11.678869976575232"><ele>4.0</ele><time>2026-04-12T16:40:54Z</time></trkpt><trkpt lat="44.61347020782594" lon="11.678744632331778"><ele>4.0</ele><time>2026-04-12T16:40:55Z</time></trkpt><trkpt lat="44.61348484730096" lon="11.67861108335892"><ele>4.0</ele><time>2026-04-12T16:40:56Z</time></trkpt><trkpt lat="44.61349814093962" lon="11.678477830699432"><ele>4.4</ele><time>2026-04-12T16:40:57Z</time></trkpt><trkpt lat="44.61350761205072" lon="11.678359414807804"><ele>4.800000000000001</ele><time>2026-04-12T16:40:58Z</time></trkpt><trkpt lat="44.61352298733079" lon="11.678246497935119"><ele>5.199999999999999</ele><time>2026-04-12T16:40:59Z</time></trkpt><trkpt lat="44.61353282684858" lon="11.678122129558643"><ele>5.6</ele><time>2026-04-12T16:41:00Z</time></trkpt><trkpt lat="44.61354569486077" lon="11.677969146489396"><ele>6.0</ele><time>2026-04-12T16:41:01Z</time></trkpt><trkpt lat="44.61355912812767" lon="11.677802034276057"><ele>6.0</ele><time>2026-04-12T16:41:02Z</time></trkpt><trkpt lat="44.61357310424219" lon="11.677638652802123"><ele>6.0</ele><time>2026-04-12T16:41:03Z</time></trkpt><trkpt lat="44.613585337826315" lon="11.677467604941361"><ele>6.0</ele><time>2026-04-12T16:41:04Z</time></trkpt><trkpt lat="44.613596254335064" lon="11.677303360529182"><ele>6.0</ele><time>2026-04-12T16:41:05Z</time></trkpt><trkpt lat="44.61360923478662" lon="11.677142715719192"><ele>6.0</ele><time>2026-04-12T16:41:06Z</time></trkpt><trkpt lat="44.61362390484568" lon="11.67698897987798"><ele>6.0</ele><time>2026-04-12T16:41:07Z</time></trkpt><trkpt lat="44.61363690418949" lon="11.676834752902778"><ele>6.0</ele><time>2026-04-12T16:41:08Z</time></trkpt><trkpt lat="44.61364953899895" lon="11.676680696017288"><ele>6.0</ele><time>2026-04-12T16:41:09Z</time></trkpt><trkpt lat="44.61366298538439" lon="11.676523721244894"><ele>6.0</ele><time>2026-04-12T16:41:10Z</time></trkpt><trkpt lat="44.61367659910384" lon="11.67636901905402"><ele>6.0</ele><time>2026-04-12T16:41:11Z</time></trkpt><trkpt lat="44.61369057524823" lon="11.676210384640248"><ele>6.0</ele><time>2026-04-12T16:41:12Z</time></trkpt><trkpt lat="44.61370075819118" lon="11.676050442138406"><ele>6.0</ele><time>2026-04-12T16:41:13Z</time></trkpt><trkpt lat="44.613713389992505" lon="11.675896018153344"><ele>6.0</ele><time>2026-04-12T16:41:14Z</time></trkpt><trkpt lat="44.61372643692827" lon="11.675738554628342"><ele>6.199999999999999</ele><time>2026-04-12T16:41:15Z</time></trkpt><trkpt lat="44.61373818718035" lon="11.675583811652416"><ele>6.3999999999999995</ele><time>2026-04-12T16:41:16Z</time></trkpt><trkpt lat="44.61374992916843" lon="11.675427603251778"><ele>6.6</ele><time>2026-04-12T16:41:17Z</time></trkpt><trkpt lat="44.613763405735476" lon="11.675271635295465"><ele>6.8</ele><time>2026-04-12T16:41:18Z</time></trkpt><trkpt lat="44.61377521527164" lon="11.675114463730768"><ele>7.0</ele><time>2026-04-12T16:41:19Z</time></trkpt><trkpt lat="44.61378960468497" lon="11.67495035306433"><ele>6.75</ele><time>2026-04-12T16:41:20Z</time></trkpt><trkpt lat="44.61380510035275" lon="11.674785297232011"><ele>6.5</ele><time>2026-04-12T16:41:21Z</time></trkpt><trkpt lat="44.613817443605456" lon="11.6746150135945"><ele>6.25</ele><time>2026-04-12T16:41:22Z</time></trkpt><trkpt lat="44.61383129010704" lon="11.674442989033407"><ele>6.0</ele><time>2026-04-12T16:41:23Z</time></trkpt><trkpt lat="44.61384456868072" lon="11.674271777528366"><ele>6.0</ele><time>2026-04-12T16:41:24Z</time></trkpt><trkpt lat="44.61385534131746" lon="11.674103155820148"><ele>6.0</ele><time>2026-04-12T16:41:25Z</time></trkpt><trkpt lat="44.61387126015645" lon="11.673935887953219"><ele>6.0</ele><time>2026-04-12T16:41:26Z</time></trkpt><trkpt lat="44.613887319528615" lon="11.673768365816246"><ele>6.0</ele><time>2026-04-12T16:41:27Z</time></trkpt><trkpt lat="44.61390007904953" lon="11.673597581554692"><ele>6.0</ele><time>2026-04-12T16:41:28Z</time></trkpt><trkpt lat="44.61391290254589" lon="11.673424339999931"><ele>6.0</ele><time>2026-04-12T16:41:29Z</time></trkpt><trkpt lat="44.613922159676" lon="11.673246638617965"><ele>6.0</ele><time>2026-04-12T16:41:30Z</time></trkpt><trkpt lat="44.61393578859025" lon="11.673072989971905"><ele>6.0</ele><time>2026-04-12T16:41:31Z</time></trkpt><trkpt lat="44.6139495090698" lon="11.672897532518144"><ele>6.0</ele><time>2026-04-12T16:41:32Z</time></trkpt><trkpt lat="44.61396365454737" lon="11.672722999415193"><ele>6.0</ele><time>2026-04-12T16:41:33Z</time></trkpt><trkpt lat="44.613976376728345" lon="11.672551375170748"><ele>6.0</ele><time>2026-04-12T16:41:34Z</time></trkpt><trkpt lat="44.61399009946962" lon="11.672380106914025"><ele>6.0</ele><time>2026-04-12T16:41:35Z</time></trkpt><trkpt lat="44.6140035766382" lon="11.672204263544339"><ele>6.0</ele><time>2026-04-12T16:41:36Z</time></trkpt><trkpt lat="44.6140174884812" lon="11.672029487601879"><ele>6.0</ele><time>2026-04-12T16:41:37Z</time></trkpt><trkpt lat="44.61402808077251" lon="11.6718509231047"><ele>6.0</ele><time>2026-04-12T16:41:38Z</time></trkpt><trkpt lat="44.61403694374712" lon="11.671671070801311"><ele>6.0</ele><time>2026-04-12T16:41:39Z</time></trkpt><trkpt lat="44.614050182685496" lon="11.671504546317724"><ele>5.75</ele><time>2026-04-12T16:41:40Z</time></trkpt><trkpt lat="44.614065427223" lon="11.6713394379815"><ele>5.5</ele><time>2026-04-12T16:41:41Z</time></trkpt><trkpt lat="44.614081708831506" lon="11.671173163557276"><ele>5.25</ele><time>2026-04-12T16:41:42Z</time></trkpt><trkpt lat="44.6141025888813" lon="11.670997533714386"><ele>5.0</ele><time>2026-04-12T16:41:43Z</time></trkpt><trkpt lat="44.61412074179698" lon="11.670822487696004"><ele>5.0</ele><time>2026-04-12T16:41:44Z</time></trkpt><trkpt lat="44.6141343072918" lon="11.670642147190765"><ele>5.0</ele><time>2026-04-12T16:41:45Z</time></trkpt><trkpt lat="44.61414876887995" lon="11.67046448590838"><ele>5.0</ele><time>2026-04-12T16:41:46Z</time></trkpt><trkpt lat="44.61416143079117" lon="11.670287780283603"><ele>5.0</ele><time>2026-04-12T16:41:47Z</time></trkpt><trkpt lat="44.614171741864176" lon="11.670122285844778"><ele>4.8</ele><time>2026-04-12T16:41:48Z</time></trkpt><trkpt lat="44.61418141232079" lon="11.669972702365936"><ele>4.6</ele><time>2026-04-12T16:41:49Z</time></trkpt><trkpt lat="44.61419442379284" lon="11.669836393086133"><ele>4.4</ele><time>2026-04-12T16:41:50Z</time></trkpt><trkpt lat="44.61420349366304" lon="11.669698790372152"><ele>4.2</ele><time>2026-04-12T16:41:51Z</time></trkpt><trkpt lat="44.614208052891854" lon="11.66955556613927"><ele>4.0</ele><time>2026-04-12T16:41:52Z</time></trkpt><trkpt lat="44.6141967097261" lon="11.669411710030403"><ele>4.0</ele><time>2026-04-12T16:41:53Z</time></trkpt><trkpt lat="44.61417435350188" lon="11.669287851472822"><ele>4.0</ele><time>2026-04-12T16:41:54Z</time></trkpt><trkpt lat="44.6141483245508" lon="11.669167338830238"><ele>4.0</ele><time>2026-04-12T16:41:55Z</time></trkpt><trkpt lat="44.61412489243916" lon="11.669044434381652"><ele>4.0</ele><time>2026-04-12T16:41:56Z</time></trkpt><trkpt lat="44.614114361732476" lon="11.668935916804482"><ele>4.0</ele><time>2026-04-12T16:41:57Z</time></trkpt><trkpt lat="44.61412132507951" lon="11.668769781270257"><ele>4.0</ele><time>2026-04-12T16:41:59Z</time></trkpt><trkpt lat="44.61413379674392" lon="11.668625550599227"><ele>4.0</ele><time>2026-04-12T16:42:01Z</time></trkpt><trkpt lat="44.61418170354909" lon="11.66846551782701"><ele>4.0</ele><time>2026-04-12T16:42:03Z</time></trkpt><trkpt lat="44.61420177961506" lon="11.668371873168896"><ele>4.0</ele><time>2026-04-12T16:42:04Z</time></trkpt><trkpt lat="44.6142107346509" lon="11.66826718776936"><ele>4.0</ele><time>2026-04-12T16:42:05Z</time></trkpt><trkpt lat="44.61423734591372" lon="11.668112626394779"><ele>3.9999999999999996</ele><time>2026-04-12T16:42:07Z</time></trkpt><trkpt lat="44.61427030429011" lon="11.66801089062862"><ele>4.0</ele><time>2026-04-12T16:42:09Z</time></trkpt><trkpt lat="44.61428542991776" lon="11.667922691833397"><ele>4.0</ele><time>2026-04-12T16:42:13Z</time></trkpt><trkpt lat="44.614345238077235" lon="11.667874235393993"><ele>4.0</ele><time>2026-04-12T16:42:33Z</time></trkpt><trkpt lat="44.61437296411098" lon="11.667751257276917"><ele>3.9999999999999996</ele><time>2026-04-12T16:42:35Z</time></trkpt><trkpt lat="44.614390036237275" lon="11.667645249980913"><ele>4.0</ele><time>2026-04-12T16:42:36Z</time></trkpt><trkpt lat="44.61440856490759" lon="11.667518037452755"><ele>4.25</ele><time>2026-04-12T16:42:37Z</time></trkpt><trkpt lat="44.61442834371607" lon="11.667341053066913"><ele>4.5</ele><time>2026-04-12T16:42:38Z</time></trkpt><trkpt lat="44.61443973450485" lon="11.667143763517046"><ele>4.75</ele><time>2026-04-12T16:42:39Z</time></trkpt><trkpt lat="44.614448420314176" lon="11.66692718836568"><ele>5.0</ele><time>2026-04-12T16:42:40Z</time></trkpt><trkpt lat="44.614460768409856" lon="11.666733837402832"><ele>5.0</ele><time>2026-04-12T16:42:41Z</time></trkpt><trkpt lat="44.61447413225025" lon="11.666539816210957"><ele>5.0</ele><time>2026-04-12T16:42:42Z</time></trkpt><trkpt lat="44.614489978876875" lon="11.66635250378165"><ele>5.0</ele><time>2026-04-12T16:42:43Z</time></trkpt><trkpt lat="44.61450774654051" lon="11.66616436704074"><ele>5.0</ele><time>2026-04-12T16:42:44Z</time></trkpt><trkpt lat="44.61452669186839" lon="11.665982686528219"><ele>5.25</ele><time>2026-04-12T16:42:45Z</time></trkpt><trkpt lat="44.61454658146688" lon="11.665797993792323"><ele>5.5</ele><time>2026-04-12T16:42:46Z</time></trkpt><trkpt lat="44.61456581057585" lon="11.665617279130396"><ele>5.75</ele><time>2026-04-12T16:42:47Z</time></trkpt><trkpt lat="44.61458398071911" lon="11.665431407912546"><ele>6.0</ele><time>2026-04-12T16:42:48Z</time></trkpt><trkpt lat="44.614596404791335" lon="11.665254520588721"><ele>6.0</ele><time>2026-04-12T16:42:49Z</time></trkpt><trkpt lat="44.61460676396078" lon="11.665103209713605"><ele>6.0</ele><time>2026-04-12T16:42:50Z</time></trkpt><trkpt lat="44.6146144636564" lon="11.66495851874395"><ele>6.0</ele><time>2026-04-12T16:42:51Z</time></trkpt><trkpt lat="44.61462749628177" lon="11.664806367776567"><ele>6.0</ele><time>2026-04-12T16:42:52Z</time></trkpt><trkpt lat="44.614651033871084" lon="11.66465942644745"><ele>6.0</ele><time>2026-04-12T16:42:53Z</time></trkpt><trkpt lat="44.614666389046285" lon="11.664522806171533"><ele>6.4</ele><time>2026-04-12T16:42:54Z</time></trkpt><trkpt lat="44.61469769896617" lon="11.66440715489397"><ele>6.8</ele><time>2026-04-12T16:42:55Z</time></trkpt><trkpt lat="44.61472725446654" lon="11.664276738933465"><ele>7.200000000000001</ele><time>2026-04-12T16:42:56Z</time></trkpt><trkpt lat="44.61480832085306" lon="11.664153869708578"><ele>7.6000000000000005</ele><time>2026-04-12T16:42:57Z</time></trkpt><trkpt lat="44.6148499368299" lon="11.664039911853633"><ele>8.0</ele><time>2026-04-12T16:42:58Z</time></trkpt><trkpt lat="44.614875697624406" lon="11.663954215290396"><ele>7.999999999999999</ele><time>2026-04-12T16:43:00Z</time></trkpt><trkpt lat="44.614907049964906" lon="11.663865551010753"><ele>8.0</ele><time>2026-04-12T16:43:07Z</time></trkpt><trkpt lat="44.614960206742495" lon="11.663767352952284"><ele>8.0</ele><time>2026-04-12T16:43:09Z</time></trkpt><trkpt lat="44.61508701434842" lon="11.663849568330626"><ele>8.0</ele><time>2026-04-12T16:43:11Z</time></trkpt><trkpt lat="44.61515239715888" lon="11.663896591530674"><ele>7.999999999999999</ele><time>2026-04-12T16:43:12Z</time></trkpt><trkpt lat="44.615221257775424" lon="11.663932709008666"><ele>8.0</ele><time>2026-04-12T16:43:13Z</time></trkpt><trkpt lat="44.61528241008431" lon="11.663973861543697"><ele>7.800000000000001</ele><time>2026-04-12T16:43:14Z</time></trkpt><trkpt lat="44.6153624129902" lon="11.664020238751867"><ele>7.6000000000000005</ele><time>2026-04-12T16:43:15Z</time></trkpt><trkpt lat="44.61546338092515" lon="11.664070720420137"><ele>7.3999999999999995</ele><time>2026-04-12T16:43:16Z</time></trkpt><trkpt lat="44.6155692171749" lon="11.664130030876578"><ele>7.199999999999999</ele><time>2026-04-12T16:43:17Z</time></trkpt><trkpt lat="44.61566375574238" lon="11.66419743526542"><ele>7.0</ele><time>2026-04-12T16:43:18Z</time></trkpt><trkpt lat="44.61574618367436" lon="11.664244443834747"><ele>7.0</ele><time>2026-04-12T16:43:19Z</time></trkpt><trkpt lat="44.6158187675898" lon="11.664290894169424"><ele>6.999999999999999</ele><time>2026-04-12T16:43:20Z</time></trkpt><trkpt lat="44.61591231769082" lon="11.664351082895466"><ele>6.999999999999999</ele><time>2026-04-12T16:43:21Z</time></trkpt><trkpt lat="44.616001777014" lon="11.6644218062565"><ele>7.0</ele><time>2026-04-12T16:43:22Z</time></trkpt><trkpt lat="44.61610216006137" lon="11.664500315570788"><ele>7.0</ele><time>2026-04-12T16:43:23Z</time></trkpt><trkpt lat="44.616218224309875" lon="11.664578671113093"><ele>7.0</ele><time>2026-04-12T16:43:24Z</time></trkpt><trkpt lat="44.61633496662336" lon="11.66464948582595"><ele>7.0</ele><time>2026-04-12T16:43:25Z</time></trkpt><trkpt lat="44.61645631043123" lon="11.66472214995586"><ele>7.0</ele><time>2026-04-12T16:43:26Z</time></trkpt><trkpt lat="44.61658339128684" lon="11.664804590055555"><ele>7.0</ele><time>2026-04-12T16:43:27Z</time></trkpt><trkpt lat="44.61670834179629" lon="11.664886520531338"><ele>7.0</ele><time>2026-04-12T16:43:28Z</time></trkpt><trkpt lat="44.616822943421255" lon="11.664959839751933"><ele>7.0</ele><time>2026-04-12T16:43:29Z</time></trkpt><trkpt lat="44.6169361098819" lon="11.665031184450907"><ele>7.0</ele><time>2026-04-12T16:43:30Z</time></trkpt><trkpt lat="44.61704797185147" lon="11.665098185037802"><ele>7.0</ele><time>2026-04-12T16:43:31Z</time></trkpt><trkpt lat="44.61714952097304" lon="11.665157844344172"><ele>7.000000000000001</ele><time>2026-04-12T16:43:32Z</time></trkpt><trkpt lat="44.61723773519191" lon="11.66520984700361"><ele>7.0</ele><time>2026-04-12T16:43:33Z</time></trkpt><trkpt lat="44.61731739726651" lon="11.665262941393108"><ele>7.0</ele><time>2026-04-12T16:43:34Z</time></trkpt><trkpt lat="44.617387967581486" lon="11.665306459877659"><ele>7.0</ele><time>2026-04-12T16:43:35Z</time></trkpt><trkpt lat="44.617452771971436" lon="11.665351871653629"><ele>7.000000000000001</ele><time>2026-04-12T16:43:36Z</time></trkpt><trkpt lat="44.61751295256878" lon="11.665395680055868"><ele>7.0</ele><time>2026-04-12T16:43:37Z</time></trkpt><trkpt lat="44.617594737300145" lon="11.665502837952243"><ele>7.0</ele><time>2026-04-12T16:43:39Z</time></trkpt><trkpt lat="44.617566816250594" lon="11.665673519831948"><ele>6.999999999999999</ele><time>2026-04-12T16:43:41Z</time></trkpt><trkpt lat="44.617499807999806" lon="11.665805408385827"><ele>6.999999999999999</ele><time>2026-04-12T16:43:43Z</time></trkpt><trkpt lat="44.617441873490485" lon="11.66594985817281"><ele>7.0</ele><time>2026-04-12T16:43:45Z</time></trkpt><trkpt lat="44.61742010334699" lon="11.6660545046508"><ele>7.0</ele><time>2026-04-12T16:43:47Z</time></trkpt><trkpt lat="44.61743342430132" lon="11.666156929110524"><ele>7.0</ele><time>2026-04-12T16:43:49Z</time></trkpt><trkpt lat="44.6175695043949" lon="11.666121840440763"><ele>7.0</ele><time>2026-04-12T16:43:50Z</time></trkpt><trkpt lat="44.617679481332324" lon="11.6661838025843"><ele>7.0</ele><time>2026-04-12T16:43:52Z</time></trkpt><trkpt lat="44.61776916908439" lon="11.666230410157963"><ele>7.0</ele><time>2026-04-12T16:43:54Z</time></trkpt><trkpt lat="44.617859996905565" lon="11.666078788117762"><ele>6.8</ele><time>2026-04-12T16:43:56Z</time></trkpt><trkpt lat="44.617918384465774" lon="11.665964445293499"><ele>6.6</ele><time>2026-04-12T16:43:58Z</time></trkpt><trkpt lat="44.61799077957312" lon="11.66586663885533"><ele>6.3999999999999995</ele><time>2026-04-12T16:44:00Z</time></trkpt><trkpt lat="44.6180901379817" lon="11.665748383614725"><ele>6.199999999999999</ele><time>2026-04-12T16:44:02Z</time></trkpt><trkpt lat="44.61816080273607" lon="11.665692622329983"><ele>6.0</ele><time>2026-04-12T16:44:03Z</time></trkpt><trkpt lat="44.6183001157074" lon="11.665778493122598"><ele>6.0</ele><time>2026-04-12T16:44:04Z</time></trkpt><trkpt lat="44.61841992795014" lon="11.665789702987587"><ele>6.0</ele><time>2026-04-12T16:44:05Z</time></trkpt><trkpt lat="44.61853700796004" lon="11.665792206043257"><ele>6.0</ele><time>2026-04-12T16:44:06Z</time></trkpt><trkpt lat="44.61866931931514" lon="11.665791597215986"><ele>6.0</ele><time>2026-04-12T16:44:07Z</time></trkpt><trkpt lat="44.61880721812365" lon="11.665792732902242"><ele>6.25</ele><time>2026-04-12T16:44:08Z</time></trkpt><trkpt lat="44.61894416767837" lon="11.665794127887445"><ele>6.5</ele><time>2026-04-12T16:44:09Z</time></trkpt><trkpt lat="44.61909218559004" lon="11.665791569627855"><ele>6.75</ele><time>2026-04-12T16:44:10Z</time></trkpt><trkpt lat="44.619241608640486" lon="11.665791365292687"><ele>7.0</ele><time>2026-04-12T16:44:11Z</time></trkpt><trkpt lat="44.61938596397875" lon="11.665794622314465"><ele>7.25</ele><time>2026-04-12T16:44:12Z</time></trkpt><trkpt lat="44.61952518423091" lon="11.665799446674765"><ele>7.5</ele><time>2026-04-12T16:44:13Z</time></trkpt><trkpt lat="44.619660851439484" lon="11.665798640507882"><ele>7.75</ele><time>2026-04-12T16:44:14Z</time></trkpt><trkpt lat="44.61979020407194" lon="11.6657932682367"><ele>8.0</ele><time>2026-04-12T16:44:15Z</time></trkpt><trkpt lat="44.61991689064733" lon="11.665791160475129"><ele>8.0</ele><time>2026-04-12T16:44:16Z</time></trkpt><trkpt lat="44.62006645747499" lon="11.665796301494213"><ele>8.0</ele><time>2026-04-12T16:44:17Z</time></trkpt><trkpt lat="44.620231570582426" lon="11.665816829135748"><ele>8.0</ele><time>2026-04-12T16:44:18Z</time></trkpt><trkpt lat="44.62038448197672" lon="11.66586182516535"><ele>8.0</ele><time>2026-04-12T16:44:19Z</time></trkpt><trkpt lat="44.620525481207025" lon="11.66594016817634"><ele>8.0</ele><time>2026-04-12T16:44:20Z</time></trkpt><trkpt lat="44.620662286215044" lon="11.666030012104777"><ele>8.0</ele><time>2026-04-12T16:44:21Z</time></trkpt><trkpt lat="44.6207944076343" lon="11.666105173564421"><ele>8.0</ele><time>2026-04-12T16:44:22Z</time></trkpt><trkpt lat="44.620937420872615" lon="11.666191884471095"><ele>7.666666666666666</ele><time>2026-04-12T16:44:23Z</time></trkpt><trkpt lat="44.62108375194985" lon="11.666277061763509"><ele>7.333333333333334</ele><time>2026-04-12T16:44:24Z</time></trkpt><trkpt lat="44.62122904872736" lon="11.666360044955248"><ele>7.0</ele><time>2026-04-12T16:44:25Z</time></trkpt><trkpt lat="44.621369643685746" lon="11.666437278545917"><ele>6.75</ele><time>2026-04-12T16:44:26Z</time></trkpt><trkpt lat="44.62151051243401" lon="11.666520916422261"><ele>6.5</ele><time>2026-04-12T16:44:27Z</time></trkpt><trkpt lat="44.621643316736936" lon="11.666597081761719"><ele>6.25</ele><time>2026-04-12T16:44:28Z</time></trkpt><trkpt lat="44.62176707344097" lon="11.666671805461345"><ele>6.0</ele><time>2026-04-12T16:44:29Z</time></trkpt><trkpt lat="44.621884753038216" lon="11.666743284043164"><ele>6.0</ele><time>2026-04-12T16:44:30Z</time></trkpt><trkpt lat="44.62199518645857" lon="11.666799797466135"><ele>6.0</ele><time>2026-04-12T16:44:31Z</time></trkpt><trkpt lat="44.62210966807316" lon="11.666871890906553"><ele>6.0</ele><time>2026-04-12T16:44:32Z</time></trkpt><trkpt lat="44.622226077232895" lon="11.666944221323854"><ele>6.0</ele><time>2026-04-12T16:44:33Z</time></trkpt><trkpt lat="44.62234440363762" lon="11.667013047862433"><ele>6.0</ele><time>2026-04-12T16:44:34Z</time></trkpt><trkpt lat="44.62246514948263" lon="11.66708349005616"><ele>6.0</ele><time>2026-04-12T16:44:35Z</time></trkpt><trkpt lat="44.622579842922114" lon="11.66714303892431"><ele>6.0</ele><time>2026-04-12T16:44:36Z</time></trkpt><trkpt lat="44.622704530593076" lon="11.667213589151428"><ele>6.0</ele><time>2026-04-12T16:44:37Z</time></trkpt><trkpt lat="44.6228256132599" lon="11.66728592603224"><ele>6.0</ele><time>2026-04-12T16:44:38Z</time></trkpt><trkpt lat="44.62294797533186" lon="11.667351865580345"><ele>6.0</ele><time>2026-04-12T16:44:39Z</time></trkpt><trkpt lat="44.623069712385394" lon="11.667417550595664"><ele>6.0</ele><time>2026-04-12T16:44:40Z</time></trkpt><trkpt lat="44.62319371269265" lon="11.667486308007838"><ele>6.0</ele><time>2026-04-12T16:44:41Z</time></trkpt><trkpt lat="44.62332209339527" lon="11.667557802236574"><ele>6.0</ele><time>2026-04-12T16:44:42Z</time></trkpt><trkpt lat="44.62345205105508" lon="11.667623099735168"><ele>6.0</ele><time>2026-04-12T16:44:43Z</time></trkpt><trkpt lat="44.62358386710997" lon="11.667691153502627"><ele>6.0</ele><time>2026-04-12T16:44:44Z</time></trkpt><trkpt lat="44.62370836981555" lon="11.667758982094194"><ele>6.0</ele><time>2026-04-12T16:44:45Z</time></trkpt><trkpt lat="44.62384036406443" lon="11.667825942937347"><ele>6.0</ele><time>2026-04-12T16:44:46Z</time></trkpt><trkpt lat="44.62397426359744" lon="11.667889662414202"><ele>6.0</ele><time>2026-04-12T16:44:47Z</time></trkpt><trkpt lat="44.624103399166145" lon="11.667950496899472"><ele>6.0</ele><time>2026-04-12T16:44:48Z</time></trkpt><trkpt lat="44.62422081598322" lon="11.668008808559975"><ele>6.0</ele><time>2026-04-12T16:44:49Z</time></trkpt><trkpt lat="44.62434494392993" lon="11.668058879008662"><ele>6.0</ele><time>2026-04-12T16:44:50Z</time></trkpt><trkpt lat="44.62447182886755" lon="11.668104682692933"><ele>6.0</ele><time>2026-04-12T16:44:51Z</time></trkpt><trkpt lat="44.624611427002776" lon="11.66814539937896"><ele>6.0</ele><time>2026-04-12T16:44:52Z</time></trkpt><trkpt lat="44.624756606979524" lon="11.668180044249244"><ele>6.0</ele><time>2026-04-12T16:44:53Z</time></trkpt><trkpt lat="44.62490027631196" lon="11.66821123505457"><ele>6.0</ele><time>2026-04-12T16:44:54Z</time></trkpt><trkpt lat="44.625050645725366" lon="11.668231938290205"><ele>6.0</ele><time>2026-04-12T16:44:55Z</time></trkpt><trkpt lat="44.62519609376807" lon="11.668258440802974"><ele>6.0</ele><time>2026-04-12T16:44:56Z</time></trkpt><trkpt lat="44.62533797662772" lon="11.668285006449159"><ele>6.0</ele><time>2026-04-12T16:44:57Z</time></trkpt><trkpt lat="44.62548431185882" lon="11.668310926512282"><ele>6.0</ele><time>2026-04-12T16:44:58Z</time></trkpt><trkpt lat="44.62562605579699" lon="11.668340633619648"><ele>6.0</ele><time>2026-04-12T16:44:59Z</time></trkpt><trkpt lat="44.625771387906" lon="11.668369333407858"><ele>6.0</ele><time>2026-04-12T16:45:00Z</time></trkpt><trkpt lat="44.625915702918384" lon="11.66839224320925"><ele>6.0</ele><time>2026-04-12T16:45:01Z</time></trkpt><trkpt lat="44.62605311337256" lon="11.66841543223497"><ele>5.75</ele><time>2026-04-12T16:45:02Z</time></trkpt><trkpt lat="44.626197930650086" lon="11.668433095431881"><ele>5.5</ele><time>2026-04-12T16:45:03Z</time></trkpt><trkpt lat="44.62633871515758" lon="11.668458370637664"><ele>5.25</ele><time>2026-04-12T16:45:04Z</time></trkpt><trkpt lat="44.62646933889727" lon="11.668484226576004"><ele>5.0</ele><time>2026-04-12T16:45:05Z</time></trkpt><trkpt lat="44.62658472743957" lon="11.668507735109902"><ele>5.0</ele><time>2026-04-12T16:45:06Z</time></trkpt><trkpt lat="44.62669308536763" lon="11.668530694059973"><ele>5.0</ele><time>2026-04-12T16:45:07Z</time></trkpt><trkpt lat="44.6267945716212" lon="11.668551162752664"><ele>5.0</ele><time>2026-04-12T16:45:08Z</time></trkpt><trkpt lat="44.62688526392663" lon="11.668569618286558"><ele>5.0</ele><time>2026-04-12T16:45:09Z</time></trkpt><trkpt lat="44.62696756335907" lon="11.668588514250196"><ele>5.0</ele><time>2026-04-12T16:45:10Z</time></trkpt><trkpt lat="44.62702791809262" lon="11.668632455906485"><ele>5.6</ele><time>2026-04-12T16:45:11Z</time></trkpt><trkpt lat="44.627065461753" lon="11.668728621977579"><ele>6.2</ele><time>2026-04-12T16:45:12Z</time></trkpt><trkpt lat="44.627083136564096" lon="11.668854734662512"><ele>6.800000000000001</ele><time>2026-04-12T16:45:13Z</time></trkpt><trkpt lat="44.62706957216893" lon="11.668996925064734"><ele>7.4</ele><time>2026-04-12T16:45:14Z</time></trkpt><trkpt lat="44.62703066133162" lon="11.669150753043187"><ele>8.0</ele><time>2026-04-12T16:45:15Z</time></trkpt><trkpt lat="44.6269909859267" lon="11.66931052615705"><ele>7.999999999999999</ele><time>2026-04-12T16:45:16Z</time></trkpt><trkpt lat="44.62695539047948" lon="11.669440588406124"><ele>8.0</ele><time>2026-04-12T16:45:17Z</time></trkpt><trkpt lat="44.626925692168044" lon="11.669548654913587"><ele>8.0</ele><time>2026-04-12T16:45:18Z</time></trkpt><trkpt lat="44.62690602954994" lon="11.669641813920936"><ele>8.0</ele><time>2026-04-12T16:45:19Z</time></trkpt><trkpt lat="44.626887796362624" lon="11.669731649790036"><ele>7.999999999999999</ele><time>2026-04-12T16:45:20Z</time></trkpt><trkpt lat="44.62692239681095" lon="11.66988748016603"><ele>8.0</ele><time>2026-04-12T16:45:22Z</time></trkpt><trkpt lat="44.62697588337111" lon="11.66993922213366"><ele>8.200000000000001</ele><time>2026-04-12T16:45:23Z</time></trkpt><trkpt lat="44.627044261806105" lon="11.66996505495562"><ele>8.4</ele><time>2026-04-12T16:45:24Z</time></trkpt><trkpt lat="44.62712776146699" lon="11.669964867865328"><ele>8.600000000000001</ele><time>2026-04-12T16:45:25Z</time></trkpt><trkpt lat="44.627226015042666" lon="11.669950523964616"><ele>8.8</ele><time>2026-04-12T16:45:26Z</time></trkpt><trkpt lat="44.62732902282944" lon="11.669940760948894"><ele>9.0</ele><time>2026-04-12T16:45:27Z</time></trkpt><trkpt lat="44.627452070657114" lon="11.669929534383908"><ele>9.0</ele><time>2026-04-12T16:45:28Z</time></trkpt><trkpt lat="44.627588099535146" lon="11.669910394445923"><ele>9.0</ele><time>2026-04-12T16:45:29Z</time></trkpt><trkpt lat="44.62772046732136" lon="11.669891057472782"><ele>9.0</ele><time>2026-04-12T16:45:30Z</time></trkpt><trkpt lat="44.627839457748216" lon="11.669876553957662"><ele>9.0</ele><time>2026-04-12T16:45:31Z</time></trkpt><trkpt lat="44.62794493265016" lon="11.669862735805411"><ele>8.25</ele><time>2026-04-12T16:45:32Z</time></trkpt><trkpt lat="44.628056069611965" lon="11.669845684605724"><ele>7.5</ele><time>2026-04-12T16:45:33Z</time></trkpt><trkpt lat="44.628177122514856" lon="11.669848287117974"><ele>6.75</ele><time>2026-04-12T16:45:34Z</time></trkpt><trkpt lat="44.62830452720588" lon="11.669827759079803"><ele>6.0</ele><time>2026-04-12T16:45:35Z</time></trkpt><trkpt lat="44.628459606782855" lon="11.669782290031591"><ele>6.0</ele><time>2026-04-12T16:45:36Z</time></trkpt><trkpt lat="44.62860811263511" lon="11.669751846126047"><ele>6.0</ele><time>2026-04-12T16:45:37Z</time></trkpt><trkpt lat="44.62875177016364" lon="11.669725390308441"><ele>6.0</ele><time>2026-04-12T16:45:38Z</time></trkpt><trkpt lat="44.628892913964535" lon="11.669715003092147"><ele>6.0</ele><time>2026-04-12T16:45:39Z</time></trkpt><trkpt lat="44.62902909745349" lon="11.669721830132756"><ele>6.25</ele><time>2026-04-12T16:45:40Z</time></trkpt><trkpt lat="44.62916631723714" lon="11.669776257974062"><ele>6.5</ele><time>2026-04-12T16:45:41Z</time></trkpt><trkpt lat="44.629299712066064" lon="11.66988154753859"><ele>6.75</ele><time>2026-04-12T16:45:42Z</time></trkpt><trkpt lat="44.62943196063832" lon="11.66998577972575"><ele>7.0</ele><time>2026-04-12T16:45:43Z</time></trkpt><trkpt lat="44.62959791793032" lon="11.670098718369475"><ele>7.0</ele><time>2026-04-12T16:45:44Z</time></trkpt><trkpt lat="44.62973862853319" lon="11.670231784406868"><ele>7.0</ele><time>2026-04-12T16:45:45Z</time></trkpt><trkpt lat="44.629871681519674" lon="11.670350077976435"><ele>7.0</ele><time>2026-04-12T16:45:46Z</time></trkpt><trkpt lat="44.63001533190754" lon="11.670467379069615"><ele>7.333333333333334</ele><time>2026-04-12T16:45:47Z</time></trkpt><trkpt lat="44.63015258521264" lon="11.670579379947144"><ele>7.666666666666666</ele><time>2026-04-12T16:45:48Z</time></trkpt><trkpt lat="44.63028762568019" lon="11.670695498778985"><ele>8.0</ele><time>2026-04-12T16:45:49Z</time></trkpt><trkpt lat="44.63042131648663" lon="11.670807170853559"><ele>8.0</ele><time>2026-04-12T16:45:50Z</time></trkpt><trkpt lat="44.63056288012173" lon="11.670914491210715"><ele>8.0</ele><time>2026-04-12T16:45:51Z</time></trkpt><trkpt lat="44.630694737644966" lon="11.671025207093829"><ele>8.0</ele><time>2026-04-12T16:45:52Z</time></trkpt><trkpt lat="44.63083187725532" lon="11.671134446680664"><ele>7.666666666666666</ele><time>2026-04-12T16:45:53Z</time></trkpt><trkpt lat="44.630969583419585" lon="11.671258333312425"><ele>7.333333333333334</ele><time>2026-04-12T16:45:54Z</time></trkpt><trkpt lat="44.63111166439267" lon="11.671373432546218"><ele>7.0</ele><time>2026-04-12T16:45:55Z</time></trkpt><trkpt lat="44.631256019878975" lon="11.671490494154682"><ele>7.0</ele><time>2026-04-12T16:45:56Z</time></trkpt><trkpt lat="44.63139742700646" lon="11.671606516695686"><ele>7.0</ele><time>2026-04-12T16:45:57Z</time></trkpt><trkpt lat="44.63154234566044" lon="11.671725881159208"><ele>7.0</ele><time>2026-04-12T16:45:58Z</time></trkpt><trkpt lat="44.63169015402491" lon="11.671847900018276"><ele>7.333333333333334</ele><time>2026-04-12T16:45:59Z</time></trkpt><trkpt lat="44.631838278825015" lon="11.671966833214283"><ele>7.666666666666666</ele><time>2026-04-12T16:46:00Z</time></trkpt><trkpt lat="44.631979684235766" lon="11.672079742691777"><ele>8.0</ele><time>2026-04-12T16:46:01Z</time></trkpt><trkpt lat="44.632115763269404" lon="11.672189233473995"><ele>8.0</ele><time>2026-04-12T16:46:02Z</time></trkpt><trkpt lat="44.63224091256091" lon="11.672283479031387"><ele>8.0</ele><time>2026-04-12T16:46:03Z</time></trkpt><trkpt lat="44.6323612811105" lon="11.67237489139616"><ele>8.0</ele><time>2026-04-12T16:46:04Z</time></trkpt><trkpt lat="44.63247540734817" lon="11.672465485107631"><ele>8.0</ele><time>2026-04-12T16:46:05Z</time></trkpt><trkpt lat="44.632577305693005" lon="11.672555610173537"><ele>7.999999999999999</ele><time>2026-04-12T16:46:06Z</time></trkpt><trkpt lat="44.63267253288355" lon="11.67263438414136"><ele>8.0</ele><time>2026-04-12T16:46:07Z</time></trkpt><trkpt lat="44.63275540740186" lon="11.672704535615484"><ele>8.0</ele><time>2026-04-12T16:46:08Z</time></trkpt><trkpt lat="44.63282899122523" lon="11.672766405941736"><ele>8.0</ele><time>2026-04-12T16:46:09Z</time></trkpt><trkpt lat="44.63288280781165" lon="11.67284207465644"><ele>7.999999999999999</ele><time>2026-04-12T16:46:10Z</time></trkpt><trkpt lat="44.63291688639101" lon="11.672932140364974"><ele>8.0</ele><time>2026-04-12T16:46:11Z</time></trkpt><trkpt lat="44.632958114544884" lon="11.673069826920297"><ele>8.200000000000001</ele><time>2026-04-12T16:46:13Z</time></trkpt><trkpt lat="44.63306870000781" lon="11.673063229301778"><ele>8.4</ele><time>2026-04-12T16:46:15Z</time></trkpt><trkpt lat="44.63314177678357" lon="11.673008724318523"><ele>8.600000000000001</ele><time>2026-04-12T16:46:16Z</time></trkpt><trkpt lat="44.63322566142115" lon="11.672931755031609"><ele>8.8</ele><time>2026-04-12T16:46:17Z</time></trkpt><trkpt lat="44.63330795429684" lon="11.67285663685754"><ele>9.0</ele><time>2026-04-12T16:46:18Z</time></trkpt><trkpt lat="44.63339613139104" lon="11.672776259248657"><ele>8.75</ele><time>2026-04-12T16:46:19Z</time></trkpt><trkpt lat="44.633492164040796" lon="11.672680422432018"><ele>8.5</ele><time>2026-04-12T16:46:20Z</time></trkpt><trkpt lat="44.633597409545004" lon="11.67256854958711"><ele>8.25</ele><time>2026-04-12T16:46:21Z</time></trkpt><trkpt lat="44.63370460568466" lon="11.672461630300047"><ele>8.0</ele><time>2026-04-12T16:46:22Z</time></trkpt><trkpt lat="44.63381602764414" lon="11.672352403197353"><ele>7.666666666666666</ele><time>2026-04-12T16:46:23Z</time></trkpt><trkpt lat="44.6339442992628" lon="11.672227915001724"><ele>7.333333333333334</ele><time>2026-04-12T16:46:24Z</time></trkpt><trkpt lat="44.63408462096066" lon="11.67207908957054"><ele>7.0</ele><time>2026-04-12T16:46:25Z</time></trkpt><trkpt lat="44.634216464031496" lon="11.671941235036785"><ele>7.333333333333334</ele><time>2026-04-12T16:46:26Z</time></trkpt><trkpt lat="44.634348365043536" lon="11.67180361769875"><ele>7.666666666666666</ele><time>2026-04-12T16:46:27Z</time></trkpt><trkpt lat="44.6344874110552" lon="11.671660875115336"><ele>8.0</ele><time>2026-04-12T16:46:28Z</time></trkpt><trkpt lat="44.63462429363989" lon="11.671525611468985"><ele>8.0</ele><time>2026-04-12T16:46:29Z</time></trkpt><trkpt lat="44.63476353196792" lon="11.671389026201929"><ele>8.0</ele><time>2026-04-12T16:46:30Z</time></trkpt><trkpt lat="44.63490643867083" lon="11.671244380174901"><ele>8.0</ele><time>2026-04-12T16:46:31Z</time></trkpt><trkpt lat="44.63504368903047" lon="11.671103206271969"><ele>8.0</ele><time>2026-04-12T16:46:32Z</time></trkpt><trkpt lat="44.63518116182364" lon="11.670957284985507"><ele>8.0</ele><time>2026-04-12T16:46:33Z</time></trkpt><trkpt lat="44.63531770979583" lon="11.670816917507134"><ele>8.0</ele><time>2026-04-12T16:46:34Z</time></trkpt><trkpt lat="44.63545896060158" lon="11.670674137047877"><ele>8.0</ele><time>2026-04-12T16:46:35Z</time></trkpt><trkpt lat="44.63559221763424" lon="11.670535861100115"><ele>8.0</ele><time>2026-04-12T16:46:36Z</time></trkpt><trkpt lat="44.63572741986863" lon="11.67039350148445"><ele>8.0</ele><time>2026-04-12T16:46:37Z</time></trkpt><trkpt lat="44.635862203770756" lon="11.670252487643538"><ele>8.0</ele><time>2026-04-12T16:46:38Z</time></trkpt><trkpt lat="44.635996234041784" lon="11.670115047614342"><ele>8.0</ele><time>2026-04-12T16:46:39Z</time></trkpt><trkpt lat="44.63613116078033" lon="11.669975645730808"><ele>8.0</ele><time>2026-04-12T16:46:40Z</time></trkpt><trkpt lat="44.63626648678175" lon="11.669835740998085"><ele>8.0</ele><time>2026-04-12T16:46:41Z</time></trkpt><trkpt lat="44.63640383937896" lon="11.66969363873518"><ele>8.0</ele><time>2026-04-12T16:46:42Z</time></trkpt><trkpt lat="44.6365440399226" lon="11.669553799161486"><ele>8.0</ele><time>2026-04-12T16:46:43Z</time></trkpt><trkpt lat="44.63668098124661" lon="11.669409989811475"><ele>7.666666666666666</ele><time>2026-04-12T16:46:44Z</time></trkpt><trkpt lat="44.63681809449607" lon="11.669269021247874"><ele>7.333333333333334</ele><time>2026-04-12T16:46:45Z</time></trkpt><trkpt lat="44.63696046056058" lon="11.669128284838271"><ele>7.0</ele><time>2026-04-12T16:46:46Z</time></trkpt><trkpt lat="44.637101536866304" lon="11.668978193555326"><ele>7.0</ele><time>2026-04-12T16:46:47Z</time></trkpt><trkpt lat="44.637245243851766" lon="11.668835381061742"><ele>7.0</ele><time>2026-04-12T16:46:48Z</time></trkpt><trkpt lat="44.63738879597634" lon="11.668686263257397"><ele>7.0</ele><time>2026-04-12T16:46:49Z</time></trkpt><trkpt lat="44.637530203065374" lon="11.668540087544141"><ele>8.333333333333334</ele><time>2026-04-12T16:46:50Z</time></trkpt><trkpt lat="44.63767379973033" lon="11.668396355577535"><ele>9.666666666666666</ele><time>2026-04-12T16:46:51Z</time></trkpt><trkpt lat="44.63781606520025" lon="11.668250413026266"><ele>11.0</ele><time>2026-04-12T16:46:52Z</time></trkpt><trkpt lat="44.63795920539695" lon="11.668104797347386"><ele>11.0</ele><time>2026-04-12T16:46:53Z</time></trkpt><trkpt lat="44.638100195890885" lon="11.667960163544794"><ele>11.0</ele><time>2026-04-12T16:46:54Z</time></trkpt><trkpt lat="44.63824315767266" lon="11.667813636731585"><ele>11.0</ele><time>2026-04-12T16:46:55Z</time></trkpt><trkpt lat="44.63838591188246" lon="11.667670745432725"><ele>11.0</ele><time>2026-04-12T16:46:56Z</time></trkpt><trkpt lat="44.63852662572743" lon="11.66752231245977"><ele>11.0</ele><time>2026-04-12T16:46:57Z</time></trkpt><trkpt lat="44.63866963716458" lon="11.667371364328789"><ele>11.0</ele><time>2026-04-12T16:46:58Z</time></trkpt><trkpt lat="44.638813271807145" lon="11.667224855702667"><ele>10.666666666666666</ele><time>2026-04-12T16:46:59Z</time></trkpt><trkpt lat="44.63895930222533" lon="11.667077204208972"><ele>10.333333333333334</ele><time>2026-04-12T16:47:00Z</time></trkpt><trkpt lat="44.63910295510278" lon="11.666927620886103"><ele>10.0</ele><time>2026-04-12T16:47:01Z</time></trkpt><trkpt lat="44.63924648161457" lon="11.666778127887238"><ele>10.0</ele><time>2026-04-12T16:47:02Z</time></trkpt><trkpt lat="44.63938911855172" lon="11.666634301153062"><ele>10.0</ele><time>2026-04-12T16:47:03Z</time></trkpt><trkpt lat="44.63953526130946" lon="11.666486406710254"><ele>10.0</ele><time>2026-04-12T16:47:04Z</time></trkpt><trkpt lat="44.63967923604803" lon="11.666336492594368"><ele>9.333333333333334</ele><time>2026-04-12T16:47:05Z</time></trkpt><trkpt lat="44.63982182086757" lon="11.666186943965997"><ele>8.666666666666666</ele><time>2026-04-12T16:47:06Z</time></trkpt><trkpt lat="44.63996471150704" lon="11.666040514123512"><ele>8.0</ele><time>2026-04-12T16:47:07Z</time></trkpt><trkpt lat="44.64011163388367" lon="11.665892524818078"><ele>8.0</ele><time>2026-04-12T16:47:08Z</time></trkpt><trkpt lat="44.6402621446902" lon="11.665739414522914"><ele>8.0</ele><time>2026-04-12T16:47:09Z</time></trkpt><trkpt lat="44.640414985198554" lon="11.665585773575923"><ele>8.0</ele><time>2026-04-12T16:47:10Z</time></trkpt><trkpt lat="44.64057062782971" lon="11.665431688753001"><ele>9.666666666666666</ele><time>2026-04-12T16:47:11Z</time></trkpt><trkpt lat="44.64072536372721" lon="11.665274985169907"><ele>11.333333333333332</ele><time>2026-04-12T16:47:12Z</time></trkpt><trkpt lat="44.640881117413876" lon="11.665114563388679"><ele>13.0</ele><time>2026-04-12T16:47:13Z</time></trkpt><trkpt lat="44.64104071840429" lon="11.664948746527555"><ele>12.333333333333332</ele><time>2026-04-12T16:47:14Z</time></trkpt><trkpt lat="44.64119783823646" lon="11.664790339333065"><ele>11.666666666666666</ele><time>2026-04-12T16:47:15Z</time></trkpt><trkpt lat="44.64136057300027" lon="11.66462594737892"><ele>11.0</ele><time>2026-04-12T16:47:16Z</time></trkpt><trkpt lat="44.64151707831807" lon="11.66446560003828"><ele>10.666666666666666</ele><time>2026-04-12T16:47:17Z</time></trkpt><trkpt lat="44.64167757532784" lon="11.664301419032315"><ele>10.333333333333334</ele><time>2026-04-12T16:47:18Z</time></trkpt><trkpt lat="44.64183716712" lon="11.664138482829086"><ele>10.0</ele><time>2026-04-12T16:47:19Z</time></trkpt><trkpt lat="44.641999515830726" lon="11.663973475466312"><ele>9.666666666666668</ele><time>2026-04-12T16:47:20Z</time></trkpt><trkpt lat="44.64216051432262" lon="11.663808083656772"><ele>9.333333333333334</ele><time>2026-04-12T16:47:21Z</time></trkpt><trkpt lat="44.64232394753502" lon="11.663642174296259"><ele>9.0</ele><time>2026-04-12T16:47:22Z</time></trkpt><trkpt lat="44.64249009367204" lon="11.66347385313742"><ele>8.666666666666666</ele><time>2026-04-12T16:47:23Z</time></trkpt><trkpt lat="44.64265615878013" lon="11.663304860197012"><ele>8.333333333333332</ele><time>2026-04-12T16:47:24Z</time></trkpt><trkpt lat="44.64281755664201" lon="11.663137760282883"><ele>8.0</ele><time>2026-04-12T16:47:25Z</time></trkpt><trkpt lat="44.642979370763875" lon="11.662972260650072"><ele>7.333333333333333</ele><time>2026-04-12T16:47:26Z</time></trkpt><trkpt lat="44.64313997203791" lon="11.662811133162117"><ele>6.666666666666666</ele><time>2026-04-12T16:47:27Z</time></trkpt><trkpt lat="44.64330175759276" lon="11.662649005679198"><ele>6.0</ele><time>2026-04-12T16:47:28Z</time></trkpt><trkpt lat="44.643461045219915" lon="11.662486980337926"><ele>7.333333333333334</ele><time>2026-04-12T16:47:29Z</time></trkpt><trkpt lat="44.643615252942354" lon="11.662327652324208"><ele>8.666666666666668</ele><time>2026-04-12T16:47:30Z</time></trkpt><trkpt lat="44.64377662785407" lon="11.662159083380073"><ele>10.0</ele><time>2026-04-12T16:47:31Z</time></trkpt><trkpt lat="44.64393072651942" lon="11.66199881841668"><ele>10.666666666666668</ele><time>2026-04-12T16:47:32Z</time></trkpt><trkpt lat="44.644083115885195" lon="11.661846671306657"><ele>11.333333333333334</ele><time>2026-04-12T16:47:33Z</time></trkpt><trkpt lat="44.644239972003035" lon="11.661689026157461"><ele>12.0</ele><time>2026-04-12T16:47:34Z</time></trkpt><trkpt lat="44.64438960004777" lon="11.661530948306787"><ele>11.666666666666666</ele><time>2026-04-12T16:47:35Z</time></trkpt><trkpt lat="44.64454284778638" lon="11.661371230711435"><ele>11.333333333333332</ele><time>2026-04-12T16:47:36Z</time></trkpt><trkpt lat="44.644700120168395" lon="11.661219039782958"><ele>11.0</ele><time>2026-04-12T16:47:37Z</time></trkpt><trkpt lat="44.64485172474964" lon="11.661065385814096"><ele>10.666666666666666</ele><time>2026-04-12T16:47:38Z</time></trkpt><trkpt lat="44.64500248150244" lon="11.660912446914951"><ele>10.333333333333334</ele><time>2026-04-12T16:47:39Z</time></trkpt><trkpt lat="44.64514898780876" lon="11.660763907968638"><ele>10.0</ele><time>2026-04-12T16:47:40Z</time></trkpt><trkpt lat="44.64529351736931" lon="11.660617488238396"><ele>10.0</ele><time>2026-04-12T16:47:41Z</time></trkpt><trkpt lat="44.645431503771945" lon="11.660480245660667"><ele>10.0</ele><time>2026-04-12T16:47:42Z</time></trkpt><trkpt lat="44.64556628946568" lon="11.660342716155437"><ele>10.0</ele><time>2026-04-12T16:47:43Z</time></trkpt><trkpt lat="44.64569993867824" lon="11.660207014406334"><ele>10.0</ele><time>2026-04-12T16:47:44Z</time></trkpt><trkpt lat="44.64582669071438" lon="11.660076823564623"><ele>10.0</ele><time>2026-04-12T16:47:45Z</time></trkpt><trkpt lat="44.64594489823034" lon="11.659948163853562"><ele>10.0</ele><time>2026-04-12T16:47:46Z</time></trkpt><trkpt lat="44.646046494354785" lon="11.659818054511174"><ele>10.0</ele><time>2026-04-12T16:47:47Z</time></trkpt><trkpt lat="44.64613124324812" lon="11.659661741976375"><ele>9.75</ele><time>2026-04-12T16:47:48Z</time></trkpt><trkpt lat="44.64619515274414" lon="11.659488041764918"><ele>9.5</ele><time>2026-04-12T16:47:49Z</time></trkpt><trkpt lat="44.6462467640435" lon="11.659316439913328"><ele>9.25</ele><time>2026-04-12T16:47:50Z</time></trkpt><trkpt lat="44.64629231479386" lon="11.659142179941282"><ele>9.0</ele><time>2026-04-12T16:47:51Z</time></trkpt><trkpt lat="44.64633773565068" lon="11.658973856333654"><ele>9.0</ele><time>2026-04-12T16:47:52Z</time></trkpt><trkpt lat="44.64638011631417" lon="11.658823381937745"><ele>9.0</ele><time>2026-04-12T16:47:53Z</time></trkpt><trkpt lat="44.64641715470334" lon="11.65869461805188"><ele>9.0</ele><time>2026-04-12T16:47:54Z</time></trkpt><trkpt lat="44.64644759089906" lon="11.65858915585288"><ele>9.0</ele><time>2026-04-12T16:47:55Z</time></trkpt><trkpt lat="44.64650293827096" lon="11.658459449142283"><ele>9.0</ele><time>2026-04-12T16:47:57Z</time></trkpt><trkpt lat="44.64663649957174" lon="11.65847326285292"><ele>9.0</ele><time>2026-04-12T16:47:59Z</time></trkpt><trkpt lat="44.64672709619299" lon="11.658528241010522"><ele>9.0</ele><time>2026-04-12T16:48:00Z</time></trkpt><trkpt lat="44.6468360720871" lon="11.65859162415002"><ele>9.0</ele><time>2026-04-12T16:48:01Z</time></trkpt><trkpt lat="44.64694652522327" lon="11.658648990905968"><ele>9.0</ele><time>2026-04-12T16:48:02Z</time></trkpt><trkpt lat="44.64703399268001" lon="11.658679767888632"><ele>9.0</ele><time>2026-04-12T16:48:03Z</time></trkpt><trkpt lat="44.647116975779745" lon="11.658686332696012"><ele>9.0</ele><time>2026-04-12T16:48:04Z</time></trkpt><trkpt lat="44.64719877177237" lon="11.658657557345437"><ele>9.0</ele><time>2026-04-12T16:48:05Z</time></trkpt><trkpt lat="44.64728784746471" lon="11.658600753770644"><ele>9.0</ele><time>2026-04-12T16:48:06Z</time></trkpt><trkpt lat="44.64737394168591" lon="11.658514219568435"><ele>9.0</ele><time>2026-04-12T16:48:07Z</time></trkpt><trkpt lat="44.6474720163718" lon="11.6583954824615"><ele>9.0</ele><time>2026-04-12T16:48:08Z</time></trkpt><trkpt lat="44.647591912845805" lon="11.65828892143223"><ele>9.4</ele><time>2026-04-12T16:48:09Z</time></trkpt><trkpt lat="44.64768515916093" lon="11.65817143265662"><ele>9.8</ele><time>2026-04-12T16:48:10Z</time></trkpt><trkpt lat="44.64777281521338" lon="11.658082582913043"><ele>10.200000000000001</ele><time>2026-04-12T16:48:11Z</time></trkpt><trkpt lat="44.647850034708064" lon="11.657998900002703"><ele>10.600000000000001</ele><time>2026-04-12T16:48:12Z</time></trkpt><trkpt lat="44.64791692559336" lon="11.657927485585297"><ele>11.0</ele><time>2026-04-12T16:48:13Z</time></trkpt><trkpt lat="44.64798814836863" lon="11.657850453468765"><ele>11.0</ele><time>2026-04-12T16:48:14Z</time></trkpt><trkpt lat="44.648077216063015" lon="11.657760873560077"><ele>11.0</ele><time>2026-04-12T16:48:15Z</time></trkpt><trkpt lat="44.648183248147866" lon="11.657655802882939"><ele>11.0</ele><time>2026-04-12T16:48:16Z</time></trkpt><trkpt lat="44.648290349827185" lon="11.657548806028913"><ele>11.0</ele><time>2026-04-12T16:48:17Z</time></trkpt><trkpt lat="44.64840232674306" lon="11.657444686959355"><ele>11.0</ele><time>2026-04-12T16:48:18Z</time></trkpt><trkpt lat="44.64851743072196" lon="11.657322323811554"><ele>11.0</ele><time>2026-04-12T16:48:19Z</time></trkpt><trkpt lat="44.64862539470877" lon="11.657204942089248"><ele>11.0</ele><time>2026-04-12T16:48:20Z</time></trkpt><trkpt lat="44.64873373906081" lon="11.657089472777125"><ele>11.0</ele><time>2026-04-12T16:48:21Z</time></trkpt><trkpt lat="44.648844503930356" lon="11.656968046513123"><ele>10.75</ele><time>2026-04-12T16:48:22Z</time></trkpt><trkpt lat="44.64895552345369" lon="11.656851564490974"><ele>10.5</ele><time>2026-04-12T16:48:23Z</time></trkpt><trkpt lat="44.64906158097679" lon="11.656737197706981"><ele>10.25</ele><time>2026-04-12T16:48:24Z</time></trkpt><trkpt lat="44.64916504763881" lon="11.656621007377572"><ele>10.0</ele><time>2026-04-12T16:48:25Z</time></trkpt><trkpt lat="44.64926499441311" lon="11.656517486932653"><ele>10.0</ele><time>2026-04-12T16:48:26Z</time></trkpt><trkpt lat="44.64935747604023" lon="11.656420138919774"><ele>10.0</ele><time>2026-04-12T16:48:27Z</time></trkpt><trkpt lat="44.64943576480239" lon="11.656330524618356"><ele>10.0</ele><time>2026-04-12T16:48:28Z</time></trkpt><trkpt lat="44.64950889434156" lon="11.656253699917206"><ele>10.0</ele><time>2026-04-12T16:48:29Z</time></trkpt><trkpt lat="44.6495771622311" lon="11.656177785242086"><ele>10.0</ele><time>2026-04-12T16:48:30Z</time></trkpt><trkpt lat="44.64965479576283" lon="11.656095419822453"><ele>10.25</ele><time>2026-04-12T16:48:31Z</time></trkpt><trkpt lat="44.649735158905706" lon="11.656015762462804"><ele>10.5</ele><time>2026-04-12T16:48:32Z</time></trkpt><trkpt lat="44.64982493703785" lon="11.655924700574248"><ele>10.75</ele><time>2026-04-12T16:48:33Z</time></trkpt><trkpt lat="44.64993133105404" lon="11.65582073408703"><ele>11.0</ele><time>2026-04-12T16:48:34Z</time></trkpt><trkpt lat="44.650040220143836" lon="11.655711559658256"><ele>11.0</ele><time>2026-04-12T16:48:35Z</time></trkpt><trkpt lat="44.650141822056135" lon="11.655606829116955"><ele>11.0</ele><time>2026-04-12T16:48:36Z</time></trkpt><trkpt lat="44.65023544623656" lon="11.655508093998515"><ele>11.0</ele><time>2026-04-12T16:48:37Z</time></trkpt><trkpt lat="44.65033393003614" lon="11.65540746425058"><ele>11.0</ele><time>2026-04-12T16:48:38Z</time></trkpt><trkpt lat="44.65043562244017" lon="11.655308436281292"><ele>10.75</ele><time>2026-04-12T16:48:39Z</time></trkpt><trkpt lat="44.6505382008888" lon="11.655207358995584"><ele>10.5</ele><time>2026-04-12T16:48:40Z</time></trkpt><trkpt lat="44.650641907080455" lon="11.65510510450908"><ele>10.25</ele><time>2026-04-12T16:48:41Z</time></trkpt><trkpt lat="44.650744455342526" lon="11.655002749705202"><ele>10.0</ele><time>2026-04-12T16:48:42Z</time></trkpt><trkpt lat="44.65083829591905" lon="11.654909451416607"><ele>10.0</ele><time>2026-04-12T16:48:43Z</time></trkpt><trkpt lat="44.65092984629615" lon="11.654820704417798"><ele>10.0</ele><time>2026-04-12T16:48:44Z</time></trkpt><trkpt lat="44.651021427632756" lon="11.654730809834174"><ele>10.0</ele><time>2026-04-12T16:48:45Z</time></trkpt><trkpt lat="44.6511186188188" lon="11.654638654157674"><ele>10.0</ele><time>2026-04-12T16:48:46Z</time></trkpt><trkpt lat="44.65121662575915" lon="11.654547059103987"><ele>10.0</ele><time>2026-04-12T16:48:47Z</time></trkpt><trkpt lat="44.65131215907094" lon="11.654455117177385"><ele>10.0</ele><time>2026-04-12T16:48:48Z</time></trkpt><trkpt lat="44.65140672645033" lon="11.654364185438862"><ele>10.0</ele><time>2026-04-12T16:48:49Z</time></trkpt><trkpt lat="44.65150026544256" lon="11.654278607008242"><ele>10.0</ele><time>2026-04-12T16:48:50Z</time></trkpt><trkpt lat="44.65158742243991" lon="11.654187526135791"><ele>10.0</ele><time>2026-04-12T16:48:51Z</time></trkpt><trkpt lat="44.65166915463923" lon="11.654105790525165"><ele>10.0</ele><time>2026-04-12T16:48:52Z</time></trkpt><trkpt lat="44.651738912378825" lon="11.654028766043897"><ele>10.0</ele><time>2026-04-12T16:48:53Z</time></trkpt><trkpt lat="44.651808000511274" lon="11.65395956365271"><ele>10.0</ele><time>2026-04-12T16:48:54Z</time></trkpt><trkpt lat="44.65188023944298" lon="11.653881019401698"><ele>10.0</ele><time>2026-04-12T16:48:55Z</time></trkpt><trkpt lat="44.65195940342431" lon="11.653791010129156"><ele>10.0</ele><time>2026-04-12T16:48:56Z</time></trkpt><trkpt lat="44.65205576390725" lon="11.653702650236864"><ele>10.0</ele><time>2026-04-12T16:48:57Z</time></trkpt><trkpt lat="44.652136638324535" lon="11.653577801817589"><ele>10.0</ele><time>2026-04-12T16:48:58Z</time></trkpt><trkpt lat="44.65220569058462" lon="11.653454612186493"><ele>10.0</ele><time>2026-04-12T16:48:59Z</time></trkpt><trkpt lat="44.65225200685089" lon="11.653295377400527"><ele>10.0</ele><time>2026-04-12T16:49:00Z</time></trkpt><trkpt lat="44.6522861600893" lon="11.65313513969771"><ele>10.0</ele><time>2026-04-12T16:49:01Z</time></trkpt><trkpt lat="44.65231999511076" lon="11.65298479897185"><ele>10.0</ele><time>2026-04-12T16:49:02Z</time></trkpt><trkpt lat="44.652358632638865" lon="11.652842549120807"><ele>10.0</ele><time>2026-04-12T16:49:03Z</time></trkpt><trkpt lat="44.65240420046677" lon="11.652714764166117"><ele>10.0</ele><time>2026-04-12T16:49:04Z</time></trkpt><trkpt lat="44.652461124196144" lon="11.652588391635533"><ele>10.2</ele><time>2026-04-12T16:49:05Z</time></trkpt><trkpt lat="44.65252537374309" lon="11.652468038551557"><ele>10.4</ele><time>2026-04-12T16:49:06Z</time></trkpt><trkpt lat="44.65259278699346" lon="11.652343959007705"><ele>10.600000000000001</ele><time>2026-04-12T16:49:07Z</time></trkpt><trkpt lat="44.65266658974315" lon="11.65222940559283"><ele>10.8</ele><time>2026-04-12T16:49:08Z</time></trkpt><trkpt lat="44.65275060753043" lon="11.652110458893434"><ele>11.0</ele><time>2026-04-12T16:49:09Z</time></trkpt><trkpt lat="44.65284620850995" lon="11.65198352098914"><ele>11.0</ele><time>2026-04-12T16:49:10Z</time></trkpt><trkpt lat="44.6529338531793" lon="11.651873836943178"><ele>11.0</ele><time>2026-04-12T16:49:11Z</time></trkpt><trkpt lat="44.653009173442754" lon="11.651777706158697"><ele>11.0</ele><time>2026-04-12T16:49:12Z</time></trkpt><trkpt lat="44.65307461909001" lon="11.651703387886283"><ele>11.0</ele><time>2026-04-12T16:49:13Z</time></trkpt><trkpt lat="44.65312968120529" lon="11.651653788327328"><ele>11.0</ele><time>2026-04-12T16:49:14Z</time></trkpt><trkpt lat="44.6532262377129" lon="11.651579078291487"><ele>11.0</ele><time>2026-04-12T16:49:16Z</time></trkpt><trkpt lat="44.653300246572314" lon="11.651589236034784"><ele>11.0</ele><time>2026-04-12T16:49:17Z</time></trkpt><trkpt lat="44.6533782185854" lon="11.65162597349734"><ele>11.0</ele><time>2026-04-12T16:49:18Z</time></trkpt><trkpt lat="44.65347397645279" lon="11.651680911508397"><ele>11.0</ele><time>2026-04-12T16:49:19Z</time></trkpt><trkpt lat="44.653571815964796" lon="11.651760533604229"><ele>11.0</ele><time>2026-04-12T16:49:20Z</time></trkpt><trkpt lat="44.65364829209318" lon="11.651805602953331"><ele>10.8</ele><time>2026-04-12T16:49:21Z</time></trkpt><trkpt lat="44.65372037398341" lon="11.651831398886454"><ele>10.600000000000001</ele><time>2026-04-12T16:49:22Z</time></trkpt><trkpt lat="44.65379384522906" lon="11.651811176613702"><ele>10.4</ele><time>2026-04-12T16:49:23Z</time></trkpt><trkpt lat="44.653874591707215" lon="11.651735307220617"><ele>10.2</ele><time>2026-04-12T16:49:24Z</time></trkpt><trkpt lat="44.653945594895724" lon="11.651610616312652"><ele>10.0</ele><time>2026-04-12T16:49:25Z</time></trkpt><trkpt lat="44.654031956361564" lon="11.651430741615307"><ele>10.0</ele><time>2026-04-12T16:49:26Z</time></trkpt><trkpt lat="44.65412641730253" lon="11.65123593712214"><ele>10.0</ele><time>2026-04-12T16:49:27Z</time></trkpt><trkpt lat="44.654211668066246" lon="11.65110410150631"><ele>10.0</ele><time>2026-04-12T16:49:28Z</time></trkpt><trkpt lat="44.65427994794417" lon="11.650994203675815"><ele>10.0</ele><time>2026-04-12T16:49:29Z</time></trkpt><trkpt lat="44.65434510783366" lon="11.650889975839982"><ele>9.8</ele><time>2026-04-12T16:49:30Z</time></trkpt><trkpt lat="44.654415437399734" lon="11.650794167260637"><ele>9.6</ele><time>2026-04-12T16:49:31Z</time></trkpt><trkpt lat="44.654488769150404" lon="11.650699170461525"><ele>9.4</ele><time>2026-04-12T16:49:32Z</time></trkpt><trkpt lat="44.654556747710735" lon="11.650582967330683"><ele>9.2</ele><time>2026-04-12T16:49:33Z</time></trkpt><trkpt lat="44.65462638031789" lon="11.650436279654238"><ele>9.0</ele><time>2026-04-12T16:49:34Z</time></trkpt><trkpt lat="44.654699871964645" lon="11.650286661368295"><ele>9.0</ele><time>2026-04-12T16:49:35Z</time></trkpt><trkpt lat="44.654763148184905" lon="11.650156135199776"><ele>9.0</ele><time>2026-04-12T16:49:36Z</time></trkpt><trkpt lat="44.654816716874144" lon="11.650047294428555"><ele>9.0</ele><time>2026-04-12T16:49:37Z</time></trkpt><trkpt lat="44.65486609023967" lon="11.649949805691666"><ele>9.0</ele><time>2026-04-12T16:49:38Z</time></trkpt><trkpt lat="44.65490964202338" lon="11.649862875850417"><ele>9.0</ele><time>2026-04-12T16:49:39Z</time></trkpt><trkpt lat="44.65495420073898" lon="11.649771415550036"><ele>9.0</ele><time>2026-04-12T16:49:40Z</time></trkpt><trkpt lat="44.65500710569625" lon="11.64965899232393"><ele>9.0</ele><time>2026-04-12T16:49:41Z</time></trkpt><trkpt lat="44.65506551320897" lon="11.649547972493849"><ele>9.0</ele><time>2026-04-12T16:49:42Z</time></trkpt><trkpt lat="44.65512746774579" lon="11.649423242373658"><ele>9.0</ele><time>2026-04-12T16:49:43Z</time></trkpt><trkpt lat="44.655189569812805" lon="11.649297845143273"><ele>9.0</ele><time>2026-04-12T16:49:44Z</time></trkpt><trkpt lat="44.65525739654075" lon="11.64916098872147"><ele>9.0</ele><time>2026-04-12T16:49:45Z</time></trkpt><trkpt lat="44.65532495201456" lon="11.649024111143362"><ele>9.0</ele><time>2026-04-12T16:49:46Z</time></trkpt><trkpt lat="44.655393273147894" lon="11.648880071548469"><ele>9.0</ele><time>2026-04-12T16:49:47Z</time></trkpt><trkpt lat="44.65546572670772" lon="11.64872988085068"><ele>9.0</ele><time>2026-04-12T16:49:48Z</time></trkpt><trkpt lat="44.65553527695173" lon="11.648591174162904"><ele>9.0</ele><time>2026-04-12T16:49:49Z</time></trkpt><trkpt lat="44.6556036185764" lon="11.648456381388979"><ele>9.0</ele><time>2026-04-12T16:49:50Z</time></trkpt><trkpt lat="44.65567252582254" lon="11.648323279085322"><ele>9.0</ele><time>2026-04-12T16:49:51Z</time></trkpt><trkpt lat="44.65573973877253" lon="11.648186370239216"><ele>9.0</ele><time>2026-04-12T16:49:52Z</time></trkpt><trkpt lat="44.655807277912054" lon="11.648052529951716"><ele>9.0</ele><time>2026-04-12T16:49:53Z</time></trkpt><trkpt lat="44.655869752892244" lon="11.647916073083104"><ele>9.0</ele><time>2026-04-12T16:49:54Z</time></trkpt><trkpt lat="44.6559387783431" lon="11.647778607240753"><ele>9.0</ele><time>2026-04-12T16:49:55Z</time></trkpt><trkpt lat="44.656005736485874" lon="11.647644359993794"><ele>9.0</ele><time>2026-04-12T16:49:56Z</time></trkpt><trkpt lat="44.65607209457793" lon="11.647512994307952"><ele>9.0</ele><time>2026-04-12T16:49:57Z</time></trkpt><trkpt lat="44.65613309324213" lon="11.647393318624884"><ele>9.0</ele><time>2026-04-12T16:49:58Z</time></trkpt><trkpt lat="44.65618290648551" lon="11.647287925751922"><ele>9.0</ele><time>2026-04-12T16:49:59Z</time></trkpt><trkpt lat="44.656229135723606" lon="11.647189751197587"><ele>9.0</ele><time>2026-04-12T16:50:00Z</time></trkpt><trkpt lat="44.65628199775287" lon="11.64709230472027"><ele>9.0</ele><time>2026-04-12T16:50:01Z</time></trkpt><trkpt lat="44.65632769720419" lon="11.647003191553614"><ele>9.0</ele><time>2026-04-12T16:50:02Z</time></trkpt><trkpt lat="44.65637334397521" lon="11.646908490467741"><ele>9.0</ele><time>2026-04-12T16:50:03Z</time></trkpt><trkpt lat="44.65643014225316" lon="11.646789199074892"><ele>9.25</ele><time>2026-04-12T16:50:04Z</time></trkpt><trkpt lat="44.65650323143717" lon="11.646655399401105"><ele>9.5</ele><time>2026-04-12T16:50:05Z</time></trkpt><trkpt lat="44.65659073385868" lon="11.64651648622599"><ele>9.75</ele><time>2026-04-12T16:50:06Z</time></trkpt><trkpt lat="44.656683089668526" lon="11.646381486105277"><ele>10.0</ele><time>2026-04-12T16:50:07Z</time></trkpt><trkpt lat="44.65678101210263" lon="11.646255753450756"><ele>10.0</ele><time>2026-04-12T16:50:08Z</time></trkpt><trkpt lat="44.65688539899761" lon="11.646135066661085"><ele>10.0</ele><time>2026-04-12T16:50:09Z</time></trkpt><trkpt lat="44.65698891986191" lon="11.646014144539096"><ele>10.0</ele><time>2026-04-12T16:50:10Z</time></trkpt><trkpt lat="44.65709390445148" lon="11.645890371822366"><ele>10.0</ele><time>2026-04-12T16:50:11Z</time></trkpt><trkpt lat="44.65719855894441" lon="11.645771870525563"><ele>10.0</ele><time>2026-04-12T16:50:12Z</time></trkpt><trkpt lat="44.65730172251254" lon="11.645658396384047"><ele>10.0</ele><time>2026-04-12T16:50:13Z</time></trkpt><trkpt lat="44.65740111410542" lon="11.645549139732779"><ele>10.0</ele><time>2026-04-12T16:50:14Z</time></trkpt><trkpt lat="44.657497863719236" lon="11.645440935291715"><ele>10.0</ele><time>2026-04-12T16:50:15Z</time></trkpt><trkpt lat="44.6575923403544" lon="11.6453237098855"><ele>10.0</ele><time>2026-04-12T16:50:16Z</time></trkpt><trkpt lat="44.65768288834867" lon="11.6452062596595"><ele>10.0</ele><time>2026-04-12T16:50:17Z</time></trkpt><trkpt lat="44.65777055122165" lon="11.645081444313892"><ele>10.0</ele><time>2026-04-12T16:50:18Z</time></trkpt><trkpt lat="44.657862370739224" lon="11.644960057669373"><ele>10.0</ele><time>2026-04-12T16:50:19Z</time></trkpt><trkpt lat="44.657959078459555" lon="11.644823887970999"><ele>10.0</ele><time>2026-04-12T16:50:20Z</time></trkpt><trkpt lat="44.65804381251378" lon="11.644699425105179"><ele>10.0</ele><time>2026-04-12T16:50:21Z</time></trkpt><trkpt lat="44.65811790057671" lon="11.64459788263124"><ele>10.0</ele><time>2026-04-12T16:50:22Z</time></trkpt><trkpt lat="44.65819197513274" lon="11.644490232852265"><ele>10.0</ele><time>2026-04-12T16:50:23Z</time></trkpt><trkpt lat="44.65827111522392" lon="11.644379831724752"><ele>10.0</ele><time>2026-04-12T16:50:24Z</time></trkpt><trkpt lat="44.65834914789991" lon="11.644270447057327"><ele>10.0</ele><time>2026-04-12T16:50:25Z</time></trkpt><trkpt lat="44.65841666685097" lon="11.64417342925547"><ele>10.0</ele><time>2026-04-12T16:50:26Z</time></trkpt><trkpt lat="44.658478250185475" lon="11.644083064010132"><ele>10.0</ele><time>2026-04-12T16:50:27Z</time></trkpt><trkpt lat="44.65854037265784" lon="11.643997618741542"><ele>10.0</ele><time>2026-04-12T16:50:28Z</time></trkpt><trkpt lat="44.65860026882408" lon="11.643920652223718"><ele>10.0</ele><time>2026-04-12T16:50:29Z</time></trkpt><trkpt lat="44.65864939612866" lon="11.643854950241122"><ele>10.0</ele><time>2026-04-12T16:50:30Z</time></trkpt><trkpt lat="44.658694050593056" lon="11.643788108311758"><ele>10.0</ele><time>2026-04-12T16:50:31Z</time></trkpt><trkpt lat="44.658770939540545" lon="11.643685294645826"><ele>10.0</ele><time>2026-04-12T16:50:33Z</time></trkpt><trkpt lat="44.65884242050133" lon="11.643598529929035"><ele>10.0</ele><time>2026-04-12T16:50:35Z</time></trkpt><trkpt lat="44.65889479558684" lon="11.643518454099402"><ele>10.0</ele><time>2026-04-12T16:50:37Z</time></trkpt><trkpt lat="44.65895675829537" lon="11.643431742704028"><ele>10.0</ele><time>2026-04-12T16:50:40Z</time></trkpt><trkpt lat="44.65904167176539" lon="11.643437286719196"><ele>10.0</ele><time>2026-04-12T16:50:43Z</time></trkpt><trkpt lat="44.659117525500264" lon="11.643569373707633"><ele>10.0</ele><time>2026-04-12T16:50:45Z</time></trkpt><trkpt lat="44.659164118434106" lon="11.643645910002249"><ele>10.0</ele><time>2026-04-12T16:50:46Z</time></trkpt><trkpt lat="44.65922351259838" lon="11.643734104919881"><ele>10.0</ele><time>2026-04-12T16:50:47Z</time></trkpt><trkpt lat="44.659296114772886" lon="11.643843346267483"><ele>10.0</ele><time>2026-04-12T16:50:48Z</time></trkpt><trkpt lat="44.659373476574835" lon="11.643954221725298"><ele>10.0</ele><time>2026-04-12T16:50:49Z</time></trkpt><trkpt lat="44.65944025271147" lon="11.644054712121077"><ele>10.0</ele><time>2026-04-12T16:50:50Z</time></trkpt><trkpt lat="44.65949513483773" lon="11.644137085162434"><ele>10.0</ele><time>2026-04-12T16:50:51Z</time></trkpt><trkpt lat="44.659540336183134" lon="11.644207678955608"><ele>10.0</ele><time>2026-04-12T16:50:52Z</time></trkpt><trkpt lat="44.65963799373826" lon="11.644291694302035"><ele>10.0</ele><time>2026-04-12T16:50:54Z</time></trkpt><trkpt lat="44.6597159284088" lon="11.644298039170685"><ele>10.0</ele><time>2026-04-12T16:50:55Z</time></trkpt><trkpt lat="44.65981352008735" lon="11.64426930284299"><ele>10.333333333333334</ele><time>2026-04-12T16:50:56Z</time></trkpt><trkpt lat="44.65989979146543" lon="11.644222052602643"><ele>10.666666666666668</ele><time>2026-04-12T16:50:57Z</time></trkpt><trkpt lat="44.6599751709173" lon="11.644182338292143"><ele>11.0</ele><time>2026-04-12T16:50:58Z</time></trkpt><trkpt lat="44.66004725591591" lon="11.644169811407028"><ele>11.333333333333334</ele><time>2026-04-12T16:50:59Z</time></trkpt><trkpt lat="44.66011957123641" lon="11.64417982942264"><ele>11.666666666666666</ele><time>2026-04-12T16:51:00Z</time></trkpt><trkpt lat="44.66019099436482" lon="11.644212159661658"><ele>12.0</ele><time>2026-04-12T16:51:01Z</time></trkpt><trkpt lat="44.66025304860823" lon="11.644243743695757"><ele>11.666666666666666</ele><time>2026-04-12T16:51:02Z</time></trkpt><trkpt lat="44.66036080827668" lon="11.644295897734967"><ele>11.333333333333334</ele><time>2026-04-12T16:51:04Z</time></trkpt><trkpt lat="44.66040502067103" lon="11.644361629792323"><ele>11.0</ele><time>2026-04-12T16:51:06Z</time></trkpt><trkpt lat="44.66047132227517" lon="11.644397239070393"><ele>10.666666666666668</ele><time>2026-04-12T16:51:09Z</time></trkpt><trkpt lat="44.660531800120786" lon="11.644436353256376"><ele>10.333333333333334</ele><time>2026-04-12T16:51:13Z</time></trkpt><trkpt lat="44.66060093810127" lon="11.644463324595842"><ele>10.0</ele><time>2026-04-12T16:51:43Z</time></trkpt><trkpt lat="44.66070262706852" lon="11.644512857938574"><ele>9.8</ele><time>2026-04-12T16:51:46Z</time></trkpt><trkpt lat="44.660825749694204" lon="11.644598178716796"><ele>9.6</ele><time>2026-04-12T16:51:48Z</time></trkpt><trkpt lat="44.66089815581788" lon="11.644646484258992"><ele>9.4</ele><time>2026-04-12T16:51:49Z</time></trkpt><trkpt lat="44.66098466081458" lon="11.644695849217703"><ele>9.2</ele><time>2026-04-12T16:51:50Z</time></trkpt><trkpt lat="44.661085325504" lon="11.644760789748789"><ele>9.0</ele><time>2026-04-12T16:51:51Z</time></trkpt><trkpt lat="44.66119629511232" lon="11.644838279056252"><ele>9.0</ele><time>2026-04-12T16:51:52Z</time></trkpt><trkpt lat="44.66130046198137" lon="11.644906145106145"><ele>9.0</ele><time>2026-04-12T16:51:53Z</time></trkpt><trkpt lat="44.66140212838665" lon="11.644974828827197"><ele>9.0</ele><time>2026-04-12T16:51:54Z</time></trkpt><trkpt lat="44.66150225079347" lon="11.645042153544289"><ele>9.0</ele><time>2026-04-12T16:51:55Z</time></trkpt><trkpt lat="44.661604956261435" lon="11.645112009495927"><ele>9.0</ele><time>2026-04-12T16:51:56Z</time></trkpt><trkpt lat="44.66170952813265" lon="11.645184857641205"><ele>9.0</ele><time>2026-04-12T16:51:57Z</time></trkpt><trkpt lat="44.66181279019063" lon="11.645255648908034"><ele>9.0</ele><time>2026-04-12T16:51:58Z</time></trkpt><trkpt lat="44.66191981669061" lon="11.645325900357044"><ele>9.0</ele><time>2026-04-12T16:51:59Z</time></trkpt><trkpt lat="44.66203040362799" lon="11.645398128014923"><ele>9.0</ele><time>2026-04-12T16:52:00Z</time></trkpt><trkpt lat="44.66213991722841" lon="11.645470246166733"><ele>9.0</ele><time>2026-04-12T16:52:01Z</time></trkpt><trkpt lat="44.66224494959481" lon="11.645544352546557"><ele>9.0</ele><time>2026-04-12T16:52:02Z</time></trkpt><trkpt lat="44.6623552968976" lon="11.64561370762419"><ele>9.0</ele><time>2026-04-12T16:52:03Z</time></trkpt><trkpt lat="44.66245788507336" lon="11.64568129314225"><ele>9.0</ele><time>2026-04-12T16:52:04Z</time></trkpt><trkpt lat="44.662563804080825" lon="11.64575217715381"><ele>9.0</ele><time>2026-04-12T16:52:05Z</time></trkpt><trkpt lat="44.66266839893163" lon="11.6458217683041"><ele>9.0</ele><time>2026-04-12T16:52:06Z</time></trkpt><trkpt lat="44.66277115985335" lon="11.645892100000081"><ele>9.0</ele><time>2026-04-12T16:52:07Z</time></trkpt><trkpt lat="44.66287606061594" lon="11.64595716240067"><ele>9.25</ele><time>2026-04-12T16:52:08Z</time></trkpt><trkpt lat="44.66298433715099" lon="11.64602764682693"><ele>9.5</ele><time>2026-04-12T16:52:09Z</time></trkpt><trkpt lat="44.66309000016364" lon="11.64610742590613"><ele>9.75</ele><time>2026-04-12T16:52:10Z</time></trkpt><trkpt lat="44.6631979125149" lon="11.646180715325048"><ele>10.0</ele><time>2026-04-12T16:52:11Z</time></trkpt><trkpt lat="44.66330265934882" lon="11.646243647707339"><ele>10.0</ele><time>2026-04-12T16:52:12Z</time></trkpt><trkpt lat="44.663405237866854" lon="11.646310828023747"><ele>10.0</ele><time>2026-04-12T16:52:13Z</time></trkpt><trkpt lat="44.66350960732587" lon="11.646385028438367"><ele>10.0</ele><time>2026-04-12T16:52:14Z</time></trkpt><trkpt lat="44.66360952216456" lon="11.64644928710759"><ele>10.0</ele><time>2026-04-12T16:52:15Z</time></trkpt><trkpt lat="44.6637054039879" lon="11.646512902942023"><ele>10.0</ele><time>2026-04-12T16:52:16Z</time></trkpt><trkpt lat="44.66380944818907" lon="11.646579140659572"><ele>9.6</ele><time>2026-04-12T16:52:17Z</time></trkpt><trkpt lat="44.66391076250003" lon="11.646645942975004"><ele>9.2</ele><time>2026-04-12T16:52:18Z</time></trkpt><trkpt lat="44.664012840425514" lon="11.646714626456157"><ele>8.8</ele><time>2026-04-12T16:52:19Z</time></trkpt><trkpt lat="44.66410700727985" lon="11.646775923750763"><ele>8.4</ele><time>2026-04-12T16:52:20Z</time></trkpt><trkpt lat="44.66418904371496" lon="11.646829695359624"><ele>8.0</ele><time>2026-04-12T16:52:21Z</time></trkpt><trkpt lat="44.664262045966304" lon="11.64687724717436"><ele>8.0</ele><time>2026-04-12T16:52:22Z</time></trkpt><trkpt lat="44.664335696504644" lon="11.646924756285623"><ele>8.0</ele><time>2026-04-12T16:52:23Z</time></trkpt><trkpt lat="44.664414673562575" lon="11.646976097670002"><ele>8.0</ele><time>2026-04-12T16:52:24Z</time></trkpt><trkpt lat="44.6645062435403" lon="11.647032012655231"><ele>8.0</ele><time>2026-04-12T16:52:25Z</time></trkpt><trkpt lat="44.66461035042125" lon="11.647099588460142"><ele>8.0</ele><time>2026-04-12T16:52:26Z</time></trkpt><trkpt lat="44.66473195251268" lon="11.647173081669845"><ele>8.25</ele><time>2026-04-12T16:52:27Z</time></trkpt><trkpt lat="44.66485518502305" lon="11.64724199613842"><ele>8.5</ele><time>2026-04-12T16:52:28Z</time></trkpt><trkpt lat="44.66496595868917" lon="11.647319046499932"><ele>8.75</ele><time>2026-04-12T16:52:29Z</time></trkpt><trkpt lat="44.66507574988486" lon="11.647393914324915"><ele>9.0</ele><time>2026-04-12T16:52:30Z</time></trkpt><trkpt lat="44.665189184056594" lon="11.647463658276504"><ele>9.25</ele><time>2026-04-12T16:52:31Z</time></trkpt><trkpt lat="44.66530109328879" lon="11.647535898762543"><ele>9.5</ele><time>2026-04-12T16:52:32Z</time></trkpt><trkpt lat="44.665414140707774" lon="11.647609180924114"><ele>9.75</ele><time>2026-04-12T16:52:33Z</time></trkpt><trkpt lat="44.665526844130206" lon="11.64768670829782"><ele>10.0</ele><time>2026-04-12T16:52:34Z</time></trkpt><trkpt lat="44.6656356454271" lon="11.64776251583762"><ele>9.75</ele><time>2026-04-12T16:52:35Z</time></trkpt><trkpt lat="44.66574530243853" lon="11.647837782678756"><ele>9.5</ele><time>2026-04-12T16:52:36Z</time></trkpt><trkpt lat="44.66585728937406" lon="11.647915883175228"><ele>9.25</ele><time>2026-04-12T16:52:37Z</time></trkpt><trkpt lat="44.6659648116006" lon="11.647998113845595"><ele>9.0</ele><time>2026-04-12T16:52:38Z</time></trkpt><trkpt lat="44.66607111300043" lon="11.648084722319165"><ele>8.75</ele><time>2026-04-12T16:52:39Z</time></trkpt><trkpt lat="44.666180491352435" lon="11.64816653539609"><ele>8.5</ele><time>2026-04-12T16:52:40Z</time></trkpt><trkpt lat="44.66629003333017" lon="11.648242888939722"><ele>8.25</ele><time>2026-04-12T16:52:41Z</time></trkpt><trkpt lat="44.66639489560284" lon="11.648330422121962"><ele>8.0</ele><time>2026-04-12T16:52:42Z</time></trkpt><trkpt lat="44.666501923300345" lon="11.648415798477268"><ele>8.0</ele><time>2026-04-12T16:52:43Z</time></trkpt><trkpt lat="44.666607266293525" lon="11.648501526480608"><ele>8.0</ele><time>2026-04-12T16:52:44Z</time></trkpt><trkpt lat="44.666713663197875" lon="11.64858747350893"><ele>8.0</ele><time>2026-04-12T16:52:45Z</time></trkpt><trkpt lat="44.666822169992436" lon="11.648671710953366"><ele>8.0</ele><time>2026-04-12T16:52:46Z</time></trkpt><trkpt lat="44.666929869794686" lon="11.648752874481426"><ele>7.75</ele><time>2026-04-12T16:52:47Z</time></trkpt><trkpt lat="44.667037027845396" lon="11.64884304192269"><ele>7.5</ele><time>2026-04-12T16:52:48Z</time></trkpt><trkpt lat="44.66714775224002" lon="11.648929195014777"><ele>7.25</ele><time>2026-04-12T16:52:49Z</time></trkpt><trkpt lat="44.66725462486059" lon="11.64901377728073"><ele>7.0</ele><time>2026-04-12T16:52:50Z</time></trkpt><trkpt lat="44.6673644751674" lon="11.649094674697228"><ele>7.0</ele><time>2026-04-12T16:52:51Z</time></trkpt><trkpt lat="44.66747482203451" lon="11.649177421760813"><ele>7.0</ele><time>2026-04-12T16:52:52Z</time></trkpt><trkpt lat="44.667583446484166" lon="11.649266709693563"><ele>7.0</ele><time>2026-04-12T16:52:53Z</time></trkpt><trkpt lat="44.66769232470247" lon="11.649357760560614"><ele>7.0</ele><time>2026-04-12T16:52:54Z</time></trkpt><trkpt lat="44.66780122467326" lon="11.649445219611694"><ele>7.5</ele><time>2026-04-12T16:52:55Z</time></trkpt><trkpt lat="44.667914982822005" lon="11.649538451788802"><ele>8.0</ele><time>2026-04-12T16:52:56Z</time></trkpt><trkpt lat="44.66802822002266" lon="11.649635085978545"><ele>8.5</ele><time>2026-04-12T16:52:57Z</time></trkpt><trkpt lat="44.668140343067165" lon="11.649727552803268"><ele>9.0</ele><time>2026-04-12T16:52:58Z</time></trkpt><trkpt lat="44.66825346869679" lon="11.649820598052482"><ele>9.0</ele><time>2026-04-12T16:52:59Z</time></trkpt><trkpt lat="44.66836784841072" lon="11.649919959353467"><ele>9.0</ele><time>2026-04-12T16:53:00Z</time></trkpt><trkpt lat="44.66859121422593" lon="11.650119470619622"><ele>9.0</ele><time>2026-04-12T16:53:02Z</time></trkpt><trkpt lat="44.66870091791432" lon="11.650214509868974"><ele>8.75</ele><time>2026-04-12T16:53:03Z</time></trkpt><trkpt lat="44.66880812501018" lon="11.650309890975853"><ele>8.5</ele><time>2026-04-12T16:53:04Z</time></trkpt><trkpt lat="44.668917978675005" lon="11.650415449077197"><ele>8.25</ele><time>2026-04-12T16:53:05Z</time></trkpt><trkpt lat="44.669026208596755" lon="11.650516508076644"><ele>8.0</ele><time>2026-04-12T16:53:06Z</time></trkpt><trkpt lat="44.66913660924146" lon="11.650621268360993"><ele>8.0</ele><time>2026-04-12T16:53:07Z</time></trkpt><trkpt lat="44.66924690466803" lon="11.650719233377231"><ele>8.0</ele><time>2026-04-12T16:53:08Z</time></trkpt><trkpt lat="44.66935557554702" lon="11.650819658780284"><ele>8.0</ele><time>2026-04-12T16:53:09Z</time></trkpt><trkpt lat="44.66946427713892" lon="11.65091979053744"><ele>8.0</ele><time>2026-04-12T16:53:10Z</time></trkpt><trkpt lat="44.669572272284086" lon="11.651017870503575"><ele>8.0</ele><time>2026-04-12T16:53:11Z</time></trkpt><trkpt lat="44.669677620751955" lon="11.651112142593275"><ele>8.0</ele><time>2026-04-12T16:53:12Z</time></trkpt><trkpt lat="44.66977756205509" lon="11.651203061738233"><ele>8.0</ele><time>2026-04-12T16:53:13Z</time></trkpt><trkpt lat="44.66988536124916" lon="11.651296511122977"><ele>8.0</ele><time>2026-04-12T16:53:14Z</time></trkpt><trkpt lat="44.66999677177501" lon="11.651399374405306"><ele>8.0</ele><time>2026-04-12T16:53:15Z</time></trkpt><trkpt lat="44.670107590655896" lon="11.65151024458221"><ele>8.0</ele><time>2026-04-12T16:53:16Z</time></trkpt><trkpt lat="44.67022078789535" lon="11.6516204074296"><ele>8.0</ele><time>2026-04-12T16:53:17Z</time></trkpt><trkpt lat="44.67033425038538" lon="11.651731538219337"><ele>8.0</ele><time>2026-04-12T16:53:18Z</time></trkpt><trkpt lat="44.670451810189576" lon="11.651844669308002"><ele>8.0</ele><time>2026-04-12T16:53:19Z</time></trkpt><trkpt lat="44.67056444067976" lon="11.651963329858196"><ele>8.0</ele><time>2026-04-12T16:53:20Z</time></trkpt><trkpt lat="44.670682206356624" lon="11.652082259271882"><ele>8.0</ele><time>2026-04-12T16:53:21Z</time></trkpt><trkpt lat="44.67080323654661" lon="11.652202367628645"><ele>8.0</ele><time>2026-04-12T16:53:22Z</time></trkpt><trkpt lat="44.67091534763257" lon="11.65231207047876"><ele>8.0</ele><time>2026-04-12T16:53:23Z</time></trkpt><trkpt lat="44.67102047587208" lon="11.652419731034325"><ele>8.0</ele><time>2026-04-12T16:53:24Z</time></trkpt><trkpt lat="44.67110700555574" lon="11.652513469153703"><ele>8.0</ele><time>2026-04-12T16:53:25Z</time></trkpt><trkpt lat="44.671192236713736" lon="11.652599390942035"><ele>8.0</ele><time>2026-04-12T16:53:26Z</time></trkpt><trkpt lat="44.67127216620092" lon="11.652680217697139"><ele>8.0</ele><time>2026-04-12T16:53:27Z</time></trkpt><trkpt lat="44.67134429989721" lon="11.652753090546955"><ele>8.0</ele><time>2026-04-12T16:53:28Z</time></trkpt><trkpt lat="44.67140944600266" lon="11.652823802331598"><ele>8.0</ele><time>2026-04-12T16:53:29Z</time></trkpt><trkpt lat="44.67146703142644" lon="11.652890793801397"><ele>8.0</ele><time>2026-04-12T16:53:30Z</time></trkpt><trkpt lat="44.671512788666526" lon="11.652956711394387"><ele>8.0</ele><time>2026-04-12T16:53:31Z</time></trkpt><trkpt lat="44.671584402633854" lon="11.653045166007269"><ele>8.0</ele><time>2026-04-12T16:53:33Z</time></trkpt><trkpt lat="44.671744598850616" lon="11.65294075146778"><ele>8.0</ele><time>2026-04-12T16:53:36Z</time></trkpt><trkpt lat="44.67182069107794" lon="11.652866642888473"><ele>8.0</ele><time>2026-04-12T16:53:37Z</time></trkpt><trkpt lat="44.67188565445941" lon="11.652796711865651"><ele>8.0</ele><time>2026-04-12T16:53:38Z</time></trkpt><trkpt lat="44.67197386881348" lon="11.65272702666928"><ele>8.0</ele><time>2026-04-12T16:53:40Z</time></trkpt><trkpt lat="44.672065077584584" lon="11.652633133314179"><ele>8.0</ele><time>2026-04-12T16:53:42Z</time></trkpt><trkpt lat="44.67215792912962" lon="11.652545312205657"><ele>7.833333333333333</ele><time>2026-04-12T16:53:44Z</time></trkpt><trkpt lat="44.67221016790855" lon="11.652488706202957"><ele>7.666666666666666</ele><time>2026-04-12T16:53:45Z</time></trkpt><trkpt lat="44.67226722992632" lon="11.652435062216885"><ele>7.5</ele><time>2026-04-12T16:53:46Z</time></trkpt><trkpt lat="44.67235940003896" lon="11.652362656407089"><ele>7.333333333333334</ele><time>2026-04-12T16:53:48Z</time></trkpt><trkpt lat="44.67242993113235" lon="11.65229746683701"><ele>7.166666666666667</ele><time>2026-04-12T16:53:50Z</time></trkpt><trkpt lat="44.67249454226138" lon="11.652237748936138"><ele>7.0</ele><time>2026-04-12T16:53:52Z</time></trkpt><trkpt lat="44.67255730794385" lon="11.652179736731245"><ele>7.0</ele><time>2026-04-12T16:53:55Z</time></trkpt><trkpt lat="44.67263542113117" lon="11.652143855469308"><ele>6.999999999999999</ele><time>2026-04-12T16:55:00Z</time></trkpt><trkpt lat="44.67272735604308" lon="11.652320037628957"><ele>6.999999999999999</ele><time>2026-04-12T16:55:03Z</time></trkpt><trkpt lat="44.67277147126719" lon="11.652420343552986"><ele>7.0</ele><time>2026-04-12T16:55:06Z</time></trkpt><trkpt lat="44.67274155652365" lon="11.652521606571467"><ele>7.0</ele><time>2026-04-12T16:55:10Z</time></trkpt><trkpt lat="44.6726806056439" lon="11.652555034965882"><ele>7.0</ele><time>2026-04-12T16:55:13Z</time></trkpt><trkpt lat="44.67263266563449" lon="11.652373127309106"><ele>7.0</ele><time>2026-04-12T16:57:25Z</time></trkpt><trkpt lat="44.67268327417935" lon="11.65252678799184"><ele>7.0</ele><time>2026-04-12T16:57:29Z</time></trkpt></trkseg></trk></gpx>